<?xml version='1.0' encoding='UTF-8'?><gpx version="1.1" creator="JPX - https://github.com/jenetics/jpx" xmlns="http://www.topografix.com/GPX/1/1"><trk><trkseg><trkpt lat="43.6548345" lon="11.1831715"><ele>293.0</ele><time>2026-04-11T06:40:39.114Z</time></trkpt><trkpt lat="43.6547732" lon="11.183139"><ele>293.0</ele><time>2026-04-11T06:42:52.024Z</time></trkpt><trkpt lat="43.6546963" lon="11.1830878"><ele>293.0</ele><time>2026-04-11T06:45:02.113Z</time></trkpt><trkpt lat="43.6546141" lon="11.1830722"><ele>293.0</ele><time>2026-04-11T06:45:04.113Z</time></trkpt><trkpt lat="43.6545295" lon="11.1830512"><ele>293.0</ele><time>2026-04-11T06:45:06.113Z</time></trkpt><trkpt lat="43.6544476" lon="11.1830436"><ele>293.0</ele><time>2026-04-11T06:45:08.112Z</time></trkpt><trkpt lat="43.6543616" lon="11.1830453"><ele>294.0</ele><time>2026-04-11T06:45:10.114Z</time></trkpt><trkpt lat="43.6543093" lon="11.1831314"><ele>295.0</ele><time>2026-04-11T06:45:12.112Z</time></trkpt><trkpt lat="43.6542845" lon="11.1832542"><ele>296.0</ele><time>2026-04-11T06:45:14.113Z</time></trkpt><trkpt lat="43.6542455" lon="11.1833468"><ele>297.0</ele><time>2026-04-11T06:45:16.113Z</time></trkpt><trkpt lat="43.6541833" lon="11.1833925"><ele>298.0</ele><time>2026-04-11T06:45:18.113Z</time></trkpt><trkpt lat="43.6541569" lon="11.1835011"><ele>299.0</ele><time>2026-04-11T06:45:21.113Z</time></trkpt><trkpt lat="43.654212" lon="11.1835568"><ele>299.6666666666667</ele><time>2026-04-11T06:45:23.113Z</time></trkpt><trkpt lat="43.6541989" lon="11.1836582"><ele>300.33333333333337</ele><time>2026-04-11T06:45:26.112Z</time></trkpt><trkpt lat="43.6541035" lon="11.1836328"><ele>301.0</ele><time>2026-04-11T06:45:28.113Z</time></trkpt><trkpt lat="43.6539876" lon="11.1836079"><ele>301.6666666666667</ele><time>2026-04-11T06:45:30.113Z</time></trkpt><trkpt lat="43.6539197" lon="11.1835911"><ele>302.3333333333333</ele><time>2026-04-11T06:45:31.113Z</time></trkpt><trkpt lat="43.6538495" lon="11.1835799"><ele>303.0</ele><time>2026-04-11T06:45:32.113Z</time></trkpt><trkpt lat="43.6537726" lon="11.1835727"><ele>303.0</ele><time>2026-04-11T06:45:33.113Z</time></trkpt><trkpt lat="43.6536973" lon="11.1835585"><ele>303.0</ele><time>2026-04-11T06:45:34.112Z</time></trkpt><trkpt lat="43.6536142" lon="11.1835428"><ele>303.0</ele><time>2026-04-11T06:45:35.112Z</time></trkpt><trkpt lat="43.6535313" lon="11.1835245"><ele>303.0</ele><time>2026-04-11T06:45:36.112Z</time></trkpt><trkpt lat="43.6534468" lon="11.1835024"><ele>303.0</ele><time>2026-04-11T06:45:37.113Z</time></trkpt><trkpt lat="43.6533596" lon="11.1834767"><ele>303.0</ele><time>2026-04-11T06:45:38.113Z</time></trkpt><trkpt lat="43.6532632" lon="11.1834548"><ele>301.8</ele><time>2026-04-11T06:45:39.113Z</time></trkpt><trkpt lat="43.6531626" lon="11.1834286"><ele>300.6</ele><time>2026-04-11T06:45:40.112Z</time></trkpt><trkpt lat="43.6530664" lon="11.1833986"><ele>299.4</ele><time>2026-04-11T06:45:41.113Z</time></trkpt><trkpt lat="43.6529781" lon="11.1833682"><ele>298.2</ele><time>2026-04-11T06:45:42.112Z</time></trkpt><trkpt lat="43.6528971" lon="11.1833338"><ele>297.0</ele><time>2026-04-11T06:45:43.113Z</time></trkpt><trkpt lat="43.6528253" lon="11.1832949"><ele>295.6666666666667</ele><time>2026-04-11T06:45:44.113Z</time></trkpt><trkpt lat="43.652758" lon="11.1832572"><ele>294.3333333333333</ele><time>2026-04-11T06:45:45.113Z</time></trkpt><trkpt lat="43.6526937" lon="11.1832254"><ele>293.0</ele><time>2026-04-11T06:45:46.113Z</time></trkpt><trkpt lat="43.6526314" lon="11.1831921"><ele>291.66666666666663</ele><time>2026-04-11T06:45:47.113Z</time></trkpt><trkpt lat="43.652571" lon="11.1831547"><ele>290.3333333333333</ele><time>2026-04-11T06:45:48.112Z</time></trkpt><trkpt lat="43.6524626" lon="11.1830825"><ele>289.0</ele><time>2026-04-11T06:45:50.113Z</time></trkpt><trkpt lat="43.6523567" lon="11.1830921"><ele>289.0</ele><time>2026-04-11T06:45:52.112Z</time></trkpt><trkpt lat="43.6522918" lon="11.1831687"><ele>289.0</ele><time>2026-04-11T06:45:54.113Z</time></trkpt><trkpt lat="43.6522704" lon="11.1832961"><ele>289.0</ele><time>2026-04-11T06:45:57.112Z</time></trkpt><trkpt lat="43.6523001" lon="11.1833741"><ele>289.0</ele><time>2026-04-11T06:45:58.113Z</time></trkpt><trkpt lat="43.6523791" lon="11.1835225"><ele>289.0</ele><time>2026-04-11T06:46:00.112Z</time></trkpt><trkpt lat="43.6524283" lon="11.1836176"><ele>289.0</ele><time>2026-04-11T06:46:01.112Z</time></trkpt><trkpt lat="43.6524815" lon="11.1837199"><ele>289.0</ele><time>2026-04-11T06:46:02.112Z</time></trkpt><trkpt lat="43.6525423" lon="11.1838215"><ele>289.0</ele><time>2026-04-11T06:46:03.112Z</time></trkpt><trkpt lat="43.6526111" lon="11.1839373"><ele>289.0</ele><time>2026-04-11T06:46:04.112Z</time></trkpt><trkpt lat="43.6526883" lon="11.1840635"><ele>289.0</ele><time>2026-04-11T06:46:05.111Z</time></trkpt><trkpt lat="43.6527746" lon="11.1841808"><ele>289.75</ele><time>2026-04-11T06:46:06.114Z</time></trkpt><trkpt lat="43.6528681" lon="11.184293"><ele>290.5</ele><time>2026-04-11T06:46:07.113Z</time></trkpt><trkpt lat="43.6529752" lon="11.1843981"><ele>291.25</ele><time>2026-04-11T06:46:08.112Z</time></trkpt><trkpt lat="43.6530897" lon="11.1845015"><ele>292.0</ele><time>2026-04-11T06:46:09.113Z</time></trkpt><trkpt lat="43.6532147" lon="11.1846061"><ele>292.0</ele><time>2026-04-11T06:46:10.113Z</time></trkpt><trkpt lat="43.653346" lon="11.1846937"><ele>292.0</ele><time>2026-04-11T06:46:11.112Z</time></trkpt><trkpt lat="43.6534908" lon="11.1847655"><ele>292.0</ele><time>2026-04-11T06:46:12.113Z</time></trkpt><trkpt lat="43.653644" lon="11.1848246"><ele>287.3333333333333</ele><time>2026-04-11T06:46:13.113Z</time></trkpt><trkpt lat="43.6537995" lon="11.1848687"><ele>282.6666666666667</ele><time>2026-04-11T06:46:14.112Z</time></trkpt><trkpt lat="43.6539561" lon="11.1848947"><ele>278.0</ele><time>2026-04-11T06:46:15.112Z</time></trkpt><trkpt lat="43.6541155" lon="11.1849121"><ele>278.0</ele><time>2026-04-11T06:46:16.113Z</time></trkpt><trkpt lat="43.6542787" lon="11.1849104"><ele>278.0</ele><time>2026-04-11T06:46:17.112Z</time></trkpt><trkpt lat="43.6544345" lon="11.1849043"><ele>278.0</ele><time>2026-04-11T06:46:18.113Z</time></trkpt><trkpt lat="43.6545877" lon="11.1848999"><ele>279.75</ele><time>2026-04-11T06:46:19.113Z</time></trkpt><trkpt lat="43.6547359" lon="11.1849006"><ele>281.5</ele><time>2026-04-11T06:46:20.113Z</time></trkpt><trkpt lat="43.6548872" lon="11.1848958"><ele>283.25</ele><time>2026-04-11T06:46:21.114Z</time></trkpt><trkpt lat="43.65503" lon="11.1849107"><ele>285.0</ele><time>2026-04-11T06:46:22.113Z</time></trkpt><trkpt lat="43.6551601" lon="11.1849634"><ele>285.0</ele><time>2026-04-11T06:46:23.112Z</time></trkpt><trkpt lat="43.6552699" lon="11.1850612"><ele>285.0</ele><time>2026-04-11T06:46:24.113Z</time></trkpt><trkpt lat="43.6553696" lon="11.1851925"><ele>285.0</ele><time>2026-04-11T06:46:25.112Z</time></trkpt><trkpt lat="43.6554082" lon="11.1853502"><ele>285.0</ele><time>2026-04-11T06:46:26.113Z</time></trkpt><trkpt lat="43.6554159" lon="11.185521"><ele>285.75</ele><time>2026-04-11T06:46:27.113Z</time></trkpt><trkpt lat="43.6553854" lon="11.1856829"><ele>286.5</ele><time>2026-04-11T06:46:28.111Z</time></trkpt><trkpt lat="43.6553228" lon="11.1858365"><ele>287.25</ele><time>2026-04-11T06:46:29.111Z</time></trkpt><trkpt lat="43.6552467" lon="11.1859854"><ele>288.0</ele><time>2026-04-11T06:46:30.112Z</time></trkpt><trkpt lat="43.6551691" lon="11.1861359"><ele>288.0</ele><time>2026-04-11T06:46:31.113Z</time></trkpt><trkpt lat="43.6550943" lon="11.1862859"><ele>288.0</ele><time>2026-04-11T06:46:32.112Z</time></trkpt><trkpt lat="43.6550215" lon="11.1864291"><ele>288.0</ele><time>2026-04-11T06:46:33.111Z</time></trkpt><trkpt lat="43.654966" lon="11.1865432"><ele>288.0</ele><time>2026-04-11T06:46:34.114Z</time></trkpt><trkpt lat="43.6549174" lon="11.1866504"><ele>288.0</ele><time>2026-04-11T06:46:35.112Z</time></trkpt><trkpt lat="43.6548724" lon="11.1867567"><ele>289.8333333333333</ele><time>2026-04-11T06:46:36.112Z</time></trkpt><trkpt lat="43.6548519" lon="11.1868678"><ele>291.6666666666667</ele><time>2026-04-11T06:46:37.112Z</time></trkpt><trkpt lat="43.6548512" lon="11.1869575"><ele>293.5</ele><time>2026-04-11T06:46:38.112Z</time></trkpt><trkpt lat="43.6549059" lon="11.1871217"><ele>295.33333333333337</ele><time>2026-04-11T06:46:40.113Z</time></trkpt><trkpt lat="43.6549665" lon="11.1871908"><ele>297.1666666666667</ele><time>2026-04-11T06:46:41.113Z</time></trkpt><trkpt lat="43.6550461" lon="11.1872425"><ele>299.0</ele><time>2026-04-11T06:46:42.113Z</time></trkpt><trkpt lat="43.6551359" lon="11.1873002"><ele>299.6666666666667</ele><time>2026-04-11T06:46:43.113Z</time></trkpt><trkpt lat="43.6552329" lon="11.1873515"><ele>300.33333333333337</ele><time>2026-04-11T06:46:44.113Z</time></trkpt><trkpt lat="43.6553213" lon="11.1873949"><ele>301.0</ele><time>2026-04-11T06:46:45.113Z</time></trkpt><trkpt lat="43.6553998" lon="11.1874372"><ele>301.6666666666667</ele><time>2026-04-11T06:46:46.114Z</time></trkpt><trkpt lat="43.6554647" lon="11.187497"><ele>302.3333333333333</ele><time>2026-04-11T06:46:47.113Z</time></trkpt><trkpt lat="43.655519" lon="11.1875411"><ele>303.0</ele><time>2026-04-11T06:46:48.113Z</time></trkpt><trkpt lat="43.6556302" lon="11.1876277"><ele>303.0</ele><time>2026-04-11T06:46:50.112Z</time></trkpt><trkpt lat="43.6557118" lon="11.1876009"><ele>303.0</ele><time>2026-04-11T06:46:51.112Z</time></trkpt><trkpt lat="43.6557993" lon="11.1875534"><ele>303.0</ele><time>2026-04-11T06:46:52.112Z</time></trkpt><trkpt lat="43.6558902" lon="11.1875131"><ele>303.0</ele><time>2026-04-11T06:46:53.113Z</time></trkpt><trkpt lat="43.6559916" lon="11.1874865"><ele>303.0</ele><time>2026-04-11T06:46:54.112Z</time></trkpt><trkpt lat="43.6560995" lon="11.1874922"><ele>303.75</ele><time>2026-04-11T06:46:55.113Z</time></trkpt><trkpt lat="43.6562181" lon="11.1875258"><ele>304.5</ele><time>2026-04-11T06:46:56.113Z</time></trkpt><trkpt lat="43.656341" lon="11.1875571"><ele>305.25</ele><time>2026-04-11T06:46:57.112Z</time></trkpt><trkpt lat="43.6564549" lon="11.1875939"><ele>306.0</ele><time>2026-04-11T06:46:58.113Z</time></trkpt><trkpt lat="43.6565612" lon="11.1876339"><ele>306.0</ele><time>2026-04-11T06:46:59.112Z</time></trkpt><trkpt lat="43.6566505" lon="11.1876804"><ele>306.0</ele><time>2026-04-11T06:47:00.112Z</time></trkpt><trkpt lat="43.6567372" lon="11.1877182"><ele>306.0</ele><time>2026-04-11T06:47:01.113Z</time></trkpt><trkpt lat="43.6568222" lon="11.1877562"><ele>306.0</ele><time>2026-04-11T06:47:02.112Z</time></trkpt><trkpt lat="43.6569004" lon="11.1877988"><ele>306.0</ele><time>2026-04-11T06:47:03.113Z</time></trkpt><trkpt lat="43.6569847" lon="11.1878418"><ele>306.5</ele><time>2026-04-11T06:47:04.113Z</time></trkpt><trkpt lat="43.657074" lon="11.187883"><ele>307.0</ele><time>2026-04-11T06:47:05.112Z</time></trkpt><trkpt lat="43.6571602" lon="11.1879264"><ele>307.5</ele><time>2026-04-11T06:47:06.114Z</time></trkpt><trkpt lat="43.6572338" lon="11.187957"><ele>308.0</ele><time>2026-04-11T06:47:07.113Z</time></trkpt><trkpt lat="43.657305" lon="11.1879787"><ele>308.5</ele><time>2026-04-11T06:47:08.114Z</time></trkpt><trkpt lat="43.6573983" lon="11.187962"><ele>309.0</ele><time>2026-04-11T06:47:10.113Z</time></trkpt><trkpt lat="43.6573647" lon="11.1878789"><ele>309.0</ele><time>2026-04-11T06:47:14.112Z</time></trkpt><trkpt lat="43.657305" lon="11.1878491"><ele>309.0</ele><time>2026-04-11T06:47:26.113Z</time></trkpt><trkpt lat="43.6572405" lon="11.1878292"><ele>309.0</ele><time>2026-04-11T06:50:56.113Z</time></trkpt><trkpt lat="43.6571884" lon="11.1877607"><ele>309.0</ele><time>2026-04-11T06:55:01.113Z</time></trkpt><trkpt lat="43.6571093" lon="11.1877662"><ele>309.0</ele><time>2026-04-11T06:55:03.113Z</time></trkpt><trkpt lat="43.6570357" lon="11.1877822"><ele>309.0</ele><time>2026-04-11T06:55:05.112Z</time></trkpt><trkpt lat="43.6569134" lon="11.1877469"><ele>308.4</ele><time>2026-04-11T06:55:07.113Z</time></trkpt><trkpt lat="43.6568287" lon="11.187709"><ele>307.79999999999995</ele><time>2026-04-11T06:55:08.113Z</time></trkpt><trkpt lat="43.6567359" lon="11.1876688"><ele>307.20000000000005</ele><time>2026-04-11T06:55:09.113Z</time></trkpt><trkpt lat="43.6566348" lon="11.1876234"><ele>306.6</ele><time>2026-04-11T06:55:10.113Z</time></trkpt><trkpt lat="43.6565268" lon="11.1875809"><ele>306.0</ele><time>2026-04-11T06:55:11.113Z</time></trkpt><trkpt lat="43.6564019" lon="11.1875488"><ele>306.0</ele><time>2026-04-11T06:55:12.112Z</time></trkpt><trkpt lat="43.656285" lon="11.1875116"><ele>306.0</ele><time>2026-04-11T06:55:13.114Z</time></trkpt><trkpt lat="43.6561634" lon="11.1874811"><ele>306.0</ele><time>2026-04-11T06:55:14.113Z</time></trkpt><trkpt lat="43.6560507" lon="11.1874686"><ele>306.0</ele><time>2026-04-11T06:55:15.113Z</time></trkpt><trkpt lat="43.6559468" lon="11.1874675"><ele>305.5</ele><time>2026-04-11T06:55:16.111Z</time></trkpt><trkpt lat="43.6558576" lon="11.1874737"><ele>305.0</ele><time>2026-04-11T06:55:17.113Z</time></trkpt><trkpt lat="43.6557815" lon="11.1874713"><ele>304.5</ele><time>2026-04-11T06:55:18.113Z</time></trkpt><trkpt lat="43.6557102" lon="11.1874659"><ele>304.0</ele><time>2026-04-11T06:55:20.113Z</time></trkpt><trkpt lat="43.6556156" lon="11.1874371"><ele>303.5</ele><time>2026-04-11T06:55:24.112Z</time></trkpt><trkpt lat="43.6555109" lon="11.18741"><ele>303.0</ele><time>2026-04-11T06:55:26.112Z</time></trkpt><trkpt lat="43.6554479" lon="11.1873935"><ele>303.0</ele><time>2026-04-11T06:55:27.113Z</time></trkpt><trkpt lat="43.6553787" lon="11.1873679"><ele>303.0</ele><time>2026-04-11T06:55:28.111Z</time></trkpt><trkpt lat="43.6553084" lon="11.1873234"><ele>303.0</ele><time>2026-04-11T06:55:29.113Z</time></trkpt><trkpt lat="43.6552427" lon="11.1872544"><ele>303.0</ele><time>2026-04-11T06:55:30.113Z</time></trkpt><trkpt lat="43.6551965" lon="11.1871681"><ele>303.0</ele><time>2026-04-11T06:55:31.113Z</time></trkpt><trkpt lat="43.6551709" lon="11.1870713"><ele>303.0</ele><time>2026-04-11T06:55:32.114Z</time></trkpt><trkpt lat="43.6551635" lon="11.1869722"><ele>302.42857142857144</ele><time>2026-04-11T06:55:33.111Z</time></trkpt><trkpt lat="43.6551503" lon="11.1868826"><ele>301.85714285714283</ele><time>2026-04-11T06:55:34.113Z</time></trkpt><trkpt lat="43.6551173" lon="11.1867996"><ele>301.2857142857143</ele><time>2026-04-11T06:55:35.113Z</time></trkpt><trkpt lat="43.6550785" lon="11.1867241"><ele>300.7142857142857</ele><time>2026-04-11T06:55:36.112Z</time></trkpt><trkpt lat="43.6550504" lon="11.1866348"><ele>300.14285714285717</ele><time>2026-04-11T06:55:37.112Z</time></trkpt><trkpt lat="43.6550543" lon="11.1865275"><ele>299.57142857142856</ele><time>2026-04-11T06:55:38.113Z</time></trkpt><trkpt lat="43.6550805" lon="11.1864088"><ele>299.0</ele><time>2026-04-11T06:55:39.112Z</time></trkpt><trkpt lat="43.6551359" lon="11.1862768"><ele>300.5</ele><time>2026-04-11T06:55:40.112Z</time></trkpt><trkpt lat="43.6552082" lon="11.1861444"><ele>302.0</ele><time>2026-04-11T06:55:41.114Z</time></trkpt><trkpt lat="43.6552837" lon="11.1860019"><ele>303.5</ele><time>2026-04-11T06:55:42.112Z</time></trkpt><trkpt lat="43.6553545" lon="11.1858588"><ele>305.0</ele><time>2026-04-11T06:55:43.112Z</time></trkpt><trkpt lat="43.6554188" lon="11.1857168"><ele>303.0</ele><time>2026-04-11T06:55:44.112Z</time></trkpt><trkpt lat="43.6554584" lon="11.1855587"><ele>301.0</ele><time>2026-04-11T06:55:45.112Z</time></trkpt><trkpt lat="43.6554632" lon="11.1853862"><ele>299.0</ele><time>2026-04-11T06:55:46.111Z</time></trkpt><trkpt lat="43.655422" lon="11.1852165"><ele>297.0</ele><time>2026-04-11T06:55:47.111Z</time></trkpt><trkpt lat="43.6553482" lon="11.1850751"><ele>294.0</ele><time>2026-04-11T06:55:48.113Z</time></trkpt><trkpt lat="43.6552437" lon="11.1849645"><ele>291.0</ele><time>2026-04-11T06:55:49.114Z</time></trkpt><trkpt lat="43.6551171" lon="11.1848976"><ele>288.0</ele><time>2026-04-11T06:55:50.112Z</time></trkpt><trkpt lat="43.6549752" lon="11.1848647"><ele>285.0</ele><time>2026-04-11T06:55:51.114Z</time></trkpt><trkpt lat="43.6548251" lon="11.1848634"><ele>285.0</ele><time>2026-04-11T06:55:52.113Z</time></trkpt><trkpt lat="43.6546729" lon="11.1848664"><ele>285.0</ele><time>2026-04-11T06:55:53.113Z</time></trkpt><trkpt lat="43.6545174" lon="11.1848623"><ele>285.0</ele><time>2026-04-11T06:55:54.112Z</time></trkpt><trkpt lat="43.6543585" lon="11.1848618"><ele>282.6666666666667</ele><time>2026-04-11T06:55:55.113Z</time></trkpt><trkpt lat="43.6541931" lon="11.18486"><ele>280.33333333333337</ele><time>2026-04-11T06:55:56.113Z</time></trkpt><trkpt lat="43.654025" lon="11.1848544"><ele>278.0</ele><time>2026-04-11T06:55:57.112Z</time></trkpt><trkpt lat="43.6538601" lon="11.1848289"><ele>282.6666666666667</ele><time>2026-04-11T06:55:58.112Z</time></trkpt><trkpt lat="43.6536919" lon="11.1847803"><ele>287.3333333333333</ele><time>2026-04-11T06:55:59.114Z</time></trkpt><trkpt lat="43.6535264" lon="11.1847238"><ele>292.0</ele><time>2026-04-11T06:56:00.112Z</time></trkpt><trkpt lat="43.6533687" lon="11.1846434"><ele>292.0</ele><time>2026-04-11T06:56:01.111Z</time></trkpt><trkpt lat="43.6532148" lon="11.1845422"><ele>292.0</ele><time>2026-04-11T06:56:02.113Z</time></trkpt><trkpt lat="43.6530676" lon="11.1844204"><ele>292.0</ele><time>2026-04-11T06:56:03.112Z</time></trkpt><trkpt lat="43.6529283" lon="11.1842934"><ele>292.0</ele><time>2026-04-11T06:56:04.112Z</time></trkpt><trkpt lat="43.6527973" lon="11.1841434"><ele>292.0</ele><time>2026-04-11T06:56:05.112Z</time></trkpt><trkpt lat="43.6526782" lon="11.1839788"><ele>292.0</ele><time>2026-04-11T06:56:06.113Z</time></trkpt><trkpt lat="43.6525709" lon="11.1838034"><ele>291.25</ele><time>2026-04-11T06:56:07.113Z</time></trkpt><trkpt lat="43.6524782" lon="11.183628"><ele>290.5</ele><time>2026-04-11T06:56:08.114Z</time></trkpt><trkpt lat="43.6523939" lon="11.1834703"><ele>289.75</ele><time>2026-04-11T06:56:09.112Z</time></trkpt><trkpt lat="43.6523198" lon="11.1833153"><ele>289.0</ele><time>2026-04-11T06:56:10.113Z</time></trkpt><trkpt lat="43.652245" lon="11.1831542"><ele>288.5</ele><time>2026-04-11T06:56:11.113Z</time></trkpt><trkpt lat="43.6521691" lon="11.1829959"><ele>288.0</ele><time>2026-04-11T06:56:12.111Z</time></trkpt><trkpt lat="43.6520808" lon="11.1828272"><ele>287.5</ele><time>2026-04-11T06:56:13.113Z</time></trkpt><trkpt lat="43.6519863" lon="11.182651"><ele>287.0</ele><time>2026-04-11T06:56:14.113Z</time></trkpt><trkpt lat="43.6518825" lon="11.1824653"><ele>283.33333333333337</ele><time>2026-04-11T06:56:15.113Z</time></trkpt><trkpt lat="43.651775" lon="11.1822909"><ele>279.6666666666667</ele><time>2026-04-11T06:56:16.113Z</time></trkpt><trkpt lat="43.6516649" lon="11.1821316"><ele>276.0</ele><time>2026-04-11T06:56:17.113Z</time></trkpt><trkpt lat="43.6515513" lon="11.181976"><ele>276.0</ele><time>2026-04-11T06:56:18.112Z</time></trkpt><trkpt lat="43.6514468" lon="11.1818349"><ele>276.0</ele><time>2026-04-11T06:56:19.111Z</time></trkpt><trkpt lat="43.6513379" lon="11.1817008"><ele>276.0</ele><time>2026-04-11T06:56:20.113Z</time></trkpt><trkpt lat="43.6512319" lon="11.1815773"><ele>276.0</ele><time>2026-04-11T06:56:21.113Z</time></trkpt><trkpt lat="43.651127" lon="11.181454"><ele>273.5</ele><time>2026-04-11T06:56:22.113Z</time></trkpt><trkpt lat="43.651026" lon="11.1813418"><ele>271.0</ele><time>2026-04-11T06:56:23.112Z</time></trkpt><trkpt lat="43.6509229" lon="11.1812294"><ele>268.5</ele><time>2026-04-11T06:56:24.113Z</time></trkpt><trkpt lat="43.6508206" lon="11.1811242"><ele>266.0</ele><time>2026-04-11T06:56:25.112Z</time></trkpt><trkpt lat="43.6507192" lon="11.181026"><ele>266.0</ele><time>2026-04-11T06:56:26.113Z</time></trkpt><trkpt lat="43.6506156" lon="11.1809303"><ele>266.0</ele><time>2026-04-11T06:56:27.112Z</time></trkpt><trkpt lat="43.6505032" lon="11.1808352"><ele>266.0</ele><time>2026-04-11T06:56:28.111Z</time></trkpt><trkpt lat="43.6503835" lon="11.1807357"><ele>266.0</ele><time>2026-04-11T06:56:29.113Z</time></trkpt><trkpt lat="43.6502595" lon="11.1806317"><ele>263.0</ele><time>2026-04-11T06:56:30.112Z</time></trkpt><trkpt lat="43.6501391" lon="11.1805297"><ele>260.0</ele><time>2026-04-11T06:56:31.112Z</time></trkpt><trkpt lat="43.6500205" lon="11.1804313"><ele>257.0</ele><time>2026-04-11T06:56:32.113Z</time></trkpt><trkpt lat="43.6499048" lon="11.1803319"><ele>254.0</ele><time>2026-04-11T06:56:33.112Z</time></trkpt><trkpt lat="43.6497905" lon="11.180233"><ele>254.0</ele><time>2026-04-11T06:56:34.113Z</time></trkpt><trkpt lat="43.6496836" lon="11.1801413"><ele>254.0</ele><time>2026-04-11T06:56:35.112Z</time></trkpt><trkpt lat="43.6495837" lon="11.180057"><ele>254.0</ele><time>2026-04-11T06:56:36.113Z</time></trkpt><trkpt lat="43.6494893" lon="11.1799799"><ele>254.0</ele><time>2026-04-11T06:56:37.112Z</time></trkpt><trkpt lat="43.6494047" lon="11.1799077"><ele>251.39999999999998</ele><time>2026-04-11T06:56:38.113Z</time></trkpt><trkpt lat="43.6493229" lon="11.1798387"><ele>248.79999999999998</ele><time>2026-04-11T06:56:39.113Z</time></trkpt><trkpt lat="43.6492404" lon="11.1797716"><ele>246.20000000000002</ele><time>2026-04-11T06:56:40.112Z</time></trkpt><trkpt lat="43.6491582" lon="11.1797097"><ele>243.60000000000002</ele><time>2026-04-11T06:56:41.113Z</time></trkpt><trkpt lat="43.649075" lon="11.1796521"><ele>241.0</ele><time>2026-04-11T06:56:42.114Z</time></trkpt><trkpt lat="43.6489837" lon="11.1796046"><ele>241.0</ele><time>2026-04-11T06:56:43.112Z</time></trkpt><trkpt lat="43.6488871" lon="11.1795608"><ele>241.00000000000003</ele><time>2026-04-11T06:56:44.113Z</time></trkpt><trkpt lat="43.6487827" lon="11.1795058"><ele>241.00000000000003</ele><time>2026-04-11T06:56:45.111Z</time></trkpt><trkpt lat="43.6486735" lon="11.1794543"><ele>241.0</ele><time>2026-04-11T06:56:46.112Z</time></trkpt><trkpt lat="43.6485692" lon="11.1793923"><ele>241.0</ele><time>2026-04-11T06:56:47.112Z</time></trkpt><trkpt lat="43.6484627" lon="11.1793412"><ele>238.25</ele><time>2026-04-11T06:56:48.113Z</time></trkpt><trkpt lat="43.648363" lon="11.1792872"><ele>235.5</ele><time>2026-04-11T06:56:49.112Z</time></trkpt><trkpt lat="43.6482602" lon="11.1792255"><ele>232.75</ele><time>2026-04-11T06:56:50.112Z</time></trkpt><trkpt lat="43.6481603" lon="11.1791635"><ele>230.0</ele><time>2026-04-11T06:56:51.113Z</time></trkpt><trkpt lat="43.6480487" lon="11.1790948"><ele>229.5</ele><time>2026-04-11T06:56:52.112Z</time></trkpt><trkpt lat="43.6479348" lon="11.1790162"><ele>229.0</ele><time>2026-04-11T06:56:53.112Z</time></trkpt><trkpt lat="43.647811" lon="11.1789114"><ele>228.5</ele><time>2026-04-11T06:56:54.114Z</time></trkpt><trkpt lat="43.6476902" lon="11.1787914"><ele>228.0</ele><time>2026-04-11T06:56:55.113Z</time></trkpt><trkpt lat="43.6475748" lon="11.1786694"><ele>226.66666666666669</ele><time>2026-04-11T06:56:56.113Z</time></trkpt><trkpt lat="43.6474526" lon="11.1785515"><ele>225.33333333333334</ele><time>2026-04-11T06:56:57.114Z</time></trkpt><trkpt lat="43.6473257" lon="11.1784251"><ele>224.0</ele><time>2026-04-11T06:56:58.112Z</time></trkpt><trkpt lat="43.6471937" lon="11.1782924"><ele>223.0</ele><time>2026-04-11T06:56:59.111Z</time></trkpt><trkpt lat="43.6470498" lon="11.178157"><ele>222.0</ele><time>2026-04-11T06:57:00.112Z</time></trkpt><trkpt lat="43.6468846" lon="11.1780405"><ele>221.0</ele><time>2026-04-11T06:57:01.113Z</time></trkpt><trkpt lat="43.6467149" lon="11.1779575"><ele>218.66666666666669</ele><time>2026-04-11T06:57:02.112Z</time></trkpt><trkpt lat="43.6465417" lon="11.1778644"><ele>216.33333333333331</ele><time>2026-04-11T06:57:03.114Z</time></trkpt><trkpt lat="43.6463832" lon="11.1777497"><ele>214.0</ele><time>2026-04-11T06:57:04.113Z</time></trkpt><trkpt lat="43.6462344" lon="11.1775931"><ele>211.33333333333331</ele><time>2026-04-11T06:57:05.113Z</time></trkpt><trkpt lat="43.6460926" lon="11.1774111"><ele>208.66666666666669</ele><time>2026-04-11T06:57:06.112Z</time></trkpt><trkpt lat="43.6459604" lon="11.1772008"><ele>206.0</ele><time>2026-04-11T06:57:07.112Z</time></trkpt><trkpt lat="43.6458521" lon="11.1769827"><ele>206.0</ele><time>2026-04-11T06:57:08.112Z</time></trkpt><trkpt lat="43.6457418" lon="11.1767765"><ele>206.0</ele><time>2026-04-11T06:57:09.112Z</time></trkpt><trkpt lat="43.6456225" lon="11.1765822"><ele>206.0</ele><time>2026-04-11T06:57:10.111Z</time></trkpt><trkpt lat="43.645494" lon="11.1764194"><ele>203.66666666666669</ele><time>2026-04-11T06:57:11.112Z</time></trkpt><trkpt lat="43.6453362" lon="11.1762823"><ele>201.33333333333331</ele><time>2026-04-11T06:57:12.114Z</time></trkpt><trkpt lat="43.6451524" lon="11.1761809"><ele>199.0</ele><time>2026-04-11T06:57:13.113Z</time></trkpt><trkpt lat="43.6449656" lon="11.1761059"><ele>197.33333333333331</ele><time>2026-04-11T06:57:14.112Z</time></trkpt><trkpt lat="43.6447862" lon="11.1760267"><ele>195.66666666666669</ele><time>2026-04-11T06:57:15.112Z</time></trkpt><trkpt lat="43.6446219" lon="11.1759292"><ele>194.0</ele><time>2026-04-11T06:57:16.113Z</time></trkpt><trkpt lat="43.6444806" lon="11.1757997"><ele>190.33333333333334</ele><time>2026-04-11T06:57:17.111Z</time></trkpt><trkpt lat="43.6443587" lon="11.1756501"><ele>186.66666666666669</ele><time>2026-04-11T06:57:18.112Z</time></trkpt><trkpt lat="43.6442509" lon="11.1754843"><ele>183.0</ele><time>2026-04-11T06:57:19.113Z</time></trkpt><trkpt lat="43.6441547" lon="11.1753085"><ele>183.0</ele><time>2026-04-11T06:57:20.111Z</time></trkpt><trkpt lat="43.6440734" lon="11.1751237"><ele>183.0</ele><time>2026-04-11T06:57:21.113Z</time></trkpt><trkpt lat="43.6439923" lon="11.1749431"><ele>183.0</ele><time>2026-04-11T06:57:22.113Z</time></trkpt><trkpt lat="43.6439129" lon="11.1747728"><ele>183.25</ele><time>2026-04-11T06:57:23.112Z</time></trkpt><trkpt lat="43.6438376" lon="11.1746073"><ele>183.5</ele><time>2026-04-11T06:57:24.111Z</time></trkpt><trkpt lat="43.6437571" lon="11.174435"><ele>183.75</ele><time>2026-04-11T06:57:25.112Z</time></trkpt><trkpt lat="43.643683" lon="11.1742543"><ele>184.0</ele><time>2026-04-11T06:57:26.112Z</time></trkpt><trkpt lat="43.6436113" lon="11.1740706"><ele>179.25</ele><time>2026-04-11T06:57:27.112Z</time></trkpt><trkpt lat="43.6435511" lon="11.1738808"><ele>174.5</ele><time>2026-04-11T06:57:28.114Z</time></trkpt><trkpt lat="43.6435038" lon="11.1736851"><ele>169.75</ele><time>2026-04-11T06:57:29.112Z</time></trkpt><trkpt lat="43.643444" lon="11.1734976"><ele>165.0</ele><time>2026-04-11T06:57:30.113Z</time></trkpt><trkpt lat="43.6433649" lon="11.1733312"><ele>164.75</ele><time>2026-04-11T06:57:31.112Z</time></trkpt><trkpt lat="43.6432956" lon="11.173159"><ele>164.5</ele><time>2026-04-11T06:57:32.112Z</time></trkpt><trkpt lat="43.6432464" lon="11.1729742"><ele>164.25</ele><time>2026-04-11T06:57:33.112Z</time></trkpt><trkpt lat="43.6431975" lon="11.1727992"><ele>164.0</ele><time>2026-04-11T06:57:34.112Z</time></trkpt><trkpt lat="43.6431264" lon="11.1726359"><ele>164.0</ele><time>2026-04-11T06:57:35.112Z</time></trkpt><trkpt lat="43.6430255" lon="11.1724993"><ele>164.0</ele><time>2026-04-11T06:57:36.112Z</time></trkpt><trkpt lat="43.642927" lon="11.1723797"><ele>164.0</ele><time>2026-04-11T06:57:37.113Z</time></trkpt><trkpt lat="43.642815" lon="11.1722768"><ele>164.0</ele><time>2026-04-11T06:57:38.111Z</time></trkpt><trkpt lat="43.6427141" lon="11.1721898"><ele>160.39999999999998</ele><time>2026-04-11T06:57:39.113Z</time></trkpt><trkpt lat="43.6426205" lon="11.1721138"><ele>156.79999999999998</ele><time>2026-04-11T06:57:40.113Z</time></trkpt><trkpt lat="43.64253" lon="11.1720571"><ele>153.2</ele><time>2026-04-11T06:57:41.111Z</time></trkpt><trkpt lat="43.642448" lon="11.172028"><ele>149.6</ele><time>2026-04-11T06:57:42.111Z</time></trkpt><trkpt lat="43.6423597" lon="11.1719972"><ele>146.0</ele><time>2026-04-11T06:57:43.114Z</time></trkpt><trkpt lat="43.6422714" lon="11.1719537"><ele>146.0</ele><time>2026-04-11T06:57:44.111Z</time></trkpt><trkpt lat="43.6421694" lon="11.1719173"><ele>146.0</ele><time>2026-04-11T06:57:45.112Z</time></trkpt><trkpt lat="43.6420489" lon="11.1718776"><ele>146.0</ele><time>2026-04-11T06:57:46.114Z</time></trkpt><trkpt lat="43.6419073" lon="11.1718564"><ele>146.0</ele><time>2026-04-11T06:57:47.113Z</time></trkpt><trkpt lat="43.6417566" lon="11.1718276"><ele>144.0</ele><time>2026-04-11T06:57:48.112Z</time></trkpt><trkpt lat="43.6415981" lon="11.1717977"><ele>142.0</ele><time>2026-04-11T06:57:49.112Z</time></trkpt><trkpt lat="43.6414395" lon="11.171762"><ele>140.0</ele><time>2026-04-11T06:57:50.111Z</time></trkpt><trkpt lat="43.6412684" lon="11.1717181"><ele>138.0</ele><time>2026-04-11T06:57:51.112Z</time></trkpt><trkpt lat="43.6410923" lon="11.1716778"><ele>136.0</ele><time>2026-04-11T06:57:52.111Z</time></trkpt><trkpt lat="43.6409133" lon="11.1716362"><ele>134.0</ele><time>2026-04-11T06:57:53.112Z</time></trkpt><trkpt lat="43.6407448" lon="11.1715925"><ele>134.0</ele><time>2026-04-11T06:57:54.112Z</time></trkpt><trkpt lat="43.6405815" lon="11.1715656"><ele>134.0</ele><time>2026-04-11T06:57:55.113Z</time></trkpt><trkpt lat="43.6404155" lon="11.1715734"><ele>134.0</ele><time>2026-04-11T06:57:56.114Z</time></trkpt><trkpt lat="43.6402525" lon="11.1716211"><ele>133.0</ele><time>2026-04-11T06:57:57.112Z</time></trkpt><trkpt lat="43.6400876" lon="11.171692"><ele>132.0</ele><time>2026-04-11T06:57:58.113Z</time></trkpt><trkpt lat="43.6399531" lon="11.1718461"><ele>131.0</ele><time>2026-04-11T06:57:59.113Z</time></trkpt><trkpt lat="43.6398132" lon="11.1719889"><ele>131.0</ele><time>2026-04-11T06:58:00.113Z</time></trkpt><trkpt lat="43.6396853" lon="11.1721377"><ele>131.0</ele><time>2026-04-11T06:58:01.111Z</time></trkpt><trkpt lat="43.639557" lon="11.1722857"><ele>131.0</ele><time>2026-04-11T06:58:02.111Z</time></trkpt><trkpt lat="43.6394337" lon="11.1724283"><ele>130.75</ele><time>2026-04-11T06:58:03.113Z</time></trkpt><trkpt lat="43.6393228" lon="11.1725567"><ele>130.5</ele><time>2026-04-11T06:58:04.112Z</time></trkpt><trkpt lat="43.6392248" lon="11.1726622"><ele>130.25</ele><time>2026-04-11T06:58:05.113Z</time></trkpt><trkpt lat="43.6391345" lon="11.172717"><ele>130.0</ele><time>2026-04-11T06:58:06.112Z</time></trkpt><trkpt lat="43.6390381" lon="11.1727286"><ele>130.0</ele><time>2026-04-11T06:58:07.112Z</time></trkpt><trkpt lat="43.6389443" lon="11.1726929"><ele>130.0</ele><time>2026-04-11T06:58:08.113Z</time></trkpt><trkpt lat="43.6388636" lon="11.172603"><ele>130.0</ele><time>2026-04-11T06:58:09.111Z</time></trkpt><trkpt lat="43.6387816" lon="11.172482"><ele>130.0</ele><time>2026-04-11T06:58:10.112Z</time></trkpt><trkpt lat="43.6386923" lon="11.1723448"><ele>128.5</ele><time>2026-04-11T06:58:11.112Z</time></trkpt><trkpt lat="43.6385974" lon="11.1721927"><ele>127.0</ele><time>2026-04-11T06:58:12.113Z</time></trkpt><trkpt lat="43.6385079" lon="11.1720293"><ele>125.5</ele><time>2026-04-11T06:58:13.112Z</time></trkpt><trkpt lat="43.6384083" lon="11.171865"><ele>124.0</ele><time>2026-04-11T06:58:14.114Z</time></trkpt><trkpt lat="43.6383031" lon="11.171696"><ele>123.66666666666667</ele><time>2026-04-11T06:58:15.111Z</time></trkpt><trkpt lat="43.6382018" lon="11.1715201"><ele>123.33333333333334</ele><time>2026-04-11T06:58:16.112Z</time></trkpt><trkpt lat="43.6381089" lon="11.1713648"><ele>123.0</ele><time>2026-04-11T06:58:17.112Z</time></trkpt><trkpt lat="43.6380132" lon="11.1712196"><ele>123.0</ele><time>2026-04-11T06:58:18.112Z</time></trkpt><trkpt lat="43.637929" lon="11.1710622"><ele>123.0</ele><time>2026-04-11T06:58:19.112Z</time></trkpt><trkpt lat="43.6378539" lon="11.1709194"><ele>123.0</ele><time>2026-04-11T06:58:20.112Z</time></trkpt><trkpt lat="43.6377827" lon="11.1707969"><ele>123.0</ele><time>2026-04-11T06:58:21.114Z</time></trkpt><trkpt lat="43.6377122" lon="11.1706747"><ele>122.5</ele><time>2026-04-11T06:58:22.111Z</time></trkpt><trkpt lat="43.6376426" lon="11.1705818"><ele>122.0</ele><time>2026-04-11T06:58:23.114Z</time></trkpt><trkpt lat="43.637573" lon="11.1705007"><ele>121.5</ele><time>2026-04-11T06:58:24.113Z</time></trkpt><trkpt lat="43.6375121" lon="11.1704255"><ele>121.0</ele><time>2026-04-11T06:58:25.112Z</time></trkpt><trkpt lat="43.6374495" lon="11.1703448"><ele>120.5</ele><time>2026-04-11T06:58:26.112Z</time></trkpt><trkpt lat="43.637396" lon="11.1702574"><ele>120.0</ele><time>2026-04-11T06:58:27.111Z</time></trkpt><trkpt lat="43.6373477" lon="11.1701549"><ele>120.0</ele><time>2026-04-11T06:58:28.112Z</time></trkpt><trkpt lat="43.6372889" lon="11.1700531"><ele>120.0</ele><time>2026-04-11T06:58:29.112Z</time></trkpt><trkpt lat="43.6372307" lon="11.1699671"><ele>120.0</ele><time>2026-04-11T06:58:30.113Z</time></trkpt><trkpt lat="43.6371765" lon="11.1698891"><ele>120.0</ele><time>2026-04-11T06:58:31.112Z</time></trkpt><trkpt lat="43.6371281" lon="11.169819"><ele>120.0</ele><time>2026-04-11T06:58:32.112Z</time></trkpt><trkpt lat="43.6370875" lon="11.1697486"><ele>120.0</ele><time>2026-04-11T06:58:33.112Z</time></trkpt><trkpt lat="43.6370255" lon="11.1696193"><ele>120.5</ele><time>2026-04-11T06:58:35.113Z</time></trkpt><trkpt lat="43.6369522" lon="11.1695855"><ele>121.0</ele><time>2026-04-11T06:58:37.111Z</time></trkpt><trkpt lat="43.6369094" lon="11.1696833"><ele>121.5</ele><time>2026-04-11T06:58:39.112Z</time></trkpt><trkpt lat="43.6368715" lon="11.1698642"><ele>122.0</ele><time>2026-04-11T06:58:41.113Z</time></trkpt><trkpt lat="43.6368515" lon="11.169955"><ele>122.5</ele><time>2026-04-11T06:58:42.113Z</time></trkpt><trkpt lat="43.6368331" lon="11.1700461"><ele>123.0</ele><time>2026-04-11T06:58:43.112Z</time></trkpt><trkpt lat="43.6368082" lon="11.1701381"><ele>123.00000000000001</ele><time>2026-04-11T06:58:44.113Z</time></trkpt><trkpt lat="43.6367828" lon="11.1702314"><ele>123.0</ele><time>2026-04-11T06:58:45.112Z</time></trkpt><trkpt lat="43.6367535" lon="11.1703255"><ele>123.00000000000001</ele><time>2026-04-11T06:58:46.112Z</time></trkpt><trkpt lat="43.6367209" lon="11.1704232"><ele>123.00000000000001</ele><time>2026-04-11T06:58:47.113Z</time></trkpt><trkpt lat="43.6366867" lon="11.1705124"><ele>123.0</ele><time>2026-04-11T06:58:48.111Z</time></trkpt><trkpt lat="43.6366477" lon="11.170599"><ele>123.00000000000001</ele><time>2026-04-11T06:58:49.112Z</time></trkpt><trkpt lat="43.6366043" lon="11.1706841"><ele>123.00000000000001</ele><time>2026-04-11T06:58:50.113Z</time></trkpt><trkpt lat="43.6365618" lon="11.1707782"><ele>122.83333333333333</ele><time>2026-04-11T06:58:51.113Z</time></trkpt><trkpt lat="43.636513" lon="11.1708731"><ele>122.66666666666666</ele><time>2026-04-11T06:58:52.113Z</time></trkpt><trkpt lat="43.6364686" lon="11.1709628"><ele>122.5</ele><time>2026-04-11T06:58:53.112Z</time></trkpt><trkpt lat="43.6364269" lon="11.1710573"><ele>122.33333333333333</ele><time>2026-04-11T06:58:54.112Z</time></trkpt><trkpt lat="43.6363827" lon="11.1711436"><ele>122.16666666666666</ele><time>2026-04-11T06:58:55.113Z</time></trkpt><trkpt lat="43.6363445" lon="11.1712376"><ele>122.0</ele><time>2026-04-11T06:58:56.112Z</time></trkpt><trkpt lat="43.6363123" lon="11.1713252"><ele>121.99999999999999</ele><time>2026-04-11T06:58:57.112Z</time></trkpt><trkpt lat="43.636275" lon="11.1713975"><ele>122.0</ele><time>2026-04-11T06:58:58.112Z</time></trkpt><trkpt lat="43.6361989" lon="11.1715343"><ele>122.0</ele><time>2026-04-11T06:59:00.112Z</time></trkpt><trkpt lat="43.6361621" lon="11.1716102"><ele>122.0</ele><time>2026-04-11T06:59:01.111Z</time></trkpt><trkpt lat="43.6361277" lon="11.1716955"><ele>121.99999999999999</ele><time>2026-04-11T06:59:02.113Z</time></trkpt><trkpt lat="43.6360929" lon="11.1717805"><ele>122.0</ele><time>2026-04-11T06:59:03.112Z</time></trkpt><trkpt lat="43.6360522" lon="11.1718694"><ele>121.99999999999999</ele><time>2026-04-11T06:59:04.113Z</time></trkpt><trkpt lat="43.6360097" lon="11.1719567"><ele>122.0</ele><time>2026-04-11T06:59:05.111Z</time></trkpt><trkpt lat="43.6359631" lon="11.1720393"><ele>121.99999999999999</ele><time>2026-04-11T06:59:06.112Z</time></trkpt><trkpt lat="43.6359183" lon="11.1721109"><ele>121.99999999999999</ele><time>2026-04-11T06:59:07.114Z</time></trkpt><trkpt lat="43.6358664" lon="11.1721807"><ele>122.0</ele><time>2026-04-11T06:59:08.113Z</time></trkpt><trkpt lat="43.6358146" lon="11.1722466"><ele>121.99999999999999</ele><time>2026-04-11T06:59:09.113Z</time></trkpt><trkpt lat="43.6357638" lon="11.1723104"><ele>121.99999999999999</ele><time>2026-04-11T06:59:10.113Z</time></trkpt><trkpt lat="43.6357244" lon="11.1723866"><ele>121.85714285714283</ele><time>2026-04-11T06:59:11.115Z</time></trkpt><trkpt lat="43.6356862" lon="11.1724595"><ele>121.71428571428571</ele><time>2026-04-11T06:59:12.114Z</time></trkpt><trkpt lat="43.6356468" lon="11.1725301"><ele>121.57142857142856</ele><time>2026-04-11T06:59:13.113Z</time></trkpt><trkpt lat="43.6356016" lon="11.1725957"><ele>121.42857142857142</ele><time>2026-04-11T06:59:14.113Z</time></trkpt><trkpt lat="43.6355485" lon="11.1726586"><ele>121.28571428571428</ele><time>2026-04-11T06:59:15.112Z</time></trkpt><trkpt lat="43.6354943" lon="11.1727153"><ele>121.14285714285714</ele><time>2026-04-11T06:59:16.111Z</time></trkpt><trkpt lat="43.6354353" lon="11.1727769"><ele>121.0</ele><time>2026-04-11T06:59:17.112Z</time></trkpt><trkpt lat="43.6353775" lon="11.1728402"><ele>121.0</ele><time>2026-04-11T06:59:18.112Z</time></trkpt><trkpt lat="43.6353171" lon="11.1728997"><ele>120.99999999999999</ele><time>2026-04-11T06:59:19.113Z</time></trkpt><trkpt lat="43.6352577" lon="11.1729596"><ele>121.0</ele><time>2026-04-11T06:59:20.112Z</time></trkpt><trkpt lat="43.6352013" lon="11.1730199"><ele>121.0</ele><time>2026-04-11T06:59:21.112Z</time></trkpt><trkpt lat="43.635145" lon="11.1730863"><ele>120.99999999999999</ele><time>2026-04-11T06:59:22.111Z</time></trkpt><trkpt lat="43.6350902" lon="11.1731615"><ele>121.0</ele><time>2026-04-11T06:59:23.112Z</time></trkpt><trkpt lat="43.6350425" lon="11.1732313"><ele>121.0</ele><time>2026-04-11T06:59:24.114Z</time></trkpt><trkpt lat="43.6349929" lon="11.1733061"><ele>121.4</ele><time>2026-04-11T06:59:25.112Z</time></trkpt><trkpt lat="43.6349434" lon="11.1733812"><ele>121.8</ele><time>2026-04-11T06:59:26.111Z</time></trkpt><trkpt lat="43.6348949" lon="11.1734526"><ele>122.20000000000002</ele><time>2026-04-11T06:59:27.112Z</time></trkpt><trkpt lat="43.6348005" lon="11.1735867"><ele>122.60000000000001</ele><time>2026-04-11T06:59:29.111Z</time></trkpt><trkpt lat="43.6347488" lon="11.1736461"><ele>123.0</ele><time>2026-04-11T06:59:30.112Z</time></trkpt><trkpt lat="43.6346553" lon="11.1737498"><ele>123.0</ele><time>2026-04-11T06:59:32.113Z</time></trkpt><trkpt lat="43.6345622" lon="11.1737682"><ele>123.0</ele><time>2026-04-11T06:59:34.112Z</time></trkpt><trkpt lat="43.6344486" lon="11.1737509"><ele>123.0</ele><time>2026-04-11T06:59:36.112Z</time></trkpt><trkpt lat="43.6343844" lon="11.1737636"><ele>123.0</ele><time>2026-04-11T06:59:37.111Z</time></trkpt><trkpt lat="43.6343201" lon="11.1737898"><ele>123.0</ele><time>2026-04-11T06:59:38.114Z</time></trkpt><trkpt lat="43.634256" lon="11.1738219"><ele>123.0</ele><time>2026-04-11T06:59:39.112Z</time></trkpt><trkpt lat="43.6341947" lon="11.1738599"><ele>123.14285714285717</ele><time>2026-04-11T06:59:40.112Z</time></trkpt><trkpt lat="43.634132" lon="11.1739007"><ele>123.28571428571429</ele><time>2026-04-11T06:59:41.112Z</time></trkpt><trkpt lat="43.6340671" lon="11.173954"><ele>123.42857142857144</ele><time>2026-04-11T06:59:42.112Z</time></trkpt><trkpt lat="43.6340079" lon="11.1740118"><ele>123.57142857142858</ele><time>2026-04-11T06:59:43.112Z</time></trkpt><trkpt lat="43.6339543" lon="11.1740803"><ele>123.71428571428572</ele><time>2026-04-11T06:59:44.113Z</time></trkpt><trkpt lat="43.6339035" lon="11.1741565"><ele>123.85714285714286</ele><time>2026-04-11T06:59:45.113Z</time></trkpt><trkpt lat="43.6338596" lon="11.1742354"><ele>124.0</ele><time>2026-04-11T06:59:46.112Z</time></trkpt><trkpt lat="43.6338082" lon="11.1743142"><ele>124.00000000000001</ele><time>2026-04-11T06:59:47.112Z</time></trkpt><trkpt lat="43.6337597" lon="11.1743963"><ele>124.0</ele><time>2026-04-11T06:59:48.112Z</time></trkpt><trkpt lat="43.6337106" lon="11.1744869"><ele>124.0</ele><time>2026-04-11T06:59:49.112Z</time></trkpt><trkpt lat="43.6336633" lon="11.174578"><ele>124.0</ele><time>2026-04-11T06:59:50.112Z</time></trkpt><trkpt lat="43.6336148" lon="11.1746679"><ele>124.00000000000001</ele><time>2026-04-11T06:59:51.112Z</time></trkpt><trkpt lat="43.6335706" lon="11.1747547"><ele>124.0</ele><time>2026-04-11T06:59:52.111Z</time></trkpt><trkpt lat="43.6335289" lon="11.1748421"><ele>124.0</ele><time>2026-04-11T06:59:53.112Z</time></trkpt><trkpt lat="43.6334849" lon="11.1749368"><ele>124.00000000000001</ele><time>2026-04-11T06:59:54.112Z</time></trkpt><trkpt lat="43.6334509" lon="11.1750216"><ele>124.0</ele><time>2026-04-11T06:59:55.112Z</time></trkpt><trkpt lat="43.6334155" lon="11.1751127"><ele>124.0</ele><time>2026-04-11T06:59:56.113Z</time></trkpt><trkpt lat="43.6333825" lon="11.1752061"><ele>124.00000000000001</ele><time>2026-04-11T06:59:57.112Z</time></trkpt><trkpt lat="43.633351" lon="11.1752862"><ele>124.0</ele><time>2026-04-11T06:59:58.112Z</time></trkpt><trkpt lat="43.6333238" lon="11.1753691"><ele>124.0</ele><time>2026-04-11T06:59:59.112Z</time></trkpt><trkpt lat="43.6333036" lon="11.1754679"><ele>124.00000000000001</ele><time>2026-04-11T07:00:00.113Z</time></trkpt><trkpt lat="43.6332977" lon="11.1755682"><ele>124.0</ele><time>2026-04-11T07:00:01.113Z</time></trkpt><trkpt lat="43.6332948" lon="11.175659"><ele>124.0</ele><time>2026-04-11T07:00:02.112Z</time></trkpt><trkpt lat="43.6333367" lon="11.1757781"><ele>124.0</ele><time>2026-04-11T07:00:04.112Z</time></trkpt><trkpt lat="43.6333886" lon="11.1759323"><ele>124.00000000000001</ele><time>2026-04-11T07:00:06.112Z</time></trkpt><trkpt lat="43.6334178" lon="11.1760181"><ele>124.0</ele><time>2026-04-11T07:00:07.112Z</time></trkpt><trkpt lat="43.6334472" lon="11.176115"><ele>124.14285714285715</ele><time>2026-04-11T07:00:08.112Z</time></trkpt><trkpt lat="43.6334787" lon="11.1761962"><ele>124.2857142857143</ele><time>2026-04-11T07:00:09.112Z</time></trkpt><trkpt lat="43.6335126" lon="11.1762704"><ele>124.42857142857143</ele><time>2026-04-11T07:00:10.112Z</time></trkpt><trkpt lat="43.6335499" lon="11.1763443"><ele>124.57142857142858</ele><time>2026-04-11T07:00:11.112Z</time></trkpt><trkpt lat="43.633572" lon="11.1764264"><ele>124.71428571428572</ele><time>2026-04-11T07:00:12.113Z</time></trkpt><trkpt lat="43.6336009" lon="11.1765083"><ele>124.85714285714286</ele><time>2026-04-11T07:00:13.112Z</time></trkpt><trkpt lat="43.6336097" lon="11.1766395"><ele>125.0</ele><time>2026-04-11T07:00:15.114Z</time></trkpt><trkpt lat="43.6335601" lon="11.1767016"><ele>125.0</ele><time>2026-04-11T07:00:18.113Z</time></trkpt><trkpt lat="43.6335414" lon="11.1766117"><ele>125.0</ele><time>2026-04-11T07:00:20.112Z</time></trkpt><trkpt lat="43.6335097" lon="11.1764644"><ele>125.0</ele><time>2026-04-11T07:00:22.112Z</time></trkpt><trkpt lat="43.633433" lon="11.1764032"><ele>125.0</ele><time>2026-04-11T07:00:23.112Z</time></trkpt><trkpt lat="43.633331" lon="11.1763509"><ele>125.0</ele><time>2026-04-11T07:00:24.112Z</time></trkpt><trkpt lat="43.6332342" lon="11.1763266"><ele>125.0</ele><time>2026-04-11T07:00:25.113Z</time></trkpt><trkpt lat="43.6331279" lon="11.1763077"><ele>125.0</ele><time>2026-04-11T07:00:26.112Z</time></trkpt><trkpt lat="43.6330156" lon="11.1762875"><ele>125.0</ele><time>2026-04-11T07:00:27.112Z</time></trkpt><trkpt lat="43.6329063" lon="11.1762749"><ele>125.0</ele><time>2026-04-11T07:00:28.112Z</time></trkpt><trkpt lat="43.6327961" lon="11.1762569"><ele>125.0</ele><time>2026-04-11T07:00:29.113Z</time></trkpt><trkpt lat="43.632695" lon="11.1762332"><ele>125.8</ele><time>2026-04-11T07:00:30.114Z</time></trkpt><trkpt lat="43.6325957" lon="11.1761959"><ele>126.6</ele><time>2026-04-11T07:00:31.112Z</time></trkpt><trkpt lat="43.6325028" lon="11.1761392"><ele>127.4</ele><time>2026-04-11T07:00:32.113Z</time></trkpt><trkpt lat="43.6324229" lon="11.1760803"><ele>128.2</ele><time>2026-04-11T07:00:33.114Z</time></trkpt><trkpt lat="43.6323407" lon="11.1760141"><ele>129.0</ele><time>2026-04-11T07:00:34.112Z</time></trkpt><trkpt lat="43.6322529" lon="11.1759444"><ele>129.0</ele><time>2026-04-11T07:00:35.114Z</time></trkpt><trkpt lat="43.6321673" lon="11.1758693"><ele>129.0</ele><time>2026-04-11T07:00:36.112Z</time></trkpt><trkpt lat="43.6320955" lon="11.1758091"><ele>129.0</ele><time>2026-04-11T07:00:37.111Z</time></trkpt><trkpt lat="43.6320392" lon="11.1757499"><ele>129.0</ele><time>2026-04-11T07:00:38.112Z</time></trkpt><trkpt lat="43.6319329" lon="11.1757004"><ele>129.0</ele><time>2026-04-11T07:00:40.112Z</time></trkpt><trkpt lat="43.6318209" lon="11.1758071"><ele>129.6</ele><time>2026-04-11T07:00:42.113Z</time></trkpt><trkpt lat="43.63175" lon="11.1758784"><ele>130.2</ele><time>2026-04-11T07:00:43.112Z</time></trkpt><trkpt lat="43.6316937" lon="11.1759639"><ele>130.79999999999998</ele><time>2026-04-11T07:00:44.112Z</time></trkpt><trkpt lat="43.6316413" lon="11.1760799"><ele>131.4</ele><time>2026-04-11T07:00:45.114Z</time></trkpt><trkpt lat="43.6315695" lon="11.1761882"><ele>132.0</ele><time>2026-04-11T07:00:46.112Z</time></trkpt><trkpt lat="43.6314776" lon="11.1762845"><ele>132.0</ele><time>2026-04-11T07:00:47.113Z</time></trkpt><trkpt lat="43.6313569" lon="11.1763619"><ele>132.0</ele><time>2026-04-11T07:00:48.113Z</time></trkpt><trkpt lat="43.6312173" lon="11.1764344"><ele>132.0</ele><time>2026-04-11T07:00:49.112Z</time></trkpt><trkpt lat="43.6310838" lon="11.1764941"><ele>132.0</ele><time>2026-04-11T07:00:50.112Z</time></trkpt><trkpt lat="43.63094" lon="11.176553"><ele>130.66666666666666</ele><time>2026-04-11T07:00:51.111Z</time></trkpt><trkpt lat="43.6307911" lon="11.1766016"><ele>129.33333333333331</ele><time>2026-04-11T07:00:52.112Z</time></trkpt><trkpt lat="43.63064" lon="11.1766529"><ele>128.0</ele><time>2026-04-11T07:00:53.111Z</time></trkpt><trkpt lat="43.6304901" lon="11.1766998"><ele>128.0</ele><time>2026-04-11T07:00:54.114Z</time></trkpt><trkpt lat="43.6303303" lon="11.1767514"><ele>128.0</ele><time>2026-04-11T07:00:55.113Z</time></trkpt><trkpt lat="43.6301702" lon="11.1768094"><ele>128.0</ele><time>2026-04-11T07:00:56.112Z</time></trkpt><trkpt lat="43.6300082" lon="11.1768655"><ele>128.66666666666666</ele><time>2026-04-11T07:00:57.112Z</time></trkpt><trkpt lat="43.6298392" lon="11.1769362"><ele>129.33333333333334</ele><time>2026-04-11T07:00:58.111Z</time></trkpt><trkpt lat="43.629672" lon="11.1770011"><ele>130.0</ele><time>2026-04-11T07:00:59.114Z</time></trkpt><trkpt lat="43.6295111" lon="11.1770635"><ele>131.33333333333334</ele><time>2026-04-11T07:01:00.112Z</time></trkpt><trkpt lat="43.6293463" lon="11.177139"><ele>132.66666666666666</ele><time>2026-04-11T07:01:01.112Z</time></trkpt><trkpt lat="43.6291816" lon="11.1772087"><ele>134.0</ele><time>2026-04-11T07:01:02.112Z</time></trkpt><trkpt lat="43.6290148" lon="11.1772699"><ele>134.0</ele><time>2026-04-11T07:01:03.112Z</time></trkpt><trkpt lat="43.6288481" lon="11.177315"><ele>134.0</ele><time>2026-04-11T07:01:04.112Z</time></trkpt><trkpt lat="43.6286804" lon="11.1773444"><ele>134.0</ele><time>2026-04-11T07:01:05.113Z</time></trkpt><trkpt lat="43.6285126" lon="11.1773508"><ele>135.66666666666666</ele><time>2026-04-11T07:01:06.113Z</time></trkpt><trkpt lat="43.6283495" lon="11.1773382"><ele>137.33333333333334</ele><time>2026-04-11T07:01:07.112Z</time></trkpt><trkpt lat="43.6281969" lon="11.177318"><ele>139.0</ele><time>2026-04-11T07:01:08.113Z</time></trkpt><trkpt lat="43.6280472" lon="11.1773052"><ele>139.0</ele><time>2026-04-11T07:01:09.113Z</time></trkpt><trkpt lat="43.6279015" lon="11.1773012"><ele>139.0</ele><time>2026-04-11T07:01:10.112Z</time></trkpt><trkpt lat="43.6277505" lon="11.1773267"><ele>139.0</ele><time>2026-04-11T07:01:11.112Z</time></trkpt><trkpt lat="43.6276046" lon="11.1773964"><ele>137.66666666666669</ele><time>2026-04-11T07:01:12.114Z</time></trkpt><trkpt lat="43.6274588" lon="11.1774962"><ele>136.33333333333334</ele><time>2026-04-11T07:01:13.113Z</time></trkpt><trkpt lat="43.627317" lon="11.1776148"><ele>135.0</ele><time>2026-04-11T07:01:14.111Z</time></trkpt><trkpt lat="43.6271788" lon="11.1777498"><ele>135.0</ele><time>2026-04-11T07:01:15.113Z</time></trkpt><trkpt lat="43.6270445" lon="11.1778998"><ele>135.0</ele><time>2026-04-11T07:01:16.114Z</time></trkpt><trkpt lat="43.6269118" lon="11.1780542"><ele>135.0</ele><time>2026-04-11T07:01:17.112Z</time></trkpt><trkpt lat="43.626785" lon="11.1781794"><ele>134.75</ele><time>2026-04-11T07:01:18.112Z</time></trkpt><trkpt lat="43.6266646" lon="11.1782948"><ele>134.5</ele><time>2026-04-11T07:01:19.112Z</time></trkpt><trkpt lat="43.626556" lon="11.1784053"><ele>134.25</ele><time>2026-04-11T07:01:20.112Z</time></trkpt><trkpt lat="43.6264582" lon="11.1784958"><ele>134.0</ele><time>2026-04-11T07:01:21.113Z</time></trkpt><trkpt lat="43.6263639" lon="11.1785685"><ele>134.0</ele><time>2026-04-11T07:01:22.113Z</time></trkpt><trkpt lat="43.626267" lon="11.178633"><ele>134.0</ele><time>2026-04-11T07:01:23.112Z</time></trkpt><trkpt lat="43.6261553" lon="11.1786807"><ele>134.0</ele><time>2026-04-11T07:01:24.114Z</time></trkpt><trkpt lat="43.6260242" lon="11.1787214"><ele>134.0</ele><time>2026-04-11T07:01:25.112Z</time></trkpt><trkpt lat="43.6258848" lon="11.1787581"><ele>137.0</ele><time>2026-04-11T07:01:26.111Z</time></trkpt><trkpt lat="43.6257377" lon="11.178799"><ele>140.0</ele><time>2026-04-11T07:01:27.113Z</time></trkpt><trkpt lat="43.625582" lon="11.1788442"><ele>143.0</ele><time>2026-04-11T07:01:28.113Z</time></trkpt><trkpt lat="43.625426" lon="11.17889"><ele>140.66666666666666</ele><time>2026-04-11T07:01:29.111Z</time></trkpt><trkpt lat="43.6252723" lon="11.1789328"><ele>138.33333333333334</ele><time>2026-04-11T07:01:30.113Z</time></trkpt><trkpt lat="43.6251167" lon="11.178981"><ele>136.0</ele><time>2026-04-11T07:01:31.111Z</time></trkpt><trkpt lat="43.6249574" lon="11.1790343"><ele>136.0</ele><time>2026-04-11T07:01:32.115Z</time></trkpt><trkpt lat="43.6247946" lon="11.179093"><ele>136.0</ele><time>2026-04-11T07:01:33.112Z</time></trkpt><trkpt lat="43.6246319" lon="11.1791543"><ele>136.0</ele><time>2026-04-11T07:01:34.114Z</time></trkpt><trkpt lat="43.6244691" lon="11.1792142"><ele>137.66666666666669</ele><time>2026-04-11T07:01:35.114Z</time></trkpt><trkpt lat="43.624313" lon="11.1792861"><ele>139.33333333333334</ele><time>2026-04-11T07:01:36.112Z</time></trkpt><trkpt lat="43.6241496" lon="11.179375"><ele>141.0</ele><time>2026-04-11T07:01:37.112Z</time></trkpt><trkpt lat="43.6239878" lon="11.1794749"><ele>141.0</ele><time>2026-04-11T07:01:38.111Z</time></trkpt><trkpt lat="43.6238276" lon="11.1795741"><ele>141.0</ele><time>2026-04-11T07:01:39.112Z</time></trkpt><trkpt lat="43.6236539" lon="11.1796676"><ele>141.0</ele><time>2026-04-11T07:01:40.113Z</time></trkpt><trkpt lat="43.6234798" lon="11.1797678"><ele>139.0</ele><time>2026-04-11T07:01:41.112Z</time></trkpt><trkpt lat="43.6233091" lon="11.1798713"><ele>137.0</ele><time>2026-04-11T07:01:42.113Z</time></trkpt><trkpt lat="43.623139" lon="11.1799702"><ele>135.0</ele><time>2026-04-11T07:01:43.112Z</time></trkpt><trkpt lat="43.6229748" lon="11.1800726"><ele>138.0</ele><time>2026-04-11T07:01:44.112Z</time></trkpt><trkpt lat="43.6228116" lon="11.180178"><ele>141.0</ele><time>2026-04-11T07:01:45.113Z</time></trkpt><trkpt lat="43.6226613" lon="11.180298"><ele>144.0</ele><time>2026-04-11T07:01:46.112Z</time></trkpt><trkpt lat="43.6225349" lon="11.1804299"><ele>144.0</ele><time>2026-04-11T07:01:47.112Z</time></trkpt><trkpt lat="43.6224223" lon="11.1805474"><ele>144.0</ele><time>2026-04-11T07:01:48.121Z</time></trkpt><trkpt lat="43.6223236" lon="11.1806489"><ele>144.0</ele><time>2026-04-11T07:01:49.112Z</time></trkpt><trkpt lat="43.6222311" lon="11.1807172"><ele>144.0</ele><time>2026-04-11T07:01:50.112Z</time></trkpt><trkpt lat="43.6221453" lon="11.1807491"><ele>144.8</ele><time>2026-04-11T07:01:51.114Z</time></trkpt><trkpt lat="43.6220752" lon="11.1807688"><ele>145.60000000000002</ele><time>2026-04-11T07:01:52.112Z</time></trkpt><trkpt lat="43.6219497" lon="11.1807664"><ele>146.4</ele><time>2026-04-11T07:01:54.112Z</time></trkpt><trkpt lat="43.621842" lon="11.1806807"><ele>147.20000000000002</ele><time>2026-04-11T07:01:56.112Z</time></trkpt><trkpt lat="43.6217773" lon="11.1806148"><ele>148.0</ele><time>2026-04-11T07:01:57.112Z</time></trkpt><trkpt lat="43.6217048" lon="11.1805498"><ele>148.0</ele><time>2026-04-11T07:01:58.112Z</time></trkpt><trkpt lat="43.6216251" lon="11.1804763"><ele>148.0</ele><time>2026-04-11T07:01:59.113Z</time></trkpt><trkpt lat="43.6215373" lon="11.180402"><ele>148.0</ele><time>2026-04-11T07:02:00.113Z</time></trkpt><trkpt lat="43.6214508" lon="11.1803349"><ele>148.0</ele><time>2026-04-11T07:02:01.113Z</time></trkpt><trkpt lat="43.621366" lon="11.1802747"><ele>148.0</ele><time>2026-04-11T07:02:02.113Z</time></trkpt><trkpt lat="43.6212946" lon="11.1802237"><ele>148.0</ele><time>2026-04-11T07:02:03.113Z</time></trkpt><trkpt lat="43.6212334" lon="11.1801681"><ele>148.0</ele><time>2026-04-11T07:02:04.113Z</time></trkpt><trkpt lat="43.6211713" lon="11.1801019"><ele>148.0</ele><time>2026-04-11T07:02:05.114Z</time></trkpt><trkpt lat="43.621104" lon="11.1800319"><ele>148.0</ele><time>2026-04-11T07:02:06.116Z</time></trkpt><trkpt lat="43.6210301" lon="11.1799606"><ele>148.0</ele><time>2026-04-11T07:02:07.113Z</time></trkpt><trkpt lat="43.620942" lon="11.179903"><ele>148.0</ele><time>2026-04-11T07:02:08.112Z</time></trkpt><trkpt lat="43.6208481" lon="11.1798596"><ele>149.33333333333334</ele><time>2026-04-11T07:02:09.111Z</time></trkpt><trkpt lat="43.6207503" lon="11.1798403"><ele>150.66666666666669</ele><time>2026-04-11T07:02:10.112Z</time></trkpt><trkpt lat="43.6206565" lon="11.179836"><ele>152.0</ele><time>2026-04-11T07:02:11.113Z</time></trkpt><trkpt lat="43.6205719" lon="11.1798514"><ele>153.33333333333334</ele><time>2026-04-11T07:02:12.113Z</time></trkpt><trkpt lat="43.6204954" lon="11.1798858"><ele>154.66666666666666</ele><time>2026-04-11T07:02:13.112Z</time></trkpt><trkpt lat="43.6204326" lon="11.1799193"><ele>156.0</ele><time>2026-04-11T07:02:14.113Z</time></trkpt><trkpt lat="43.6203175" lon="11.1799705"><ele>157.16666666666666</ele><time>2026-04-11T07:02:16.113Z</time></trkpt><trkpt lat="43.620256" lon="11.1800093"><ele>158.33333333333334</ele><time>2026-04-11T07:02:17.112Z</time></trkpt><trkpt lat="43.6201898" lon="11.1800492"><ele>159.5</ele><time>2026-04-11T07:02:18.112Z</time></trkpt><trkpt lat="43.6201242" lon="11.1800929"><ele>160.66666666666669</ele><time>2026-04-11T07:02:19.112Z</time></trkpt><trkpt lat="43.6200491" lon="11.1801451"><ele>161.83333333333334</ele><time>2026-04-11T07:02:20.113Z</time></trkpt><trkpt lat="43.6199749" lon="11.1801981"><ele>163.0</ele><time>2026-04-11T07:02:21.113Z</time></trkpt><trkpt lat="43.6199018" lon="11.1802521"><ele>163.0</ele><time>2026-04-11T07:02:22.113Z</time></trkpt><trkpt lat="43.6198258" lon="11.1803104"><ele>163.0</ele><time>2026-04-11T07:02:23.111Z</time></trkpt><trkpt lat="43.6197473" lon="11.1803678"><ele>163.0</ele><time>2026-04-11T07:02:24.113Z</time></trkpt><trkpt lat="43.6196623" lon="11.1804311"><ele>163.0</ele><time>2026-04-11T07:02:25.113Z</time></trkpt><trkpt lat="43.6195702" lon="11.1804884"><ele>163.0</ele><time>2026-04-11T07:02:26.113Z</time></trkpt><trkpt lat="43.6194832" lon="11.1805395"><ele>163.60000000000002</ele><time>2026-04-11T07:02:27.12Z</time></trkpt><trkpt lat="43.6193997" lon="11.1805985"><ele>164.20000000000002</ele><time>2026-04-11T07:02:28.112Z</time></trkpt><trkpt lat="43.6193118" lon="11.1806533"><ele>164.8</ele><time>2026-04-11T07:02:29.112Z</time></trkpt><trkpt lat="43.6192218" lon="11.1807088"><ele>165.4</ele><time>2026-04-11T07:02:30.112Z</time></trkpt><trkpt lat="43.6191344" lon="11.1807685"><ele>166.0</ele><time>2026-04-11T07:02:31.113Z</time></trkpt><trkpt lat="43.6190601" lon="11.1808253"><ele>166.0</ele><time>2026-04-11T07:02:32.112Z</time></trkpt><trkpt lat="43.6189828" lon="11.1808649"><ele>166.0</ele><time>2026-04-11T07:02:33.112Z</time></trkpt><trkpt lat="43.6189064" lon="11.1809014"><ele>166.0</ele><time>2026-04-11T07:02:34.112Z</time></trkpt><trkpt lat="43.6188369" lon="11.1809374"><ele>166.0</ele><time>2026-04-11T07:02:35.111Z</time></trkpt><trkpt lat="43.6187552" lon="11.1809778"><ele>166.0</ele><time>2026-04-11T07:02:36.113Z</time></trkpt><trkpt lat="43.6186664" lon="11.1810268"><ele>166.0</ele><time>2026-04-11T07:02:37.112Z</time></trkpt><trkpt lat="43.618577" lon="11.1810953"><ele>167.8</ele><time>2026-04-11T07:02:38.111Z</time></trkpt><trkpt lat="43.6184885" lon="11.1811473"><ele>169.60000000000002</ele><time>2026-04-11T07:02:39.114Z</time></trkpt><trkpt lat="43.6184009" lon="11.1812104"><ele>171.4</ele><time>2026-04-11T07:02:40.112Z</time></trkpt><trkpt lat="43.6183102" lon="11.1812586"><ele>173.2</ele><time>2026-04-11T07:02:41.112Z</time></trkpt><trkpt lat="43.6182313" lon="11.1813059"><ele>175.0</ele><time>2026-04-11T07:02:42.112Z</time></trkpt><trkpt lat="43.6181475" lon="11.1813627"><ele>175.0</ele><time>2026-04-11T07:02:43.113Z</time></trkpt><trkpt lat="43.6180728" lon="11.1814164"><ele>175.0</ele><time>2026-04-11T07:02:44.112Z</time></trkpt><trkpt lat="43.6180045" lon="11.1814649"><ele>175.0</ele><time>2026-04-11T07:02:45.113Z</time></trkpt><trkpt lat="43.6179402" lon="11.181528"><ele>175.0</ele><time>2026-04-11T07:02:46.112Z</time></trkpt><trkpt lat="43.6178777" lon="11.1815916"><ele>175.0</ele><time>2026-04-11T07:02:47.112Z</time></trkpt><trkpt lat="43.61782" lon="11.181662"><ele>175.0</ele><time>2026-04-11T07:02:48.112Z</time></trkpt><trkpt lat="43.617763" lon="11.1817367"><ele>174.0</ele><time>2026-04-11T07:02:49.113Z</time></trkpt><trkpt lat="43.6177071" lon="11.1818118"><ele>173.0</ele><time>2026-04-11T07:02:50.111Z</time></trkpt><trkpt lat="43.6176538" lon="11.1818892"><ele>172.0</ele><time>2026-04-11T07:02:51.112Z</time></trkpt><trkpt lat="43.6176015" lon="11.1819645"><ele>171.0</ele><time>2026-04-11T07:02:52.113Z</time></trkpt><trkpt lat="43.6175481" lon="11.18204"><ele>170.0</ele><time>2026-04-11T07:02:53.112Z</time></trkpt><trkpt lat="43.6174949" lon="11.1821162"><ele>169.0</ele><time>2026-04-11T07:02:54.114Z</time></trkpt><trkpt lat="43.6174419" lon="11.182181"><ele>169.0</ele><time>2026-04-11T07:02:55.112Z</time></trkpt><trkpt lat="43.617343" lon="11.1822602"><ele>169.0</ele><time>2026-04-11T07:02:57.112Z</time></trkpt><trkpt lat="43.6172437" lon="11.1822271"><ele>169.0</ele><time>2026-04-11T07:02:59.113Z</time></trkpt><trkpt lat="43.6171616" lon="11.1821178"><ele>169.0</ele><time>2026-04-11T07:03:01.113Z</time></trkpt><trkpt lat="43.6170835" lon="11.1820195"><ele>169.0</ele><time>2026-04-11T07:03:03.112Z</time></trkpt><trkpt lat="43.6170089" lon="11.1820112"><ele>169.83333333333334</ele><time>2026-04-11T07:03:06.111Z</time></trkpt><trkpt lat="43.6169273" lon="11.1821035"><ele>170.66666666666669</ele><time>2026-04-11T07:03:10.112Z</time></trkpt><trkpt lat="43.616902" lon="11.1821871"><ele>171.5</ele><time>2026-04-11T07:03:11.112Z</time></trkpt><trkpt lat="43.616897" lon="11.1823145"><ele>172.33333333333334</ele><time>2026-04-11T07:03:13.112Z</time></trkpt><trkpt lat="43.6168759" lon="11.1824716"><ele>173.16666666666666</ele><time>2026-04-11T07:03:15.112Z</time></trkpt><trkpt lat="43.6168517" lon="11.1825572"><ele>174.0</ele><time>2026-04-11T07:03:16.111Z</time></trkpt><trkpt lat="43.616816" lon="11.1826461"><ele>172.33333333333334</ele><time>2026-04-11T07:03:17.112Z</time></trkpt><trkpt lat="43.6167666" lon="11.1827406"><ele>170.66666666666666</ele><time>2026-04-11T07:03:18.112Z</time></trkpt><trkpt lat="43.6167118" lon="11.1828212"><ele>169.0</ele><time>2026-04-11T07:03:19.112Z</time></trkpt><trkpt lat="43.6166479" lon="11.1828848"><ele>167.33333333333331</ele><time>2026-04-11T07:03:20.113Z</time></trkpt><trkpt lat="43.6165684" lon="11.1829271"><ele>165.66666666666666</ele><time>2026-04-11T07:03:21.113Z</time></trkpt><trkpt lat="43.6164709" lon="11.1829333"><ele>164.0</ele><time>2026-04-11T07:03:22.111Z</time></trkpt><trkpt lat="43.6163691" lon="11.18291"><ele>164.0</ele><time>2026-04-11T07:03:23.114Z</time></trkpt><trkpt lat="43.6162651" lon="11.1828871"><ele>164.0</ele><time>2026-04-11T07:03:24.112Z</time></trkpt><trkpt lat="43.6161588" lon="11.1828519"><ele>164.0</ele><time>2026-04-11T07:03:25.113Z</time></trkpt><trkpt lat="43.6160506" lon="11.182824"><ele>164.0</ele><time>2026-04-11T07:03:26.114Z</time></trkpt><trkpt lat="43.6159404" lon="11.1828027"><ele>164.0</ele><time>2026-04-11T07:03:27.113Z</time></trkpt><trkpt lat="43.6158411" lon="11.1828056"><ele>165.16666666666666</ele><time>2026-04-11T07:03:28.113Z</time></trkpt><trkpt lat="43.6157611" lon="11.1828314"><ele>166.33333333333331</ele><time>2026-04-11T07:03:29.112Z</time></trkpt><trkpt lat="43.6156896" lon="11.1828834"><ele>167.5</ele><time>2026-04-11T07:03:30.114Z</time></trkpt><trkpt lat="43.6156139" lon="11.182962"><ele>168.66666666666666</ele><time>2026-04-11T07:03:31.111Z</time></trkpt><trkpt lat="43.6155327" lon="11.1830063"><ele>169.83333333333334</ele><time>2026-04-11T07:03:32.113Z</time></trkpt><trkpt lat="43.6154412" lon="11.1830078"><ele>171.0</ele><time>2026-04-11T07:03:33.112Z</time></trkpt><trkpt lat="43.6153369" lon="11.183005"><ele>172.25</ele><time>2026-04-11T07:03:34.111Z</time></trkpt><trkpt lat="43.6152274" lon="11.1829856"><ele>173.5</ele><time>2026-04-11T07:03:35.113Z</time></trkpt><trkpt lat="43.615109" lon="11.1829618"><ele>174.75</ele><time>2026-04-11T07:03:36.113Z</time></trkpt><trkpt lat="43.6149888" lon="11.1829336"><ele>176.0</ele><time>2026-04-11T07:03:37.112Z</time></trkpt><trkpt lat="43.6148788" lon="11.1829105"><ele>176.0</ele><time>2026-04-11T07:03:38.112Z</time></trkpt><trkpt lat="43.614774" lon="11.1829138"><ele>176.0</ele><time>2026-04-11T07:03:39.113Z</time></trkpt><trkpt lat="43.6146725" lon="11.182937"><ele>176.0</ele><time>2026-04-11T07:03:40.111Z</time></trkpt><trkpt lat="43.6145678" lon="11.1829806"><ele>176.0</ele><time>2026-04-11T07:03:41.112Z</time></trkpt><trkpt lat="43.6144666" lon="11.1830427"><ele>176.0</ele><time>2026-04-11T07:03:42.111Z</time></trkpt><trkpt lat="43.6143656" lon="11.1831134"><ele>175.25</ele><time>2026-04-11T07:03:43.113Z</time></trkpt><trkpt lat="43.6142586" lon="11.1831751"><ele>174.5</ele><time>2026-04-11T07:03:44.112Z</time></trkpt><trkpt lat="43.6141513" lon="11.1832476"><ele>173.75</ele><time>2026-04-11T07:03:45.113Z</time></trkpt><trkpt lat="43.614035" lon="11.1833182"><ele>173.0</ele><time>2026-04-11T07:03:46.112Z</time></trkpt><trkpt lat="43.6139233" lon="11.1833906"><ele>173.0</ele><time>2026-04-11T07:03:47.112Z</time></trkpt><trkpt lat="43.6138103" lon="11.1834894"><ele>173.0</ele><time>2026-04-11T07:03:48.113Z</time></trkpt><trkpt lat="43.613711" lon="11.1835725"><ele>173.0</ele><time>2026-04-11T07:03:49.113Z</time></trkpt><trkpt lat="43.6136195" lon="11.1836481"><ele>173.0</ele><time>2026-04-11T07:03:50.111Z</time></trkpt><trkpt lat="43.6135281" lon="11.1837271"><ele>172.4</ele><time>2026-04-11T07:03:51.114Z</time></trkpt><trkpt lat="43.6134453" lon="11.1837963"><ele>171.8</ele><time>2026-04-11T07:03:52.113Z</time></trkpt><trkpt lat="43.6133688" lon="11.1838665"><ele>171.2</ele><time>2026-04-11T07:03:53.112Z</time></trkpt><trkpt lat="43.6132816" lon="11.1839467"><ele>170.6</ele><time>2026-04-11T07:03:54.113Z</time></trkpt><trkpt lat="43.6131824" lon="11.1840366"><ele>170.0</ele><time>2026-04-11T07:03:55.113Z</time></trkpt><trkpt lat="43.6130767" lon="11.1841241"><ele>170.0</ele><time>2026-04-11T07:03:56.112Z</time></trkpt><trkpt lat="43.6129731" lon="11.1842119"><ele>170.0</ele><time>2026-04-11T07:03:57.113Z</time></trkpt><trkpt lat="43.6128773" lon="11.1842964"><ele>170.0</ele><time>2026-04-11T07:03:58.113Z</time></trkpt><trkpt lat="43.6127853" lon="11.1843692"><ele>170.0</ele><time>2026-04-11T07:03:59.112Z</time></trkpt><trkpt lat="43.6127093" lon="11.1844396"><ele>170.0</ele><time>2026-04-11T07:04:00.113Z</time></trkpt><trkpt lat="43.6126399" lon="11.1845074"><ele>169.83333333333331</ele><time>2026-04-11T07:04:01.114Z</time></trkpt><trkpt lat="43.6125875" lon="11.1845654"><ele>169.66666666666666</ele><time>2026-04-11T07:04:02.113Z</time></trkpt><trkpt lat="43.6125024" lon="11.1847026"><ele>169.5</ele><time>2026-04-11T07:04:04.113Z</time></trkpt><trkpt lat="43.6124748" lon="11.1847845"><ele>169.33333333333334</ele><time>2026-04-11T07:04:05.112Z</time></trkpt><trkpt lat="43.6124286" lon="11.1848776"><ele>169.16666666666669</ele><time>2026-04-11T07:04:06.112Z</time></trkpt><trkpt lat="43.6123734" lon="11.1849722"><ele>169.0</ele><time>2026-04-11T07:04:07.113Z</time></trkpt><trkpt lat="43.6123062" lon="11.1850688"><ele>167.66666666666669</ele><time>2026-04-11T07:04:08.112Z</time></trkpt><trkpt lat="43.612248" lon="11.1851694"><ele>166.33333333333334</ele><time>2026-04-11T07:04:09.113Z</time></trkpt><trkpt lat="43.6121962" lon="11.1852738"><ele>165.0</ele><time>2026-04-11T07:04:10.114Z</time></trkpt><trkpt lat="43.6121505" lon="11.1853791"><ele>163.66666666666666</ele><time>2026-04-11T07:04:11.113Z</time></trkpt><trkpt lat="43.6121389" lon="11.1854806"><ele>162.33333333333331</ele><time>2026-04-11T07:04:12.113Z</time></trkpt><trkpt lat="43.6121581" lon="11.1855708"><ele>161.0</ele><time>2026-04-11T07:04:13.113Z</time></trkpt><trkpt lat="43.6121868" lon="11.1856718"><ele>159.33333333333331</ele><time>2026-04-11T07:04:14.112Z</time></trkpt><trkpt lat="43.6122316" lon="11.1857544"><ele>157.66666666666666</ele><time>2026-04-11T07:04:15.113Z</time></trkpt><trkpt lat="43.6122779" lon="11.1858473"><ele>156.0</ele><time>2026-04-11T07:04:16.112Z</time></trkpt><trkpt lat="43.6123134" lon="11.1859263"><ele>154.33333333333334</ele><time>2026-04-11T07:04:17.112Z</time></trkpt><trkpt lat="43.612357" lon="11.1860383"><ele>152.66666666666669</ele><time>2026-04-11T07:04:19.112Z</time></trkpt><trkpt lat="43.6123195" lon="11.186132"><ele>151.0</ele><time>2026-04-11T07:04:22.112Z</time></trkpt><trkpt lat="43.6122289" lon="11.1860974"><ele>151.0</ele><time>2026-04-11T07:04:24.112Z</time></trkpt><trkpt lat="43.6121545" lon="11.1860586"><ele>151.0</ele><time>2026-04-11T07:04:25.112Z</time></trkpt><trkpt lat="43.6120659" lon="11.1860113"><ele>151.0</ele><time>2026-04-11T07:04:26.112Z</time></trkpt><trkpt lat="43.6119779" lon="11.1859612"><ele>151.0</ele><time>2026-04-11T07:04:27.112Z</time></trkpt><trkpt lat="43.6118873" lon="11.1859105"><ele>151.0</ele><time>2026-04-11T07:04:28.114Z</time></trkpt><trkpt lat="43.6117869" lon="11.1858501"><ele>151.75</ele><time>2026-04-11T07:04:29.112Z</time></trkpt><trkpt lat="43.6116824" lon="11.1857904"><ele>152.5</ele><time>2026-04-11T07:04:30.112Z</time></trkpt><trkpt lat="43.6115588" lon="11.1857414"><ele>153.25</ele><time>2026-04-11T07:04:31.113Z</time></trkpt><trkpt lat="43.6114361" lon="11.1856686"><ele>154.0</ele><time>2026-04-11T07:04:32.111Z</time></trkpt><trkpt lat="43.6113203" lon="11.1855947"><ele>155.75</ele><time>2026-04-11T07:04:33.112Z</time></trkpt><trkpt lat="43.6112095" lon="11.1855105"><ele>157.5</ele><time>2026-04-11T07:04:34.114Z</time></trkpt><trkpt lat="43.6111024" lon="11.185411"><ele>159.25</ele><time>2026-04-11T07:04:35.113Z</time></trkpt><trkpt lat="43.6110031" lon="11.1852855"><ele>161.0</ele><time>2026-04-11T07:04:36.113Z</time></trkpt><trkpt lat="43.6108985" lon="11.185164"><ele>162.75</ele><time>2026-04-11T07:04:37.112Z</time></trkpt><trkpt lat="43.6107718" lon="11.1850765"><ele>164.5</ele><time>2026-04-11T07:04:38.113Z</time></trkpt><trkpt lat="43.6106365" lon="11.184996"><ele>166.25</ele><time>2026-04-11T07:04:39.111Z</time></trkpt><trkpt lat="43.6104988" lon="11.1849144"><ele>168.0</ele><time>2026-04-11T07:04:40.114Z</time></trkpt><trkpt lat="43.6103749" lon="11.1848312"><ele>171.25</ele><time>2026-04-11T07:04:41.114Z</time></trkpt><trkpt lat="43.6102566" lon="11.1847578"><ele>174.5</ele><time>2026-04-11T07:04:42.111Z</time></trkpt><trkpt lat="43.6101449" lon="11.1846827"><ele>177.75</ele><time>2026-04-11T07:04:43.113Z</time></trkpt><trkpt lat="43.6100436" lon="11.1845972"><ele>181.0</ele><time>2026-04-11T07:04:44.112Z</time></trkpt><trkpt lat="43.6099439" lon="11.1844957"><ele>181.0</ele><time>2026-04-11T07:04:45.111Z</time></trkpt><trkpt lat="43.6098612" lon="11.1843637"><ele>181.0</ele><time>2026-04-11T07:04:46.112Z</time></trkpt><trkpt lat="43.6097985" lon="11.184211"><ele>181.0</ele><time>2026-04-11T07:04:47.112Z</time></trkpt><trkpt lat="43.6097452" lon="11.1840909"><ele>181.0</ele><time>2026-04-11T07:04:48.113Z</time></trkpt><trkpt lat="43.609673" lon="11.1840001"><ele>183.8</ele><time>2026-04-11T07:04:49.113Z</time></trkpt><trkpt lat="43.6095805" lon="11.1839572"><ele>186.60000000000002</ele><time>2026-04-11T07:04:50.113Z</time></trkpt><trkpt lat="43.609475" lon="11.1839615"><ele>189.4</ele><time>2026-04-11T07:04:51.112Z</time></trkpt><trkpt lat="43.6093758" lon="11.1839788"><ele>192.2</ele><time>2026-04-11T07:04:52.113Z</time></trkpt><trkpt lat="43.6092867" lon="11.1839985"><ele>195.0</ele><time>2026-04-11T07:04:53.112Z</time></trkpt><trkpt lat="43.6092082" lon="11.1840054"><ele>197.66666666666666</ele><time>2026-04-11T07:04:54.113Z</time></trkpt><trkpt lat="43.6091437" lon="11.1839964"><ele>200.33333333333331</ele><time>2026-04-11T07:04:55.112Z</time></trkpt><trkpt lat="43.6090283" lon="11.1839451"><ele>203.0</ele><time>2026-04-11T07:04:57.112Z</time></trkpt><trkpt lat="43.6089672" lon="11.1838965"><ele>205.66666666666666</ele><time>2026-04-11T07:04:58.112Z</time></trkpt><trkpt lat="43.6089056" lon="11.1838345"><ele>208.33333333333331</ele><time>2026-04-11T07:04:59.112Z</time></trkpt><trkpt lat="43.6088199" lon="11.1837474"><ele>211.0</ele><time>2026-04-11T07:05:01.112Z</time></trkpt><trkpt lat="43.6087608" lon="11.1836848"><ele>211.0</ele><time>2026-04-11T07:05:03.111Z</time></trkpt><trkpt lat="43.6087085" lon="11.18362"><ele>211.0</ele><time>2026-04-11T07:05:12.113Z</time></trkpt><trkpt lat="43.6086421" lon="11.1835462"><ele>211.0</ele><time>2026-04-11T07:05:15.113Z</time></trkpt><trkpt lat="43.6086849" lon="11.1836622"><ele>211.0</ele><time>2026-04-11T07:05:23.112Z</time></trkpt><trkpt lat="43.6087816" lon="11.1837419"><ele>211.0</ele><time>2026-04-11T07:05:25.112Z</time></trkpt><trkpt lat="43.6088756" lon="11.1838407"><ele>211.0</ele><time>2026-04-11T07:05:27.112Z</time></trkpt><trkpt lat="43.6089666" lon="11.1839255"><ele>211.0</ele><time>2026-04-11T07:05:29.113Z</time></trkpt><trkpt lat="43.6090532" lon="11.1839825"><ele>211.0</ele><time>2026-04-11T07:05:31.113Z</time></trkpt><trkpt lat="43.6091419" lon="11.1840245"><ele>211.0</ele><time>2026-04-11T07:05:33.113Z</time></trkpt><trkpt lat="43.6092298" lon="11.1840344"><ele>211.0</ele><time>2026-04-11T07:05:35.113Z</time></trkpt><trkpt lat="43.6093221" lon="11.1840215"><ele>210.99999999999997</ele><time>2026-04-11T07:05:37.113Z</time></trkpt><trkpt lat="43.6094054" lon="11.1840056"><ele>211.0</ele><time>2026-04-11T07:05:39.112Z</time></trkpt><trkpt lat="43.6094885" lon="11.1839722"><ele>211.0</ele><time>2026-04-11T07:05:41.113Z</time></trkpt><trkpt lat="43.6095743" lon="11.1839696"><ele>211.0</ele><time>2026-04-11T07:05:43.112Z</time></trkpt><trkpt lat="43.6096504" lon="11.1840088"><ele>210.99999999999997</ele><time>2026-04-11T07:05:45.112Z</time></trkpt><trkpt lat="43.6097099" lon="11.1840997"><ele>211.0</ele><time>2026-04-11T07:05:47.112Z</time></trkpt><trkpt lat="43.6097644" lon="11.1842006"><ele>205.99999999999997</ele><time>2026-04-11T07:05:49.111Z</time></trkpt><trkpt lat="43.6098099" lon="11.1843212"><ele>201.0</ele><time>2026-04-11T07:05:51.114Z</time></trkpt><trkpt lat="43.6098542" lon="11.1844262"><ele>196.0</ele><time>2026-04-11T07:05:53.113Z</time></trkpt><trkpt lat="43.6099014" lon="11.1845008"><ele>191.0</ele><time>2026-04-11T07:05:55.113Z</time></trkpt><trkpt lat="43.6099233" lon="11.1844107"><ele>186.0</ele><time>2026-04-11T07:06:00.113Z</time></trkpt><trkpt lat="43.6098588" lon="11.1843629"><ele>181.0</ele><time>2026-04-11T07:06:03.113Z</time></trkpt><trkpt lat="43.6098251" lon="11.1842744"><ele>181.0</ele><time>2026-04-11T07:06:05.113Z</time></trkpt><trkpt lat="43.6097853" lon="11.1841687"><ele>181.0</ele><time>2026-04-11T07:06:07.112Z</time></trkpt><trkpt lat="43.6097293" lon="11.1840539"><ele>181.0</ele><time>2026-04-11T07:06:09.112Z</time></trkpt><trkpt lat="43.6096821" lon="11.183984"><ele>181.0</ele><time>2026-04-11T07:06:12.111Z</time></trkpt><trkpt lat="43.6095947" lon="11.1839587"><ele>181.0</ele><time>2026-04-11T07:06:31.113Z</time></trkpt><trkpt lat="43.6095069" lon="11.1840093"><ele>181.0</ele><time>2026-04-11T07:06:33.113Z</time></trkpt><trkpt lat="43.6094408" lon="11.1840656"><ele>182.8</ele><time>2026-04-11T07:06:35.112Z</time></trkpt><trkpt lat="43.6093568" lon="11.1841074"><ele>184.60000000000002</ele><time>2026-04-11T07:06:37.113Z</time></trkpt><trkpt lat="43.6092616" lon="11.1841203"><ele>186.4</ele><time>2026-04-11T07:06:39.112Z</time></trkpt><trkpt lat="43.6091801" lon="11.1841318"><ele>188.2</ele><time>2026-04-11T07:06:41.112Z</time></trkpt><trkpt lat="43.6090807" lon="11.1841128"><ele>190.0</ele><time>2026-04-11T07:06:43.113Z</time></trkpt><trkpt lat="43.6089784" lon="11.184072"><ele>190.0</ele><time>2026-04-11T07:06:45.113Z</time></trkpt><trkpt lat="43.6088942" lon="11.1840239"><ele>190.0</ele><time>2026-04-11T07:06:47.112Z</time></trkpt><trkpt lat="43.6088164" lon="11.1839966"><ele>190.0</ele><time>2026-04-11T07:07:29.113Z</time></trkpt><trkpt lat="43.608713" lon="11.1839548"><ele>190.0</ele><time>2026-04-11T07:07:31.113Z</time></trkpt><trkpt lat="43.6086477" lon="11.1839233"><ele>190.0</ele><time>2026-04-11T07:07:32.112Z</time></trkpt><trkpt lat="43.6085747" lon="11.1838828"><ele>190.0</ele><time>2026-04-11T07:07:33.112Z</time></trkpt><trkpt lat="43.6085024" lon="11.1838383"><ele>191.83333333333334</ele><time>2026-04-11T07:07:34.112Z</time></trkpt><trkpt lat="43.6084295" lon="11.183778"><ele>193.66666666666669</ele><time>2026-04-11T07:07:35.114Z</time></trkpt><trkpt lat="43.6083509" lon="11.1837172"><ele>195.5</ele><time>2026-04-11T07:07:36.112Z</time></trkpt><trkpt lat="43.6082839" lon="11.1836375"><ele>197.33333333333334</ele><time>2026-04-11T07:07:37.112Z</time></trkpt><trkpt lat="43.6082203" lon="11.1835616"><ele>199.16666666666666</ele><time>2026-04-11T07:07:38.113Z</time></trkpt><trkpt lat="43.6081586" lon="11.183489"><ele>201.0</ele><time>2026-04-11T07:07:39.112Z</time></trkpt><trkpt lat="43.6081011" lon="11.1834325"><ele>201.0</ele><time>2026-04-11T07:07:40.113Z</time></trkpt><trkpt lat="43.608001" lon="11.1833522"><ele>201.0</ele><time>2026-04-11T07:07:42.113Z</time></trkpt><trkpt lat="43.6079006" lon="11.1833521"><ele>201.0</ele><time>2026-04-11T07:07:44.113Z</time></trkpt><trkpt lat="43.6078142" lon="11.1834602"><ele>201.0</ele><time>2026-04-11T07:07:46.112Z</time></trkpt><trkpt lat="43.607771" lon="11.1835442"><ele>201.0</ele><time>2026-04-11T07:07:47.114Z</time></trkpt><trkpt lat="43.6077242" lon="11.1836294"><ele>200.4</ele><time>2026-04-11T07:07:48.113Z</time></trkpt><trkpt lat="43.6076666" lon="11.1837166"><ele>199.8</ele><time>2026-04-11T07:07:49.112Z</time></trkpt><trkpt lat="43.6075961" lon="11.1838002"><ele>199.20000000000002</ele><time>2026-04-11T07:07:50.113Z</time></trkpt><trkpt lat="43.6075207" lon="11.1838939"><ele>198.60000000000002</ele><time>2026-04-11T07:07:51.113Z</time></trkpt><trkpt lat="43.6074393" lon="11.183993"><ele>198.0</ele><time>2026-04-11T07:07:52.113Z</time></trkpt><trkpt lat="43.607357" lon="11.184096"><ele>198.0</ele><time>2026-04-11T07:07:53.113Z</time></trkpt><trkpt lat="43.6072724" lon="11.1841922"><ele>198.0</ele><time>2026-04-11T07:07:54.112Z</time></trkpt><trkpt lat="43.6071873" lon="11.1842845"><ele>198.0</ele><time>2026-04-11T07:07:55.112Z</time></trkpt><trkpt lat="43.6071014" lon="11.1843763"><ele>198.0</ele><time>2026-04-11T07:07:56.112Z</time></trkpt><trkpt lat="43.607012" lon="11.1844732"><ele>198.0</ele><time>2026-04-11T07:07:57.112Z</time></trkpt><trkpt lat="43.6069237" lon="11.1845717"><ele>198.8</ele><time>2026-04-11T07:07:58.112Z</time></trkpt><trkpt lat="43.60684" lon="11.1846706"><ele>199.60000000000002</ele><time>2026-04-11T07:07:59.113Z</time></trkpt><trkpt lat="43.6067575" lon="11.1847469"><ele>200.39999999999998</ele><time>2026-04-11T07:08:00.112Z</time></trkpt><trkpt lat="43.6066752" lon="11.1848193"><ele>201.2</ele><time>2026-04-11T07:08:01.113Z</time></trkpt><trkpt lat="43.6065887" lon="11.1849048"><ele>202.0</ele><time>2026-04-11T07:08:02.112Z</time></trkpt><trkpt lat="43.6065003" lon="11.1849804"><ele>202.0</ele><time>2026-04-11T07:08:03.114Z</time></trkpt><trkpt lat="43.6064155" lon="11.1850437"><ele>202.0</ele><time>2026-04-11T07:08:04.112Z</time></trkpt><trkpt lat="43.6063351" lon="11.1851144"><ele>202.0</ele><time>2026-04-11T07:08:05.112Z</time></trkpt><trkpt lat="43.6062536" lon="11.1851896"><ele>202.0</ele><time>2026-04-11T07:08:06.114Z</time></trkpt><trkpt lat="43.6061718" lon="11.1852744"><ele>202.0</ele><time>2026-04-11T07:08:07.113Z</time></trkpt><trkpt lat="43.6060852" lon="11.1853589"><ele>200.39999999999998</ele><time>2026-04-11T07:08:08.114Z</time></trkpt><trkpt lat="43.6059944" lon="11.185429"><ele>198.79999999999998</ele><time>2026-04-11T07:08:09.112Z</time></trkpt><trkpt lat="43.6059076" lon="11.1855034"><ele>197.2</ele><time>2026-04-11T07:08:10.112Z</time></trkpt><trkpt lat="43.6058302" lon="11.1855752"><ele>195.6</ele><time>2026-04-11T07:08:11.112Z</time></trkpt><trkpt lat="43.6057535" lon="11.1856454"><ele>194.0</ele><time>2026-04-11T07:08:12.113Z</time></trkpt><trkpt lat="43.6056757" lon="11.1857124"><ele>194.0</ele><time>2026-04-11T07:08:13.114Z</time></trkpt><trkpt lat="43.6056086" lon="11.1857758"><ele>194.0</ele><time>2026-04-11T07:08:14.112Z</time></trkpt><trkpt lat="43.6055503" lon="11.1858431"><ele>194.0</ele><time>2026-04-11T07:08:15.114Z</time></trkpt><trkpt lat="43.6054971" lon="11.1858991"><ele>194.0</ele><time>2026-04-11T07:08:16.113Z</time></trkpt><trkpt lat="43.6054428" lon="11.1859532"><ele>194.0</ele><time>2026-04-11T07:08:17.112Z</time></trkpt><trkpt lat="43.605386" lon="11.1860195"><ele>194.0</ele><time>2026-04-11T07:08:18.112Z</time></trkpt><trkpt lat="43.605323" lon="11.1860929"><ele>194.0</ele><time>2026-04-11T07:08:19.112Z</time></trkpt><trkpt lat="43.6052592" lon="11.1861718"><ele>194.83333333333334</ele><time>2026-04-11T07:08:20.113Z</time></trkpt><trkpt lat="43.6051861" lon="11.1862464"><ele>195.66666666666669</ele><time>2026-04-11T07:08:21.114Z</time></trkpt><trkpt lat="43.6051116" lon="11.1863105"><ele>196.5</ele><time>2026-04-11T07:08:22.113Z</time></trkpt><trkpt lat="43.6050457" lon="11.1863664"><ele>197.33333333333331</ele><time>2026-04-11T07:08:23.112Z</time></trkpt><trkpt lat="43.6049861" lon="11.1864191"><ele>198.16666666666666</ele><time>2026-04-11T07:08:24.113Z</time></trkpt><trkpt lat="43.6049323" lon="11.1864656"><ele>199.0</ele><time>2026-04-11T07:08:25.112Z</time></trkpt><trkpt lat="43.6048768" lon="11.1865112"><ele>198.99999999999997</ele><time>2026-04-11T07:08:26.112Z</time></trkpt><trkpt lat="43.6048172" lon="11.1865595"><ele>199.0</ele><time>2026-04-11T07:08:27.112Z</time></trkpt><trkpt lat="43.6047131" lon="11.1865979"><ele>199.0</ele><time>2026-04-11T07:08:29.113Z</time></trkpt><trkpt lat="43.6046414" lon="11.1865649"><ele>199.0</ele><time>2026-04-11T07:08:31.112Z</time></trkpt><trkpt lat="43.6046266" lon="11.1864752"><ele>198.99999999999997</ele><time>2026-04-11T07:08:33.112Z</time></trkpt><trkpt lat="43.6046091" lon="11.1863733"><ele>199.0</ele><time>2026-04-11T07:08:36.112Z</time></trkpt><trkpt lat="43.604541" lon="11.1863136"><ele>198.83333333333331</ele><time>2026-04-11T07:08:38.113Z</time></trkpt><trkpt lat="43.6044407" lon="11.1863267"><ele>198.66666666666666</ele><time>2026-04-11T07:08:40.112Z</time></trkpt><trkpt lat="43.6043463" lon="11.1863626"><ele>198.5</ele><time>2026-04-11T07:08:42.113Z</time></trkpt><trkpt lat="43.604283" lon="11.1863687"><ele>198.33333333333331</ele><time>2026-04-11T07:08:44.113Z</time></trkpt><trkpt lat="43.6042606" lon="11.1864524"><ele>198.16666666666666</ele><time>2026-04-11T07:08:47.112Z</time></trkpt><trkpt lat="43.6043093" lon="11.1863872"><ele>198.0</ele><time>2026-04-11T07:08:51.112Z</time></trkpt><trkpt lat="43.60425" lon="11.1862901"><ele>198.0</ele><time>2026-04-11T07:08:53.114Z</time></trkpt><trkpt lat="43.6041974" lon="11.1861662"><ele>198.0</ele><time>2026-04-11T07:08:55.113Z</time></trkpt><trkpt lat="43.6041724" lon="11.186083"><ele>198.0</ele><time>2026-04-11T07:08:56.113Z</time></trkpt><trkpt lat="43.6041421" lon="11.185919"><ele>198.0</ele><time>2026-04-11T07:08:58.112Z</time></trkpt><trkpt lat="43.6041224" lon="11.1858267"><ele>198.0</ele><time>2026-04-11T07:08:59.113Z</time></trkpt><trkpt lat="43.6041058" lon="11.1857361"><ele>198.0</ele><time>2026-04-11T07:09:00.112Z</time></trkpt><trkpt lat="43.6040882" lon="11.1856465"><ele>199.5</ele><time>2026-04-11T07:09:01.113Z</time></trkpt><trkpt lat="43.6040705" lon="11.1855599"><ele>201.0</ele><time>2026-04-11T07:09:02.113Z</time></trkpt><trkpt lat="43.6040597" lon="11.1854585"><ele>202.5</ele><time>2026-04-11T07:09:03.114Z</time></trkpt><trkpt lat="43.6040415" lon="11.1853559"><ele>204.0</ele><time>2026-04-11T07:09:04.113Z</time></trkpt><trkpt lat="43.6040267" lon="11.1852647"><ele>205.5</ele><time>2026-04-11T07:09:05.113Z</time></trkpt><trkpt lat="43.6040043" lon="11.185131"><ele>207.0</ele><time>2026-04-11T07:09:07.113Z</time></trkpt><trkpt lat="43.6039806" lon="11.1850009"><ele>207.0</ele><time>2026-04-11T07:09:09.113Z</time></trkpt><trkpt lat="43.6039519" lon="11.1848591"><ele>207.0</ele><time>2026-04-11T07:09:11.114Z</time></trkpt><trkpt lat="43.603924" lon="11.1847382"><ele>207.0</ele><time>2026-04-11T07:09:13.114Z</time></trkpt><trkpt lat="43.6038915" lon="11.1846475"><ele>207.0</ele><time>2026-04-11T07:09:15.112Z</time></trkpt><trkpt lat="43.6038518" lon="11.1845776"><ele>207.0</ele><time>2026-04-11T07:09:18.111Z</time></trkpt><trkpt lat="43.6038692" lon="11.1846754"><ele>207.0</ele><time>2026-04-11T07:09:23.112Z</time></trkpt><trkpt lat="43.6039198" lon="11.1847808"><ele>207.0</ele><time>2026-04-11T07:09:25.113Z</time></trkpt><trkpt lat="43.6039546" lon="11.1849267"><ele>207.0</ele><time>2026-04-11T07:09:27.114Z</time></trkpt><trkpt lat="43.6039758" lon="11.1850152"><ele>207.0</ele><time>2026-04-11T07:09:28.113Z</time></trkpt><trkpt lat="43.6039918" lon="11.1851059"><ele>207.0</ele><time>2026-04-11T07:09:29.112Z</time></trkpt><trkpt lat="43.6040104" lon="11.1852138"><ele>207.0</ele><time>2026-04-11T07:09:30.114Z</time></trkpt><trkpt lat="43.6040306" lon="11.1853206"><ele>207.0</ele><time>2026-04-11T07:09:31.113Z</time></trkpt><trkpt lat="43.6040453" lon="11.1854232"><ele>207.00000000000003</ele><time>2026-04-11T07:09:32.111Z</time></trkpt><trkpt lat="43.6040563" lon="11.1855161"><ele>207.0</ele><time>2026-04-11T07:09:33.112Z</time></trkpt><trkpt lat="43.6040679" lon="11.1856088"><ele>207.0</ele><time>2026-04-11T07:09:34.112Z</time></trkpt><trkpt lat="43.6040854" lon="11.1856965"><ele>207.0</ele><time>2026-04-11T07:09:35.114Z</time></trkpt><trkpt lat="43.6041037" lon="11.1857912"><ele>207.0</ele><time>2026-04-11T07:09:36.112Z</time></trkpt><trkpt lat="43.6041284" lon="11.1858801"><ele>207.00000000000003</ele><time>2026-04-11T07:09:37.113Z</time></trkpt><trkpt lat="43.6041458" lon="11.1859658"><ele>207.0</ele><time>2026-04-11T07:09:38.113Z</time></trkpt><trkpt lat="43.604183" lon="11.1861084"><ele>205.5</ele><time>2026-04-11T07:09:40.111Z</time></trkpt><trkpt lat="43.604217" lon="11.1862037"><ele>204.0</ele><time>2026-04-11T07:09:42.113Z</time></trkpt><trkpt lat="43.6042756" lon="11.1863004"><ele>202.5</ele><time>2026-04-11T07:09:44.113Z</time></trkpt><trkpt lat="43.6042702" lon="11.186402"><ele>201.0</ele><time>2026-04-11T07:09:47.113Z</time></trkpt><trkpt lat="43.6042075" lon="11.1863837"><ele>199.5</ele><time>2026-04-11T07:09:49.112Z</time></trkpt><trkpt lat="43.6041309" lon="11.1862641"><ele>198.0</ele><time>2026-04-11T07:09:51.114Z</time></trkpt><trkpt lat="43.6040769" lon="11.1861443"><ele>198.0</ele><time>2026-04-11T07:09:53.113Z</time></trkpt><trkpt lat="43.6040097" lon="11.1860635"><ele>198.0</ele><time>2026-04-11T07:09:55.113Z</time></trkpt><trkpt lat="43.6039141" lon="11.1860448"><ele>198.0</ele><time>2026-04-11T07:09:57.112Z</time></trkpt><trkpt lat="43.6037772" lon="11.1860488"><ele>198.0</ele><time>2026-04-11T07:09:59.113Z</time></trkpt><trkpt lat="43.6037061" lon="11.1860545"><ele>198.0</ele><time>2026-04-11T07:10:00.113Z</time></trkpt><trkpt lat="43.6036304" lon="11.1860603"><ele>196.42857142857144</ele><time>2026-04-11T07:10:01.114Z</time></trkpt><trkpt lat="43.6035622" lon="11.1860454"><ele>194.85714285714283</ele><time>2026-04-11T07:10:02.112Z</time></trkpt><trkpt lat="43.6034871" lon="11.1860278"><ele>193.28571428571428</ele><time>2026-04-11T07:10:03.113Z</time></trkpt><trkpt lat="43.6034119" lon="11.1860028"><ele>191.71428571428572</ele><time>2026-04-11T07:10:04.114Z</time></trkpt><trkpt lat="43.6033358" lon="11.1859841"><ele>190.14285714285717</ele><time>2026-04-11T07:10:05.112Z</time></trkpt><trkpt lat="43.6032695" lon="11.1859799"><ele>188.57142857142856</ele><time>2026-04-11T07:10:06.112Z</time></trkpt><trkpt lat="43.6032047" lon="11.1859777"><ele>187.0</ele><time>2026-04-11T07:10:07.114Z</time></trkpt><trkpt lat="43.6030936" lon="11.1859841"><ele>187.0</ele><time>2026-04-11T07:10:09.112Z</time></trkpt><trkpt lat="43.6030113" lon="11.1859893"><ele>187.0</ele><time>2026-04-11T07:10:11.114Z</time></trkpt><trkpt lat="43.6029381" lon="11.1860237"><ele>187.0</ele><time>2026-04-11T07:10:13.113Z</time></trkpt><trkpt lat="43.6028679" lon="11.1861311"><ele>187.0</ele><time>2026-04-11T07:10:15.113Z</time></trkpt><trkpt lat="43.6028294" lon="11.1862048"><ele>187.0</ele><time>2026-04-11T07:10:16.112Z</time></trkpt><trkpt lat="43.6027969" lon="11.1862888"><ele>187.0</ele><time>2026-04-11T07:10:17.113Z</time></trkpt><trkpt lat="43.6027661" lon="11.1863785"><ele>188.0</ele><time>2026-04-11T07:10:18.112Z</time></trkpt><trkpt lat="43.6027431" lon="11.1864717"><ele>189.0</ele><time>2026-04-11T07:10:19.112Z</time></trkpt><trkpt lat="43.6027303" lon="11.1865612"><ele>190.0</ele><time>2026-04-11T07:10:20.112Z</time></trkpt><trkpt lat="43.60272" lon="11.1866567"><ele>191.0</ele><time>2026-04-11T07:10:21.114Z</time></trkpt><trkpt lat="43.6027021" lon="11.186756"><ele>192.0</ele><time>2026-04-11T07:10:22.113Z</time></trkpt><trkpt lat="43.6027002" lon="11.1868559"><ele>193.0</ele><time>2026-04-11T07:10:23.112Z</time></trkpt><trkpt lat="43.6026883" lon="11.1869559"><ele>194.0</ele><time>2026-04-11T07:10:24.113Z</time></trkpt><trkpt lat="43.6026731" lon="11.1870545"><ele>194.0</ele><time>2026-04-11T07:10:25.114Z</time></trkpt><trkpt lat="43.6026678" lon="11.1872262"><ele>194.0</ele><time>2026-04-11T07:10:27.112Z</time></trkpt><trkpt lat="43.6026729" lon="11.1873136"><ele>194.0</ele><time>2026-04-11T07:10:28.112Z</time></trkpt><trkpt lat="43.6026778" lon="11.1874029"><ele>194.0</ele><time>2026-04-11T07:10:29.112Z</time></trkpt><trkpt lat="43.6026776" lon="11.1875586"><ele>194.0</ele><time>2026-04-11T07:10:31.114Z</time></trkpt><trkpt lat="43.6026635" lon="11.1876907"><ele>193.33333333333334</ele><time>2026-04-11T07:10:33.112Z</time></trkpt><trkpt lat="43.6026622" lon="11.1878009"><ele>192.66666666666669</ele><time>2026-04-11T07:10:35.113Z</time></trkpt><trkpt lat="43.6026518" lon="11.187917"><ele>192.0</ele><time>2026-04-11T07:10:38.114Z</time></trkpt><trkpt lat="43.6025867" lon="11.1879499"><ele>191.33333333333334</ele><time>2026-04-11T07:10:42.114Z</time></trkpt><trkpt lat="43.6025072" lon="11.1878655"><ele>190.66666666666669</ele><time>2026-04-11T07:10:44.113Z</time></trkpt><trkpt lat="43.6024186" lon="11.1878139"><ele>190.0</ele><time>2026-04-11T07:10:46.113Z</time></trkpt><trkpt lat="43.6023048" lon="11.1877348"><ele>190.0</ele><time>2026-04-11T07:10:48.114Z</time></trkpt><trkpt lat="43.6022443" lon="11.1876924"><ele>190.0</ele><time>2026-04-11T07:10:49.114Z</time></trkpt><trkpt lat="43.6021875" lon="11.187645"><ele>190.0</ele><time>2026-04-11T07:10:50.113Z</time></trkpt><trkpt lat="43.6020776" lon="11.1875805"><ele>190.0</ele><time>2026-04-11T07:10:52.113Z</time></trkpt><trkpt lat="43.6020205" lon="11.187533"><ele>190.0</ele><time>2026-04-11T07:10:53.112Z</time></trkpt><trkpt lat="43.6019097" lon="11.1874587"><ele>190.0</ele><time>2026-04-11T07:10:55.114Z</time></trkpt><trkpt lat="43.6018447" lon="11.1874368"><ele>192.85714285714286</ele><time>2026-04-11T07:10:56.113Z</time></trkpt><trkpt lat="43.6017818" lon="11.1874208"><ele>195.71428571428572</ele><time>2026-04-11T07:10:57.112Z</time></trkpt><trkpt lat="43.6017178" lon="11.187406"><ele>198.57142857142856</ele><time>2026-04-11T07:10:58.113Z</time></trkpt><trkpt lat="43.6016496" lon="11.1873901"><ele>201.42857142857144</ele><time>2026-04-11T07:10:59.113Z</time></trkpt><trkpt lat="43.6015746" lon="11.1873607"><ele>204.28571428571428</ele><time>2026-04-11T07:11:00.114Z</time></trkpt><trkpt lat="43.6014941" lon="11.187325"><ele>207.14285714285714</ele><time>2026-04-11T07:11:01.114Z</time></trkpt><trkpt lat="43.6014189" lon="11.1872858"><ele>210.0</ele><time>2026-04-11T07:11:02.113Z</time></trkpt><trkpt lat="43.6013404" lon="11.18725"><ele>212.14285714285714</ele><time>2026-04-11T07:11:03.114Z</time></trkpt><trkpt lat="43.6012635" lon="11.1872182"><ele>214.28571428571428</ele><time>2026-04-11T07:11:04.112Z</time></trkpt><trkpt lat="43.6011949" lon="11.1871907"><ele>216.42857142857144</ele><time>2026-04-11T07:11:05.112Z</time></trkpt><trkpt lat="43.6011269" lon="11.1871617"><ele>218.57142857142858</ele><time>2026-04-11T07:11:06.112Z</time></trkpt><trkpt lat="43.601062" lon="11.187144"><ele>220.71428571428572</ele><time>2026-04-11T07:11:07.112Z</time></trkpt><trkpt lat="43.6009916" lon="11.1871423"><ele>222.8571428571429</ele><time>2026-04-11T07:11:08.113Z</time></trkpt><trkpt lat="43.6009136" lon="11.1871613"><ele>225.00000000000003</ele><time>2026-04-11T07:11:09.114Z</time></trkpt><trkpt lat="43.6008314" lon="11.1871768"><ele>228.0</ele><time>2026-04-11T07:11:10.113Z</time></trkpt><trkpt lat="43.6007562" lon="11.1871932"><ele>231.0</ele><time>2026-04-11T07:11:11.112Z</time></trkpt><trkpt lat="43.6006893" lon="11.1871988"><ele>234.0</ele><time>2026-04-11T07:11:12.114Z</time></trkpt><trkpt lat="43.6006138" lon="11.1871941"><ele>237.0</ele><time>2026-04-11T07:11:14.113Z</time></trkpt><trkpt lat="43.6005643" lon="11.1871342"><ele>240.0</ele><time>2026-04-11T07:11:21.114Z</time></trkpt><trkpt lat="43.6005754" lon="11.1870344"><ele>243.0</ele><time>2026-04-11T07:11:23.113Z</time></trkpt><trkpt lat="43.6006335" lon="11.1869289"><ele>243.0</ele><time>2026-04-11T07:11:25.111Z</time></trkpt><trkpt lat="43.6007384" lon="11.186853"><ele>243.0</ele><time>2026-04-11T07:11:27.113Z</time></trkpt><trkpt lat="43.6008592" lon="11.1867893"><ele>243.0</ele><time>2026-04-11T07:11:29.112Z</time></trkpt><trkpt lat="43.6009237" lon="11.1867654"><ele>243.0</ele><time>2026-04-11T07:11:30.113Z</time></trkpt><trkpt lat="43.6009863" lon="11.1867273"><ele>243.0</ele><time>2026-04-11T07:11:31.113Z</time></trkpt><trkpt lat="43.6010517" lon="11.1866707"><ele>243.0</ele><time>2026-04-11T07:11:32.113Z</time></trkpt><trkpt lat="43.6011216" lon="11.1866174"><ele>243.0</ele><time>2026-04-11T07:11:33.113Z</time></trkpt><trkpt lat="43.6011945" lon="11.1865654"><ele>243.0</ele><time>2026-04-11T07:11:34.112Z</time></trkpt><trkpt lat="43.6012602" lon="11.1865063"><ele>243.0</ele><time>2026-04-11T07:11:35.112Z</time></trkpt><trkpt lat="43.6013211" lon="11.1864453"><ele>243.0</ele><time>2026-04-11T07:11:36.114Z</time></trkpt><trkpt lat="43.6013401" lon="11.1863609"><ele>243.0</ele><time>2026-04-11T07:11:37.112Z</time></trkpt><trkpt lat="43.6013571" lon="11.1862676"><ele>243.0</ele><time>2026-04-11T07:11:38.113Z</time></trkpt><trkpt lat="43.6013562" lon="11.1861666"><ele>240.4</ele><time>2026-04-11T07:11:39.114Z</time></trkpt><trkpt lat="43.6013436" lon="11.1860463"><ele>237.8</ele><time>2026-04-11T07:11:41.113Z</time></trkpt><trkpt lat="43.6013136" lon="11.1859181"><ele>235.2</ele><time>2026-04-11T07:11:52.112Z</time></trkpt><trkpt lat="43.6012766" lon="11.1857872"><ele>232.6</ele><time>2026-04-11T07:11:54.112Z</time></trkpt><trkpt lat="43.601193" lon="11.1856475"><ele>230.0</ele><time>2026-04-11T07:11:56.114Z</time></trkpt><trkpt lat="43.6011473" lon="11.1855826"><ele>234.83333333333334</ele><time>2026-04-11T07:11:57.113Z</time></trkpt><trkpt lat="43.6011233" lon="11.1854885"><ele>239.66666666666669</ele><time>2026-04-11T07:11:58.114Z</time></trkpt><trkpt lat="43.6010933" lon="11.1853881"><ele>244.5</ele><time>2026-04-11T07:11:59.113Z</time></trkpt><trkpt lat="43.6010605" lon="11.1852877"><ele>249.33333333333331</ele><time>2026-04-11T07:12:00.113Z</time></trkpt><trkpt lat="43.6010152" lon="11.1851917"><ele>254.16666666666666</ele><time>2026-04-11T07:12:01.113Z</time></trkpt><trkpt lat="43.6009524" lon="11.185109"><ele>259.0</ele><time>2026-04-11T07:12:02.112Z</time></trkpt><trkpt lat="43.6008853" lon="11.18505"><ele>259.0</ele><time>2026-04-11T07:12:03.112Z</time></trkpt><trkpt lat="43.6008172" lon="11.1849808"><ele>259.0</ele><time>2026-04-11T07:12:04.113Z</time></trkpt><trkpt lat="43.6007209" lon="11.1849154"><ele>259.0</ele><time>2026-04-11T07:12:06.112Z</time></trkpt><trkpt lat="43.6006561" lon="11.1849629"><ele>259.0</ele><time>2026-04-11T07:12:08.112Z</time></trkpt><trkpt lat="43.6006727" lon="11.1850769"><ele>259.0</ele><time>2026-04-11T07:12:10.112Z</time></trkpt><trkpt lat="43.6007142" lon="11.1852363"><ele>259.0</ele><time>2026-04-11T07:12:12.112Z</time></trkpt><trkpt lat="43.600732" lon="11.1853332"><ele>259.0</ele><time>2026-04-11T07:12:13.113Z</time></trkpt><trkpt lat="43.6007524" lon="11.1854403"><ele>259.0</ele><time>2026-04-11T07:12:14.113Z</time></trkpt><trkpt lat="43.6007492" lon="11.1855808"><ele>259.0</ele><time>2026-04-11T07:12:16.113Z</time></trkpt><trkpt lat="43.600812" lon="11.1855697"><ele>259.0</ele><time>2026-04-11T07:12:32.113Z</time></trkpt><trkpt lat="43.6007797" lon="11.1854685"><ele>259.0</ele><time>2026-04-11T07:12:34.113Z</time></trkpt><trkpt lat="43.6007533" lon="11.1853291"><ele>259.0</ele><time>2026-04-11T07:12:36.113Z</time></trkpt><trkpt lat="43.6007149" lon="11.1851864"><ele>259.0</ele><time>2026-04-11T07:12:38.112Z</time></trkpt><trkpt lat="43.6006662" lon="11.1850372"><ele>259.0</ele><time>2026-04-11T07:12:40.113Z</time></trkpt><trkpt lat="43.6006713" lon="11.1849135"><ele>259.0</ele><time>2026-04-11T07:12:42.112Z</time></trkpt><trkpt lat="43.6007439" lon="11.1848894"><ele>259.0</ele><time>2026-04-11T07:12:44.113Z</time></trkpt><trkpt lat="43.6008715" lon="11.1850278"><ele>259.0</ele><time>2026-04-11T07:12:46.113Z</time></trkpt><trkpt lat="43.6009396" lon="11.185131"><ele>259.0</ele><time>2026-04-11T07:12:47.112Z</time></trkpt><trkpt lat="43.6010018" lon="11.1852193"><ele>259.0</ele><time>2026-04-11T07:12:48.112Z</time></trkpt><trkpt lat="43.6010392" lon="11.1853302"><ele>259.0</ele><time>2026-04-11T07:12:49.112Z</time></trkpt><trkpt lat="43.6010777" lon="11.185442"><ele>259.0</ele><time>2026-04-11T07:12:50.112Z</time></trkpt><trkpt lat="43.6011215" lon="11.1855459"><ele>253.2</ele><time>2026-04-11T07:12:51.112Z</time></trkpt><trkpt lat="43.6011724" lon="11.1856242"><ele>247.39999999999998</ele><time>2026-04-11T07:12:52.112Z</time></trkpt><trkpt lat="43.6012222" lon="11.1856914"><ele>241.6</ele><time>2026-04-11T07:12:53.113Z</time></trkpt><trkpt lat="43.6012923" lon="11.1858383"><ele>235.8</ele><time>2026-04-11T07:12:55.112Z</time></trkpt><trkpt lat="43.6013186" lon="11.1859197"><ele>230.0</ele><time>2026-04-11T07:12:56.113Z</time></trkpt><trkpt lat="43.6013621" lon="11.1860717"><ele>230.0</ele><time>2026-04-11T07:12:58.113Z</time></trkpt><trkpt lat="43.6013826" lon="11.18624"><ele>230.0</ele><time>2026-04-11T07:13:00.113Z</time></trkpt><trkpt lat="43.6013761" lon="11.1863271"><ele>230.0</ele><time>2026-04-11T07:13:01.112Z</time></trkpt><trkpt lat="43.6013194" lon="11.1864834"><ele>230.0</ele><time>2026-04-11T07:13:03.112Z</time></trkpt><trkpt lat="43.6012508" lon="11.1865398"><ele>230.0</ele><time>2026-04-11T07:13:04.112Z</time></trkpt><trkpt lat="43.6011778" lon="11.1865938"><ele>232.6</ele><time>2026-04-11T07:13:05.113Z</time></trkpt><trkpt lat="43.6010847" lon="11.1866727"><ele>235.2</ele><time>2026-04-11T07:13:06.114Z</time></trkpt><trkpt lat="43.6010149" lon="11.1867342"><ele>237.8</ele><time>2026-04-11T07:13:07.112Z</time></trkpt><trkpt lat="43.6009428" lon="11.186777"><ele>240.4</ele><time>2026-04-11T07:13:08.114Z</time></trkpt><trkpt lat="43.60083" lon="11.1868366"><ele>243.0</ele><time>2026-04-11T07:13:10.113Z</time></trkpt><trkpt lat="43.6007153" lon="11.1868905"><ele>243.0</ele><time>2026-04-11T07:13:12.113Z</time></trkpt><trkpt lat="43.6006175" lon="11.1869816"><ele>243.0</ele><time>2026-04-11T07:13:14.113Z</time></trkpt><trkpt lat="43.6005869" lon="11.1870591"><ele>243.0</ele><time>2026-04-11T07:13:15.112Z</time></trkpt><trkpt lat="43.6005804" lon="11.1871462"><ele>243.0</ele><time>2026-04-11T07:13:16.112Z</time></trkpt><trkpt lat="43.6006051" lon="11.1872603"><ele>243.0</ele><time>2026-04-11T07:13:18.112Z</time></trkpt><trkpt lat="43.6006882" lon="11.1873079"><ele>243.0</ele><time>2026-04-11T07:13:34.113Z</time></trkpt><trkpt lat="43.600768" lon="11.187301"><ele>243.0</ele><time>2026-04-11T07:13:37.112Z</time></trkpt><trkpt lat="43.6007836" lon="11.1872129"><ele>243.0</ele><time>2026-04-11T07:13:41.113Z</time></trkpt><trkpt lat="43.6007184" lon="11.187211"><ele>243.0</ele><time>2026-04-11T07:13:45.114Z</time></trkpt><trkpt lat="43.6006536" lon="11.1872164"><ele>243.0</ele><time>2026-04-11T07:13:47.113Z</time></trkpt><trkpt lat="43.6005837" lon="11.1871948"><ele>243.0</ele><time>2026-04-11T07:13:56.113Z</time></trkpt><trkpt lat="43.6005662" lon="11.1870695"><ele>243.0</ele><time>2026-04-11T07:13:59.113Z</time></trkpt><trkpt lat="43.600644" lon="11.1869536"><ele>243.0</ele><time>2026-04-11T07:14:01.112Z</time></trkpt><trkpt lat="43.6006991" lon="11.1869111"><ele>243.0</ele><time>2026-04-11T07:14:02.113Z</time></trkpt><trkpt lat="43.6007626" lon="11.1868729"><ele>243.0</ele><time>2026-04-11T07:14:03.113Z</time></trkpt><trkpt lat="43.6008285" lon="11.1868287"><ele>243.0</ele><time>2026-04-11T07:14:04.112Z</time></trkpt><trkpt lat="43.6009233" lon="11.1867788"><ele>243.0</ele><time>2026-04-11T07:14:06.113Z</time></trkpt><trkpt lat="43.6010136" lon="11.1867107"><ele>243.0</ele><time>2026-04-11T07:14:08.111Z</time></trkpt><trkpt lat="43.6011004" lon="11.1866297"><ele>240.4</ele><time>2026-04-11T07:14:10.113Z</time></trkpt><trkpt lat="43.6011933" lon="11.1865512"><ele>237.8</ele><time>2026-04-11T07:14:12.113Z</time></trkpt><trkpt lat="43.6012944" lon="11.1864656"><ele>235.2</ele><time>2026-04-11T07:14:14.114Z</time></trkpt><trkpt lat="43.601362" lon="11.1863576"><ele>232.6</ele><time>2026-04-11T07:14:16.114Z</time></trkpt><trkpt lat="43.6013694" lon="11.186235"><ele>230.0</ele><time>2026-04-11T07:14:18.114Z</time></trkpt><trkpt lat="43.601345" lon="11.1861093"><ele>230.00000000000003</ele><time>2026-04-11T07:14:20.113Z</time></trkpt><trkpt lat="43.6012962" lon="11.1860516"><ele>230.0</ele><time>2026-04-11T07:14:22.113Z</time></trkpt><trkpt lat="43.6012229" lon="11.1861374"><ele>230.0</ele><time>2026-04-11T07:14:25.114Z</time></trkpt><trkpt lat="43.6011506" lon="11.1861597"><ele>230.0</ele><time>2026-04-11T07:14:27.114Z</time></trkpt><trkpt lat="43.6010439" lon="11.1861271"><ele>230.00000000000003</ele><time>2026-04-11T07:14:29.113Z</time></trkpt><trkpt lat="43.6009803" lon="11.1860889"><ele>230.0</ele><time>2026-04-11T07:14:30.114Z</time></trkpt><trkpt lat="43.6009125" lon="11.186043"><ele>237.25</ele><time>2026-04-11T07:14:31.113Z</time></trkpt><trkpt lat="43.6008322" lon="11.1859183"><ele>244.5</ele><time>2026-04-11T07:14:33.112Z</time></trkpt><trkpt lat="43.6007776" lon="11.1857744"><ele>251.75</ele><time>2026-04-11T07:14:35.113Z</time></trkpt><trkpt lat="43.6007227" lon="11.1856386"><ele>259.0</ele><time>2026-04-11T07:14:37.114Z</time></trkpt><trkpt lat="43.6006492" lon="11.1855213"><ele>259.0</ele><time>2026-04-11T07:14:39.114Z</time></trkpt><trkpt lat="43.6005393" lon="11.1854478"><ele>259.0</ele><time>2026-04-11T07:14:41.113Z</time></trkpt><trkpt lat="43.6004751" lon="11.1854023"><ele>259.0</ele><time>2026-04-11T07:14:42.112Z</time></trkpt><trkpt lat="43.6004024" lon="11.185348"><ele>259.0</ele><time>2026-04-11T07:14:43.113Z</time></trkpt><trkpt lat="43.6003358" lon="11.1852908"><ele>259.0</ele><time>2026-04-11T07:14:44.113Z</time></trkpt><trkpt lat="43.6002604" lon="11.1852413"><ele>259.0</ele><time>2026-04-11T07:14:45.112Z</time></trkpt><trkpt lat="43.6001862" lon="11.1852126"><ele>262.0</ele><time>2026-04-11T07:14:46.113Z</time></trkpt><trkpt lat="43.6000655" lon="11.1851672"><ele>265.0</ele><time>2026-04-11T07:14:48.113Z</time></trkpt><trkpt lat="43.5999956" lon="11.1851387"><ele>268.0</ele><time>2026-04-11T07:14:49.113Z</time></trkpt><trkpt lat="43.5999303" lon="11.1851233"><ele>271.0</ele><time>2026-04-11T07:14:50.114Z</time></trkpt><trkpt lat="43.5998711" lon="11.1850855"><ele>274.0</ele><time>2026-04-11T07:14:51.113Z</time></trkpt><trkpt lat="43.5998058" lon="11.185064"><ele>277.0</ele><time>2026-04-11T07:14:52.114Z</time></trkpt><trkpt lat="43.5997397" lon="11.185036"><ele>277.0</ele><time>2026-04-11T07:14:53.113Z</time></trkpt><trkpt lat="43.5996657" lon="11.1850016"><ele>277.0</ele><time>2026-04-11T07:14:54.113Z</time></trkpt><trkpt lat="43.599587" lon="11.1849596"><ele>277.0</ele><time>2026-04-11T07:14:55.113Z</time></trkpt><trkpt lat="43.5995048" lon="11.1849134"><ele>277.0</ele><time>2026-04-11T07:14:56.113Z</time></trkpt><trkpt lat="43.5994291" lon="11.1848672"><ele>277.0</ele><time>2026-04-11T07:14:57.113Z</time></trkpt><trkpt lat="43.5993641" lon="11.1848251"><ele>277.0</ele><time>2026-04-11T07:14:58.113Z</time></trkpt><trkpt lat="43.5993024" lon="11.1847828"><ele>278.8</ele><time>2026-04-11T07:14:59.113Z</time></trkpt><trkpt lat="43.5992025" lon="11.1846756"><ele>280.6</ele><time>2026-04-11T07:15:01.113Z</time></trkpt><trkpt lat="43.5991454" lon="11.1846096"><ele>282.40000000000003</ele><time>2026-04-11T07:15:02.113Z</time></trkpt><trkpt lat="43.5990823" lon="11.1845316"><ele>284.2</ele><time>2026-04-11T07:15:03.113Z</time></trkpt><trkpt lat="43.5990304" lon="11.1844678"><ele>286.0</ele><time>2026-04-11T07:15:04.114Z</time></trkpt><trkpt lat="43.5989614" lon="11.1843497"><ele>286.0</ele><time>2026-04-11T07:15:06.114Z</time></trkpt><trkpt lat="43.5989125" lon="11.1842293"><ele>286.0</ele><time>2026-04-11T07:15:08.113Z</time></trkpt><trkpt lat="43.5988501" lon="11.1841423"><ele>286.0</ele><time>2026-04-11T07:15:10.112Z</time></trkpt><trkpt lat="43.5987706" lon="11.1840791"><ele>286.0</ele><time>2026-04-11T07:15:12.112Z</time></trkpt><trkpt lat="43.598665" lon="11.1840358"><ele>286.0</ele><time>2026-04-11T07:15:14.113Z</time></trkpt><trkpt lat="43.5985861" lon="11.1839811"><ele>286.5</ele><time>2026-04-11T07:15:16.113Z</time></trkpt><trkpt lat="43.5985014" lon="11.1838409"><ele>287.0</ele><time>2026-04-11T07:15:18.112Z</time></trkpt><trkpt lat="43.5984473" lon="11.1837489"><ele>287.5</ele><time>2026-04-11T07:15:19.113Z</time></trkpt><trkpt lat="43.5983966" lon="11.1836711"><ele>288.0</ele><time>2026-04-11T07:15:20.113Z</time></trkpt><trkpt lat="43.5983412" lon="11.1835923"><ele>288.5</ele><time>2026-04-11T07:15:21.113Z</time></trkpt><trkpt lat="43.5982963" lon="11.1835209"><ele>289.0</ele><time>2026-04-11T07:15:22.113Z</time></trkpt><trkpt lat="43.5982204" lon="11.1834102"><ele>289.0</ele><time>2026-04-11T07:15:24.114Z</time></trkpt><trkpt lat="43.598154" lon="11.1832794"><ele>289.0</ele><time>2026-04-11T07:15:26.112Z</time></trkpt><trkpt lat="43.598079" lon="11.1831487"><ele>289.0</ele><time>2026-04-11T07:15:28.113Z</time></trkpt><trkpt lat="43.5980312" lon="11.183077"><ele>289.0</ele><time>2026-04-11T07:15:29.112Z</time></trkpt><trkpt lat="43.5979835" lon="11.1830059"><ele>289.0</ele><time>2026-04-11T07:15:30.113Z</time></trkpt><trkpt lat="43.5979376" lon="11.1829381"><ele>289.0</ele><time>2026-04-11T07:15:31.113Z</time></trkpt><trkpt lat="43.5978856" lon="11.1828734"><ele>290.66666666666663</ele><time>2026-04-11T07:15:32.113Z</time></trkpt><trkpt lat="43.5978262" lon="11.1828136"><ele>292.3333333333333</ele><time>2026-04-11T07:15:33.113Z</time></trkpt><trkpt lat="43.5977159" lon="11.1827261"><ele>294.0</ele><time>2026-04-11T07:15:35.113Z</time></trkpt><trkpt lat="43.597648" lon="11.1826801"><ele>295.6666666666667</ele><time>2026-04-11T07:15:36.113Z</time></trkpt><trkpt lat="43.5975812" lon="11.182627"><ele>297.33333333333337</ele><time>2026-04-11T07:15:37.113Z</time></trkpt><trkpt lat="43.597526" lon="11.1825678"><ele>299.0</ele><time>2026-04-11T07:15:38.113Z</time></trkpt><trkpt lat="43.5974738" lon="11.1825002"><ele>299.0</ele><time>2026-04-11T07:15:39.114Z</time></trkpt><trkpt lat="43.597425" lon="11.1824273"><ele>299.0</ele><time>2026-04-11T07:15:40.113Z</time></trkpt><trkpt lat="43.5973815" lon="11.1823619"><ele>299.0</ele><time>2026-04-11T07:15:41.113Z</time></trkpt><trkpt lat="43.5973397" lon="11.182286"><ele>299.0</ele><time>2026-04-11T07:15:42.112Z</time></trkpt><trkpt lat="43.5972914" lon="11.1822074"><ele>299.0</ele><time>2026-04-11T07:15:43.112Z</time></trkpt><trkpt lat="43.5972393" lon="11.1821192"><ele>299.0</ele><time>2026-04-11T07:15:44.113Z</time></trkpt><trkpt lat="43.5971915" lon="11.1820466"><ele>299.0</ele><time>2026-04-11T07:15:45.114Z</time></trkpt><trkpt lat="43.5971433" lon="11.1819657"><ele>298.5</ele><time>2026-04-11T07:15:46.113Z</time></trkpt><trkpt lat="43.5970921" lon="11.1818772"><ele>298.0</ele><time>2026-04-11T07:15:47.113Z</time></trkpt><trkpt lat="43.5970449" lon="11.1817923"><ele>297.5</ele><time>2026-04-11T07:15:48.113Z</time></trkpt><trkpt lat="43.5969641" lon="11.1816714"><ele>297.0</ele><time>2026-04-11T07:15:50.114Z</time></trkpt><trkpt lat="43.5969285" lon="11.1815995"><ele>296.5</ele><time>2026-04-11T07:15:51.113Z</time></trkpt><trkpt lat="43.5968933" lon="11.1815252"><ele>296.0</ele><time>2026-04-11T07:15:52.113Z</time></trkpt><trkpt lat="43.5968631" lon="11.181442"><ele>298.1666666666667</ele><time>2026-04-11T07:15:53.114Z</time></trkpt><trkpt lat="43.5968307" lon="11.1813616"><ele>300.33333333333337</ele><time>2026-04-11T07:15:54.112Z</time></trkpt><trkpt lat="43.5968008" lon="11.1812788"><ele>302.5</ele><time>2026-04-11T07:15:55.113Z</time></trkpt><trkpt lat="43.5967612" lon="11.1811906"><ele>304.6666666666667</ele><time>2026-04-11T07:15:56.113Z</time></trkpt><trkpt lat="43.5967173" lon="11.1811004"><ele>306.8333333333333</ele><time>2026-04-11T07:15:57.113Z</time></trkpt><trkpt lat="43.5966603" lon="11.1809999"><ele>309.0</ele><time>2026-04-11T07:15:58.113Z</time></trkpt><trkpt lat="43.5965979" lon="11.1809217"><ele>309.0</ele><time>2026-04-11T07:15:59.112Z</time></trkpt><trkpt lat="43.5965363" lon="11.1808419"><ele>309.0</ele><time>2026-04-11T07:16:00.112Z</time></trkpt><trkpt lat="43.5964692" lon="11.1807757"><ele>309.0</ele><time>2026-04-11T07:16:01.113Z</time></trkpt><trkpt lat="43.5963946" lon="11.1807273"><ele>309.0</ele><time>2026-04-11T07:16:02.113Z</time></trkpt><trkpt lat="43.5963161" lon="11.1806992"><ele>309.0</ele><time>2026-04-11T07:16:03.113Z</time></trkpt><trkpt lat="43.5962397" lon="11.1806748"><ele>309.0</ele><time>2026-04-11T07:16:04.114Z</time></trkpt><trkpt lat="43.5961662" lon="11.1806577"><ele>308.3333333333333</ele><time>2026-04-11T07:16:05.113Z</time></trkpt><trkpt lat="43.596089" lon="11.1806451"><ele>307.6666666666667</ele><time>2026-04-11T07:16:06.113Z</time></trkpt><trkpt lat="43.5960257" lon="11.1806399"><ele>307.0</ele><time>2026-04-11T07:16:07.113Z</time></trkpt><trkpt lat="43.5959561" lon="11.1806244"><ele>306.33333333333337</ele><time>2026-04-11T07:16:09.113Z</time></trkpt><trkpt lat="43.5958757" lon="11.1806814"><ele>305.6666666666667</ele><time>2026-04-11T07:16:36.112Z</time></trkpt><trkpt lat="43.5958146" lon="11.1808361"><ele>305.0</ele><time>2026-04-11T07:16:38.114Z</time></trkpt><trkpt lat="43.5957661" lon="11.180914"><ele>305.0</ele><time>2026-04-11T07:16:39.113Z</time></trkpt><trkpt lat="43.5957045" lon="11.1809958"><ele>305.0</ele><time>2026-04-11T07:16:40.112Z</time></trkpt><trkpt lat="43.5956419" lon="11.1810612"><ele>305.0</ele><time>2026-04-11T07:16:41.113Z</time></trkpt><trkpt lat="43.5955692" lon="11.1811189"><ele>305.0</ele><time>2026-04-11T07:16:42.112Z</time></trkpt><trkpt lat="43.5954863" lon="11.1811759"><ele>305.0</ele><time>2026-04-11T07:16:43.112Z</time></trkpt><trkpt lat="43.5953905" lon="11.1812301"><ele>305.0</ele><time>2026-04-11T07:16:44.112Z</time></trkpt><trkpt lat="43.5952967" lon="11.1812683"><ele>304.2</ele><time>2026-04-11T07:16:45.114Z</time></trkpt><trkpt lat="43.5952039" lon="11.1813045"><ele>303.4</ele><time>2026-04-11T07:16:46.113Z</time></trkpt><trkpt lat="43.5951147" lon="11.1813331"><ele>302.6</ele><time>2026-04-11T07:16:47.113Z</time></trkpt><trkpt lat="43.5950256" lon="11.1813512"><ele>301.8</ele><time>2026-04-11T07:16:48.112Z</time></trkpt><trkpt lat="43.5949285" lon="11.1813587"><ele>301.0</ele><time>2026-04-11T07:16:49.113Z</time></trkpt><trkpt lat="43.5948323" lon="11.1813384"><ele>301.0</ele><time>2026-04-11T07:16:50.113Z</time></trkpt><trkpt lat="43.5947412" lon="11.1813028"><ele>301.0</ele><time>2026-04-11T07:16:51.113Z</time></trkpt><trkpt lat="43.5946541" lon="11.1812442"><ele>301.0</ele><time>2026-04-11T07:16:52.113Z</time></trkpt><trkpt lat="43.5945735" lon="11.1811615"><ele>301.0</ele><time>2026-04-11T07:16:53.114Z</time></trkpt><trkpt lat="43.5945005" lon="11.1810704"><ele>301.0</ele><time>2026-04-11T07:16:54.114Z</time></trkpt><trkpt lat="43.5944268" lon="11.1809845"><ele>300.40000000000003</ele><time>2026-04-11T07:16:55.113Z</time></trkpt><trkpt lat="43.5943564" lon="11.180898"><ele>299.8</ele><time>2026-04-11T07:16:56.113Z</time></trkpt><trkpt lat="43.5942914" lon="11.1808135"><ele>299.20000000000005</ele><time>2026-04-11T07:16:57.113Z</time></trkpt><trkpt lat="43.5942197" lon="11.1807391"><ele>298.6</ele><time>2026-04-11T07:16:58.112Z</time></trkpt><trkpt lat="43.5941449" lon="11.1806699"><ele>298.0</ele><time>2026-04-11T07:16:59.112Z</time></trkpt><trkpt lat="43.5940664" lon="11.1806049"><ele>298.0</ele><time>2026-04-11T07:17:00.113Z</time></trkpt><trkpt lat="43.5939782" lon="11.1805498"><ele>298.0</ele><time>2026-04-11T07:17:01.114Z</time></trkpt><trkpt lat="43.5938755" lon="11.1805143"><ele>298.0</ele><time>2026-04-11T07:17:02.113Z</time></trkpt><trkpt lat="43.5937677" lon="11.1805"><ele>298.0</ele><time>2026-04-11T07:17:03.113Z</time></trkpt><trkpt lat="43.5936506" lon="11.1805069"><ele>298.0</ele><time>2026-04-11T07:17:04.114Z</time></trkpt><trkpt lat="43.5935371" lon="11.1805299"><ele>297.25</ele><time>2026-04-11T07:17:05.113Z</time></trkpt><trkpt lat="43.5934203" lon="11.180553"><ele>296.5</ele><time>2026-04-11T07:17:06.113Z</time></trkpt><trkpt lat="43.5933014" lon="11.1805805"><ele>295.75</ele><time>2026-04-11T07:17:07.114Z</time></trkpt><trkpt lat="43.5931806" lon="11.18061"><ele>295.0</ele><time>2026-04-11T07:17:08.113Z</time></trkpt><trkpt lat="43.5930512" lon="11.1806464"><ele>298.0</ele><time>2026-04-11T07:17:09.113Z</time></trkpt><trkpt lat="43.5929241" lon="11.1806876"><ele>301.0</ele><time>2026-04-11T07:17:10.112Z</time></trkpt><trkpt lat="43.5928009" lon="11.1807316"><ele>304.0</ele><time>2026-04-11T07:17:11.113Z</time></trkpt><trkpt lat="43.5926986" lon="11.180767"><ele>307.0</ele><time>2026-04-11T07:17:12.112Z</time></trkpt><trkpt lat="43.5925983" lon="11.1808051"><ele>307.2</ele><time>2026-04-11T07:17:13.113Z</time></trkpt><trkpt lat="43.592492" lon="11.1808433"><ele>307.4</ele><time>2026-04-11T07:17:14.113Z</time></trkpt><trkpt lat="43.5923835" lon="11.1808903"><ele>307.6</ele><time>2026-04-11T07:17:15.113Z</time></trkpt><trkpt lat="43.5922863" lon="11.1809325"><ele>307.8</ele><time>2026-04-11T07:17:16.114Z</time></trkpt><trkpt lat="43.5921916" lon="11.1809712"><ele>308.0</ele><time>2026-04-11T07:17:17.114Z</time></trkpt><trkpt lat="43.5921016" lon="11.1810136"><ele>309.5</ele><time>2026-04-11T07:17:18.113Z</time></trkpt><trkpt lat="43.5920036" lon="11.1810539"><ele>311.0</ele><time>2026-04-11T07:17:19.113Z</time></trkpt><trkpt lat="43.591894" lon="11.1810894"><ele>312.5</ele><time>2026-04-11T07:17:20.113Z</time></trkpt><trkpt lat="43.5917735" lon="11.1811368"><ele>314.0</ele><time>2026-04-11T07:17:21.113Z</time></trkpt><trkpt lat="43.5916569" lon="11.1811707"><ele>314.0</ele><time>2026-04-11T07:17:22.112Z</time></trkpt><trkpt lat="43.5915213" lon="11.1812244"><ele>314.0</ele><time>2026-04-11T07:17:23.112Z</time></trkpt><trkpt lat="43.5913877" lon="11.1812711"><ele>314.0</ele><time>2026-04-11T07:17:24.113Z</time></trkpt><trkpt lat="43.5912475" lon="11.1813247"><ele>314.0</ele><time>2026-04-11T07:17:25.113Z</time></trkpt><trkpt lat="43.591109" lon="11.1813852"><ele>314.6666666666667</ele><time>2026-04-11T07:17:26.113Z</time></trkpt><trkpt lat="43.5909651" lon="11.1814579"><ele>315.3333333333333</ele><time>2026-04-11T07:17:27.113Z</time></trkpt><trkpt lat="43.5908287" lon="11.1815409"><ele>316.0</ele><time>2026-04-11T07:17:28.113Z</time></trkpt><trkpt lat="43.5906903" lon="11.1816416"><ele>315.0</ele><time>2026-04-11T07:17:29.112Z</time></trkpt><trkpt lat="43.5905463" lon="11.1817419"><ele>314.0</ele><time>2026-04-11T07:17:30.113Z</time></trkpt><trkpt lat="43.5904079" lon="11.1818429"><ele>313.0</ele><time>2026-04-11T07:17:31.114Z</time></trkpt><trkpt lat="43.5902786" lon="11.1819382"><ele>313.0</ele><time>2026-04-11T07:17:32.114Z</time></trkpt><trkpt lat="43.5901584" lon="11.1820332"><ele>313.0</ele><time>2026-04-11T07:17:33.113Z</time></trkpt><trkpt lat="43.5900347" lon="11.182125"><ele>313.0</ele><time>2026-04-11T07:17:34.114Z</time></trkpt><trkpt lat="43.5899145" lon="11.1822153"><ele>313.0</ele><time>2026-04-11T07:17:35.112Z</time></trkpt><trkpt lat="43.5897983" lon="11.1823487"><ele>313.0</ele><time>2026-04-11T07:17:36.112Z</time></trkpt><trkpt lat="43.5896946" lon="11.1824987"><ele>313.0</ele><time>2026-04-11T07:17:37.113Z</time></trkpt><trkpt lat="43.5895907" lon="11.182654"><ele>313.0</ele><time>2026-04-11T07:17:38.113Z</time></trkpt><trkpt lat="43.5894876" lon="11.1828172"><ele>313.0</ele><time>2026-04-11T07:17:39.112Z</time></trkpt><trkpt lat="43.589376" lon="11.1829881"><ele>313.0</ele><time>2026-04-11T07:17:40.113Z</time></trkpt><trkpt lat="43.5892632" lon="11.1831552"><ele>313.0</ele><time>2026-04-11T07:17:41.112Z</time></trkpt><trkpt lat="43.5891544" lon="11.1833305"><ele>313.0</ele><time>2026-04-11T07:17:42.113Z</time></trkpt><trkpt lat="43.589049" lon="11.18351"><ele>313.0</ele><time>2026-04-11T07:17:43.114Z</time></trkpt><trkpt lat="43.5889468" lon="11.183694"><ele>313.0</ele><time>2026-04-11T07:17:44.114Z</time></trkpt><trkpt lat="43.5888453" lon="11.1838785"><ele>312.25</ele><time>2026-04-11T07:17:45.112Z</time></trkpt><trkpt lat="43.5887431" lon="11.184053"><ele>311.5</ele><time>2026-04-11T07:17:46.113Z</time></trkpt><trkpt lat="43.5886474" lon="11.1842082"><ele>310.75</ele><time>2026-04-11T07:17:47.114Z</time></trkpt><trkpt lat="43.5885541" lon="11.1843468"><ele>310.0</ele><time>2026-04-11T07:17:48.113Z</time></trkpt><trkpt lat="43.5884611" lon="11.1844773"><ele>313.0</ele><time>2026-04-11T07:17:49.113Z</time></trkpt><trkpt lat="43.5883653" lon="11.1845912"><ele>316.0</ele><time>2026-04-11T07:17:50.114Z</time></trkpt><trkpt lat="43.588265" lon="11.1846816"><ele>319.0</ele><time>2026-04-11T07:17:51.114Z</time></trkpt><trkpt lat="43.5881717" lon="11.1847602"><ele>322.0</ele><time>2026-04-11T07:17:52.114Z</time></trkpt><trkpt lat="43.588082" lon="11.1848398"><ele>321.5</ele><time>2026-04-11T07:17:53.113Z</time></trkpt><trkpt lat="43.5879864" lon="11.1849128"><ele>321.0</ele><time>2026-04-11T07:17:54.114Z</time></trkpt><trkpt lat="43.5878868" lon="11.1849898"><ele>320.5</ele><time>2026-04-11T07:17:55.113Z</time></trkpt><trkpt lat="43.5877777" lon="11.1850776"><ele>320.0</ele><time>2026-04-11T07:17:56.113Z</time></trkpt><trkpt lat="43.5876564" lon="11.1851622"><ele>319.75</ele><time>2026-04-11T07:17:57.113Z</time></trkpt><trkpt lat="43.5875318" lon="11.1852482"><ele>319.5</ele><time>2026-04-11T07:17:58.113Z</time></trkpt><trkpt lat="43.5873993" lon="11.1853353"><ele>319.25</ele><time>2026-04-11T07:17:59.113Z</time></trkpt><trkpt lat="43.5872708" lon="11.1854228"><ele>319.0</ele><time>2026-04-11T07:18:00.112Z</time></trkpt><trkpt lat="43.5871365" lon="11.1855012"><ele>319.0</ele><time>2026-04-11T07:18:01.113Z</time></trkpt><trkpt lat="43.5869993" lon="11.1855716"><ele>319.0</ele><time>2026-04-11T07:18:02.112Z</time></trkpt><trkpt lat="43.5868534" lon="11.1856407"><ele>319.0</ele><time>2026-04-11T07:18:03.114Z</time></trkpt><trkpt lat="43.5866999" lon="11.1857156"><ele>319.0</ele><time>2026-04-11T07:18:04.114Z</time></trkpt><trkpt lat="43.5865536" lon="11.185779"><ele>319.0</ele><time>2026-04-11T07:18:05.113Z</time></trkpt><trkpt lat="43.5864078" lon="11.1858498"><ele>319.0</ele><time>2026-04-11T07:18:06.112Z</time></trkpt><trkpt lat="43.5862653" lon="11.1859241"><ele>319.75</ele><time>2026-04-11T07:18:07.114Z</time></trkpt><trkpt lat="43.5861257" lon="11.1859879"><ele>320.5</ele><time>2026-04-11T07:18:08.113Z</time></trkpt><trkpt lat="43.5859963" lon="11.1860528"><ele>321.25</ele><time>2026-04-11T07:18:09.112Z</time></trkpt><trkpt lat="43.5858662" lon="11.1861113"><ele>322.0</ele><time>2026-04-11T07:18:10.113Z</time></trkpt><trkpt lat="43.585736" lon="11.1861689"><ele>322.0</ele><time>2026-04-11T07:18:11.113Z</time></trkpt><trkpt lat="43.5855956" lon="11.1862226"><ele>322.0</ele><time>2026-04-11T07:18:12.112Z</time></trkpt><trkpt lat="43.5854559" lon="11.1862783"><ele>322.0</ele><time>2026-04-11T07:18:13.112Z</time></trkpt><trkpt lat="43.5853061" lon="11.1863175"><ele>322.0</ele><time>2026-04-11T07:18:14.114Z</time></trkpt><trkpt lat="43.585161" lon="11.1863756"><ele>322.5</ele><time>2026-04-11T07:18:15.112Z</time></trkpt><trkpt lat="43.5850217" lon="11.1864293"><ele>323.0</ele><time>2026-04-11T07:18:16.113Z</time></trkpt><trkpt lat="43.5848921" lon="11.1864719"><ele>323.5</ele><time>2026-04-11T07:18:17.113Z</time></trkpt><trkpt lat="43.5847628" lon="11.1864976"><ele>324.0</ele><time>2026-04-11T07:18:18.114Z</time></trkpt><trkpt lat="43.5846536" lon="11.1865133"><ele>324.0</ele><time>2026-04-11T07:18:19.114Z</time></trkpt><trkpt lat="43.5845505" lon="11.186528"><ele>324.0</ele><time>2026-04-11T07:18:20.113Z</time></trkpt><trkpt lat="43.5844478" lon="11.1865457"><ele>324.0</ele><time>2026-04-11T07:18:21.112Z</time></trkpt><trkpt lat="43.5843433" lon="11.1865675"><ele>324.0</ele><time>2026-04-11T07:18:22.114Z</time></trkpt><trkpt lat="43.5842351" lon="11.1865939"><ele>324.0</ele><time>2026-04-11T07:18:23.115Z</time></trkpt><trkpt lat="43.5841207" lon="11.1866295"><ele>324.0</ele><time>2026-04-11T07:18:24.113Z</time></trkpt><trkpt lat="43.5840048" lon="11.1866688"><ele>324.0</ele><time>2026-04-11T07:18:25.114Z</time></trkpt><trkpt lat="43.5838856" lon="11.1867178"><ele>324.0</ele><time>2026-04-11T07:18:26.112Z</time></trkpt><trkpt lat="43.5837707" lon="11.1867743"><ele>324.0</ele><time>2026-04-11T07:18:27.113Z</time></trkpt><trkpt lat="43.5836648" lon="11.1868347"><ele>323.6666666666667</ele><time>2026-04-11T07:18:28.113Z</time></trkpt><trkpt lat="43.5835638" lon="11.1868923"><ele>323.3333333333333</ele><time>2026-04-11T07:18:29.112Z</time></trkpt><trkpt lat="43.5834746" lon="11.1869503"><ele>323.0</ele><time>2026-04-11T07:18:30.113Z</time></trkpt><trkpt lat="43.5833899" lon="11.1870108"><ele>322.66666666666663</ele><time>2026-04-11T07:18:31.113Z</time></trkpt><trkpt lat="43.5833202" lon="11.1870604"><ele>322.3333333333333</ele><time>2026-04-11T07:18:32.114Z</time></trkpt><trkpt lat="43.5832653" lon="11.1871092"><ele>322.0</ele><time>2026-04-11T07:18:33.114Z</time></trkpt><trkpt lat="43.5832145" lon="11.1872063"><ele>322.0</ele><time>2026-04-11T07:18:35.114Z</time></trkpt><trkpt lat="43.5832416" lon="11.187316"><ele>322.0</ele><time>2026-04-11T07:18:37.113Z</time></trkpt><trkpt lat="43.5833346" lon="11.1874101"><ele>322.0</ele><time>2026-04-11T07:18:39.113Z</time></trkpt><trkpt lat="43.5833968" lon="11.1874642"><ele>322.0</ele><time>2026-04-11T07:18:40.114Z</time></trkpt><trkpt lat="43.5834645" lon="11.1875226"><ele>322.0</ele><time>2026-04-11T07:18:41.113Z</time></trkpt><trkpt lat="43.5835308" lon="11.1875803"><ele>322.0</ele><time>2026-04-11T07:18:42.112Z</time></trkpt><trkpt lat="43.5836057" lon="11.1876408"><ele>322.0</ele><time>2026-04-11T07:18:43.113Z</time></trkpt><trkpt lat="43.5836797" lon="11.1877087"><ele>322.0</ele><time>2026-04-11T07:18:44.113Z</time></trkpt><trkpt lat="43.5837471" lon="11.1877738"><ele>322.0</ele><time>2026-04-11T07:18:45.113Z</time></trkpt><trkpt lat="43.5838127" lon="11.1878441"><ele>322.0</ele><time>2026-04-11T07:18:46.113Z</time></trkpt><trkpt lat="43.5838735" lon="11.1879036"><ele>322.0</ele><time>2026-04-11T07:18:47.113Z</time></trkpt><trkpt lat="43.5839323" lon="11.187972"><ele>322.0</ele><time>2026-04-11T07:18:48.114Z</time></trkpt><trkpt lat="43.583995" lon="11.1880444"><ele>322.0</ele><time>2026-04-11T07:18:49.113Z</time></trkpt><trkpt lat="43.5840608" lon="11.188111"><ele>322.0</ele><time>2026-04-11T07:18:50.113Z</time></trkpt><trkpt lat="43.5841212" lon="11.1881725"><ele>322.0</ele><time>2026-04-11T07:18:51.113Z</time></trkpt><trkpt lat="43.5841752" lon="11.188229"><ele>322.0</ele><time>2026-04-11T07:18:52.113Z</time></trkpt><trkpt lat="43.5842305" lon="11.1882893"><ele>322.0</ele><time>2026-04-11T07:18:53.113Z</time></trkpt><trkpt lat="43.5842957" lon="11.1883576"><ele>322.0</ele><time>2026-04-11T07:18:54.113Z</time></trkpt><trkpt lat="43.5843648" lon="11.18843"><ele>321.0</ele><time>2026-04-11T07:18:55.114Z</time></trkpt><trkpt lat="43.5844385" lon="11.1885015"><ele>320.0</ele><time>2026-04-11T07:18:56.113Z</time></trkpt><trkpt lat="43.5845153" lon="11.1885806"><ele>319.0</ele><time>2026-04-11T07:18:57.113Z</time></trkpt><trkpt lat="43.5845809" lon="11.188649"><ele>318.0</ele><time>2026-04-11T07:18:58.114Z</time></trkpt><trkpt lat="43.5846415" lon="11.1887113"><ele>317.0</ele><time>2026-04-11T07:18:59.113Z</time></trkpt><trkpt lat="43.5846985" lon="11.1887705"><ele>316.0</ele><time>2026-04-11T07:19:00.113Z</time></trkpt><trkpt lat="43.5847542" lon="11.188822"><ele>315.3333333333333</ele><time>2026-04-11T07:19:01.112Z</time></trkpt><trkpt lat="43.5848053" lon="11.1888728"><ele>314.66666666666663</ele><time>2026-04-11T07:19:02.112Z</time></trkpt><trkpt lat="43.5848619" lon="11.1889263"><ele>314.0</ele><time>2026-04-11T07:19:03.113Z</time></trkpt><trkpt lat="43.584924" lon="11.18899"><ele>313.3333333333333</ele><time>2026-04-11T07:19:04.113Z</time></trkpt><trkpt lat="43.5849944" lon="11.1890625"><ele>312.6666666666667</ele><time>2026-04-11T07:19:05.112Z</time></trkpt><trkpt lat="43.5850736" lon="11.1891273"><ele>312.0</ele><time>2026-04-11T07:19:06.113Z</time></trkpt><trkpt lat="43.5851457" lon="11.1891932"><ele>311.0</ele><time>2026-04-11T07:19:07.113Z</time></trkpt><trkpt lat="43.5852177" lon="11.1892675"><ele>310.0</ele><time>2026-04-11T07:19:08.113Z</time></trkpt><trkpt lat="43.5852845" lon="11.1893383"><ele>309.0</ele><time>2026-04-11T07:19:09.113Z</time></trkpt><trkpt lat="43.5853593" lon="11.1893948"><ele>308.0</ele><time>2026-04-11T07:19:10.113Z</time></trkpt><trkpt lat="43.5854221" lon="11.1894551"><ele>307.0</ele><time>2026-04-11T07:19:11.113Z</time></trkpt><trkpt lat="43.5854809" lon="11.1895121"><ele>306.0</ele><time>2026-04-11T07:19:12.115Z</time></trkpt><trkpt lat="43.5855389" lon="11.1895726"><ele>305.1666666666667</ele><time>2026-04-11T07:19:13.114Z</time></trkpt><trkpt lat="43.5856058" lon="11.1896436"><ele>304.3333333333333</ele><time>2026-04-11T07:19:14.114Z</time></trkpt><trkpt lat="43.5856861" lon="11.1897136"><ele>303.5</ele><time>2026-04-11T07:19:15.114Z</time></trkpt><trkpt lat="43.5857646" lon="11.1897756"><ele>302.66666666666663</ele><time>2026-04-11T07:19:16.113Z</time></trkpt><trkpt lat="43.5858277" lon="11.1898384"><ele>301.8333333333333</ele><time>2026-04-11T07:19:17.111Z</time></trkpt><trkpt lat="43.5858786" lon="11.1898916"><ele>301.0</ele><time>2026-04-11T07:19:18.113Z</time></trkpt><trkpt lat="43.5859361" lon="11.1899515"><ele>301.0</ele><time>2026-04-11T07:19:19.113Z</time></trkpt><trkpt lat="43.5859839" lon="11.1900101"><ele>301.0</ele><time>2026-04-11T07:19:20.113Z</time></trkpt><trkpt lat="43.5860327" lon="11.1900786"><ele>301.0</ele><time>2026-04-11T07:19:21.114Z</time></trkpt><trkpt lat="43.5860843" lon="11.1901547"><ele>301.0</ele><time>2026-04-11T07:19:22.112Z</time></trkpt><trkpt lat="43.5861385" lon="11.190248"><ele>301.0</ele><time>2026-04-11T07:19:23.114Z</time></trkpt><trkpt lat="43.5861762" lon="11.1903259"><ele>301.0</ele><time>2026-04-11T07:19:24.112Z</time></trkpt><trkpt lat="43.5862128" lon="11.1904034"><ele>301.0</ele><time>2026-04-11T07:19:25.113Z</time></trkpt><trkpt lat="43.5862551" lon="11.1904772"><ele>300.5</ele><time>2026-04-11T07:19:26.114Z</time></trkpt><trkpt lat="43.5862977" lon="11.1905486"><ele>300.0</ele><time>2026-04-11T07:19:27.114Z</time></trkpt><trkpt lat="43.5863587" lon="11.1906637"><ele>299.5</ele><time>2026-04-11T07:19:29.113Z</time></trkpt><trkpt lat="43.5864098" lon="11.1907447"><ele>299.0</ele><time>2026-04-11T07:19:31.114Z</time></trkpt><trkpt lat="43.586361" lon="11.1906487"><ele>298.5</ele><time>2026-04-11T07:19:41.113Z</time></trkpt><trkpt lat="43.5862961" lon="11.1905714"><ele>298.0</ele><time>2026-04-11T07:19:43.114Z</time></trkpt><trkpt lat="43.586237" lon="11.1904754"><ele>298.6</ele><time>2026-04-11T07:19:45.115Z</time></trkpt><trkpt lat="43.5861803" lon="11.1903888"><ele>299.20000000000005</ele><time>2026-04-11T07:19:47.113Z</time></trkpt><trkpt lat="43.5861219" lon="11.1902869"><ele>299.8</ele><time>2026-04-11T07:19:49.113Z</time></trkpt><trkpt lat="43.5860607" lon="11.1901699"><ele>300.40000000000003</ele><time>2026-04-11T07:19:51.113Z</time></trkpt><trkpt lat="43.5859886" lon="11.1900496"><ele>301.0</ele><time>2026-04-11T07:19:53.114Z</time></trkpt><trkpt lat="43.585938" lon="11.189995"><ele>301.0</ele><time>2026-04-11T07:19:54.114Z</time></trkpt><trkpt lat="43.585887" lon="11.1899391"><ele>301.0</ele><time>2026-04-11T07:19:55.113Z</time></trkpt><trkpt lat="43.5858364" lon="11.1898858"><ele>301.0</ele><time>2026-04-11T07:19:56.112Z</time></trkpt><trkpt lat="43.5857766" lon="11.1898251"><ele>301.0</ele><time>2026-04-11T07:19:57.113Z</time></trkpt><trkpt lat="43.5857219" lon="11.189764"><ele>301.0</ele><time>2026-04-11T07:19:58.113Z</time></trkpt><trkpt lat="43.5856516" lon="11.1896974"><ele>301.0</ele><time>2026-04-11T07:19:59.112Z</time></trkpt><trkpt lat="43.5855907" lon="11.189632"><ele>301.0</ele><time>2026-04-11T07:20:00.114Z</time></trkpt><trkpt lat="43.5855143" lon="11.1895649"><ele>300.16666666666663</ele><time>2026-04-11T07:20:01.113Z</time></trkpt><trkpt lat="43.5854431" lon="11.1894988"><ele>299.3333333333333</ele><time>2026-04-11T07:20:02.113Z</time></trkpt><trkpt lat="43.5853793" lon="11.1894325"><ele>298.5</ele><time>2026-04-11T07:20:03.114Z</time></trkpt><trkpt lat="43.5853082" lon="11.1893612"><ele>297.6666666666667</ele><time>2026-04-11T07:20:04.114Z</time></trkpt><trkpt lat="43.5852258" lon="11.1892801"><ele>296.83333333333337</ele><time>2026-04-11T07:20:05.114Z</time></trkpt><trkpt lat="43.58515" lon="11.1892022"><ele>296.0</ele><time>2026-04-11T07:20:06.113Z</time></trkpt><trkpt lat="43.5850741" lon="11.1891295"><ele>297.6666666666667</ele><time>2026-04-11T07:20:07.114Z</time></trkpt><trkpt lat="43.5849995" lon="11.1890594"><ele>299.33333333333337</ele><time>2026-04-11T07:20:08.114Z</time></trkpt><trkpt lat="43.5849337" lon="11.1889862"><ele>301.0</ele><time>2026-04-11T07:20:09.114Z</time></trkpt><trkpt lat="43.5848601" lon="11.1889086"><ele>302.6666666666667</ele><time>2026-04-11T07:20:10.114Z</time></trkpt><trkpt lat="43.5847881" lon="11.1888294"><ele>304.3333333333333</ele><time>2026-04-11T07:20:11.113Z</time></trkpt><trkpt lat="43.5847243" lon="11.1887548"><ele>306.0</ele><time>2026-04-11T07:20:12.113Z</time></trkpt><trkpt lat="43.5846531" lon="11.1886856"><ele>307.0</ele><time>2026-04-11T07:20:13.113Z</time></trkpt><trkpt lat="43.5845803" lon="11.188615"><ele>308.0</ele><time>2026-04-11T07:20:14.114Z</time></trkpt><trkpt lat="43.5845169" lon="11.1885475"><ele>309.0</ele><time>2026-04-11T07:20:15.114Z</time></trkpt><trkpt lat="43.5844552" lon="11.1884809"><ele>310.0</ele><time>2026-04-11T07:20:16.114Z</time></trkpt><trkpt lat="43.5843898" lon="11.1884259"><ele>311.0</ele><time>2026-04-11T07:20:17.113Z</time></trkpt><trkpt lat="43.5843174" lon="11.1883593"><ele>312.0</ele><time>2026-04-11T07:20:18.113Z</time></trkpt><trkpt lat="43.5842306" lon="11.1882944"><ele>312.6666666666667</ele><time>2026-04-11T07:20:19.113Z</time></trkpt><trkpt lat="43.5841551" lon="11.1882224"><ele>313.3333333333333</ele><time>2026-04-11T07:20:20.113Z</time></trkpt><trkpt lat="43.5840783" lon="11.1881526"><ele>314.0</ele><time>2026-04-11T07:20:21.113Z</time></trkpt><trkpt lat="43.5840091" lon="11.1880883"><ele>314.66666666666663</ele><time>2026-04-11T07:20:22.112Z</time></trkpt><trkpt lat="43.5839374" lon="11.1880159"><ele>315.3333333333333</ele><time>2026-04-11T07:20:23.113Z</time></trkpt><trkpt lat="43.5838708" lon="11.1879426"><ele>316.0</ele><time>2026-04-11T07:20:24.113Z</time></trkpt><trkpt lat="43.583805" lon="11.1878668"><ele>316.8333333333333</ele><time>2026-04-11T07:20:25.113Z</time></trkpt><trkpt lat="43.5837367" lon="11.1877951"><ele>317.66666666666663</ele><time>2026-04-11T07:20:26.113Z</time></trkpt><trkpt lat="43.5836632" lon="11.1877139"><ele>318.5</ele><time>2026-04-11T07:20:27.114Z</time></trkpt><trkpt lat="43.5835854" lon="11.18763"><ele>319.3333333333333</ele><time>2026-04-11T07:20:28.112Z</time></trkpt><trkpt lat="43.5835178" lon="11.1875639"><ele>320.1666666666667</ele><time>2026-04-11T07:20:29.114Z</time></trkpt><trkpt lat="43.583452" lon="11.1875088"><ele>321.0</ele><time>2026-04-11T07:20:30.113Z</time></trkpt><trkpt lat="43.5833843" lon="11.1874452"><ele>321.0</ele><time>2026-04-11T07:20:31.113Z</time></trkpt><trkpt lat="43.5833251" lon="11.1873967"><ele>321.0</ele><time>2026-04-11T07:20:32.114Z</time></trkpt><trkpt lat="43.5832758" lon="11.1873378"><ele>321.0</ele><time>2026-04-11T07:20:33.113Z</time></trkpt><trkpt lat="43.5832243" lon="11.1872406"><ele>321.0</ele><time>2026-04-11T07:20:35.113Z</time></trkpt><trkpt lat="43.5831655" lon="11.1872027"><ele>321.0</ele><time>2026-04-11T07:20:38.113Z</time></trkpt><trkpt lat="43.5830669" lon="11.187252"><ele>321.0</ele><time>2026-04-11T07:20:40.113Z</time></trkpt><trkpt lat="43.5829578" lon="11.1872927"><ele>321.0</ele><time>2026-04-11T07:20:42.114Z</time></trkpt><trkpt lat="43.5828677" lon="11.1873515"><ele>321.0</ele><time>2026-04-11T07:20:44.112Z</time></trkpt><trkpt lat="43.5828001" lon="11.1873836"><ele>321.0</ele><time>2026-04-11T07:20:45.113Z</time></trkpt><trkpt lat="43.5827267" lon="11.1874178"><ele>321.0</ele><time>2026-04-11T07:20:46.112Z</time></trkpt><trkpt lat="43.5826566" lon="11.1874585"><ele>321.0</ele><time>2026-04-11T07:20:47.112Z</time></trkpt><trkpt lat="43.5825733" lon="11.1875067"><ele>321.0</ele><time>2026-04-11T07:20:48.113Z</time></trkpt><trkpt lat="43.5824791" lon="11.1875549"><ele>319.8</ele><time>2026-04-11T07:20:49.113Z</time></trkpt><trkpt lat="43.5823848" lon="11.1876118"><ele>318.6</ele><time>2026-04-11T07:20:50.112Z</time></trkpt><trkpt lat="43.5822817" lon="11.1876659"><ele>317.4</ele><time>2026-04-11T07:20:51.114Z</time></trkpt><trkpt lat="43.582191" lon="11.187718"><ele>316.2</ele><time>2026-04-11T07:20:52.113Z</time></trkpt><trkpt lat="43.5820929" lon="11.1877638"><ele>315.0</ele><time>2026-04-11T07:20:53.114Z</time></trkpt><trkpt lat="43.581998" lon="11.1877963"><ele>313.8</ele><time>2026-04-11T07:20:54.113Z</time></trkpt><trkpt lat="43.5819102" lon="11.187805"><ele>312.6</ele><time>2026-04-11T07:20:55.113Z</time></trkpt><trkpt lat="43.5818151" lon="11.1877852"><ele>311.4</ele><time>2026-04-11T07:20:56.114Z</time></trkpt><trkpt lat="43.5817121" lon="11.1877481"><ele>310.2</ele><time>2026-04-11T07:20:57.113Z</time></trkpt><trkpt lat="43.5816107" lon="11.1876947"><ele>309.0</ele><time>2026-04-11T07:20:58.113Z</time></trkpt><trkpt lat="43.5815109" lon="11.1876225"><ele>309.0</ele><time>2026-04-11T07:20:59.113Z</time></trkpt><trkpt lat="43.5814256" lon="11.187547"><ele>309.0</ele><time>2026-04-11T07:21:00.113Z</time></trkpt><trkpt lat="43.5813474" lon="11.1874701"><ele>309.0</ele><time>2026-04-11T07:21:01.114Z</time></trkpt><trkpt lat="43.5812692" lon="11.187391"><ele>309.0</ele><time>2026-04-11T07:21:02.113Z</time></trkpt><trkpt lat="43.5811785" lon="11.1873538"><ele>309.0</ele><time>2026-04-11T07:21:03.112Z</time></trkpt><trkpt lat="43.5810925" lon="11.1873527"><ele>308.0</ele><time>2026-04-11T07:21:04.112Z</time></trkpt><trkpt lat="43.5810178" lon="11.187391"><ele>307.0</ele><time>2026-04-11T07:21:05.114Z</time></trkpt><trkpt lat="43.5809257" lon="11.1874666"><ele>306.0</ele><time>2026-04-11T07:21:07.112Z</time></trkpt><trkpt lat="43.5808939" lon="11.1875467"><ele>305.0</ele><time>2026-04-11T07:21:20.112Z</time></trkpt><trkpt lat="43.580839" lon="11.1876056"><ele>304.0</ele><time>2026-04-11T07:21:23.113Z</time></trkpt><trkpt lat="43.5807842" lon="11.1875417"><ele>303.0</ele><time>2026-04-11T07:21:24.113Z</time></trkpt><trkpt lat="43.5807273" lon="11.1874994"><ele>303.0</ele><time>2026-04-11T07:21:25.113Z</time></trkpt><trkpt lat="43.580646" lon="11.1874421"><ele>303.0</ele><time>2026-04-11T07:21:26.113Z</time></trkpt><trkpt lat="43.580568" lon="11.1873872"><ele>303.0</ele><time>2026-04-11T07:21:27.114Z</time></trkpt><trkpt lat="43.5804779" lon="11.1873438"><ele>303.0</ele><time>2026-04-11T07:21:28.113Z</time></trkpt><trkpt lat="43.5803676" lon="11.1873042"><ele>303.0</ele><time>2026-04-11T07:21:29.115Z</time></trkpt><trkpt lat="43.5802534" lon="11.1872689"><ele>299.75</ele><time>2026-04-11T07:21:30.113Z</time></trkpt><trkpt lat="43.5801254" lon="11.1872586"><ele>296.5</ele><time>2026-04-11T07:21:31.113Z</time></trkpt><trkpt lat="43.5800036" lon="11.187264"><ele>293.25</ele><time>2026-04-11T07:21:32.113Z</time></trkpt><trkpt lat="43.579867" lon="11.1872805"><ele>290.0</ele><time>2026-04-11T07:21:33.113Z</time></trkpt><trkpt lat="43.5797224" lon="11.1873153"><ele>290.0</ele><time>2026-04-11T07:21:34.112Z</time></trkpt><trkpt lat="43.579577" lon="11.1873501"><ele>290.0</ele><time>2026-04-11T07:21:35.115Z</time></trkpt><trkpt lat="43.5794296" lon="11.1873707"><ele>290.0</ele><time>2026-04-11T07:21:36.112Z</time></trkpt><trkpt lat="43.5792854" lon="11.1873613"><ele>290.0</ele><time>2026-04-11T07:21:37.114Z</time></trkpt><trkpt lat="43.5791349" lon="11.1872942"><ele>288.6666666666667</ele><time>2026-04-11T07:21:38.117Z</time></trkpt><trkpt lat="43.5789952" lon="11.18718"><ele>287.3333333333333</ele><time>2026-04-11T07:21:39.113Z</time></trkpt><trkpt lat="43.5788727" lon="11.1870614"><ele>286.0</ele><time>2026-04-11T07:21:40.115Z</time></trkpt><trkpt lat="43.5787513" lon="11.1869533"><ele>287.0</ele><time>2026-04-11T07:21:41.114Z</time></trkpt><trkpt lat="43.5786435" lon="11.1868499"><ele>288.0</ele><time>2026-04-11T07:21:42.112Z</time></trkpt><trkpt lat="43.5785322" lon="11.1867678"><ele>289.0</ele><time>2026-04-11T07:21:43.113Z</time></trkpt><trkpt lat="43.578395" lon="11.1867286"><ele>290.0</ele><time>2026-04-11T07:21:44.112Z</time></trkpt><trkpt lat="43.5782612" lon="11.186732"><ele>290.0</ele><time>2026-04-11T07:21:45.113Z</time></trkpt><trkpt lat="43.5781216" lon="11.1867778"><ele>290.0</ele><time>2026-04-11T07:21:46.113Z</time></trkpt><trkpt lat="43.5779822" lon="11.1868433"><ele>290.0</ele><time>2026-04-11T07:21:47.115Z</time></trkpt><trkpt lat="43.5778339" lon="11.1868687"><ele>290.0</ele><time>2026-04-11T07:21:48.113Z</time></trkpt><trkpt lat="43.5776813" lon="11.1868579"><ele>291.6666666666667</ele><time>2026-04-11T07:21:49.113Z</time></trkpt><trkpt lat="43.577518" lon="11.1868358"><ele>293.3333333333333</ele><time>2026-04-11T07:21:50.115Z</time></trkpt><trkpt lat="43.5773574" lon="11.1868046"><ele>295.0</ele><time>2026-04-11T07:21:51.113Z</time></trkpt><trkpt lat="43.5771916" lon="11.1867675"><ele>295.0</ele><time>2026-04-11T07:21:52.113Z</time></trkpt><trkpt lat="43.5770284" lon="11.1867348"><ele>295.0</ele><time>2026-04-11T07:21:53.113Z</time></trkpt><trkpt lat="43.5768653" lon="11.1866985"><ele>295.0</ele><time>2026-04-11T07:21:54.114Z</time></trkpt><trkpt lat="43.5767028" lon="11.1866533"><ele>298.0</ele><time>2026-04-11T07:21:55.112Z</time></trkpt><trkpt lat="43.576546" lon="11.1865959"><ele>301.0</ele><time>2026-04-11T07:21:56.116Z</time></trkpt><trkpt lat="43.5763907" lon="11.1865266"><ele>304.0</ele><time>2026-04-11T07:21:57.117Z</time></trkpt><trkpt lat="43.5762405" lon="11.1864478"><ele>309.0</ele><time>2026-04-11T07:21:58.112Z</time></trkpt><trkpt lat="43.5760905" lon="11.1863656"><ele>314.0</ele><time>2026-04-11T07:21:59.113Z</time></trkpt><trkpt lat="43.5759424" lon="11.1863194"><ele>319.0</ele><time>2026-04-11T07:22:00.114Z</time></trkpt><trkpt lat="43.5757916" lon="11.1863217"><ele>319.0</ele><time>2026-04-11T07:22:01.114Z</time></trkpt><trkpt lat="43.5756549" lon="11.1863389"><ele>319.0</ele><time>2026-04-11T07:22:02.112Z</time></trkpt><trkpt lat="43.5755244" lon="11.1863643"><ele>319.0</ele><time>2026-04-11T07:22:03.113Z</time></trkpt><trkpt lat="43.57542" lon="11.1863712"><ele>319.0</ele><time>2026-04-11T07:22:04.113Z</time></trkpt><trkpt lat="43.5753263" lon="11.1863333"><ele>319.0</ele><time>2026-04-11T07:22:05.114Z</time></trkpt><trkpt lat="43.5752508" lon="11.1862493"><ele>319.0</ele><time>2026-04-11T07:22:06.118Z</time></trkpt><trkpt lat="43.5752087" lon="11.1861234"><ele>319.0</ele><time>2026-04-11T07:22:07.113Z</time></trkpt><trkpt lat="43.5751875" lon="11.185968"><ele>319.0</ele><time>2026-04-11T07:22:08.114Z</time></trkpt><trkpt lat="43.5751686" lon="11.1857999"><ele>319.0</ele><time>2026-04-11T07:22:09.114Z</time></trkpt><trkpt lat="43.5751499" lon="11.185603"><ele>321.0</ele><time>2026-04-11T07:22:10.114Z</time></trkpt><trkpt lat="43.575139" lon="11.1854021"><ele>323.0</ele><time>2026-04-11T07:22:11.115Z</time></trkpt><trkpt lat="43.5751122" lon="11.1852161"><ele>325.0</ele><time>2026-04-11T07:22:12.113Z</time></trkpt><trkpt lat="43.5750918" lon="11.1850289"><ele>327.0</ele><time>2026-04-11T07:22:13.112Z</time></trkpt><trkpt lat="43.5750731" lon="11.1848454"><ele>328.25</ele><time>2026-04-11T07:22:14.112Z</time></trkpt><trkpt lat="43.5750365" lon="11.1846757"><ele>329.5</ele><time>2026-04-11T07:22:15.112Z</time></trkpt><trkpt lat="43.5749694" lon="11.1845243"><ele>330.75</ele><time>2026-04-11T07:22:16.112Z</time></trkpt><trkpt lat="43.5748652" lon="11.1844091"><ele>332.0</ele><time>2026-04-11T07:22:17.113Z</time></trkpt><trkpt lat="43.5747379" lon="11.1843278"><ele>332.0</ele><time>2026-04-11T07:22:18.113Z</time></trkpt><trkpt lat="43.574588" lon="11.1842641"><ele>332.0</ele><time>2026-04-11T07:22:19.113Z</time></trkpt><trkpt lat="43.5744412" lon="11.184224"><ele>332.0</ele><time>2026-04-11T07:22:20.112Z</time></trkpt><trkpt lat="43.5742988" lon="11.1841826"><ele>333.33333333333337</ele><time>2026-04-11T07:22:21.113Z</time></trkpt><trkpt lat="43.5741485" lon="11.1841352"><ele>334.6666666666667</ele><time>2026-04-11T07:22:22.113Z</time></trkpt><trkpt lat="43.5739915" lon="11.1840869"><ele>336.0</ele><time>2026-04-11T07:22:23.114Z</time></trkpt><trkpt lat="43.5738362" lon="11.1840481"><ele>337.0</ele><time>2026-04-11T07:22:24.112Z</time></trkpt><trkpt lat="43.573688" lon="11.1840025"><ele>338.0</ele><time>2026-04-11T07:22:25.114Z</time></trkpt><trkpt lat="43.5735426" lon="11.1839401"><ele>339.0</ele><time>2026-04-11T07:22:26.113Z</time></trkpt><trkpt lat="43.5734128" lon="11.1838629"><ele>340.0</ele><time>2026-04-11T07:22:27.113Z</time></trkpt><trkpt lat="43.5732902" lon="11.1837645"><ele>340.0</ele><time>2026-04-11T07:22:28.114Z</time></trkpt><trkpt lat="43.5731818" lon="11.1836466"><ele>340.0</ele><time>2026-04-11T07:22:29.112Z</time></trkpt><trkpt lat="43.573078" lon="11.1835049"><ele>340.0</ele><time>2026-04-11T07:22:30.113Z</time></trkpt><trkpt lat="43.5729717" lon="11.1833648"><ele>340.0</ele><time>2026-04-11T07:22:31.114Z</time></trkpt><trkpt lat="43.5728571" lon="11.1832193"><ele>338.3333333333333</ele><time>2026-04-11T07:22:32.113Z</time></trkpt><trkpt lat="43.5727344" lon="11.1830713"><ele>336.6666666666667</ele><time>2026-04-11T07:22:33.113Z</time></trkpt><trkpt lat="43.5726073" lon="11.1829192"><ele>335.0</ele><time>2026-04-11T07:22:34.114Z</time></trkpt><trkpt lat="43.5724792" lon="11.1827603"><ele>335.0</ele><time>2026-04-11T07:22:35.112Z</time></trkpt><trkpt lat="43.5723487" lon="11.1826028"><ele>335.0</ele><time>2026-04-11T07:22:36.113Z</time></trkpt><trkpt lat="43.572216" lon="11.1824513"><ele>335.0</ele><time>2026-04-11T07:22:37.114Z</time></trkpt><trkpt lat="43.5720987" lon="11.1823139"><ele>335.0</ele><time>2026-04-11T07:22:38.113Z</time></trkpt><trkpt lat="43.5719913" lon="11.1821879"><ele>335.0</ele><time>2026-04-11T07:22:39.113Z</time></trkpt><trkpt lat="43.5718963" lon="11.1820706"><ele>335.0</ele><time>2026-04-11T07:22:40.113Z</time></trkpt><trkpt lat="43.571801" lon="11.1819742"><ele>335.0</ele><time>2026-04-11T07:22:41.114Z</time></trkpt><trkpt lat="43.5717181" lon="11.1818775"><ele>335.0</ele><time>2026-04-11T07:22:42.113Z</time></trkpt><trkpt lat="43.5716454" lon="11.1817796"><ele>335.0</ele><time>2026-04-11T07:22:43.113Z</time></trkpt><trkpt lat="43.5715896" lon="11.1816785"><ele>335.0</ele><time>2026-04-11T07:22:44.114Z</time></trkpt><trkpt lat="43.5715499" lon="11.1815742"><ele>335.0</ele><time>2026-04-11T07:22:45.114Z</time></trkpt><trkpt lat="43.5714821" lon="11.1814906"><ele>335.0</ele><time>2026-04-11T07:22:46.113Z</time></trkpt><trkpt lat="43.5713951" lon="11.1814503"><ele>335.75</ele><time>2026-04-11T07:22:47.113Z</time></trkpt><trkpt lat="43.571295" lon="11.1814634"><ele>336.5</ele><time>2026-04-11T07:22:48.113Z</time></trkpt><trkpt lat="43.5711825" lon="11.1814683"><ele>337.25</ele><time>2026-04-11T07:22:49.113Z</time></trkpt><trkpt lat="43.5710623" lon="11.1814556"><ele>338.0</ele><time>2026-04-11T07:22:50.112Z</time></trkpt><trkpt lat="43.570911" lon="11.1814249"><ele>340.25</ele><time>2026-04-11T07:22:51.113Z</time></trkpt><trkpt lat="43.5707716" lon="11.1813933"><ele>342.5</ele><time>2026-04-11T07:22:52.112Z</time></trkpt><trkpt lat="43.5706417" lon="11.1813547"><ele>344.75</ele><time>2026-04-11T07:22:53.113Z</time></trkpt><trkpt lat="43.5705075" lon="11.1813206"><ele>347.0</ele><time>2026-04-11T07:22:54.113Z</time></trkpt><trkpt lat="43.5703768" lon="11.1812861"><ele>347.40000000000003</ele><time>2026-04-11T07:22:55.113Z</time></trkpt><trkpt lat="43.5702628" lon="11.1812508"><ele>347.8</ele><time>2026-04-11T07:22:56.114Z</time></trkpt><trkpt lat="43.5701717" lon="11.1812164"><ele>348.2</ele><time>2026-04-11T07:22:57.113Z</time></trkpt><trkpt lat="43.5700781" lon="11.1811826"><ele>348.6</ele><time>2026-04-11T07:22:59.113Z</time></trkpt><trkpt lat="43.5700012" lon="11.1811512"><ele>349.0</ele><time>2026-04-11T07:23:03.113Z</time></trkpt><trkpt lat="43.5699066" lon="11.1810892"><ele>349.0</ele><time>2026-04-11T07:23:05.113Z</time></trkpt><trkpt lat="43.5697744" lon="11.1810614"><ele>349.0</ele><time>2026-04-11T07:23:07.113Z</time></trkpt><trkpt lat="43.569687" lon="11.1810226"><ele>349.0</ele><time>2026-04-11T07:23:08.113Z</time></trkpt><trkpt lat="43.5695941" lon="11.1809852"><ele>349.0</ele><time>2026-04-11T07:23:09.114Z</time></trkpt><trkpt lat="43.5694958" lon="11.1809458"><ele>349.0</ele><time>2026-04-11T07:23:10.113Z</time></trkpt><trkpt lat="43.5693843" lon="11.1809007"><ele>348.75</ele><time>2026-04-11T07:23:11.113Z</time></trkpt><trkpt lat="43.5692705" lon="11.1808548"><ele>348.5</ele><time>2026-04-11T07:23:12.112Z</time></trkpt><trkpt lat="43.5691611" lon="11.180802"><ele>348.25</ele><time>2026-04-11T07:23:13.113Z</time></trkpt><trkpt lat="43.5690465" lon="11.1807394"><ele>348.0</ele><time>2026-04-11T07:23:14.115Z</time></trkpt><trkpt lat="43.5689451" lon="11.1806406"><ele>350.0</ele><time>2026-04-11T07:23:15.113Z</time></trkpt><trkpt lat="43.5688483" lon="11.1805107"><ele>352.0</ele><time>2026-04-11T07:23:16.113Z</time></trkpt><trkpt lat="43.5687679" lon="11.1803592"><ele>354.0</ele><time>2026-04-11T07:23:17.113Z</time></trkpt><trkpt lat="43.5686929" lon="11.1801898"><ele>356.0</ele><time>2026-04-11T07:23:18.113Z</time></trkpt><trkpt lat="43.5686299" lon="11.1800241"><ele>356.5</ele><time>2026-04-11T07:23:19.112Z</time></trkpt><trkpt lat="43.5685596" lon="11.1798604"><ele>357.0</ele><time>2026-04-11T07:23:20.112Z</time></trkpt><trkpt lat="43.5684808" lon="11.1797109"><ele>357.5</ele><time>2026-04-11T07:23:21.113Z</time></trkpt><trkpt lat="43.5683859" lon="11.1795854"><ele>358.0</ele><time>2026-04-11T07:23:22.114Z</time></trkpt><trkpt lat="43.5682667" lon="11.1794807"><ele>358.0</ele><time>2026-04-11T07:23:23.113Z</time></trkpt><trkpt lat="43.5681282" lon="11.1793939"><ele>358.0</ele><time>2026-04-11T07:23:24.113Z</time></trkpt><trkpt lat="43.5679837" lon="11.1793199"><ele>358.0</ele><time>2026-04-11T07:23:25.113Z</time></trkpt><trkpt lat="43.5678365" lon="11.179255"><ele>358.25</ele><time>2026-04-11T07:23:26.115Z</time></trkpt><trkpt lat="43.5676972" lon="11.1791912"><ele>358.5</ele><time>2026-04-11T07:23:27.114Z</time></trkpt><trkpt lat="43.5675583" lon="11.1791279"><ele>358.75</ele><time>2026-04-11T07:23:28.113Z</time></trkpt><trkpt lat="43.5674104" lon="11.179067"><ele>359.0</ele><time>2026-04-11T07:23:29.113Z</time></trkpt><trkpt lat="43.5672618" lon="11.1790134"><ele>358.0</ele><time>2026-04-11T07:23:30.113Z</time></trkpt><trkpt lat="43.5671122" lon="11.1789671"><ele>357.0</ele><time>2026-04-11T07:23:31.114Z</time></trkpt><trkpt lat="43.566974" lon="11.178921"><ele>356.0</ele><time>2026-04-11T07:23:32.112Z</time></trkpt><trkpt lat="43.5668336" lon="11.1788801"><ele>355.0</ele><time>2026-04-11T07:23:33.113Z</time></trkpt><trkpt lat="43.5666978" lon="11.1788581"><ele>355.0</ele><time>2026-04-11T07:23:34.113Z</time></trkpt><trkpt lat="43.5665541" lon="11.1788595"><ele>355.0</ele><time>2026-04-11T07:23:35.114Z</time></trkpt><trkpt lat="43.566409" lon="11.1788675"><ele>355.0</ele><time>2026-04-11T07:23:36.113Z</time></trkpt><trkpt lat="43.5662744" lon="11.17889"><ele>355.0</ele><time>2026-04-11T07:23:37.113Z</time></trkpt><trkpt lat="43.5661452" lon="11.1789147"><ele>355.0</ele><time>2026-04-11T07:23:38.112Z</time></trkpt><trkpt lat="43.5660273" lon="11.1789468"><ele>355.0</ele><time>2026-04-11T07:23:39.114Z</time></trkpt><trkpt lat="43.5659142" lon="11.1789737"><ele>355.0</ele><time>2026-04-11T07:23:40.113Z</time></trkpt><trkpt lat="43.5658096" lon="11.1790092"><ele>355.0</ele><time>2026-04-11T07:23:41.114Z</time></trkpt><trkpt lat="43.5657109" lon="11.1790401"><ele>355.0</ele><time>2026-04-11T07:23:42.114Z</time></trkpt><trkpt lat="43.5656099" lon="11.1790759"><ele>355.6</ele><time>2026-04-11T07:23:43.114Z</time></trkpt><trkpt lat="43.5655164" lon="11.1791048"><ele>356.2</ele><time>2026-04-11T07:23:44.113Z</time></trkpt><trkpt lat="43.565419" lon="11.1791348"><ele>356.79999999999995</ele><time>2026-04-11T07:23:45.114Z</time></trkpt><trkpt lat="43.5653183" lon="11.1791657"><ele>357.4</ele><time>2026-04-11T07:23:46.112Z</time></trkpt><trkpt lat="43.5652097" lon="11.1791956"><ele>358.0</ele><time>2026-04-11T07:23:47.114Z</time></trkpt><trkpt lat="43.5651007" lon="11.1792305"><ele>358.0</ele><time>2026-04-11T07:23:48.113Z</time></trkpt><trkpt lat="43.5649934" lon="11.1792567"><ele>358.0</ele><time>2026-04-11T07:23:49.114Z</time></trkpt><trkpt lat="43.5648851" lon="11.1792718"><ele>358.0</ele><time>2026-04-11T07:23:50.113Z</time></trkpt><trkpt lat="43.5647848" lon="11.179276"><ele>358.0</ele><time>2026-04-11T07:23:51.113Z</time></trkpt><trkpt lat="43.564691" lon="11.1792683"><ele>358.0</ele><time>2026-04-11T07:23:52.113Z</time></trkpt><trkpt lat="43.564592" lon="11.1792581"><ele>357.8333333333333</ele><time>2026-04-11T07:23:53.113Z</time></trkpt><trkpt lat="43.5645031" lon="11.1792259"><ele>357.66666666666663</ele><time>2026-04-11T07:23:54.112Z</time></trkpt><trkpt lat="43.5644221" lon="11.1791866"><ele>357.5</ele><time>2026-04-11T07:23:55.114Z</time></trkpt><trkpt lat="43.564353" lon="11.1791427"><ele>357.3333333333333</ele><time>2026-04-11T07:23:56.113Z</time></trkpt><trkpt lat="43.5642929" lon="11.1790958"><ele>357.1666666666667</ele><time>2026-04-11T07:23:57.114Z</time></trkpt><trkpt lat="43.564193" lon="11.1790166"><ele>357.0</ele><time>2026-04-11T07:23:59.113Z</time></trkpt><trkpt lat="43.5641095" lon="11.1789485"><ele>357.0</ele><time>2026-04-11T07:24:01.113Z</time></trkpt><trkpt lat="43.5641095" lon="11.1789485"><ele>357.0</ele><time>2026-04-11T07:24:01.113Z</time></trkpt><trkpt lat="43.5641095" lon="11.1789485"><ele>357.0</ele><time>2026-04-11T07:24:01.113Z</time></trkpt><trkpt lat="43.5641095" lon="11.1789485"><ele>357.0</ele><time>2026-04-11T07:24:01.113Z</time></trkpt><trkpt lat="43.5639662" lon="11.1788069"><ele>357.0</ele><time>2026-04-11T07:26:13.113Z</time></trkpt><trkpt lat="43.5638702" lon="11.1787365"><ele>357.0</ele><time>2026-04-11T07:26:15.113Z</time></trkpt><trkpt lat="43.5637725" lon="11.1786415"><ele>357.0</ele><time>2026-04-11T07:26:17.112Z</time></trkpt><trkpt lat="43.563706" lon="11.1785601"><ele>357.1666666666667</ele><time>2026-04-11T07:26:18.113Z</time></trkpt><trkpt lat="43.5636439" lon="11.1784631"><ele>357.3333333333333</ele><time>2026-04-11T07:26:19.114Z</time></trkpt><trkpt lat="43.5635786" lon="11.1783824"><ele>357.5</ele><time>2026-04-11T07:26:20.114Z</time></trkpt><trkpt lat="43.5635227" lon="11.1783137"><ele>357.66666666666663</ele><time>2026-04-11T07:26:21.114Z</time></trkpt><trkpt lat="43.5634754" lon="11.1782489"><ele>357.8333333333333</ele><time>2026-04-11T07:26:22.113Z</time></trkpt><trkpt lat="43.5633872" lon="11.1781471"><ele>358.0</ele><time>2026-04-11T07:26:24.113Z</time></trkpt><trkpt lat="43.5633135" lon="11.1780527"><ele>358.0</ele><time>2026-04-11T07:26:26.113Z</time></trkpt><trkpt lat="43.5632215" lon="11.1779832"><ele>358.0</ele><time>2026-04-11T07:26:28.115Z</time></trkpt><trkpt lat="43.5631319" lon="11.178021"><ele>358.0</ele><time>2026-04-11T07:26:30.113Z</time></trkpt><trkpt lat="43.5630601" lon="11.1781563"><ele>358.0</ele><time>2026-04-11T07:26:32.114Z</time></trkpt><trkpt lat="43.5630113" lon="11.1782352"><ele>358.0</ele><time>2026-04-11T07:26:33.114Z</time></trkpt><trkpt lat="43.5629587" lon="11.178333"><ele>358.0</ele><time>2026-04-11T07:26:34.114Z</time></trkpt><trkpt lat="43.562888" lon="11.1784315"><ele>358.0</ele><time>2026-04-11T07:26:35.113Z</time></trkpt><trkpt lat="43.5628186" lon="11.1785409"><ele>358.0</ele><time>2026-04-11T07:26:36.112Z</time></trkpt><trkpt lat="43.5627421" lon="11.1786528"><ele>358.0</ele><time>2026-04-11T07:26:37.113Z</time></trkpt><trkpt lat="43.5626574" lon="11.1787705"><ele>358.0</ele><time>2026-04-11T07:26:38.114Z</time></trkpt><trkpt lat="43.562572" lon="11.1788879"><ele>358.25</ele><time>2026-04-11T07:26:39.114Z</time></trkpt><trkpt lat="43.5624921" lon="11.1790083"><ele>358.5</ele><time>2026-04-11T07:26:40.113Z</time></trkpt><trkpt lat="43.5624085" lon="11.179143"><ele>358.75</ele><time>2026-04-11T07:26:41.114Z</time></trkpt><trkpt lat="43.562322" lon="11.1792664"><ele>359.0</ele><time>2026-04-11T07:26:42.112Z</time></trkpt><trkpt lat="43.5622401" lon="11.1793877"><ele>359.0</ele><time>2026-04-11T07:26:43.112Z</time></trkpt><trkpt lat="43.5621473" lon="11.179511"><ele>359.0</ele><time>2026-04-11T07:26:44.113Z</time></trkpt><trkpt lat="43.5620606" lon="11.1796213"><ele>359.0</ele><time>2026-04-11T07:26:45.113Z</time></trkpt><trkpt lat="43.5619685" lon="11.1797417"><ele>359.0</ele><time>2026-04-11T07:26:46.112Z</time></trkpt><trkpt lat="43.561878" lon="11.1798601"><ele>359.0</ele><time>2026-04-11T07:26:47.114Z</time></trkpt><trkpt lat="43.561779" lon="11.1799703"><ele>359.0</ele><time>2026-04-11T07:26:48.114Z</time></trkpt><trkpt lat="43.5616853" lon="11.1800832"><ele>359.0</ele><time>2026-04-11T07:26:49.114Z</time></trkpt><trkpt lat="43.5615918" lon="11.1802007"><ele>359.0</ele><time>2026-04-11T07:26:50.114Z</time></trkpt><trkpt lat="43.5614862" lon="11.1803213"><ele>359.0</ele><time>2026-04-11T07:26:51.114Z</time></trkpt><trkpt lat="43.5613833" lon="11.1804433"><ele>359.0</ele><time>2026-04-11T07:26:52.115Z</time></trkpt><trkpt lat="43.5612849" lon="11.1805728"><ele>359.0</ele><time>2026-04-11T07:26:53.114Z</time></trkpt><trkpt lat="43.5611748" lon="11.1807091"><ele>359.0</ele><time>2026-04-11T07:26:54.113Z</time></trkpt><trkpt lat="43.5610703" lon="11.180843"><ele>358.25</ele><time>2026-04-11T07:26:55.113Z</time></trkpt><trkpt lat="43.5609691" lon="11.1809798"><ele>357.5</ele><time>2026-04-11T07:26:56.112Z</time></trkpt><trkpt lat="43.5608711" lon="11.1811108"><ele>356.75</ele><time>2026-04-11T07:26:57.115Z</time></trkpt><trkpt lat="43.5607731" lon="11.1812408"><ele>356.0</ele><time>2026-04-11T07:26:58.113Z</time></trkpt><trkpt lat="43.560668" lon="11.1813671"><ele>356.0</ele><time>2026-04-11T07:26:59.113Z</time></trkpt><trkpt lat="43.5605726" lon="11.1815082"><ele>356.0</ele><time>2026-04-11T07:27:00.113Z</time></trkpt><trkpt lat="43.5604833" lon="11.1816633"><ele>356.0</ele><time>2026-04-11T07:27:01.114Z</time></trkpt><trkpt lat="43.5604055" lon="11.1818434"><ele>356.0</ele><time>2026-04-11T07:27:02.112Z</time></trkpt><trkpt lat="43.5603474" lon="11.1820333"><ele>356.33333333333337</ele><time>2026-04-11T07:27:03.113Z</time></trkpt><trkpt lat="43.5602999" lon="11.182246"><ele>356.6666666666667</ele><time>2026-04-11T07:27:04.113Z</time></trkpt><trkpt lat="43.5602631" lon="11.182448"><ele>357.0</ele><time>2026-04-11T07:27:05.113Z</time></trkpt><trkpt lat="43.5602395" lon="11.1826397"><ele>356.25</ele><time>2026-04-11T07:27:06.114Z</time></trkpt><trkpt lat="43.5602255" lon="11.1828187"><ele>355.5</ele><time>2026-04-11T07:27:07.114Z</time></trkpt><trkpt lat="43.5602149" lon="11.182983"><ele>354.75</ele><time>2026-04-11T07:27:08.114Z</time></trkpt><trkpt lat="43.5601936" lon="11.1831398"><ele>354.0</ele><time>2026-04-11T07:27:09.113Z</time></trkpt><trkpt lat="43.5601901" lon="11.1832579"><ele>353.6</ele><time>2026-04-11T07:27:10.112Z</time></trkpt><trkpt lat="43.560181" lon="11.1834038"><ele>353.2</ele><time>2026-04-11T07:27:12.114Z</time></trkpt><trkpt lat="43.560174" lon="11.1835209"><ele>352.8</ele><time>2026-04-11T07:27:14.114Z</time></trkpt><trkpt lat="43.5602388" lon="11.1835369"><ele>352.40000000000003</ele><time>2026-04-11T07:27:17.114Z</time></trkpt><trkpt lat="43.5602456" lon="11.1834165"><ele>352.0</ele><time>2026-04-11T07:27:19.114Z</time></trkpt><trkpt lat="43.5602302" lon="11.1832177"><ele>352.40000000000003</ele><time>2026-04-11T07:27:21.114Z</time></trkpt><trkpt lat="43.5602267" lon="11.1830847"><ele>352.8</ele><time>2026-04-11T07:27:22.114Z</time></trkpt><trkpt lat="43.5602306" lon="11.1829538"><ele>353.2</ele><time>2026-04-11T07:27:23.113Z</time></trkpt><trkpt lat="43.5602422" lon="11.1828107"><ele>353.6</ele><time>2026-04-11T07:27:24.114Z</time></trkpt><trkpt lat="43.5602613" lon="11.1826527"><ele>354.0</ele><time>2026-04-11T07:27:25.114Z</time></trkpt><trkpt lat="43.5602839" lon="11.1825059"><ele>354.0</ele><time>2026-04-11T07:27:26.114Z</time></trkpt><trkpt lat="43.5603054" lon="11.1823662"><ele>354.0</ele><time>2026-04-11T07:27:27.114Z</time></trkpt><trkpt lat="43.5603307" lon="11.1822378"><ele>354.0</ele><time>2026-04-11T07:27:28.113Z</time></trkpt><trkpt lat="43.5603592" lon="11.1821137"><ele>354.0</ele><time>2026-04-11T07:27:29.114Z</time></trkpt><trkpt lat="43.5603992" lon="11.1819888"><ele>354.0</ele><time>2026-04-11T07:27:30.113Z</time></trkpt><trkpt lat="43.5604445" lon="11.1818864"><ele>353.6666666666667</ele><time>2026-04-11T07:27:31.112Z</time></trkpt><trkpt lat="43.5604856" lon="11.1817956"><ele>353.3333333333333</ele><time>2026-04-11T07:27:32.114Z</time></trkpt><trkpt lat="43.5605235" lon="11.1817069"><ele>353.0</ele><time>2026-04-11T07:27:33.114Z</time></trkpt><trkpt lat="43.5605653" lon="11.181623"><ele>352.66666666666663</ele><time>2026-04-11T07:27:34.112Z</time></trkpt><trkpt lat="43.5606164" lon="11.1815387"><ele>352.3333333333333</ele><time>2026-04-11T07:27:35.114Z</time></trkpt><trkpt lat="43.56067" lon="11.1814524"><ele>352.0</ele><time>2026-04-11T07:27:36.114Z</time></trkpt><trkpt lat="43.5607347" lon="11.1813647"><ele>352.8</ele><time>2026-04-11T07:27:37.114Z</time></trkpt><trkpt lat="43.5608079" lon="11.1812757"><ele>353.6</ele><time>2026-04-11T07:27:38.113Z</time></trkpt><trkpt lat="43.5608857" lon="11.1811722"><ele>354.40000000000003</ele><time>2026-04-11T07:27:39.113Z</time></trkpt><trkpt lat="43.5609726" lon="11.1810567"><ele>355.20000000000005</ele><time>2026-04-11T07:27:40.114Z</time></trkpt><trkpt lat="43.5610616" lon="11.1809416"><ele>356.0</ele><time>2026-04-11T07:27:41.113Z</time></trkpt><trkpt lat="43.5611501" lon="11.1808303"><ele>355.4</ele><time>2026-04-11T07:27:42.114Z</time></trkpt><trkpt lat="43.5612342" lon="11.180727"><ele>354.8</ele><time>2026-04-11T07:27:43.114Z</time></trkpt><trkpt lat="43.5613144" lon="11.180636"><ele>354.2</ele><time>2026-04-11T07:27:44.113Z</time></trkpt><trkpt lat="43.5613801" lon="11.1805697"><ele>353.59999999999997</ele><time>2026-04-11T07:27:45.113Z</time></trkpt><trkpt lat="43.5614636" lon="11.1805236"><ele>353.0</ele><time>2026-04-11T07:27:47.113Z</time></trkpt><trkpt lat="43.5614878" lon="11.1806263"><ele>353.0</ele><time>2026-04-11T07:27:51.114Z</time></trkpt><trkpt lat="43.5615195" lon="11.1807402"><ele>353.0</ele><time>2026-04-11T07:27:54.112Z</time></trkpt><trkpt lat="43.5615525" lon="11.1806522"><ele>353.0</ele><time>2026-04-11T07:27:59.114Z</time></trkpt><trkpt lat="43.561483" lon="11.1805661"><ele>353.0</ele><time>2026-04-11T07:28:01.114Z</time></trkpt><trkpt lat="43.5614049" lon="11.1804966"><ele>353.0</ele><time>2026-04-11T07:28:04.114Z</time></trkpt><trkpt lat="43.561305" lon="11.1805759"><ele>353.5</ele><time>2026-04-11T07:28:06.114Z</time></trkpt><trkpt lat="43.5612495" lon="11.1806428"><ele>354.0</ele><time>2026-04-11T07:28:07.113Z</time></trkpt><trkpt lat="43.5611886" lon="11.1807224"><ele>354.5</ele><time>2026-04-11T07:28:08.113Z</time></trkpt><trkpt lat="43.5611264" lon="11.1807987"><ele>355.0</ele><time>2026-04-11T07:28:09.113Z</time></trkpt><trkpt lat="43.561063" lon="11.1808832"><ele>355.5</ele><time>2026-04-11T07:28:10.113Z</time></trkpt><trkpt lat="43.5609926" lon="11.1809674"><ele>356.0</ele><time>2026-04-11T07:28:11.113Z</time></trkpt><trkpt lat="43.5609125" lon="11.1810566"><ele>356.0</ele><time>2026-04-11T07:28:12.115Z</time></trkpt><trkpt lat="43.5608348" lon="11.1811494"><ele>356.0</ele><time>2026-04-11T07:28:13.114Z</time></trkpt><trkpt lat="43.5607656" lon="11.1812481"><ele>356.0</ele><time>2026-04-11T07:28:14.112Z</time></trkpt><trkpt lat="43.5606996" lon="11.1813431"><ele>356.0</ele><time>2026-04-11T07:28:15.114Z</time></trkpt><trkpt lat="43.560641" lon="11.1814402"><ele>356.0</ele><time>2026-04-11T07:28:16.114Z</time></trkpt><trkpt lat="43.5605884" lon="11.1815299"><ele>356.20000000000005</ele><time>2026-04-11T07:28:17.112Z</time></trkpt><trkpt lat="43.5605405" lon="11.1816046"><ele>356.40000000000003</ele><time>2026-04-11T07:28:18.114Z</time></trkpt><trkpt lat="43.5604994" lon="11.1816724"><ele>356.6</ele><time>2026-04-11T07:28:19.113Z</time></trkpt><trkpt lat="43.5604543" lon="11.1817923"><ele>356.8</ele><time>2026-04-11T07:28:21.113Z</time></trkpt><trkpt lat="43.560398" lon="11.1819247"><ele>357.0</ele><time>2026-04-11T07:28:23.112Z</time></trkpt><trkpt lat="43.5603505" lon="11.1820641"><ele>357.0</ele><time>2026-04-11T07:28:25.113Z</time></trkpt><trkpt lat="43.5603248" lon="11.1821516"><ele>357.0</ele><time>2026-04-11T07:28:26.113Z</time></trkpt><trkpt lat="43.560295" lon="11.1822524"><ele>357.0</ele><time>2026-04-11T07:28:27.113Z</time></trkpt><trkpt lat="43.5602697" lon="11.1823562"><ele>357.0</ele><time>2026-04-11T07:28:28.114Z</time></trkpt><trkpt lat="43.5602495" lon="11.1824732"><ele>357.0</ele><time>2026-04-11T07:28:29.115Z</time></trkpt><trkpt lat="43.5602386" lon="11.1826011"><ele>357.0</ele><time>2026-04-11T07:28:30.115Z</time></trkpt><trkpt lat="43.5602267" lon="11.1827369"><ele>356.40000000000003</ele><time>2026-04-11T07:28:31.114Z</time></trkpt><trkpt lat="43.5602176" lon="11.1828823"><ele>355.8</ele><time>2026-04-11T07:28:32.113Z</time></trkpt><trkpt lat="43.5601996" lon="11.1830463"><ele>355.2</ele><time>2026-04-11T07:28:33.113Z</time></trkpt><trkpt lat="43.5602024" lon="11.1832046"><ele>354.6</ele><time>2026-04-11T07:28:34.113Z</time></trkpt><trkpt lat="43.5602179" lon="11.183344"><ele>354.0</ele><time>2026-04-11T07:28:35.113Z</time></trkpt><trkpt lat="43.5602357" lon="11.1834922"><ele>353.5</ele><time>2026-04-11T07:28:36.112Z</time></trkpt><trkpt lat="43.5602652" lon="11.1836429"><ele>353.0</ele><time>2026-04-11T07:28:37.114Z</time></trkpt><trkpt lat="43.5603022" lon="11.1838033"><ele>352.5</ele><time>2026-04-11T07:28:38.113Z</time></trkpt><trkpt lat="43.560349" lon="11.1839618"><ele>352.0</ele><time>2026-04-11T07:28:39.114Z</time></trkpt><trkpt lat="43.5604034" lon="11.1841108"><ele>351.75</ele><time>2026-04-11T07:28:40.112Z</time></trkpt><trkpt lat="43.5604546" lon="11.1842621"><ele>351.5</ele><time>2026-04-11T07:28:41.112Z</time></trkpt><trkpt lat="43.5605141" lon="11.1844192"><ele>351.25</ele><time>2026-04-11T07:28:42.114Z</time></trkpt><trkpt lat="43.5605683" lon="11.1845816"><ele>351.0</ele><time>2026-04-11T07:28:43.115Z</time></trkpt><trkpt lat="43.5606333" lon="11.1847499"><ele>351.0</ele><time>2026-04-11T07:28:44.114Z</time></trkpt><trkpt lat="43.5606982" lon="11.1849152"><ele>351.0</ele><time>2026-04-11T07:28:45.112Z</time></trkpt><trkpt lat="43.5607664" lon="11.1850839"><ele>351.0</ele><time>2026-04-11T07:28:46.112Z</time></trkpt><trkpt lat="43.5608355" lon="11.1852589"><ele>351.0</ele><time>2026-04-11T07:28:47.113Z</time></trkpt><trkpt lat="43.5609031" lon="11.1854388"><ele>351.0</ele><time>2026-04-11T07:28:48.114Z</time></trkpt><trkpt lat="43.5609641" lon="11.185625"><ele>351.0</ele><time>2026-04-11T07:28:49.113Z</time></trkpt><trkpt lat="43.5610325" lon="11.1858105"><ele>351.0</ele><time>2026-04-11T07:28:50.113Z</time></trkpt><trkpt lat="43.5610972" lon="11.1859885"><ele>351.0</ele><time>2026-04-11T07:28:51.115Z</time></trkpt><trkpt lat="43.5611579" lon="11.1861678"><ele>350.5</ele><time>2026-04-11T07:28:52.113Z</time></trkpt><trkpt lat="43.5612177" lon="11.1863392"><ele>350.0</ele><time>2026-04-11T07:28:53.114Z</time></trkpt><trkpt lat="43.5612672" lon="11.1865056"><ele>349.5</ele><time>2026-04-11T07:28:54.113Z</time></trkpt><trkpt lat="43.561323" lon="11.1866615"><ele>349.0</ele><time>2026-04-11T07:28:55.113Z</time></trkpt><trkpt lat="43.5613843" lon="11.1868196"><ele>348.0</ele><time>2026-04-11T07:28:56.113Z</time></trkpt><trkpt lat="43.5614429" lon="11.1869843"><ele>347.0</ele><time>2026-04-11T07:28:57.113Z</time></trkpt><trkpt lat="43.5615027" lon="11.1871509"><ele>346.0</ele><time>2026-04-11T07:28:58.113Z</time></trkpt><trkpt lat="43.5615685" lon="11.1873303"><ele>345.0</ele><time>2026-04-11T07:28:59.115Z</time></trkpt><trkpt lat="43.5616316" lon="11.187514"><ele>344.0</ele><time>2026-04-11T07:29:00.115Z</time></trkpt><trkpt lat="43.5616913" lon="11.1876872"><ele>343.0</ele><time>2026-04-11T07:29:01.112Z</time></trkpt><trkpt lat="43.5617523" lon="11.1878548"><ele>342.0</ele><time>2026-04-11T07:29:02.114Z</time></trkpt><trkpt lat="43.5618087" lon="11.1880156"><ele>341.0</ele><time>2026-04-11T07:29:03.114Z</time></trkpt><trkpt lat="43.5618689" lon="11.1881724"><ele>340.0</ele><time>2026-04-11T07:29:04.115Z</time></trkpt><trkpt lat="43.5619304" lon="11.1883336"><ele>339.0</ele><time>2026-04-11T07:29:05.113Z</time></trkpt><trkpt lat="43.5619809" lon="11.1884969"><ele>338.0</ele><time>2026-04-11T07:29:06.114Z</time></trkpt><trkpt lat="43.5620477" lon="11.1886731"><ele>337.0</ele><time>2026-04-11T07:29:07.114Z</time></trkpt><trkpt lat="43.5621116" lon="11.1888551"><ele>334.5</ele><time>2026-04-11T07:29:08.113Z</time></trkpt><trkpt lat="43.5621748" lon="11.1890377"><ele>332.0</ele><time>2026-04-11T07:29:09.113Z</time></trkpt><trkpt lat="43.5622367" lon="11.1892188"><ele>329.5</ele><time>2026-04-11T07:29:10.113Z</time></trkpt><trkpt lat="43.5623028" lon="11.1893988"><ele>327.0</ele><time>2026-04-11T07:29:11.113Z</time></trkpt><trkpt lat="43.5623661" lon="11.1895848"><ele>327.0</ele><time>2026-04-11T07:29:12.113Z</time></trkpt><trkpt lat="43.5624317" lon="11.1897705"><ele>327.0</ele><time>2026-04-11T07:29:13.114Z</time></trkpt><trkpt lat="43.5624925" lon="11.1899586"><ele>327.0</ele><time>2026-04-11T07:29:14.114Z</time></trkpt><trkpt lat="43.5625558" lon="11.1901368"><ele>327.0</ele><time>2026-04-11T07:29:15.113Z</time></trkpt><trkpt lat="43.5626142" lon="11.1903191"><ele>326.75</ele><time>2026-04-11T07:29:16.113Z</time></trkpt><trkpt lat="43.5626787" lon="11.190501"><ele>326.5</ele><time>2026-04-11T07:29:17.114Z</time></trkpt><trkpt lat="43.5627392" lon="11.1906854"><ele>326.25</ele><time>2026-04-11T07:29:18.114Z</time></trkpt><trkpt lat="43.562804" lon="11.1908709"><ele>326.0</ele><time>2026-04-11T07:29:19.113Z</time></trkpt><trkpt lat="43.5628672" lon="11.1910527"><ele>326.75</ele><time>2026-04-11T07:29:20.113Z</time></trkpt><trkpt lat="43.5629382" lon="11.1912373"><ele>327.5</ele><time>2026-04-11T07:29:21.114Z</time></trkpt><trkpt lat="43.5630027" lon="11.1914103"><ele>328.25</ele><time>2026-04-11T07:29:22.113Z</time></trkpt><trkpt lat="43.5630632" lon="11.1915859"><ele>329.0</ele><time>2026-04-11T07:29:23.114Z</time></trkpt><trkpt lat="43.563115" lon="11.1917462"><ele>330.5</ele><time>2026-04-11T07:29:24.114Z</time></trkpt><trkpt lat="43.5631552" lon="11.1918833"><ele>332.0</ele><time>2026-04-11T07:29:25.113Z</time></trkpt><trkpt lat="43.5631849" lon="11.1919899"><ele>333.5</ele><time>2026-04-11T07:29:26.112Z</time></trkpt><trkpt lat="43.5632199" lon="11.1920998"><ele>335.0</ele><time>2026-04-11T07:29:28.114Z</time></trkpt><trkpt lat="43.5632416" lon="11.1921929"><ele>336.5</ele><time>2026-04-11T07:29:31.112Z</time></trkpt><trkpt lat="43.5632598" lon="11.1923112"><ele>338.0</ele><time>2026-04-11T07:29:34.114Z</time></trkpt><trkpt lat="43.5632526" lon="11.1924194"><ele>338.0</ele><time>2026-04-11T07:29:36.114Z</time></trkpt><trkpt lat="43.563311" lon="11.1923669"><ele>338.0</ele><time>2026-04-11T07:29:39.114Z</time></trkpt><trkpt lat="43.5632828" lon="11.1922014"><ele>338.0</ele><time>2026-04-11T07:29:41.113Z</time></trkpt><trkpt lat="43.5632625" lon="11.1921149"><ele>338.0</ele><time>2026-04-11T07:29:42.115Z</time></trkpt><trkpt lat="43.5632369" lon="11.1919618"><ele>338.0</ele><time>2026-04-11T07:29:44.112Z</time></trkpt><trkpt lat="43.5632592" lon="11.1918533"><ele>338.0</ele><time>2026-04-11T07:29:46.113Z</time></trkpt><trkpt lat="43.5633097" lon="11.1917815"><ele>338.0</ele><time>2026-04-11T07:29:48.114Z</time></trkpt><trkpt lat="43.5633707" lon="11.1917113"><ele>338.0</ele><time>2026-04-11T07:29:50.113Z</time></trkpt><trkpt lat="43.5634056" lon="11.1916353"><ele>338.0</ele><time>2026-04-11T07:29:52.113Z</time></trkpt><trkpt lat="43.5634638" lon="11.1915692"><ele>338.0</ele><time>2026-04-11T07:29:56.113Z</time></trkpt><trkpt lat="43.5634609" lon="11.191448"><ele>338.0</ele><time>2026-04-11T07:30:35.114Z</time></trkpt><trkpt lat="43.5635221" lon="11.1913628"><ele>336.5</ele><time>2026-04-11T07:30:38.114Z</time></trkpt><trkpt lat="43.5635847" lon="11.1913036"><ele>335.0</ele><time>2026-04-11T07:30:40.115Z</time></trkpt><trkpt lat="43.5636375" lon="11.1912201"><ele>333.5</ele><time>2026-04-11T07:30:42.114Z</time></trkpt><trkpt lat="43.5637083" lon="11.191179"><ele>332.0</ele><time>2026-04-11T07:30:45.114Z</time></trkpt><trkpt lat="43.5637843" lon="11.1911221"><ele>330.5</ele><time>2026-04-11T07:30:48.113Z</time></trkpt><trkpt lat="43.563833" lon="11.1910645"><ele>329.0</ele><time>2026-04-11T07:30:50.114Z</time></trkpt><trkpt lat="43.5638847" lon="11.1910011"><ele>328.5</ele><time>2026-04-11T07:30:52.114Z</time></trkpt><trkpt lat="43.5639536" lon="11.190903"><ele>328.0</ele><time>2026-04-11T07:30:54.114Z</time></trkpt><trkpt lat="43.564002" lon="11.1908383"><ele>327.5</ele><time>2026-04-11T07:30:55.114Z</time></trkpt><trkpt lat="43.5640531" lon="11.1907644"><ele>327.0</ele><time>2026-04-11T07:30:56.113Z</time></trkpt><trkpt lat="43.5641144" lon="11.1906898"><ele>326.5</ele><time>2026-04-11T07:30:57.113Z</time></trkpt><trkpt lat="43.5641719" lon="11.1906064"><ele>326.0</ele><time>2026-04-11T07:30:58.113Z</time></trkpt><trkpt lat="43.5642296" lon="11.1905553"><ele>324.2</ele><time>2026-04-11T07:30:59.112Z</time></trkpt><trkpt lat="43.5642826" lon="11.1904929"><ele>322.40000000000003</ele><time>2026-04-11T07:31:00.113Z</time></trkpt><trkpt lat="43.564379" lon="11.1903941"><ele>320.6</ele><time>2026-04-11T07:31:02.112Z</time></trkpt><trkpt lat="43.5644589" lon="11.1903494"><ele>318.8</ele><time>2026-04-11T07:31:04.113Z</time></trkpt><trkpt lat="43.5645482" lon="11.1903679"><ele>317.0</ele><time>2026-04-11T07:31:06.113Z</time></trkpt><trkpt lat="43.5646374" lon="11.1903939"><ele>316.83333333333337</ele><time>2026-04-11T07:31:08.113Z</time></trkpt><trkpt lat="43.5647506" lon="11.1903782"><ele>316.6666666666667</ele><time>2026-04-11T07:31:10.115Z</time></trkpt><trkpt lat="43.5648185" lon="11.1903781"><ele>316.5</ele><time>2026-04-11T07:31:11.113Z</time></trkpt><trkpt lat="43.564908" lon="11.1903423"><ele>316.3333333333333</ele><time>2026-04-11T07:31:13.114Z</time></trkpt><trkpt lat="43.5649494" lon="11.1902336"><ele>316.16666666666663</ele><time>2026-04-11T07:31:16.112Z</time></trkpt><trkpt lat="43.5649453" lon="11.1901429"><ele>316.0</ele><time>2026-04-11T07:31:18.114Z</time></trkpt><trkpt lat="43.5649525" lon="11.1900363"><ele>316.0</ele><time>2026-04-11T07:31:21.113Z</time></trkpt><trkpt lat="43.5650164" lon="11.1899679"><ele>316.0</ele><time>2026-04-11T07:31:24.113Z</time></trkpt><trkpt lat="43.5650977" lon="11.1898961"><ele>316.0</ele><time>2026-04-11T07:31:27.113Z</time></trkpt><trkpt lat="43.5651266" lon="11.189818"><ele>316.0</ele><time>2026-04-11T07:31:33.113Z</time></trkpt><trkpt lat="43.5651517" lon="11.1897144"><ele>316.0</ele><time>2026-04-11T07:31:36.113Z</time></trkpt><trkpt lat="43.5652184" lon="11.1896425"><ele>316.0</ele><time>2026-04-11T07:31:38.112Z</time></trkpt><trkpt lat="43.5652813" lon="11.1895698"><ele>316.0</ele><time>2026-04-11T07:31:40.112Z</time></trkpt><trkpt lat="43.5653488" lon="11.1894935"><ele>316.0</ele><time>2026-04-11T07:31:42.113Z</time></trkpt><trkpt lat="43.5654047" lon="11.1894386"><ele>316.0</ele><time>2026-04-11T07:31:43.112Z</time></trkpt><trkpt lat="43.5654954" lon="11.1893582"><ele>316.0</ele><time>2026-04-11T07:31:45.114Z</time></trkpt><trkpt lat="43.565531" lon="11.1892642"><ele>316.0</ele><time>2026-04-11T07:31:47.113Z</time></trkpt><trkpt lat="43.565594" lon="11.1891659"><ele>316.0</ele><time>2026-04-11T07:31:49.114Z</time></trkpt><trkpt lat="43.5656819" lon="11.1890807"><ele>316.66666666666663</ele><time>2026-04-11T07:31:51.113Z</time></trkpt><trkpt lat="43.5657789" lon="11.1889883"><ele>317.3333333333333</ele><time>2026-04-11T07:31:53.114Z</time></trkpt><trkpt lat="43.5658252" lon="11.1889292"><ele>318.0</ele><time>2026-04-11T07:31:54.113Z</time></trkpt><trkpt lat="43.5658692" lon="11.1888546"><ele>318.6666666666667</ele><time>2026-04-11T07:31:55.114Z</time></trkpt><trkpt lat="43.5659088" lon="11.1887625"><ele>319.33333333333337</ele><time>2026-04-11T07:31:56.114Z</time></trkpt><trkpt lat="43.5659424" lon="11.1886646"><ele>320.0</ele><time>2026-04-11T07:31:57.112Z</time></trkpt><trkpt lat="43.5659709" lon="11.188554"><ele>320.0</ele><time>2026-04-11T07:31:58.113Z</time></trkpt><trkpt lat="43.5660079" lon="11.1884481"><ele>320.0</ele><time>2026-04-11T07:31:59.114Z</time></trkpt><trkpt lat="43.5660378" lon="11.1883501"><ele>320.0</ele><time>2026-04-11T07:32:00.113Z</time></trkpt><trkpt lat="43.5660719" lon="11.1882587"><ele>320.0</ele><time>2026-04-11T07:32:01.113Z</time></trkpt><trkpt lat="43.5661461" lon="11.1881162"><ele>320.0</ele><time>2026-04-11T07:32:03.113Z</time></trkpt><trkpt lat="43.5661715" lon="11.1879638"><ele>322.75</ele><time>2026-04-11T07:32:05.113Z</time></trkpt><trkpt lat="43.5662057" lon="11.1877981"><ele>325.5</ele><time>2026-04-11T07:32:07.112Z</time></trkpt><trkpt lat="43.5662397" lon="11.1876519"><ele>328.25</ele><time>2026-04-11T07:32:09.113Z</time></trkpt><trkpt lat="43.5662787" lon="11.1874939"><ele>331.0</ele><time>2026-04-11T07:32:11.114Z</time></trkpt><trkpt lat="43.5663082" lon="11.1873242"><ele>332.0</ele><time>2026-04-11T07:32:13.114Z</time></trkpt><trkpt lat="43.5663233" lon="11.187226"><ele>333.0</ele><time>2026-04-11T07:32:14.114Z</time></trkpt><trkpt lat="43.5663412" lon="11.1871365"><ele>334.0</ele><time>2026-04-11T07:32:15.113Z</time></trkpt><trkpt lat="43.5663539" lon="11.1870386"><ele>335.0</ele><time>2026-04-11T07:32:16.114Z</time></trkpt><trkpt lat="43.5663801" lon="11.186935"><ele>336.0</ele><time>2026-04-11T07:32:17.112Z</time></trkpt><trkpt lat="43.5664042" lon="11.1868275"><ele>337.0</ele><time>2026-04-11T07:32:18.113Z</time></trkpt><trkpt lat="43.5664305" lon="11.1867157"><ele>337.0</ele><time>2026-04-11T07:32:19.114Z</time></trkpt><trkpt lat="43.5664638" lon="11.1865889"><ele>337.0</ele><time>2026-04-11T07:32:20.112Z</time></trkpt><trkpt lat="43.5664819" lon="11.1864875"><ele>337.0</ele><time>2026-04-11T07:32:21.114Z</time></trkpt><trkpt lat="43.5664983" lon="11.1863944"><ele>337.0</ele><time>2026-04-11T07:32:22.114Z</time></trkpt><trkpt lat="43.5665198" lon="11.1863029"><ele>337.0</ele><time>2026-04-11T07:32:23.114Z</time></trkpt><trkpt lat="43.5665327" lon="11.1862164"><ele>337.0</ele><time>2026-04-11T07:32:24.114Z</time></trkpt><trkpt lat="43.5665545" lon="11.1861116"><ele>338.3333333333333</ele><time>2026-04-11T07:32:25.114Z</time></trkpt><trkpt lat="43.5665831" lon="11.1860149"><ele>339.66666666666663</ele><time>2026-04-11T07:32:26.113Z</time></trkpt><trkpt lat="43.5666027" lon="11.1859145"><ele>341.0</ele><time>2026-04-11T07:32:27.113Z</time></trkpt><trkpt lat="43.5666207" lon="11.1858115"><ele>342.3333333333333</ele><time>2026-04-11T07:32:28.115Z</time></trkpt><trkpt lat="43.566642" lon="11.1857107"><ele>343.6666666666667</ele><time>2026-04-11T07:32:29.113Z</time></trkpt><trkpt lat="43.5666686" lon="11.1855995"><ele>345.0</ele><time>2026-04-11T07:32:30.112Z</time></trkpt><trkpt lat="43.5666932" lon="11.1854785"><ele>346.4</ele><time>2026-04-11T07:32:31.113Z</time></trkpt><trkpt lat="43.5667117" lon="11.185365"><ele>347.8</ele><time>2026-04-11T07:32:32.113Z</time></trkpt><trkpt lat="43.5667134" lon="11.1852641"><ele>349.20000000000005</ele><time>2026-04-11T07:32:33.114Z</time></trkpt><trkpt lat="43.5667405" lon="11.1851062"><ele>350.6</ele><time>2026-04-11T07:32:35.114Z</time></trkpt><trkpt lat="43.5667563" lon="11.1849498"><ele>352.0</ele><time>2026-04-11T07:32:37.114Z</time></trkpt><trkpt lat="43.5667581" lon="11.1848617"><ele>352.40000000000003</ele><time>2026-04-11T07:32:38.113Z</time></trkpt><trkpt lat="43.5667641" lon="11.1847664"><ele>352.8</ele><time>2026-04-11T07:32:39.114Z</time></trkpt><trkpt lat="43.5667711" lon="11.1846788"><ele>353.2</ele><time>2026-04-11T07:32:40.114Z</time></trkpt><trkpt lat="43.5667719" lon="11.1844931"><ele>353.6</ele><time>2026-04-11T07:32:42.114Z</time></trkpt><trkpt lat="43.566781" lon="11.1843305"><ele>354.0</ele><time>2026-04-11T07:32:44.114Z</time></trkpt><trkpt lat="43.5667989" lon="11.1841863"><ele>354.0</ele><time>2026-04-11T07:32:46.114Z</time></trkpt><trkpt lat="43.5668154" lon="11.184037"><ele>354.0</ele><time>2026-04-11T07:32:48.113Z</time></trkpt><trkpt lat="43.5668417" lon="11.1838983"><ele>354.0</ele><time>2026-04-11T07:32:50.114Z</time></trkpt><trkpt lat="43.5668588" lon="11.1838136"><ele>354.0</ele><time>2026-04-11T07:32:51.112Z</time></trkpt><trkpt lat="43.5668708" lon="11.1836622"><ele>354.0</ele><time>2026-04-11T07:32:53.113Z</time></trkpt><trkpt lat="43.5668869" lon="11.1835406"><ele>353.8333333333333</ele><time>2026-04-11T07:32:55.115Z</time></trkpt><trkpt lat="43.5668963" lon="11.1834398"><ele>353.6666666666667</ele><time>2026-04-11T07:32:57.112Z</time></trkpt><trkpt lat="43.5668951" lon="11.1833313"><ele>353.5</ele><time>2026-04-11T07:32:59.113Z</time></trkpt><trkpt lat="43.5669071" lon="11.1832308"><ele>353.33333333333337</ele><time>2026-04-11T07:33:01.112Z</time></trkpt><trkpt lat="43.5669084" lon="11.1831246"><ele>353.1666666666667</ele><time>2026-04-11T07:33:08.113Z</time></trkpt><trkpt lat="43.5668296" lon="11.1830688"><ele>353.0</ele><time>2026-04-11T07:33:10.113Z</time></trkpt><trkpt lat="43.5667645" lon="11.1830482"><ele>352.33333333333337</ele><time>2026-04-11T07:33:11.113Z</time></trkpt><trkpt lat="43.5667018" lon="11.1830352"><ele>351.6666666666667</ele><time>2026-04-11T07:33:12.115Z</time></trkpt><trkpt lat="43.5666235" lon="11.1830188"><ele>351.0</ele><time>2026-04-11T07:33:13.113Z</time></trkpt><trkpt lat="43.5665454" lon="11.182997"><ele>350.3333333333333</ele><time>2026-04-11T07:33:14.115Z</time></trkpt><trkpt lat="43.5664641" lon="11.1829715"><ele>349.66666666666663</ele><time>2026-04-11T07:33:15.114Z</time></trkpt><trkpt lat="43.5663791" lon="11.1829339"><ele>349.0</ele><time>2026-04-11T07:33:16.113Z</time></trkpt><trkpt lat="43.5662992" lon="11.182879"><ele>349.0</ele><time>2026-04-11T07:33:17.113Z</time></trkpt><trkpt lat="43.5662184" lon="11.1828055"><ele>349.0</ele><time>2026-04-11T07:33:18.114Z</time></trkpt><trkpt lat="43.5661374" lon="11.1827226"><ele>349.0</ele><time>2026-04-11T07:33:19.114Z</time></trkpt><trkpt lat="43.5660534" lon="11.1826337"><ele>349.0</ele><time>2026-04-11T07:33:20.113Z</time></trkpt><trkpt lat="43.5659726" lon="11.1825514"><ele>349.0</ele><time>2026-04-11T07:33:21.114Z</time></trkpt><trkpt lat="43.5658911" lon="11.1824768"><ele>350.2</ele><time>2026-04-11T07:33:22.115Z</time></trkpt><trkpt lat="43.5658081" lon="11.1823972"><ele>351.4</ele><time>2026-04-11T07:33:23.113Z</time></trkpt><trkpt lat="43.5657208" lon="11.1823157"><ele>352.6</ele><time>2026-04-11T07:33:24.113Z</time></trkpt><trkpt lat="43.5656488" lon="11.1822181"><ele>353.8</ele><time>2026-04-11T07:33:25.114Z</time></trkpt><trkpt lat="43.5655774" lon="11.1821017"><ele>355.0</ele><time>2026-04-11T07:33:26.113Z</time></trkpt><trkpt lat="43.5655306" lon="11.1819719"><ele>355.0</ele><time>2026-04-11T07:33:27.113Z</time></trkpt><trkpt lat="43.5654889" lon="11.1818273"><ele>355.0</ele><time>2026-04-11T07:33:28.112Z</time></trkpt><trkpt lat="43.5654367" lon="11.1816796"><ele>355.0</ele><time>2026-04-11T07:33:29.114Z</time></trkpt><trkpt lat="43.5653759" lon="11.1815296"><ele>355.0</ele><time>2026-04-11T07:33:30.115Z</time></trkpt><trkpt lat="43.5653078" lon="11.1813943"><ele>356.2</ele><time>2026-04-11T07:33:31.114Z</time></trkpt><trkpt lat="43.5652448" lon="11.1812674"><ele>357.4</ele><time>2026-04-11T07:33:32.112Z</time></trkpt><trkpt lat="43.5651892" lon="11.1811537"><ele>358.6</ele><time>2026-04-11T07:33:33.114Z</time></trkpt><trkpt lat="43.5651285" lon="11.1810402"><ele>359.8</ele><time>2026-04-11T07:33:34.114Z</time></trkpt><trkpt lat="43.5650766" lon="11.1809336"><ele>361.0</ele><time>2026-04-11T07:33:35.112Z</time></trkpt><trkpt lat="43.5650266" lon="11.1808159"><ele>361.0</ele><time>2026-04-11T07:33:36.114Z</time></trkpt><trkpt lat="43.5649803" lon="11.1806932"><ele>361.0</ele><time>2026-04-11T07:33:37.115Z</time></trkpt><trkpt lat="43.5649352" lon="11.1805675"><ele>361.0</ele><time>2026-04-11T07:33:38.113Z</time></trkpt><trkpt lat="43.5648878" lon="11.180432"><ele>361.0</ele><time>2026-04-11T07:33:39.114Z</time></trkpt><trkpt lat="43.5648502" lon="11.1802875"><ele>361.0</ele><time>2026-04-11T07:33:40.114Z</time></trkpt><trkpt lat="43.5648033" lon="11.1801278"><ele>360.8</ele><time>2026-04-11T07:33:41.113Z</time></trkpt><trkpt lat="43.5647671" lon="11.1799613"><ele>360.6</ele><time>2026-04-11T07:33:42.112Z</time></trkpt><trkpt lat="43.5647384" lon="11.1798036"><ele>360.4</ele><time>2026-04-11T07:33:43.112Z</time></trkpt><trkpt lat="43.5646963" lon="11.1796625"><ele>360.2</ele><time>2026-04-11T07:33:44.113Z</time></trkpt><trkpt lat="43.5646603" lon="11.1795443"><ele>360.0</ele><time>2026-04-11T07:33:45.113Z</time></trkpt><trkpt lat="43.5646407" lon="11.1794394"><ele>359.6666666666667</ele><time>2026-04-11T07:33:46.115Z</time></trkpt><trkpt lat="43.5646318" lon="11.1793395"><ele>359.3333333333333</ele><time>2026-04-11T07:33:48.114Z</time></trkpt><trkpt lat="43.564552" lon="11.1792412"><ele>359.0</ele><time>2026-04-11T07:33:51.115Z</time></trkpt><trkpt lat="43.564492" lon="11.1791965"><ele>358.66666666666663</ele><time>2026-04-11T07:33:52.114Z</time></trkpt><trkpt lat="43.564418" lon="11.1791604"><ele>358.3333333333333</ele><time>2026-04-11T07:33:53.113Z</time></trkpt><trkpt lat="43.5643291" lon="11.1791091"><ele>358.0</ele><time>2026-04-11T07:33:54.114Z</time></trkpt><trkpt lat="43.564239" lon="11.1790516"><ele>357.79999999999995</ele><time>2026-04-11T07:33:55.114Z</time></trkpt><trkpt lat="43.5641631" lon="11.1789841"><ele>357.6</ele><time>2026-04-11T07:33:56.113Z</time></trkpt><trkpt lat="43.564063" lon="11.1789096"><ele>357.4</ele><time>2026-04-11T07:33:57.113Z</time></trkpt><trkpt lat="43.5639652" lon="11.1788117"><ele>357.20000000000005</ele><time>2026-04-11T07:33:58.113Z</time></trkpt><trkpt lat="43.5638685" lon="11.1787118"><ele>357.0</ele><time>2026-04-11T07:33:59.112Z</time></trkpt><trkpt lat="43.5637768" lon="11.1785985"><ele>357.20000000000005</ele><time>2026-04-11T07:34:00.115Z</time></trkpt><trkpt lat="43.5636909" lon="11.1784948"><ele>357.4</ele><time>2026-04-11T07:34:01.113Z</time></trkpt><trkpt lat="43.5636098" lon="11.1783961"><ele>357.6</ele><time>2026-04-11T07:34:02.114Z</time></trkpt><trkpt lat="43.5635451" lon="11.1783113"><ele>357.79999999999995</ele><time>2026-04-11T07:34:03.114Z</time></trkpt><trkpt lat="43.5634751" lon="11.1782304"><ele>358.0</ele><time>2026-04-11T07:34:04.113Z</time></trkpt><trkpt lat="43.5634151" lon="11.1781578"><ele>358.0</ele><time>2026-04-11T07:34:05.114Z</time></trkpt><trkpt lat="43.5633521" lon="11.1780892"><ele>358.0</ele><time>2026-04-11T07:34:06.113Z</time></trkpt><trkpt lat="43.5632965" lon="11.178029"><ele>358.0</ele><time>2026-04-11T07:34:07.114Z</time></trkpt><trkpt lat="43.5632297" lon="11.1779859"><ele>358.0</ele><time>2026-04-11T07:34:08.114Z</time></trkpt><trkpt lat="43.5631163" lon="11.1780281"><ele>358.0</ele><time>2026-04-11T07:34:10.114Z</time></trkpt><trkpt lat="43.5630726" lon="11.1781071"><ele>358.0</ele><time>2026-04-11T07:34:11.113Z</time></trkpt><trkpt lat="43.5630207" lon="11.1782"><ele>358.0</ele><time>2026-04-11T07:34:12.113Z</time></trkpt><trkpt lat="43.562949" lon="11.1783062"><ele>358.0</ele><time>2026-04-11T07:34:13.115Z</time></trkpt><trkpt lat="43.5628726" lon="11.1784151"><ele>358.0</ele><time>2026-04-11T07:34:14.113Z</time></trkpt><trkpt lat="43.5627999" lon="11.1785271"><ele>358.0</ele><time>2026-04-11T07:34:15.113Z</time></trkpt><trkpt lat="43.5627266" lon="11.1786381"><ele>358.0</ele><time>2026-04-11T07:34:16.116Z</time></trkpt><trkpt lat="43.5626409" lon="11.1787714"><ele>358.25</ele><time>2026-04-11T07:34:17.115Z</time></trkpt><trkpt lat="43.5625511" lon="11.1789003"><ele>358.5</ele><time>2026-04-11T07:34:18.112Z</time></trkpt><trkpt lat="43.5624619" lon="11.1790348"><ele>358.75</ele><time>2026-04-11T07:34:19.113Z</time></trkpt><trkpt lat="43.5623697" lon="11.1791715"><ele>359.0</ele><time>2026-04-11T07:34:20.113Z</time></trkpt><trkpt lat="43.5622795" lon="11.1793008"><ele>359.0</ele><time>2026-04-11T07:34:21.114Z</time></trkpt><trkpt lat="43.562182" lon="11.1794427"><ele>359.0</ele><time>2026-04-11T07:34:22.115Z</time></trkpt><trkpt lat="43.5620824" lon="11.179575"><ele>359.0</ele><time>2026-04-11T07:34:23.114Z</time></trkpt><trkpt lat="43.5619825" lon="11.1797063"><ele>359.0</ele><time>2026-04-11T07:34:24.115Z</time></trkpt><trkpt lat="43.5618713" lon="11.1798393"><ele>359.0</ele><time>2026-04-11T07:34:25.114Z</time></trkpt><trkpt lat="43.5617648" lon="11.1799731"><ele>359.0</ele><time>2026-04-11T07:34:26.113Z</time></trkpt><trkpt lat="43.5616633" lon="11.1800922"><ele>359.0</ele><time>2026-04-11T07:34:27.115Z</time></trkpt><trkpt lat="43.5615646" lon="11.1802156"><ele>359.0</ele><time>2026-04-11T07:34:28.115Z</time></trkpt><trkpt lat="43.5614655" lon="11.1803421"><ele>359.0</ele><time>2026-04-11T07:34:29.114Z</time></trkpt><trkpt lat="43.5613612" lon="11.1804728"><ele>359.0</ele><time>2026-04-11T07:34:30.113Z</time></trkpt><trkpt lat="43.5612494" lon="11.1806026"><ele>359.0</ele><time>2026-04-11T07:34:31.113Z</time></trkpt><trkpt lat="43.5611385" lon="11.1807388"><ele>359.0</ele><time>2026-04-11T07:34:32.113Z</time></trkpt><trkpt lat="43.561035" lon="11.1808658"><ele>358.25</ele><time>2026-04-11T07:34:33.113Z</time></trkpt><trkpt lat="43.5609378" lon="11.1809947"><ele>357.5</ele><time>2026-04-11T07:34:34.114Z</time></trkpt><trkpt lat="43.5608363" lon="11.1811232"><ele>356.75</ele><time>2026-04-11T07:34:35.114Z</time></trkpt><trkpt lat="43.5607332" lon="11.1812578"><ele>356.0</ele><time>2026-04-11T07:34:36.115Z</time></trkpt><trkpt lat="43.5606291" lon="11.1813937"><ele>356.25</ele><time>2026-04-11T07:34:37.114Z</time></trkpt><trkpt lat="43.5605402" lon="11.1815322"><ele>356.5</ele><time>2026-04-11T07:34:38.114Z</time></trkpt><trkpt lat="43.5604576" lon="11.1816813"><ele>356.75</ele><time>2026-04-11T07:34:39.113Z</time></trkpt><trkpt lat="43.5603932" lon="11.1818348"><ele>357.0</ele><time>2026-04-11T07:34:40.113Z</time></trkpt><trkpt lat="43.5603429" lon="11.181989"><ele>357.0</ele><time>2026-04-11T07:34:41.114Z</time></trkpt><trkpt lat="43.5602961" lon="11.1821501"><ele>357.0</ele><time>2026-04-11T07:34:42.115Z</time></trkpt><trkpt lat="43.5602617" lon="11.1823013"><ele>357.0</ele><time>2026-04-11T07:34:43.113Z</time></trkpt><trkpt lat="43.5602406" lon="11.1824469"><ele>357.0</ele><time>2026-04-11T07:34:44.114Z</time></trkpt><trkpt lat="43.5602093" lon="11.1825998"><ele>356.25</ele><time>2026-04-11T07:34:45.113Z</time></trkpt><trkpt lat="43.5601932" lon="11.1827389"><ele>355.5</ele><time>2026-04-11T07:34:46.114Z</time></trkpt><trkpt lat="43.5601961" lon="11.1828848"><ele>354.75</ele><time>2026-04-11T07:34:47.114Z</time></trkpt><trkpt lat="43.5601927" lon="11.1830522"><ele>354.0</ele><time>2026-04-11T07:34:48.113Z</time></trkpt><trkpt lat="43.5601983" lon="11.1832321"><ele>353.5</ele><time>2026-04-11T07:34:49.115Z</time></trkpt><trkpt lat="43.5602067" lon="11.1834272"><ele>353.0</ele><time>2026-04-11T07:34:50.115Z</time></trkpt><trkpt lat="43.5602355" lon="11.1836339"><ele>352.5</ele><time>2026-04-11T07:34:51.114Z</time></trkpt><trkpt lat="43.5602828" lon="11.1838343"><ele>352.0</ele><time>2026-04-11T07:34:52.113Z</time></trkpt><trkpt lat="43.5603434" lon="11.1840292"><ele>351.66666666666663</ele><time>2026-04-11T07:34:53.113Z</time></trkpt><trkpt lat="43.5604088" lon="11.1842196"><ele>351.3333333333333</ele><time>2026-04-11T07:34:54.113Z</time></trkpt><trkpt lat="43.5604843" lon="11.1844125"><ele>351.0</ele><time>2026-04-11T07:34:55.112Z</time></trkpt><trkpt lat="43.5605573" lon="11.1846092"><ele>351.0</ele><time>2026-04-11T07:34:56.114Z</time></trkpt><trkpt lat="43.5606432" lon="11.1848115"><ele>351.0</ele><time>2026-04-11T07:34:57.114Z</time></trkpt><trkpt lat="43.5607269" lon="11.1850178"><ele>351.0</ele><time>2026-04-11T07:34:58.112Z</time></trkpt><trkpt lat="43.560801" lon="11.1852171"><ele>351.0</ele><time>2026-04-11T07:34:59.113Z</time></trkpt><trkpt lat="43.5608703" lon="11.1854114"><ele>351.0</ele><time>2026-04-11T07:35:00.114Z</time></trkpt><trkpt lat="43.5609311" lon="11.1855892"><ele>351.0</ele><time>2026-04-11T07:35:01.115Z</time></trkpt><trkpt lat="43.5609952" lon="11.1857679"><ele>351.0</ele><time>2026-04-11T07:35:02.115Z</time></trkpt><trkpt lat="43.5610569" lon="11.1859325"><ele>350.5</ele><time>2026-04-11T07:35:03.114Z</time></trkpt><trkpt lat="43.5611135" lon="11.1860987"><ele>350.0</ele><time>2026-04-11T07:35:04.113Z</time></trkpt><trkpt lat="43.5611687" lon="11.186256"><ele>349.5</ele><time>2026-04-11T07:35:05.113Z</time></trkpt><trkpt lat="43.5612235" lon="11.1864096"><ele>349.0</ele><time>2026-04-11T07:35:06.113Z</time></trkpt><trkpt lat="43.5612764" lon="11.1865606"><ele>348.0</ele><time>2026-04-11T07:35:07.114Z</time></trkpt><trkpt lat="43.561329" lon="11.186709"><ele>347.0</ele><time>2026-04-11T07:35:08.113Z</time></trkpt><trkpt lat="43.5613814" lon="11.1868646"><ele>346.0</ele><time>2026-04-11T07:35:09.113Z</time></trkpt><trkpt lat="43.5614433" lon="11.1870267"><ele>345.0</ele><time>2026-04-11T07:35:10.114Z</time></trkpt><trkpt lat="43.5615101" lon="11.1871971"><ele>343.6666666666667</ele><time>2026-04-11T07:35:11.114Z</time></trkpt><trkpt lat="43.5615773" lon="11.1873795"><ele>342.33333333333337</ele><time>2026-04-11T07:35:12.113Z</time></trkpt><trkpt lat="43.561644" lon="11.1875733"><ele>341.0</ele><time>2026-04-11T07:35:13.112Z</time></trkpt><trkpt lat="43.5617163" lon="11.1877714"><ele>341.0</ele><time>2026-04-11T07:35:14.114Z</time></trkpt><trkpt lat="43.5617814" lon="11.1879664"><ele>341.0</ele><time>2026-04-11T07:35:15.113Z</time></trkpt><trkpt lat="43.5618532" lon="11.1881551"><ele>341.0</ele><time>2026-04-11T07:35:16.112Z</time></trkpt><trkpt lat="43.5619162" lon="11.1883415"><ele>339.6666666666667</ele><time>2026-04-11T07:35:17.113Z</time></trkpt><trkpt lat="43.5619831" lon="11.1885333"><ele>338.3333333333333</ele><time>2026-04-11T07:35:18.112Z</time></trkpt><trkpt lat="43.5620529" lon="11.1887236"><ele>337.0</ele><time>2026-04-11T07:35:19.114Z</time></trkpt><trkpt lat="43.5621241" lon="11.1889267"><ele>333.66666666666663</ele><time>2026-04-11T07:35:20.113Z</time></trkpt><trkpt lat="43.5621962" lon="11.1891391"><ele>330.3333333333333</ele><time>2026-04-11T07:35:21.114Z</time></trkpt><trkpt lat="43.5622676" lon="11.1893364"><ele>327.0</ele><time>2026-04-11T07:35:22.115Z</time></trkpt><trkpt lat="43.5623346" lon="11.189527"><ele>327.0</ele><time>2026-04-11T07:35:23.114Z</time></trkpt><trkpt lat="43.5623943" lon="11.1897131"><ele>327.0</ele><time>2026-04-11T07:35:24.114Z</time></trkpt><trkpt lat="43.5624556" lon="11.1898859"><ele>327.0</ele><time>2026-04-11T07:35:25.113Z</time></trkpt><trkpt lat="43.5625151" lon="11.1900458"><ele>327.0</ele><time>2026-04-11T07:35:26.114Z</time></trkpt><trkpt lat="43.5625686" lon="11.1901993"><ele>326.75</ele><time>2026-04-11T07:35:27.114Z</time></trkpt><trkpt lat="43.5626177" lon="11.1903538"><ele>326.5</ele><time>2026-04-11T07:35:28.114Z</time></trkpt><trkpt lat="43.5626712" lon="11.1905099"><ele>326.25</ele><time>2026-04-11T07:35:29.114Z</time></trkpt><trkpt lat="43.562728" lon="11.19067"><ele>326.0</ele><time>2026-04-11T07:35:30.113Z</time></trkpt><trkpt lat="43.5627834" lon="11.1908267"><ele>326.75</ele><time>2026-04-11T07:35:31.113Z</time></trkpt><trkpt lat="43.5628383" lon="11.1909839"><ele>327.5</ele><time>2026-04-11T07:35:32.114Z</time></trkpt><trkpt lat="43.5628954" lon="11.1911388"><ele>328.25</ele><time>2026-04-11T07:35:33.115Z</time></trkpt><trkpt lat="43.5629526" lon="11.1912904"><ele>329.0</ele><time>2026-04-11T07:35:34.113Z</time></trkpt><trkpt lat="43.5629977" lon="11.1914503"><ele>331.25</ele><time>2026-04-11T07:35:35.114Z</time></trkpt><trkpt lat="43.563049" lon="11.1915991"><ele>333.5</ele><time>2026-04-11T07:35:36.113Z</time></trkpt><trkpt lat="43.5631025" lon="11.1917565"><ele>335.75</ele><time>2026-04-11T07:35:37.113Z</time></trkpt><trkpt lat="43.5631538" lon="11.1918913"><ele>338.0</ele><time>2026-04-11T07:35:38.112Z</time></trkpt><trkpt lat="43.5632008" lon="11.1920225"><ele>338.0</ele><time>2026-04-11T07:35:39.113Z</time></trkpt><trkpt lat="43.5632363" lon="11.1921422"><ele>338.0</ele><time>2026-04-11T07:35:40.112Z</time></trkpt><trkpt lat="43.563276" lon="11.1922618"><ele>338.0</ele><time>2026-04-11T07:35:41.113Z</time></trkpt><trkpt lat="43.5633211" lon="11.1923845"><ele>338.0</ele><time>2026-04-11T07:35:42.114Z</time></trkpt><trkpt lat="43.5633573" lon="11.1925056"><ele>338.0</ele><time>2026-04-11T07:35:43.114Z</time></trkpt><trkpt lat="43.5633926" lon="11.1926236"><ele>338.59999999999997</ele><time>2026-04-11T07:35:44.114Z</time></trkpt><trkpt lat="43.5634224" lon="11.1927322"><ele>339.2</ele><time>2026-04-11T07:35:45.114Z</time></trkpt><trkpt lat="43.5634693" lon="11.1928671"><ele>339.8</ele><time>2026-04-11T07:35:47.112Z</time></trkpt><trkpt lat="43.5634948" lon="11.1929553"><ele>340.4</ele><time>2026-04-11T07:35:50.114Z</time></trkpt><trkpt lat="43.5635269" lon="11.192871"><ele>341.0</ele><time>2026-04-11T07:35:59.114Z</time></trkpt><trkpt lat="43.563473" lon="11.1927105"><ele>341.0</ele><time>2026-04-11T07:36:01.113Z</time></trkpt><trkpt lat="43.5634275" lon="11.192621"><ele>341.0</ele><time>2026-04-11T07:36:02.114Z</time></trkpt><trkpt lat="43.563392" lon="11.1925167"><ele>341.0</ele><time>2026-04-11T07:36:03.113Z</time></trkpt><trkpt lat="43.5633432" lon="11.1924298"><ele>341.0</ele><time>2026-04-11T07:36:04.113Z</time></trkpt><trkpt lat="43.5632686" lon="11.1923814"><ele>341.0</ele><time>2026-04-11T07:36:05.114Z</time></trkpt><trkpt lat="43.5631956" lon="11.1923613"><ele>341.0</ele><time>2026-04-11T07:36:06.114Z</time></trkpt><trkpt lat="43.5630952" lon="11.1923712"><ele>341.0</ele><time>2026-04-11T07:36:07.115Z</time></trkpt><trkpt lat="43.5629938" lon="11.1923845"><ele>341.0</ele><time>2026-04-11T07:36:08.113Z</time></trkpt><trkpt lat="43.5628831" lon="11.1923889"><ele>341.0</ele><time>2026-04-11T07:36:09.113Z</time></trkpt><trkpt lat="43.5627804" lon="11.1923984"><ele>341.0</ele><time>2026-04-11T07:36:10.115Z</time></trkpt><trkpt lat="43.5626625" lon="11.1923938"><ele>341.0</ele><time>2026-04-11T07:36:11.113Z</time></trkpt><trkpt lat="43.5625577" lon="11.1923914"><ele>342.0</ele><time>2026-04-11T07:36:12.114Z</time></trkpt><trkpt lat="43.5624443" lon="11.1923823"><ele>343.0</ele><time>2026-04-11T07:36:13.113Z</time></trkpt><trkpt lat="43.5623231" lon="11.1923822"><ele>344.0</ele><time>2026-04-11T07:36:14.112Z</time></trkpt><trkpt lat="43.5622084" lon="11.1923779"><ele>345.0</ele><time>2026-04-11T07:36:15.114Z</time></trkpt><trkpt lat="43.5621015" lon="11.1923883"><ele>345.4</ele><time>2026-04-11T07:36:16.113Z</time></trkpt><trkpt lat="43.5619983" lon="11.192402"><ele>345.8</ele><time>2026-04-11T07:36:17.114Z</time></trkpt><trkpt lat="43.5618903" lon="11.1924329"><ele>346.20000000000005</ele><time>2026-04-11T07:36:18.114Z</time></trkpt><trkpt lat="43.5617857" lon="11.1924741"><ele>346.6</ele><time>2026-04-11T07:36:19.115Z</time></trkpt><trkpt lat="43.5616955" lon="11.1925328"><ele>347.0</ele><time>2026-04-11T07:36:20.113Z</time></trkpt><trkpt lat="43.5616119" lon="11.1925828"><ele>347.0</ele><time>2026-04-11T07:36:21.115Z</time></trkpt><trkpt lat="43.5615316" lon="11.1926449"><ele>347.0</ele><time>2026-04-11T07:36:22.114Z</time></trkpt><trkpt lat="43.5614557" lon="11.1927103"><ele>347.0</ele><time>2026-04-11T07:36:23.114Z</time></trkpt><trkpt lat="43.5613731" lon="11.1927943"><ele>347.0</ele><time>2026-04-11T07:36:24.113Z</time></trkpt><trkpt lat="43.561286" lon="11.1928756"><ele>347.0</ele><time>2026-04-11T07:36:25.114Z</time></trkpt><trkpt lat="43.5611957" lon="11.1929486"><ele>347.20000000000005</ele><time>2026-04-11T07:36:26.113Z</time></trkpt><trkpt lat="43.5611016" lon="11.193021"><ele>347.4</ele><time>2026-04-11T07:36:27.114Z</time></trkpt><trkpt lat="43.5610245" lon="11.1930857"><ele>347.6</ele><time>2026-04-11T07:36:28.114Z</time></trkpt><trkpt lat="43.5609509" lon="11.193152"><ele>347.79999999999995</ele><time>2026-04-11T07:36:29.113Z</time></trkpt><trkpt lat="43.5608775" lon="11.1932198"><ele>348.0</ele><time>2026-04-11T07:36:30.115Z</time></trkpt><trkpt lat="43.5607883" lon="11.193283"><ele>348.1666666666667</ele><time>2026-04-11T07:36:31.114Z</time></trkpt><trkpt lat="43.560717" lon="11.1933344"><ele>348.3333333333333</ele><time>2026-04-11T07:36:32.114Z</time></trkpt><trkpt lat="43.5606493" lon="11.1933839"><ele>348.5</ele><time>2026-04-11T07:36:33.114Z</time></trkpt><trkpt lat="43.5605711" lon="11.1934249"><ele>348.66666666666663</ele><time>2026-04-11T07:36:34.114Z</time></trkpt><trkpt lat="43.5604985" lon="11.1934563"><ele>348.8333333333333</ele><time>2026-04-11T07:36:35.114Z</time></trkpt><trkpt lat="43.5604347" lon="11.1934989"><ele>349.0</ele><time>2026-04-11T07:36:36.113Z</time></trkpt><trkpt lat="43.5603662" lon="11.1935211"><ele>349.5</ele><time>2026-04-11T07:36:37.113Z</time></trkpt><trkpt lat="43.5602899" lon="11.1935343"><ele>350.0</ele><time>2026-04-11T07:36:38.114Z</time></trkpt><trkpt lat="43.5602117" lon="11.1935344"><ele>350.5</ele><time>2026-04-11T07:36:39.114Z</time></trkpt><trkpt lat="43.5601152" lon="11.1935495"><ele>351.0</ele><time>2026-04-11T07:36:40.113Z</time></trkpt><trkpt lat="43.5600378" lon="11.1935422"><ele>351.5</ele><time>2026-04-11T07:36:41.114Z</time></trkpt><trkpt lat="43.5599506" lon="11.1935458"><ele>352.0</ele><time>2026-04-11T07:36:42.114Z</time></trkpt><trkpt lat="43.5598574" lon="11.1935342"><ele>352.0</ele><time>2026-04-11T07:36:43.114Z</time></trkpt><trkpt lat="43.5597527" lon="11.1935195"><ele>352.0</ele><time>2026-04-11T07:36:44.112Z</time></trkpt><trkpt lat="43.559666" lon="11.1935022"><ele>352.0</ele><time>2026-04-11T07:36:45.114Z</time></trkpt><trkpt lat="43.5595883" lon="11.1934915"><ele>352.0</ele><time>2026-04-11T07:36:46.113Z</time></trkpt><trkpt lat="43.5595278" lon="11.1934647"><ele>352.0</ele><time>2026-04-11T07:36:47.114Z</time></trkpt><trkpt lat="43.5594238" lon="11.1934458"><ele>352.0</ele><time>2026-04-11T07:36:49.114Z</time></trkpt><trkpt lat="43.55938" lon="11.1935102"><ele>352.0</ele><time>2026-04-11T07:36:53.115Z</time></trkpt><trkpt lat="43.5594437" lon="11.1935232"><ele>352.0</ele><time>2026-04-11T07:36:56.114Z</time></trkpt><trkpt lat="43.5595288" lon="11.1934817"><ele>352.0</ele><time>2026-04-11T07:36:58.114Z</time></trkpt><trkpt lat="43.5596499" lon="11.1934828"><ele>352.0</ele><time>2026-04-11T07:37:00.113Z</time></trkpt><trkpt lat="43.5597194" lon="11.1934956"><ele>352.0</ele><time>2026-04-11T07:37:01.114Z</time></trkpt><trkpt lat="43.559791" lon="11.1935064"><ele>352.0</ele><time>2026-04-11T07:37:02.113Z</time></trkpt><trkpt lat="43.5598613" lon="11.193517"><ele>352.0</ele><time>2026-04-11T07:37:03.114Z</time></trkpt><trkpt lat="43.5599308" lon="11.1935245"><ele>352.0</ele><time>2026-04-11T07:37:04.113Z</time></trkpt><trkpt lat="43.5600418" lon="11.1935298"><ele>352.0</ele><time>2026-04-11T07:37:06.113Z</time></trkpt><trkpt lat="43.560136" lon="11.1935535"><ele>352.0</ele><time>2026-04-11T07:37:08.114Z</time></trkpt><trkpt lat="43.5601906" lon="11.1936274"><ele>352.0</ele><time>2026-04-11T07:37:11.113Z</time></trkpt><trkpt lat="43.5602497" lon="11.1936635"><ele>352.0</ele><time>2026-04-11T07:37:13.115Z</time></trkpt><trkpt lat="43.5602992" lon="11.1937454"><ele>352.0</ele><time>2026-04-11T07:37:15.113Z</time></trkpt><trkpt lat="43.5603331" lon="11.1938811"><ele>352.0</ele><time>2026-04-11T07:37:17.114Z</time></trkpt><trkpt lat="43.5603856" lon="11.1940378"><ele>352.0</ele><time>2026-04-11T07:37:19.112Z</time></trkpt><trkpt lat="43.5604085" lon="11.1941847"><ele>352.0</ele><time>2026-04-11T07:37:21.114Z</time></trkpt><trkpt lat="43.56042" lon="11.1943031"><ele>352.0</ele><time>2026-04-11T07:37:23.112Z</time></trkpt><trkpt lat="43.5604363" lon="11.1944195"><ele>351.20000000000005</ele><time>2026-04-11T07:37:25.112Z</time></trkpt><trkpt lat="43.5604314" lon="11.1945408"><ele>350.4</ele><time>2026-04-11T07:37:27.114Z</time></trkpt><trkpt lat="43.5603995" lon="11.1946551"><ele>349.6</ele><time>2026-04-11T07:37:29.114Z</time></trkpt><trkpt lat="43.5604186" lon="11.1948133"><ele>348.79999999999995</ele><time>2026-04-11T07:37:31.114Z</time></trkpt><trkpt lat="43.5604285" lon="11.1949509"><ele>348.0</ele><time>2026-04-11T07:37:33.114Z</time></trkpt><trkpt lat="43.5604402" lon="11.1950707"><ele>347.1666666666667</ele><time>2026-04-11T07:37:35.114Z</time></trkpt><trkpt lat="43.5604918" lon="11.195154"><ele>346.3333333333333</ele><time>2026-04-11T07:37:37.114Z</time></trkpt><trkpt lat="43.5605575" lon="11.1952113"><ele>345.5</ele><time>2026-04-11T07:37:39.112Z</time></trkpt><trkpt lat="43.5605669" lon="11.1953194"><ele>344.66666666666663</ele><time>2026-04-11T07:37:41.114Z</time></trkpt><trkpt lat="43.5605814" lon="11.1954266"><ele>343.8333333333333</ele><time>2026-04-11T07:37:43.112Z</time></trkpt><trkpt lat="43.5606117" lon="11.1955496"><ele>343.0</ele><time>2026-04-11T07:37:45.114Z</time></trkpt><trkpt lat="43.5606954" lon="11.1956445"><ele>342.4</ele><time>2026-04-11T07:37:47.113Z</time></trkpt><trkpt lat="43.5607869" lon="11.1957431"><ele>341.79999999999995</ele><time>2026-04-11T07:37:49.113Z</time></trkpt><trkpt lat="43.5608784" lon="11.19584"><ele>341.2</ele><time>2026-04-11T07:37:51.115Z</time></trkpt><trkpt lat="43.560953" lon="11.1959121"><ele>340.6</ele><time>2026-04-11T07:37:53.114Z</time></trkpt><trkpt lat="43.5610562" lon="11.1959193"><ele>340.0</ele><time>2026-04-11T07:37:55.114Z</time></trkpt><trkpt lat="43.5611626" lon="11.195954"><ele>339.2</ele><time>2026-04-11T07:37:57.114Z</time></trkpt><trkpt lat="43.5612686" lon="11.1960285"><ele>338.4</ele><time>2026-04-11T07:37:59.115Z</time></trkpt><trkpt lat="43.561331" lon="11.1960795"><ele>337.6</ele><time>2026-04-11T07:38:00.114Z</time></trkpt><trkpt lat="43.5614276" lon="11.1961558"><ele>336.8</ele><time>2026-04-11T07:38:02.115Z</time></trkpt><trkpt lat="43.5615046" lon="11.1961872"><ele>336.0</ele><time>2026-04-11T07:38:04.114Z</time></trkpt><trkpt lat="43.561568" lon="11.1962165"><ele>336.0</ele><time>2026-04-11T07:38:05.114Z</time></trkpt><trkpt lat="43.5616329" lon="11.1962488"><ele>336.0</ele><time>2026-04-11T07:38:06.114Z</time></trkpt><trkpt lat="43.5617285" lon="11.1963615"><ele>336.0</ele><time>2026-04-11T07:38:08.113Z</time></trkpt><trkpt lat="43.5618008" lon="11.1964862"><ele>336.0</ele><time>2026-04-11T07:38:10.113Z</time></trkpt><trkpt lat="43.5618993" lon="11.1966103"><ele>336.0</ele><time>2026-04-11T07:38:12.113Z</time></trkpt><trkpt lat="43.5619652" lon="11.1966636"><ele>336.0</ele><time>2026-04-11T07:38:13.113Z</time></trkpt><trkpt lat="43.5620163" lon="11.196729"><ele>336.0</ele><time>2026-04-11T07:38:14.113Z</time></trkpt><trkpt lat="43.562082" lon="11.196825"><ele>336.0</ele><time>2026-04-11T07:38:15.113Z</time></trkpt><trkpt lat="43.5621256" lon="11.1969248"><ele>336.0</ele><time>2026-04-11T07:38:16.114Z</time></trkpt><trkpt lat="43.5621775" lon="11.1970201"><ele>336.0</ele><time>2026-04-11T07:38:17.114Z</time></trkpt><trkpt lat="43.5622409" lon="11.1971264"><ele>336.0</ele><time>2026-04-11T07:38:18.113Z</time></trkpt><trkpt lat="43.5622963" lon="11.1972262"><ele>334.5</ele><time>2026-04-11T07:38:19.113Z</time></trkpt><trkpt lat="43.5623444" lon="11.1973238"><ele>333.0</ele><time>2026-04-11T07:38:20.113Z</time></trkpt><trkpt lat="43.5624046" lon="11.1974456"><ele>331.5</ele><time>2026-04-11T07:38:22.113Z</time></trkpt><trkpt lat="43.5624477" lon="11.1975393"><ele>330.0</ele><time>2026-04-11T07:38:25.114Z</time></trkpt><trkpt lat="43.5624907" lon="11.1976431"><ele>328.5</ele><time>2026-04-11T07:38:28.114Z</time></trkpt><trkpt lat="43.562527" lon="11.1977158"><ele>327.0</ele><time>2026-04-11T07:38:30.114Z</time></trkpt><trkpt lat="43.5625804" lon="11.1977951"><ele>327.0</ele><time>2026-04-11T07:38:31.113Z</time></trkpt><trkpt lat="43.5626158" lon="11.1979232"><ele>327.0</ele><time>2026-04-11T07:38:33.113Z</time></trkpt><trkpt lat="43.5626454" lon="11.1980054"><ele>327.0</ele><time>2026-04-11T07:38:34.114Z</time></trkpt><trkpt lat="43.5626841" lon="11.1981547"><ele>327.0</ele><time>2026-04-11T07:38:36.114Z</time></trkpt><trkpt lat="43.5627102" lon="11.1982926"><ele>327.0</ele><time>2026-04-11T07:38:38.114Z</time></trkpt><trkpt lat="43.5626894" lon="11.1984372"><ele>327.0</ele><time>2026-04-11T07:38:40.114Z</time></trkpt><trkpt lat="43.5626275" lon="11.1985517"><ele>327.0</ele><time>2026-04-11T07:38:42.113Z</time></trkpt><trkpt lat="43.562562" lon="11.1986563"><ele>327.0</ele><time>2026-04-11T07:38:44.114Z</time></trkpt><trkpt lat="43.5624996" lon="11.1987328"><ele>327.0</ele><time>2026-04-11T07:38:46.114Z</time></trkpt><trkpt lat="43.5624409" lon="11.1988068"><ele>327.0</ele><time>2026-04-11T07:38:48.114Z</time></trkpt><trkpt lat="43.5623743" lon="11.1988203"><ele>327.0</ele><time>2026-04-11T07:38:51.115Z</time></trkpt><trkpt lat="43.5624399" lon="11.1987752"><ele>327.0</ele><time>2026-04-11T07:39:12.113Z</time></trkpt><trkpt lat="43.5625" lon="11.1986824"><ele>327.0</ele><time>2026-04-11T07:39:14.114Z</time></trkpt><trkpt lat="43.5625869" lon="11.1985899"><ele>327.0</ele><time>2026-04-11T07:39:16.113Z</time></trkpt><trkpt lat="43.5626623" lon="11.198478"><ele>327.0</ele><time>2026-04-11T07:39:18.114Z</time></trkpt><trkpt lat="43.5626676" lon="11.1983326"><ele>327.0</ele><time>2026-04-11T07:39:20.114Z</time></trkpt><trkpt lat="43.562652" lon="11.1982395"><ele>326.6666666666667</ele><time>2026-04-11T07:39:21.114Z</time></trkpt><trkpt lat="43.5626354" lon="11.1981534"><ele>326.3333333333333</ele><time>2026-04-11T07:39:22.114Z</time></trkpt><trkpt lat="43.5626116" lon="11.198058"><ele>326.0</ele><time>2026-04-11T07:39:23.112Z</time></trkpt><trkpt lat="43.5625807" lon="11.1979546"><ele>325.66666666666663</ele><time>2026-04-11T07:39:24.113Z</time></trkpt><trkpt lat="43.5625489" lon="11.1978659"><ele>325.3333333333333</ele><time>2026-04-11T07:39:25.114Z</time></trkpt><trkpt lat="43.5625186" lon="11.1977791"><ele>325.0</ele><time>2026-04-11T07:39:26.114Z</time></trkpt><trkpt lat="43.5624778" lon="11.1976459"><ele>325.0</ele><time>2026-04-11T07:39:28.114Z</time></trkpt><trkpt lat="43.5624328" lon="11.1975293"><ele>325.0</ele><time>2026-04-11T07:39:30.115Z</time></trkpt><trkpt lat="43.5623902" lon="11.1974486"><ele>325.0</ele><time>2026-04-11T07:39:32.114Z</time></trkpt><trkpt lat="43.5623715" lon="11.1973525"><ele>325.0</ele><time>2026-04-11T07:39:35.115Z</time></trkpt><trkpt lat="43.5623225" lon="11.1972575"><ele>325.0</ele><time>2026-04-11T07:39:37.114Z</time></trkpt><trkpt lat="43.562353" lon="11.19713"><ele>325.0</ele><time>2026-04-11T07:39:40.115Z</time></trkpt><trkpt lat="43.5624211" lon="11.1970515"><ele>325.3333333333333</ele><time>2026-04-11T07:39:42.114Z</time></trkpt><trkpt lat="43.5624878" lon="11.1969241"><ele>325.66666666666663</ele><time>2026-04-11T07:39:44.114Z</time></trkpt><trkpt lat="43.5625421" lon="11.1968769"><ele>326.0</ele><time>2026-04-11T07:39:45.114Z</time></trkpt><trkpt lat="43.5626101" lon="11.1968025"><ele>326.3333333333333</ele><time>2026-04-11T07:39:47.112Z</time></trkpt><trkpt lat="43.5626707" lon="11.1967098"><ele>326.6666666666667</ele><time>2026-04-11T07:39:49.114Z</time></trkpt><trkpt lat="43.5627373" lon="11.1966728"><ele>327.0</ele><time>2026-04-11T07:39:51.114Z</time></trkpt><trkpt lat="43.5628109" lon="11.1966843"><ele>326.6666666666667</ele><time>2026-04-11T07:39:53.115Z</time></trkpt><trkpt lat="43.5628775" lon="11.1967822"><ele>326.3333333333333</ele><time>2026-04-11T07:39:55.112Z</time></trkpt><trkpt lat="43.5629266" lon="11.196863"><ele>326.0</ele><time>2026-04-11T07:39:57.114Z</time></trkpt><trkpt lat="43.5630003" lon="11.1969086"><ele>325.66666666666663</ele><time>2026-04-11T07:39:58.114Z</time></trkpt><trkpt lat="43.5630551" lon="11.1969775"><ele>325.3333333333333</ele><time>2026-04-11T07:39:59.113Z</time></trkpt><trkpt lat="43.563109" lon="11.1970542"><ele>325.0</ele><time>2026-04-11T07:40:00.114Z</time></trkpt><trkpt lat="43.5631661" lon="11.1971434"><ele>325.0</ele><time>2026-04-11T07:40:01.115Z</time></trkpt><trkpt lat="43.5632322" lon="11.1972175"><ele>325.0</ele><time>2026-04-11T07:40:02.114Z</time></trkpt><trkpt lat="43.5632765" lon="11.1972876"><ele>325.0</ele><time>2026-04-11T07:40:03.114Z</time></trkpt><trkpt lat="43.5633138" lon="11.1973655"><ele>325.0</ele><time>2026-04-11T07:40:04.113Z</time></trkpt><trkpt lat="43.5634042" lon="11.1975053"><ele>325.0</ele><time>2026-04-11T07:40:06.114Z</time></trkpt><trkpt lat="43.5634558" lon="11.1975787"><ele>325.0</ele><time>2026-04-11T07:40:07.114Z</time></trkpt><trkpt lat="43.5635115" lon="11.1976483"><ele>324.2</ele><time>2026-04-11T07:40:08.114Z</time></trkpt><trkpt lat="43.5635651" lon="11.1977139"><ele>323.4</ele><time>2026-04-11T07:40:09.114Z</time></trkpt><trkpt lat="43.5636252" lon="11.1977641"><ele>322.6</ele><time>2026-04-11T07:40:10.114Z</time></trkpt><trkpt lat="43.563741" lon="11.1977752"><ele>321.8</ele><time>2026-04-11T07:40:12.113Z</time></trkpt><trkpt lat="43.5638673" lon="11.1978132"><ele>321.0</ele><time>2026-04-11T07:40:14.114Z</time></trkpt><trkpt lat="43.563946" lon="11.1978565"><ele>321.5</ele><time>2026-04-11T07:40:15.114Z</time></trkpt><trkpt lat="43.5640169" lon="11.1979144"><ele>322.0</ele><time>2026-04-11T07:40:16.114Z</time></trkpt><trkpt lat="43.5640803" lon="11.1979901"><ele>322.5</ele><time>2026-04-11T07:40:17.114Z</time></trkpt><trkpt lat="43.5641431" lon="11.1980663"><ele>323.0</ele><time>2026-04-11T07:40:18.114Z</time></trkpt><trkpt lat="43.5641986" lon="11.1981412"><ele>323.5</ele><time>2026-04-11T07:40:19.114Z</time></trkpt><trkpt lat="43.5642489" lon="11.1982179"><ele>324.0</ele><time>2026-04-11T07:40:20.115Z</time></trkpt><trkpt lat="43.5642698" lon="11.1983018"><ele>324.0</ele><time>2026-04-11T07:40:21.115Z</time></trkpt><trkpt lat="43.5643538" lon="11.1984179"><ele>324.0</ele><time>2026-04-11T07:40:23.113Z</time></trkpt><trkpt lat="43.5644315" lon="11.198423"><ele>324.0</ele><time>2026-04-11T07:40:24.114Z</time></trkpt><trkpt lat="43.5644951" lon="11.1984329"><ele>324.0</ele><time>2026-04-11T07:40:25.114Z</time></trkpt><trkpt lat="43.5645715" lon="11.1984433"><ele>324.0</ele><time>2026-04-11T07:40:28.113Z</time></trkpt><trkpt lat="43.5646226" lon="11.1983652"><ele>324.0</ele><time>2026-04-11T07:40:36.115Z</time></trkpt><trkpt lat="43.5646189" lon="11.1981965"><ele>324.4</ele><time>2026-04-11T07:40:38.114Z</time></trkpt><trkpt lat="43.564616" lon="11.198089"><ele>324.79999999999995</ele><time>2026-04-11T07:40:39.115Z</time></trkpt><trkpt lat="43.5646093" lon="11.1979588"><ele>325.20000000000005</ele><time>2026-04-11T07:40:40.113Z</time></trkpt><trkpt lat="43.5645888" lon="11.1978308"><ele>325.6</ele><time>2026-04-11T07:40:41.114Z</time></trkpt><trkpt lat="43.5645717" lon="11.1976893"><ele>326.0</ele><time>2026-04-11T07:40:42.113Z</time></trkpt><trkpt lat="43.5645401" lon="11.1975508"><ele>326.75</ele><time>2026-04-11T07:40:43.114Z</time></trkpt><trkpt lat="43.5645111" lon="11.1974057"><ele>327.5</ele><time>2026-04-11T07:40:44.115Z</time></trkpt><trkpt lat="43.5644761" lon="11.1972578"><ele>328.25</ele><time>2026-04-11T07:40:45.113Z</time></trkpt><trkpt lat="43.5644397" lon="11.1971087"><ele>329.0</ele><time>2026-04-11T07:40:46.114Z</time></trkpt><trkpt lat="43.5644006" lon="11.1969515"><ele>329.25</ele><time>2026-04-11T07:40:47.114Z</time></trkpt><trkpt lat="43.5643686" lon="11.1968082"><ele>329.5</ele><time>2026-04-11T07:40:48.115Z</time></trkpt><trkpt lat="43.5643311" lon="11.1966582"><ele>329.75</ele><time>2026-04-11T07:40:49.114Z</time></trkpt><trkpt lat="43.5642942" lon="11.1965023"><ele>330.0</ele><time>2026-04-11T07:40:50.114Z</time></trkpt><trkpt lat="43.5642673" lon="11.1963535"><ele>330.0</ele><time>2026-04-11T07:40:51.114Z</time></trkpt><trkpt lat="43.5642356" lon="11.1961904"><ele>330.0</ele><time>2026-04-11T07:40:52.114Z</time></trkpt><trkpt lat="43.5642066" lon="11.1960241"><ele>330.0</ele><time>2026-04-11T07:40:53.113Z</time></trkpt><trkpt lat="43.564171" lon="11.1958586"><ele>330.0</ele><time>2026-04-11T07:40:54.112Z</time></trkpt><trkpt lat="43.5641369" lon="11.1956835"><ele>330.75</ele><time>2026-04-11T07:40:55.115Z</time></trkpt><trkpt lat="43.5641005" lon="11.1955135"><ele>331.5</ele><time>2026-04-11T07:40:56.113Z</time></trkpt><trkpt lat="43.5640597" lon="11.1953392"><ele>332.25</ele><time>2026-04-11T07:40:57.115Z</time></trkpt><trkpt lat="43.5640279" lon="11.1951568"><ele>333.0</ele><time>2026-04-11T07:40:58.113Z</time></trkpt><trkpt lat="43.5639975" lon="11.194968"><ele>334.25</ele><time>2026-04-11T07:40:59.113Z</time></trkpt><trkpt lat="43.5639602" lon="11.1947734"><ele>335.5</ele><time>2026-04-11T07:41:00.113Z</time></trkpt><trkpt lat="43.5639271" lon="11.194572"><ele>336.75</ele><time>2026-04-11T07:41:01.114Z</time></trkpt><trkpt lat="43.5638956" lon="11.1943713"><ele>338.0</ele><time>2026-04-11T07:41:02.114Z</time></trkpt><trkpt lat="43.5638634" lon="11.1941825"><ele>338.25</ele><time>2026-04-11T07:41:03.113Z</time></trkpt><trkpt lat="43.563833" lon="11.1939958"><ele>338.5</ele><time>2026-04-11T07:41:04.115Z</time></trkpt><trkpt lat="43.5638023" lon="11.1938219"><ele>338.75</ele><time>2026-04-11T07:41:05.114Z</time></trkpt><trkpt lat="43.5637657" lon="11.1936503"><ele>339.0</ele><time>2026-04-11T07:41:06.115Z</time></trkpt><trkpt lat="43.5637253" lon="11.1934838"><ele>339.4</ele><time>2026-04-11T07:41:07.114Z</time></trkpt><trkpt lat="43.5636838" lon="11.1933324"><ele>339.79999999999995</ele><time>2026-04-11T07:41:08.114Z</time></trkpt><trkpt lat="43.5636415" lon="11.1931868"><ele>340.20000000000005</ele><time>2026-04-11T07:41:09.113Z</time></trkpt><trkpt lat="43.5635995" lon="11.1930584"><ele>340.6</ele><time>2026-04-11T07:41:10.113Z</time></trkpt><trkpt lat="43.5635423" lon="11.192926"><ele>341.0</ele><time>2026-04-11T07:41:11.114Z</time></trkpt><trkpt lat="43.5634978" lon="11.1927989"><ele>341.0</ele><time>2026-04-11T07:41:12.114Z</time></trkpt><trkpt lat="43.5634539" lon="11.1926732"><ele>341.0</ele><time>2026-04-11T07:41:13.113Z</time></trkpt><trkpt lat="43.5634018" lon="11.1925577"><ele>341.0</ele><time>2026-04-11T07:41:14.113Z</time></trkpt><trkpt lat="43.5633529" lon="11.1924591"><ele>341.0</ele><time>2026-04-11T07:41:15.114Z</time></trkpt><trkpt lat="43.563285" lon="11.1923938"><ele>341.0</ele><time>2026-04-11T07:41:16.114Z</time></trkpt><trkpt lat="43.5632044" lon="11.1923617"><ele>341.0</ele><time>2026-04-11T07:41:17.114Z</time></trkpt><trkpt lat="43.5631087" lon="11.1923615"><ele>341.0</ele><time>2026-04-11T07:41:18.114Z</time></trkpt><trkpt lat="43.5630185" lon="11.1923732"><ele>341.0</ele><time>2026-04-11T07:41:19.114Z</time></trkpt><trkpt lat="43.5629196" lon="11.1923806"><ele>341.0</ele><time>2026-04-11T07:41:20.114Z</time></trkpt><trkpt lat="43.5628268" lon="11.1923854"><ele>341.0</ele><time>2026-04-11T07:41:21.113Z</time></trkpt><trkpt lat="43.5627285" lon="11.1923855"><ele>341.8</ele><time>2026-04-11T07:41:22.114Z</time></trkpt><trkpt lat="43.5626269" lon="11.1923849"><ele>342.6</ele><time>2026-04-11T07:41:23.114Z</time></trkpt><trkpt lat="43.5625321" lon="11.1923856"><ele>343.4</ele><time>2026-04-11T07:41:24.114Z</time></trkpt><trkpt lat="43.5624312" lon="11.1923842"><ele>344.2</ele><time>2026-04-11T07:41:25.114Z</time></trkpt><trkpt lat="43.5623278" lon="11.1923927"><ele>345.0</ele><time>2026-04-11T07:41:26.113Z</time></trkpt><trkpt lat="43.5622254" lon="11.1923936"><ele>345.0</ele><time>2026-04-11T07:41:27.115Z</time></trkpt><trkpt lat="43.5621238" lon="11.1923968"><ele>345.0</ele><time>2026-04-11T07:41:28.113Z</time></trkpt><trkpt lat="43.5620135" lon="11.1924057"><ele>345.0</ele><time>2026-04-11T07:41:29.114Z</time></trkpt><trkpt lat="43.5619158" lon="11.192423"><ele>345.0</ele><time>2026-04-11T07:41:30.113Z</time></trkpt><trkpt lat="43.56182" lon="11.1924554"><ele>345.0</ele><time>2026-04-11T07:41:31.115Z</time></trkpt><trkpt lat="43.5617283" lon="11.1925001"><ele>345.4</ele><time>2026-04-11T07:41:32.113Z</time></trkpt><trkpt lat="43.5616474" lon="11.1925581"><ele>345.8</ele><time>2026-04-11T07:41:33.115Z</time></trkpt><trkpt lat="43.5615661" lon="11.1926218"><ele>346.20000000000005</ele><time>2026-04-11T07:41:34.114Z</time></trkpt><trkpt lat="43.5614789" lon="11.192694"><ele>346.6</ele><time>2026-04-11T07:41:35.114Z</time></trkpt><trkpt lat="43.5613893" lon="11.192767"><ele>347.0</ele><time>2026-04-11T07:41:36.113Z</time></trkpt><trkpt lat="43.5613036" lon="11.192837"><ele>347.0</ele><time>2026-04-11T07:41:37.113Z</time></trkpt><trkpt lat="43.5612211" lon="11.1929132"><ele>347.0</ele><time>2026-04-11T07:41:38.115Z</time></trkpt><trkpt lat="43.5611369" lon="11.1929861"><ele>347.0</ele><time>2026-04-11T07:41:39.115Z</time></trkpt><trkpt lat="43.561049" lon="11.1930812"><ele>347.0</ele><time>2026-04-11T07:41:40.114Z</time></trkpt><trkpt lat="43.5609619" lon="11.1931606"><ele>347.0</ele><time>2026-04-11T07:41:41.115Z</time></trkpt><trkpt lat="43.5608723" lon="11.1932339"><ele>347.40000000000003</ele><time>2026-04-11T07:41:42.115Z</time></trkpt><trkpt lat="43.5607827" lon="11.1933016"><ele>347.8</ele><time>2026-04-11T07:41:43.114Z</time></trkpt><trkpt lat="43.5606882" lon="11.1933699"><ele>348.2</ele><time>2026-04-11T07:41:44.114Z</time></trkpt><trkpt lat="43.5605829" lon="11.1934181"><ele>348.6</ele><time>2026-04-11T07:41:45.114Z</time></trkpt><trkpt lat="43.5604812" lon="11.193457"><ele>349.0</ele><time>2026-04-11T07:41:46.115Z</time></trkpt><trkpt lat="43.5603773" lon="11.1934926"><ele>349.6</ele><time>2026-04-11T07:41:47.114Z</time></trkpt><trkpt lat="43.5602755" lon="11.1935098"><ele>350.2</ele><time>2026-04-11T07:41:48.114Z</time></trkpt><trkpt lat="43.5601719" lon="11.1935345"><ele>350.8</ele><time>2026-04-11T07:41:49.113Z</time></trkpt><trkpt lat="43.5600716" lon="11.1935371"><ele>351.40000000000003</ele><time>2026-04-11T07:41:50.114Z</time></trkpt><trkpt lat="43.5599597" lon="11.1935249"><ele>352.0</ele><time>2026-04-11T07:41:51.114Z</time></trkpt><trkpt lat="43.5598538" lon="11.1935098"><ele>352.0</ele><time>2026-04-11T07:41:52.114Z</time></trkpt><trkpt lat="43.5597483" lon="11.1934903"><ele>352.0</ele><time>2026-04-11T07:41:53.113Z</time></trkpt><trkpt lat="43.5596399" lon="11.1934761"><ele>352.0</ele><time>2026-04-11T07:41:54.115Z</time></trkpt><trkpt lat="43.5595242" lon="11.1934737"><ele>352.0</ele><time>2026-04-11T07:41:55.115Z</time></trkpt><trkpt lat="43.5594426" lon="11.1934658"><ele>352.0</ele><time>2026-04-11T07:41:56.113Z</time></trkpt><trkpt lat="43.5593588" lon="11.1934596"><ele>352.0</ele><time>2026-04-11T07:41:57.115Z</time></trkpt><trkpt lat="43.5592741" lon="11.1934484"><ele>352.0</ele><time>2026-04-11T07:41:58.114Z</time></trkpt><trkpt lat="43.5591888" lon="11.1934365"><ele>352.0</ele><time>2026-04-11T07:41:59.114Z</time></trkpt><trkpt lat="43.5591061" lon="11.1934294"><ele>352.0</ele><time>2026-04-11T07:42:00.114Z</time></trkpt><trkpt lat="43.5590258" lon="11.1934176"><ele>352.0</ele><time>2026-04-11T07:42:01.115Z</time></trkpt><trkpt lat="43.5589541" lon="11.1933984"><ele>352.0</ele><time>2026-04-11T07:42:02.114Z</time></trkpt><trkpt lat="43.5588654" lon="11.1933565"><ele>352.0</ele><time>2026-04-11T07:42:04.113Z</time></trkpt><trkpt lat="43.5588122" lon="11.1932938"><ele>352.0</ele><time>2026-04-11T07:42:06.114Z</time></trkpt><trkpt lat="43.5587955" lon="11.1931878"><ele>352.0</ele><time>2026-04-11T07:42:09.112Z</time></trkpt><trkpt lat="43.5587584" lon="11.1930765"><ele>352.0</ele><time>2026-04-11T07:42:12.113Z</time></trkpt><trkpt lat="43.558658" lon="11.1929809"><ele>352.0</ele><time>2026-04-11T07:42:14.114Z</time></trkpt><trkpt lat="43.5585734" lon="11.192895"><ele>351.6</ele><time>2026-04-11T07:42:16.114Z</time></trkpt><trkpt lat="43.5584885" lon="11.1927582"><ele>351.20000000000005</ele><time>2026-04-11T07:42:18.114Z</time></trkpt><trkpt lat="43.5584585" lon="11.1926696"><ele>350.8</ele><time>2026-04-11T07:42:19.114Z</time></trkpt><trkpt lat="43.5583889" lon="11.19252"><ele>350.4</ele><time>2026-04-11T07:42:21.113Z</time></trkpt><trkpt lat="43.5583274" lon="11.1923909"><ele>350.0</ele><time>2026-04-11T07:42:23.115Z</time></trkpt><trkpt lat="43.5582768" lon="11.1922651"><ele>350.0</ele><time>2026-04-11T07:42:25.115Z</time></trkpt><trkpt lat="43.5582286" lon="11.1921463"><ele>350.0</ele><time>2026-04-11T07:42:27.115Z</time></trkpt><trkpt lat="43.5581887" lon="11.1920472"><ele>350.0</ele><time>2026-04-11T07:42:29.115Z</time></trkpt><trkpt lat="43.5581562" lon="11.1919401"><ele>350.0</ele><time>2026-04-11T07:42:31.114Z</time></trkpt><trkpt lat="43.5581561" lon="11.1918012"><ele>350.0</ele><time>2026-04-11T07:42:33.115Z</time></trkpt><trkpt lat="43.5582003" lon="11.1916496"><ele>350.0</ele><time>2026-04-11T07:42:35.114Z</time></trkpt><trkpt lat="43.5582278" lon="11.191569"><ele>350.0</ele><time>2026-04-11T07:42:36.112Z</time></trkpt><trkpt lat="43.5582651" lon="11.1914853"><ele>350.0</ele><time>2026-04-11T07:42:37.115Z</time></trkpt><trkpt lat="43.5583021" lon="11.1913928"><ele>350.0</ele><time>2026-04-11T07:42:38.114Z</time></trkpt><trkpt lat="43.5583634" lon="11.1912468"><ele>350.0</ele><time>2026-04-11T07:42:40.113Z</time></trkpt><trkpt lat="43.5584092" lon="11.1910967"><ele>349.2</ele><time>2026-04-11T07:42:42.114Z</time></trkpt><trkpt lat="43.558451" lon="11.1909641"><ele>348.4</ele><time>2026-04-11T07:42:44.114Z</time></trkpt><trkpt lat="43.5584825" lon="11.1908349"><ele>347.6</ele><time>2026-04-11T07:42:46.114Z</time></trkpt><trkpt lat="43.5585198" lon="11.1907179"><ele>346.8</ele><time>2026-04-11T07:42:48.113Z</time></trkpt><trkpt lat="43.5585808" lon="11.1906139"><ele>346.0</ele><time>2026-04-11T07:42:50.114Z</time></trkpt><trkpt lat="43.5586537" lon="11.1905599"><ele>345.16666666666663</ele><time>2026-04-11T07:42:52.113Z</time></trkpt><trkpt lat="43.5587199" lon="11.190499"><ele>344.3333333333333</ele><time>2026-04-11T07:42:55.114Z</time></trkpt><trkpt lat="43.5587195" lon="11.1903842"><ele>343.5</ele><time>2026-04-11T07:42:58.114Z</time></trkpt><trkpt lat="43.5586913" lon="11.1902939"><ele>342.6666666666667</ele><time>2026-04-11T07:42:59.114Z</time></trkpt><trkpt lat="43.5586796" lon="11.1901439"><ele>341.83333333333337</ele><time>2026-04-11T07:43:01.115Z</time></trkpt><trkpt lat="43.5586839" lon="11.1899998"><ele>341.0</ele><time>2026-04-11T07:43:03.115Z</time></trkpt><trkpt lat="43.558723" lon="11.1898955"><ele>340.4</ele><time>2026-04-11T07:43:05.113Z</time></trkpt><trkpt lat="43.5587871" lon="11.189793"><ele>339.8</ele><time>2026-04-11T07:43:07.115Z</time></trkpt><trkpt lat="43.5588842" lon="11.1896873"><ele>339.2</ele><time>2026-04-11T07:43:09.115Z</time></trkpt><trkpt lat="43.5589426" lon="11.1896328"><ele>338.59999999999997</ele><time>2026-04-11T07:43:10.114Z</time></trkpt><trkpt lat="43.5590154" lon="11.1895489"><ele>338.0</ele><time>2026-04-11T07:43:12.113Z</time></trkpt><trkpt lat="43.5590797" lon="11.1894359"><ele>338.0</ele><time>2026-04-11T07:43:14.113Z</time></trkpt><trkpt lat="43.5591388" lon="11.1892936"><ele>338.0</ele><time>2026-04-11T07:43:16.114Z</time></trkpt><trkpt lat="43.5591462" lon="11.1891707"><ele>338.0</ele><time>2026-04-11T07:43:18.114Z</time></trkpt><trkpt lat="43.55909" lon="11.1890466"><ele>338.0</ele><time>2026-04-11T07:43:20.114Z</time></trkpt><trkpt lat="43.5589934" lon="11.1889478"><ele>338.0</ele><time>2026-04-11T07:43:22.113Z</time></trkpt><trkpt lat="43.5589219" lon="11.1888923"><ele>339.0</ele><time>2026-04-11T07:43:23.113Z</time></trkpt><trkpt lat="43.5588181" lon="11.1888164"><ele>340.0</ele><time>2026-04-11T07:43:25.113Z</time></trkpt><trkpt lat="43.558719" lon="11.1886766"><ele>341.0</ele><time>2026-04-11T07:43:27.114Z</time></trkpt><trkpt lat="43.5586635" lon="11.1886192"><ele>342.0</ele><time>2026-04-11T07:43:28.114Z</time></trkpt><trkpt lat="43.5586056" lon="11.1885787"><ele>343.0</ele><time>2026-04-11T07:43:29.114Z</time></trkpt><trkpt lat="43.5585295" lon="11.1885115"><ele>343.0</ele><time>2026-04-11T07:43:31.114Z</time></trkpt><trkpt lat="43.5584977" lon="11.1883884"><ele>343.0</ele><time>2026-04-11T07:43:33.114Z</time></trkpt><trkpt lat="43.5584771" lon="11.1882235"><ele>343.0</ele><time>2026-04-11T07:43:35.114Z</time></trkpt><trkpt lat="43.5584342" lon="11.1881343"><ele>343.0</ele><time>2026-04-11T07:43:36.114Z</time></trkpt><trkpt lat="43.5583905" lon="11.1880509"><ele>343.0</ele><time>2026-04-11T07:43:37.114Z</time></trkpt><trkpt lat="43.5583514" lon="11.1879746"><ele>343.0</ele><time>2026-04-11T07:43:38.114Z</time></trkpt><trkpt lat="43.5582838" lon="11.1878291"><ele>343.2</ele><time>2026-04-11T07:43:40.114Z</time></trkpt><trkpt lat="43.558231" lon="11.1877642"><ele>343.4</ele><time>2026-04-11T07:43:41.114Z</time></trkpt><trkpt lat="43.5581127" lon="11.1876936"><ele>343.59999999999997</ele><time>2026-04-11T07:43:43.113Z</time></trkpt><trkpt lat="43.5580514" lon="11.1876571"><ele>343.79999999999995</ele><time>2026-04-11T07:43:44.113Z</time></trkpt><trkpt lat="43.5579891" lon="11.1875969"><ele>344.0</ele><time>2026-04-11T07:43:45.113Z</time></trkpt><trkpt lat="43.5578772" lon="11.1875341"><ele>344.0</ele><time>2026-04-11T07:43:47.115Z</time></trkpt><trkpt lat="43.5577698" lon="11.1875355"><ele>344.0</ele><time>2026-04-11T07:43:49.114Z</time></trkpt><trkpt lat="43.5576369" lon="11.1875365"><ele>344.0</ele><time>2026-04-11T07:43:51.113Z</time></trkpt><trkpt lat="43.5575664" lon="11.1875342"><ele>344.0</ele><time>2026-04-11T07:43:52.113Z</time></trkpt><trkpt lat="43.5574933" lon="11.1875244"><ele>344.0</ele><time>2026-04-11T07:43:53.114Z</time></trkpt><trkpt lat="43.5574116" lon="11.1874988"><ele>344.0</ele><time>2026-04-11T07:43:54.114Z</time></trkpt><trkpt lat="43.5573504" lon="11.1874683"><ele>344.0</ele><time>2026-04-11T07:43:55.115Z</time></trkpt><trkpt lat="43.5572743" lon="11.1873851"><ele>344.0</ele><time>2026-04-11T07:43:57.114Z</time></trkpt><trkpt lat="43.5571963" lon="11.1872762"><ele>344.0</ele><time>2026-04-11T07:43:59.114Z</time></trkpt><trkpt lat="43.5571098" lon="11.1872321"><ele>344.0</ele><time>2026-04-11T07:44:01.114Z</time></trkpt><trkpt lat="43.5570192" lon="11.1872501"><ele>345.83333333333337</ele><time>2026-04-11T07:44:03.114Z</time></trkpt><trkpt lat="43.5569049" lon="11.1872501"><ele>347.6666666666667</ele><time>2026-04-11T07:44:05.114Z</time></trkpt><trkpt lat="43.5568387" lon="11.1872452"><ele>349.5</ele><time>2026-04-11T07:44:06.114Z</time></trkpt><trkpt lat="43.5567724" lon="11.1872399"><ele>351.3333333333333</ele><time>2026-04-11T07:44:07.114Z</time></trkpt><trkpt lat="43.5566481" lon="11.1872322"><ele>353.16666666666663</ele><time>2026-04-11T07:44:09.114Z</time></trkpt><trkpt lat="43.5565842" lon="11.1872286"><ele>355.0</ele><time>2026-04-11T07:44:10.113Z</time></trkpt><trkpt lat="43.5565178" lon="11.1872182"><ele>355.0</ele><time>2026-04-11T07:44:11.114Z</time></trkpt><trkpt lat="43.5564526" lon="11.1872051"><ele>355.0</ele><time>2026-04-11T07:44:12.114Z</time></trkpt><trkpt lat="43.556386" lon="11.187187"><ele>355.0</ele><time>2026-04-11T07:44:13.114Z</time></trkpt><trkpt lat="43.556302" lon="11.1871673"><ele>355.0</ele><time>2026-04-11T07:44:14.114Z</time></trkpt><trkpt lat="43.5562203" lon="11.1871462"><ele>355.0</ele><time>2026-04-11T07:44:15.114Z</time></trkpt><trkpt lat="43.5561459" lon="11.1871133"><ele>355.0</ele><time>2026-04-11T07:44:16.114Z</time></trkpt><trkpt lat="43.556035" lon="11.1870976"><ele>357.0</ele><time>2026-04-11T07:44:18.115Z</time></trkpt><trkpt lat="43.5559316" lon="11.1870669"><ele>359.0</ele><time>2026-04-11T07:44:20.113Z</time></trkpt><trkpt lat="43.5558297" lon="11.1870033"><ele>361.0</ele><time>2026-04-11T07:44:22.114Z</time></trkpt><trkpt lat="43.5557615" lon="11.1868931"><ele>363.0</ele><time>2026-04-11T07:44:24.114Z</time></trkpt><trkpt lat="43.5557147" lon="11.186785"><ele>365.0</ele><time>2026-04-11T07:44:26.114Z</time></trkpt><trkpt lat="43.5556787" lon="11.1867089"><ele>365.0</ele><time>2026-04-11T07:44:27.113Z</time></trkpt><trkpt lat="43.555621" lon="11.1865454"><ele>365.0</ele><time>2026-04-11T07:44:29.115Z</time></trkpt><trkpt lat="43.5555757" lon="11.1864111"><ele>365.0</ele><time>2026-04-11T07:44:31.114Z</time></trkpt><trkpt lat="43.5555295" lon="11.186259"><ele>365.0</ele><time>2026-04-11T07:44:33.115Z</time></trkpt><trkpt lat="43.5554919" lon="11.1861741"><ele>365.0</ele><time>2026-04-11T07:44:34.114Z</time></trkpt><trkpt lat="43.5554611" lon="11.1860841"><ele>365.6666666666667</ele><time>2026-04-11T07:44:35.115Z</time></trkpt><trkpt lat="43.5553805" lon="11.1859537"><ele>366.33333333333337</ele><time>2026-04-11T07:44:37.114Z</time></trkpt><trkpt lat="43.5553185" lon="11.1858651"><ele>367.0</ele><time>2026-04-11T07:44:39.114Z</time></trkpt><trkpt lat="43.5553106" lon="11.1857688"><ele>367.6666666666667</ele><time>2026-04-11T07:44:41.114Z</time></trkpt><trkpt lat="43.55532" lon="11.1856439"><ele>368.3333333333333</ele><time>2026-04-11T07:44:43.114Z</time></trkpt><trkpt lat="43.5553238" lon="11.1855448"><ele>369.0</ele><time>2026-04-11T07:44:44.114Z</time></trkpt><trkpt lat="43.5553358" lon="11.1854098"><ele>369.3333333333333</ele><time>2026-04-11T07:44:46.114Z</time></trkpt><trkpt lat="43.5553396" lon="11.1852946"><ele>369.6666666666667</ele><time>2026-04-11T07:44:49.113Z</time></trkpt><trkpt lat="43.5553007" lon="11.185205"><ele>370.0</ele><time>2026-04-11T07:44:52.115Z</time></trkpt><trkpt lat="43.5552399" lon="11.1852455"><ele>370.33333333333337</ele><time>2026-04-11T07:44:55.114Z</time></trkpt><trkpt lat="43.555196" lon="11.1853233"><ele>370.6666666666667</ele><time>2026-04-11T07:44:58.114Z</time></trkpt><trkpt lat="43.5552655" lon="11.1853891"><ele>371.0</ele><time>2026-04-11T07:45:01.115Z</time></trkpt><trkpt lat="43.5552773" lon="11.1855477"><ele>371.0</ele><time>2026-04-11T07:45:04.115Z</time></trkpt><trkpt lat="43.5552743" lon="11.1856512"><ele>371.0</ele><time>2026-04-11T07:45:06.114Z</time></trkpt><trkpt lat="43.5552577" lon="11.1857727"><ele>371.0</ele><time>2026-04-11T07:45:09.114Z</time></trkpt><trkpt lat="43.5553417" lon="11.1858748"><ele>371.0</ele><time>2026-04-11T07:45:12.114Z</time></trkpt><trkpt lat="43.5554033" lon="11.1859877"><ele>371.0</ele><time>2026-04-11T07:45:14.114Z</time></trkpt><trkpt lat="43.5554579" lon="11.1861273"><ele>370.8</ele><time>2026-04-11T07:45:16.115Z</time></trkpt><trkpt lat="43.5554828" lon="11.1862716"><ele>370.6</ele><time>2026-04-11T07:45:18.114Z</time></trkpt><trkpt lat="43.5554905" lon="11.1864011"><ele>370.4</ele><time>2026-04-11T07:45:20.115Z</time></trkpt><trkpt lat="43.5554959" lon="11.1865265"><ele>370.2</ele><time>2026-04-11T07:45:22.115Z</time></trkpt><trkpt lat="43.5555255" lon="11.1866686"><ele>370.0</ele><time>2026-04-11T07:45:24.114Z</time></trkpt><trkpt lat="43.5555774" lon="11.1867946"><ele>369.16666666666663</ele><time>2026-04-11T07:45:26.114Z</time></trkpt><trkpt lat="43.5556125" lon="11.1868946"><ele>368.3333333333333</ele><time>2026-04-11T07:45:28.113Z</time></trkpt><trkpt lat="43.5556238" lon="11.1869807"><ele>367.5</ele><time>2026-04-11T07:45:30.116Z</time></trkpt><trkpt lat="43.5556963" lon="11.1870831"><ele>366.6666666666667</ele><time>2026-04-11T07:45:32.114Z</time></trkpt><trkpt lat="43.555764" lon="11.1871449"><ele>365.83333333333337</ele><time>2026-04-11T07:45:34.114Z</time></trkpt><trkpt lat="43.5558426" lon="11.1872228"><ele>365.0</ele><time>2026-04-11T07:45:36.114Z</time></trkpt><trkpt lat="43.5558976" lon="11.1872666"><ele>365.0</ele><time>2026-04-11T07:45:38.113Z</time></trkpt><trkpt lat="43.5559628" lon="11.1872731"><ele>365.0</ele><time>2026-04-11T07:45:43.113Z</time></trkpt><trkpt lat="43.5560151" lon="11.1872236"><ele>365.0</ele><time>2026-04-11T07:45:49.114Z</time></trkpt><trkpt lat="43.5559565" lon="11.1871375"><ele>365.0</ele><time>2026-04-11T07:45:56.114Z</time></trkpt><trkpt lat="43.5558876" lon="11.1870738"><ele>365.0</ele><time>2026-04-11T07:45:58.114Z</time></trkpt><trkpt lat="43.5558056" lon="11.1869957"><ele>365.0</ele><time>2026-04-11T07:46:00.114Z</time></trkpt><trkpt lat="43.5557517" lon="11.1869064"><ele>365.0</ele><time>2026-04-11T07:46:02.114Z</time></trkpt><trkpt lat="43.5556881" lon="11.1868647"><ele>365.0</ele><time>2026-04-11T07:46:04.114Z</time></trkpt><trkpt lat="43.5556078" lon="11.1868121"><ele>365.0</ele><time>2026-04-11T07:46:06.114Z</time></trkpt><trkpt lat="43.555518" lon="11.1867736"><ele>365.0</ele><time>2026-04-11T07:46:08.114Z</time></trkpt><trkpt lat="43.555454" lon="11.1867696"><ele>365.0</ele><time>2026-04-11T07:46:09.115Z</time></trkpt><trkpt lat="43.5553225" lon="11.1867265"><ele>363.5</ele><time>2026-04-11T07:46:11.113Z</time></trkpt><trkpt lat="43.5552042" lon="11.1867055"><ele>362.0</ele><time>2026-04-11T07:46:13.114Z</time></trkpt><trkpt lat="43.5551068" lon="11.1866704"><ele>360.5</ele><time>2026-04-11T07:46:15.115Z</time></trkpt><trkpt lat="43.5549285" lon="11.1866052"><ele>359.0</ele><time>2026-04-11T07:46:24.114Z</time></trkpt><trkpt lat="43.5548575" lon="11.1865738"><ele>359.0</ele><time>2026-04-11T07:46:25.115Z</time></trkpt><trkpt lat="43.5547871" lon="11.1865424"><ele>359.0</ele><time>2026-04-11T07:46:26.113Z</time></trkpt><trkpt lat="43.5547167" lon="11.1865064"><ele>359.0</ele><time>2026-04-11T07:46:27.114Z</time></trkpt><trkpt lat="43.5546445" lon="11.1864754"><ele>359.0</ele><time>2026-04-11T07:46:28.114Z</time></trkpt><trkpt lat="43.554582" lon="11.1864518"><ele>359.0</ele><time>2026-04-11T07:46:29.114Z</time></trkpt><trkpt lat="43.5545036" lon="11.1864207"><ele>359.0</ele><time>2026-04-11T07:46:30.114Z</time></trkpt><trkpt lat="43.5544197" lon="11.1863866"><ele>360.1666666666667</ele><time>2026-04-11T07:46:31.114Z</time></trkpt><trkpt lat="43.5543345" lon="11.1863491"><ele>361.33333333333337</ele><time>2026-04-11T07:46:32.115Z</time></trkpt><trkpt lat="43.5542606" lon="11.1863171"><ele>362.5</ele><time>2026-04-11T07:46:33.116Z</time></trkpt><trkpt lat="43.5541693" lon="11.1862789"><ele>363.6666666666667</ele><time>2026-04-11T07:46:34.115Z</time></trkpt><trkpt lat="43.5540798" lon="11.1862383"><ele>364.8333333333333</ele><time>2026-04-11T07:46:35.115Z</time></trkpt><trkpt lat="43.5540071" lon="11.1862127"><ele>366.0</ele><time>2026-04-11T07:46:36.114Z</time></trkpt><trkpt lat="43.5539414" lon="11.1861908"><ele>366.0</ele><time>2026-04-11T07:46:37.114Z</time></trkpt><trkpt lat="43.5538499" lon="11.1861627"><ele>366.0</ele><time>2026-04-11T07:46:39.113Z</time></trkpt><trkpt lat="43.5537992" lon="11.1861007"><ele>366.0</ele><time>2026-04-11T07:46:41.113Z</time></trkpt><trkpt lat="43.5537" lon="11.1860449"><ele>366.0</ele><time>2026-04-11T07:46:44.113Z</time></trkpt><trkpt lat="43.5536295" lon="11.1860698"><ele>366.0</ele><time>2026-04-11T07:46:45.114Z</time></trkpt><trkpt lat="43.5534936" lon="11.1861343"><ele>365.20000000000005</ele><time>2026-04-11T07:46:47.114Z</time></trkpt><trkpt lat="43.5534032" lon="11.1861626"><ele>364.40000000000003</ele><time>2026-04-11T07:46:48.114Z</time></trkpt><trkpt lat="43.5533275" lon="11.1862055"><ele>363.6</ele><time>2026-04-11T07:46:49.114Z</time></trkpt><trkpt lat="43.5532412" lon="11.1862449"><ele>362.8</ele><time>2026-04-11T07:46:50.114Z</time></trkpt><trkpt lat="43.5531455" lon="11.186281"><ele>362.0</ele><time>2026-04-11T07:46:51.115Z</time></trkpt><trkpt lat="43.5530512" lon="11.1863103"><ele>362.0</ele><time>2026-04-11T07:46:52.114Z</time></trkpt><trkpt lat="43.5529728" lon="11.1863391"><ele>362.0</ele><time>2026-04-11T07:46:53.114Z</time></trkpt><trkpt lat="43.5528925" lon="11.1863602"><ele>362.0</ele><time>2026-04-11T07:46:54.115Z</time></trkpt><trkpt lat="43.5528137" lon="11.1863851"><ele>362.0</ele><time>2026-04-11T07:46:55.114Z</time></trkpt><trkpt lat="43.5527403" lon="11.1864083"><ele>362.0</ele><time>2026-04-11T07:46:56.113Z</time></trkpt><trkpt lat="43.5526746" lon="11.1864275"><ele>362.0</ele><time>2026-04-11T07:46:57.113Z</time></trkpt><trkpt lat="43.5526049" lon="11.1864566"><ele>361.0</ele><time>2026-04-11T07:46:58.114Z</time></trkpt><trkpt lat="43.5525324" lon="11.1865014"><ele>360.0</ele><time>2026-04-11T07:46:59.114Z</time></trkpt><trkpt lat="43.5524638" lon="11.186557"><ele>359.0</ele><time>2026-04-11T07:47:00.115Z</time></trkpt><trkpt lat="43.552392" lon="11.1866282"><ele>358.0</ele><time>2026-04-11T07:47:01.115Z</time></trkpt><trkpt lat="43.5523131" lon="11.1867125"><ele>357.0</ele><time>2026-04-11T07:47:02.115Z</time></trkpt><trkpt lat="43.5522305" lon="11.1867888"><ele>356.0</ele><time>2026-04-11T07:47:03.115Z</time></trkpt><trkpt lat="43.5521444" lon="11.1868868"><ele>356.0</ele><time>2026-04-11T07:47:04.114Z</time></trkpt><trkpt lat="43.5520642" lon="11.186983"><ele>356.0</ele><time>2026-04-11T07:47:05.116Z</time></trkpt><trkpt lat="43.5519868" lon="11.1870813"><ele>356.0</ele><time>2026-04-11T07:47:06.115Z</time></trkpt><trkpt lat="43.551906" lon="11.18718"><ele>356.0</ele><time>2026-04-11T07:47:07.114Z</time></trkpt><trkpt lat="43.5518397" lon="11.187281"><ele>356.0</ele><time>2026-04-11T07:47:08.113Z</time></trkpt><trkpt lat="43.5517769" lon="11.1873569"><ele>357.0</ele><time>2026-04-11T07:47:09.114Z</time></trkpt><trkpt lat="43.5517119" lon="11.1874199"><ele>358.0</ele><time>2026-04-11T07:47:10.113Z</time></trkpt><trkpt lat="43.5516385" lon="11.1874647"><ele>359.0</ele><time>2026-04-11T07:47:11.113Z</time></trkpt><trkpt lat="43.5515477" lon="11.1875105"><ele>360.0</ele><time>2026-04-11T07:47:12.114Z</time></trkpt><trkpt lat="43.5514349" lon="11.1875172"><ele>361.0</ele><time>2026-04-11T07:47:13.115Z</time></trkpt><trkpt lat="43.551297" lon="11.187497"><ele>358.3333333333333</ele><time>2026-04-11T07:47:14.114Z</time></trkpt><trkpt lat="43.5511542" lon="11.1874773"><ele>355.6666666666667</ele><time>2026-04-11T07:47:15.114Z</time></trkpt><trkpt lat="43.5510083" lon="11.1874485"><ele>353.0</ele><time>2026-04-11T07:47:16.114Z</time></trkpt><trkpt lat="43.5508513" lon="11.1874097"><ele>353.0</ele><time>2026-04-11T07:47:17.114Z</time></trkpt><trkpt lat="43.5507043" lon="11.1873648"><ele>353.0</ele><time>2026-04-11T07:47:18.113Z</time></trkpt><trkpt lat="43.5505659" lon="11.1873309"><ele>353.0</ele><time>2026-04-11T07:47:19.115Z</time></trkpt><trkpt lat="43.5504392" lon="11.1873087"><ele>353.0</ele><time>2026-04-11T07:47:20.113Z</time></trkpt><trkpt lat="43.550303" lon="11.1873297"><ele>353.0</ele><time>2026-04-11T07:47:21.115Z</time></trkpt><trkpt lat="43.5501754" lon="11.1873651"><ele>353.0</ele><time>2026-04-11T07:47:22.114Z</time></trkpt><trkpt lat="43.5500461" lon="11.1874001"><ele>353.0</ele><time>2026-04-11T07:47:23.113Z</time></trkpt><trkpt lat="43.5499188" lon="11.1874323"><ele>353.0</ele><time>2026-04-11T07:47:24.114Z</time></trkpt><trkpt lat="43.5497815" lon="11.1874666"><ele>353.0</ele><time>2026-04-11T07:47:25.114Z</time></trkpt><trkpt lat="43.5496429" lon="11.1875039"><ele>353.0</ele><time>2026-04-11T07:47:26.113Z</time></trkpt><trkpt lat="43.5494969" lon="11.1875417"><ele>353.0</ele><time>2026-04-11T07:47:27.115Z</time></trkpt><trkpt lat="43.5493548" lon="11.1875858"><ele>353.0</ele><time>2026-04-11T07:47:28.114Z</time></trkpt><trkpt lat="43.549208" lon="11.1876205"><ele>352.0</ele><time>2026-04-11T07:47:29.113Z</time></trkpt><trkpt lat="43.5490746" lon="11.1876556"><ele>351.0</ele><time>2026-04-11T07:47:30.114Z</time></trkpt><trkpt lat="43.5489512" lon="11.1876976"><ele>350.0</ele><time>2026-04-11T07:47:31.116Z</time></trkpt><trkpt lat="43.5488253" lon="11.1877431"><ele>349.0</ele><time>2026-04-11T07:47:32.113Z</time></trkpt><trkpt lat="43.5487092" lon="11.1877787"><ele>347.0</ele><time>2026-04-11T07:47:33.114Z</time></trkpt><trkpt lat="43.5485809" lon="11.1878179"><ele>345.0</ele><time>2026-04-11T07:47:34.114Z</time></trkpt><trkpt lat="43.5484578" lon="11.1878567"><ele>343.0</ele><time>2026-04-11T07:47:35.114Z</time></trkpt><trkpt lat="43.5483181" lon="11.1879156"><ele>341.0</ele><time>2026-04-11T07:47:36.114Z</time></trkpt><trkpt lat="43.5481849" lon="11.1880132"><ele>341.0</ele><time>2026-04-11T07:47:37.113Z</time></trkpt><trkpt lat="43.5480599" lon="11.1881327"><ele>341.0</ele><time>2026-04-11T07:47:38.114Z</time></trkpt><trkpt lat="43.5479356" lon="11.1882723"><ele>341.0</ele><time>2026-04-11T07:47:39.115Z</time></trkpt><trkpt lat="43.5478228" lon="11.1883956"><ele>340.5</ele><time>2026-04-11T07:47:40.115Z</time></trkpt><trkpt lat="43.5477128" lon="11.1885002"><ele>340.0</ele><time>2026-04-11T07:47:41.114Z</time></trkpt><trkpt lat="43.547619" lon="11.1885969"><ele>339.5</ele><time>2026-04-11T07:47:42.114Z</time></trkpt><trkpt lat="43.5475353" lon="11.1886963"><ele>339.0</ele><time>2026-04-11T07:47:43.113Z</time></trkpt><trkpt lat="43.5474543" lon="11.188795"><ele>339.0</ele><time>2026-04-11T07:47:44.114Z</time></trkpt><trkpt lat="43.5473721" lon="11.188905"><ele>339.0</ele><time>2026-04-11T07:47:45.114Z</time></trkpt><trkpt lat="43.5472846" lon="11.1890222"><ele>339.0</ele><time>2026-04-11T07:47:46.115Z</time></trkpt><trkpt lat="43.5471915" lon="11.189146"><ele>339.0</ele><time>2026-04-11T07:47:47.114Z</time></trkpt><trkpt lat="43.5470901" lon="11.1892836"><ele>338.6666666666667</ele><time>2026-04-11T07:47:48.114Z</time></trkpt><trkpt lat="43.546981" lon="11.1894231"><ele>338.33333333333337</ele><time>2026-04-11T07:47:49.115Z</time></trkpt><trkpt lat="43.5468681" lon="11.1895696"><ele>338.0</ele><time>2026-04-11T07:47:50.114Z</time></trkpt><trkpt lat="43.5467518" lon="11.1897183"><ele>336.33333333333337</ele><time>2026-04-11T07:47:51.114Z</time></trkpt><trkpt lat="43.5466299" lon="11.1898588"><ele>334.6666666666667</ele><time>2026-04-11T07:47:52.114Z</time></trkpt><trkpt lat="43.5465014" lon="11.1899732"><ele>333.0</ele><time>2026-04-11T07:47:53.114Z</time></trkpt><trkpt lat="43.5463798" lon="11.1900894"><ele>333.0</ele><time>2026-04-11T07:47:54.114Z</time></trkpt><trkpt lat="43.5462639" lon="11.1901992"><ele>333.0</ele><time>2026-04-11T07:47:55.114Z</time></trkpt><trkpt lat="43.546169" lon="11.1903137"><ele>333.0</ele><time>2026-04-11T07:47:56.113Z</time></trkpt><trkpt lat="43.5460797" lon="11.1904353"><ele>333.0</ele><time>2026-04-11T07:47:57.114Z</time></trkpt><trkpt lat="43.5459944" lon="11.190557"><ele>331.5</ele><time>2026-04-11T07:47:58.114Z</time></trkpt><trkpt lat="43.5459101" lon="11.1906761"><ele>330.0</ele><time>2026-04-11T07:47:59.113Z</time></trkpt><trkpt lat="43.5458118" lon="11.1907873"><ele>328.5</ele><time>2026-04-11T07:48:00.114Z</time></trkpt><trkpt lat="43.5457094" lon="11.190885"><ele>327.0</ele><time>2026-04-11T07:48:01.115Z</time></trkpt><trkpt lat="43.5456038" lon="11.1909705"><ele>327.0</ele><time>2026-04-11T07:48:02.116Z</time></trkpt><trkpt lat="43.5455029" lon="11.1910469"><ele>327.0</ele><time>2026-04-11T07:48:03.115Z</time></trkpt><trkpt lat="43.5454061" lon="11.1911098"><ele>327.0</ele><time>2026-04-11T07:48:04.115Z</time></trkpt><trkpt lat="43.5452965" lon="11.1911623"><ele>327.0</ele><time>2026-04-11T07:48:05.114Z</time></trkpt><trkpt lat="43.5451774" lon="11.1912001"><ele>325.5</ele><time>2026-04-11T07:48:06.114Z</time></trkpt><trkpt lat="43.5450466" lon="11.1912396"><ele>324.0</ele><time>2026-04-11T07:48:07.115Z</time></trkpt><trkpt lat="43.544928" lon="11.191277"><ele>322.5</ele><time>2026-04-11T07:48:08.115Z</time></trkpt><trkpt lat="43.5448119" lon="11.1912978"><ele>321.0</ele><time>2026-04-11T07:48:09.114Z</time></trkpt><trkpt lat="43.5447057" lon="11.1913074"><ele>321.0</ele><time>2026-04-11T07:48:10.113Z</time></trkpt><trkpt lat="43.5445993" lon="11.1913003"><ele>321.0</ele><time>2026-04-11T07:48:11.115Z</time></trkpt><trkpt lat="43.5444877" lon="11.1912798"><ele>321.0</ele><time>2026-04-11T07:48:12.113Z</time></trkpt><trkpt lat="43.5443716" lon="11.1912477"><ele>321.0</ele><time>2026-04-11T07:48:13.115Z</time></trkpt><trkpt lat="43.5442478" lon="11.1912112"><ele>319.0</ele><time>2026-04-11T07:48:14.114Z</time></trkpt><trkpt lat="43.5441136" lon="11.191176"><ele>317.0</ele><time>2026-04-11T07:48:15.114Z</time></trkpt><trkpt lat="43.5439744" lon="11.1911448"><ele>315.0</ele><time>2026-04-11T07:48:16.115Z</time></trkpt><trkpt lat="43.5438433" lon="11.1911154"><ele>313.0</ele><time>2026-04-11T07:48:17.114Z</time></trkpt><trkpt lat="43.543717" lon="11.1910923"><ele>313.0</ele><time>2026-04-11T07:48:18.114Z</time></trkpt><trkpt lat="43.5435975" lon="11.1910696"><ele>313.0</ele><time>2026-04-11T07:48:19.115Z</time></trkpt><trkpt lat="43.543488" lon="11.1910452"><ele>313.0</ele><time>2026-04-11T07:48:20.115Z</time></trkpt><trkpt lat="43.5433781" lon="11.191027"><ele>313.0</ele><time>2026-04-11T07:48:21.114Z</time></trkpt><trkpt lat="43.5432742" lon="11.1909974"><ele>313.0</ele><time>2026-04-11T07:48:22.114Z</time></trkpt><trkpt lat="43.5431597" lon="11.190975"><ele>313.0</ele><time>2026-04-11T07:48:23.113Z</time></trkpt><trkpt lat="43.543052" lon="11.1909457"><ele>313.0</ele><time>2026-04-11T07:48:24.114Z</time></trkpt><trkpt lat="43.5429353" lon="11.1909069"><ele>313.0</ele><time>2026-04-11T07:48:25.115Z</time></trkpt><trkpt lat="43.5428128" lon="11.1908648"><ele>313.0</ele><time>2026-04-11T07:48:26.114Z</time></trkpt><trkpt lat="43.54269" lon="11.1908214"><ele>314.0</ele><time>2026-04-11T07:48:27.115Z</time></trkpt><trkpt lat="43.5425688" lon="11.190777"><ele>315.0</ele><time>2026-04-11T07:48:28.114Z</time></trkpt><trkpt lat="43.5424478" lon="11.1907307"><ele>316.0</ele><time>2026-04-11T07:48:29.115Z</time></trkpt><trkpt lat="43.54232" lon="11.1906862"><ele>317.0</ele><time>2026-04-11T07:48:30.114Z</time></trkpt><trkpt lat="43.5421818" lon="11.1906381"><ele>318.0</ele><time>2026-04-11T07:48:31.114Z</time></trkpt><trkpt lat="43.5420486" lon="11.1906"><ele>319.0</ele><time>2026-04-11T07:48:32.113Z</time></trkpt><trkpt lat="43.5419209" lon="11.1905594"><ele>320.0</ele><time>2026-04-11T07:48:33.113Z</time></trkpt><trkpt lat="43.541791" lon="11.1905205"><ele>321.0</ele><time>2026-04-11T07:48:34.115Z</time></trkpt><trkpt lat="43.5416611" lon="11.190482"><ele>321.0</ele><time>2026-04-11T07:48:35.114Z</time></trkpt><trkpt lat="43.541532" lon="11.1904447"><ele>321.0</ele><time>2026-04-11T07:48:36.115Z</time></trkpt><trkpt lat="43.5414119" lon="11.1904105"><ele>321.0</ele><time>2026-04-11T07:48:37.116Z</time></trkpt><trkpt lat="43.541291" lon="11.190374"><ele>321.0</ele><time>2026-04-11T07:48:38.114Z</time></trkpt><trkpt lat="43.5411738" lon="11.1903401"><ele>323.0</ele><time>2026-04-11T07:48:39.114Z</time></trkpt><trkpt lat="43.5410585" lon="11.1903007"><ele>325.0</ele><time>2026-04-11T07:48:40.114Z</time></trkpt><trkpt lat="43.540959" lon="11.1902575"><ele>327.0</ele><time>2026-04-11T07:48:41.116Z</time></trkpt><trkpt lat="43.540875" lon="11.1902164"><ele>329.0</ele><time>2026-04-11T07:48:42.114Z</time></trkpt><trkpt lat="43.5407873" lon="11.1901867"><ele>331.0</ele><time>2026-04-11T07:48:43.115Z</time></trkpt><trkpt lat="43.5406898" lon="11.1901603"><ele>331.0</ele><time>2026-04-11T07:48:44.114Z</time></trkpt><trkpt lat="43.5405862" lon="11.1901408"><ele>331.0</ele><time>2026-04-11T07:48:45.113Z</time></trkpt><trkpt lat="43.5404809" lon="11.1901183"><ele>331.0</ele><time>2026-04-11T07:48:46.114Z</time></trkpt><trkpt lat="43.5403795" lon="11.190083"><ele>331.0</ele><time>2026-04-11T07:48:47.115Z</time></trkpt><trkpt lat="43.5402942" lon="11.1900418"><ele>331.0</ele><time>2026-04-11T07:48:48.115Z</time></trkpt><trkpt lat="43.540216" lon="11.1899891"><ele>330.8333333333333</ele><time>2026-04-11T07:48:49.113Z</time></trkpt><trkpt lat="43.5401453" lon="11.189947"><ele>330.66666666666663</ele><time>2026-04-11T07:48:50.114Z</time></trkpt><trkpt lat="43.5400775" lon="11.1899013"><ele>330.5</ele><time>2026-04-11T07:48:51.115Z</time></trkpt><trkpt lat="43.5400118" lon="11.1898782"><ele>330.3333333333333</ele><time>2026-04-11T07:48:52.113Z</time></trkpt><trkpt lat="43.5399409" lon="11.189875"><ele>330.1666666666667</ele><time>2026-04-11T07:48:54.115Z</time></trkpt><trkpt lat="43.5399474" lon="11.1899955"><ele>330.0</ele><time>2026-04-11T07:49:00.115Z</time></trkpt><trkpt lat="43.5399784" lon="11.1901314"><ele>330.0</ele><time>2026-04-11T07:49:02.115Z</time></trkpt><trkpt lat="43.5399781" lon="11.1903008"><ele>330.0</ele><time>2026-04-11T07:49:04.115Z</time></trkpt><trkpt lat="43.5399701" lon="11.1904052"><ele>330.0</ele><time>2026-04-11T07:49:05.114Z</time></trkpt><trkpt lat="43.5399606" lon="11.1905188"><ele>330.0</ele><time>2026-04-11T07:49:06.114Z</time></trkpt><trkpt lat="43.5399548" lon="11.1906448"><ele>330.0</ele><time>2026-04-11T07:49:07.115Z</time></trkpt><trkpt lat="43.5399668" lon="11.1907638"><ele>329.0</ele><time>2026-04-11T07:49:08.114Z</time></trkpt><trkpt lat="43.5399649" lon="11.1908811"><ele>328.0</ele><time>2026-04-11T07:49:09.116Z</time></trkpt><trkpt lat="43.5399659" lon="11.1909911"><ele>327.0</ele><time>2026-04-11T07:49:10.115Z</time></trkpt><trkpt lat="43.5399765" lon="11.1911001"><ele>326.0</ele><time>2026-04-11T07:49:11.114Z</time></trkpt><trkpt lat="43.5399839" lon="11.1912032"><ele>325.0</ele><time>2026-04-11T07:49:12.114Z</time></trkpt><trkpt lat="43.5399816" lon="11.1913035"><ele>324.0</ele><time>2026-04-11T07:49:13.115Z</time></trkpt><trkpt lat="43.539986" lon="11.1914101"><ele>323.0</ele><time>2026-04-11T07:49:14.113Z</time></trkpt><trkpt lat="43.540009" lon="11.1915141"><ele>322.0</ele><time>2026-04-11T07:49:15.114Z</time></trkpt><trkpt lat="43.5400351" lon="11.1916122"><ele>321.0</ele><time>2026-04-11T07:49:16.114Z</time></trkpt><trkpt lat="43.540059" lon="11.1917085"><ele>320.0</ele><time>2026-04-11T07:49:17.114Z</time></trkpt><trkpt lat="43.5400612" lon="11.1918043"><ele>319.0</ele><time>2026-04-11T07:49:18.113Z</time></trkpt><trkpt lat="43.5399877" lon="11.1919263"><ele>318.0</ele><time>2026-04-11T07:49:20.114Z</time></trkpt><trkpt lat="43.5399092" lon="11.1919365"><ele>318.0</ele><time>2026-04-11T07:49:21.115Z</time></trkpt><trkpt lat="43.5398092" lon="11.1919259"><ele>318.0</ele><time>2026-04-11T07:49:22.114Z</time></trkpt><trkpt lat="43.539713" lon="11.1919284"><ele>318.0</ele><time>2026-04-11T07:49:23.114Z</time></trkpt><trkpt lat="43.5396152" lon="11.191941"><ele>318.0</ele><time>2026-04-11T07:49:24.114Z</time></trkpt><trkpt lat="43.5395142" lon="11.1919732"><ele>318.0</ele><time>2026-04-11T07:49:25.114Z</time></trkpt><trkpt lat="43.5394138" lon="11.1920412"><ele>314.25</ele><time>2026-04-11T07:49:26.114Z</time></trkpt><trkpt lat="43.5393147" lon="11.1921172"><ele>310.5</ele><time>2026-04-11T07:49:27.114Z</time></trkpt><trkpt lat="43.5392247" lon="11.1921909"><ele>306.75</ele><time>2026-04-11T07:49:28.115Z</time></trkpt><trkpt lat="43.5391242" lon="11.1922903"><ele>303.0</ele><time>2026-04-11T07:49:29.113Z</time></trkpt><trkpt lat="43.5390286" lon="11.1923798"><ele>302.6</ele><time>2026-04-11T07:49:30.114Z</time></trkpt><trkpt lat="43.5389486" lon="11.1924599"><ele>302.20000000000005</ele><time>2026-04-11T07:49:31.113Z</time></trkpt><trkpt lat="43.5388716" lon="11.1925399"><ele>301.8</ele><time>2026-04-11T07:49:32.114Z</time></trkpt><trkpt lat="43.5387986" lon="11.1926366"><ele>301.40000000000003</ele><time>2026-04-11T07:49:33.115Z</time></trkpt><trkpt lat="43.538749" lon="11.1927669"><ele>301.0</ele><time>2026-04-11T07:49:34.113Z</time></trkpt><trkpt lat="43.5386996" lon="11.1929114"><ele>301.0</ele><time>2026-04-11T07:49:35.114Z</time></trkpt><trkpt lat="43.5386498" lon="11.1930429"><ele>301.0</ele><time>2026-04-11T07:49:36.115Z</time></trkpt><trkpt lat="43.5386027" lon="11.1931734"><ele>301.0</ele><time>2026-04-11T07:49:37.114Z</time></trkpt><trkpt lat="43.5385591" lon="11.193298"><ele>301.0</ele><time>2026-04-11T07:49:38.114Z</time></trkpt><trkpt lat="43.5384958" lon="11.1934185"><ele>301.0</ele><time>2026-04-11T07:49:39.114Z</time></trkpt><trkpt lat="43.5384182" lon="11.1935087"><ele>301.0</ele><time>2026-04-11T07:49:40.116Z</time></trkpt><trkpt lat="43.5383174" lon="11.1935684"><ele>301.0</ele><time>2026-04-11T07:49:41.114Z</time></trkpt><trkpt lat="43.538208" lon="11.1935954"><ele>301.0</ele><time>2026-04-11T07:49:42.114Z</time></trkpt><trkpt lat="43.5381002" lon="11.193585"><ele>301.0</ele><time>2026-04-11T07:49:43.114Z</time></trkpt><trkpt lat="43.5379879" lon="11.1935447"><ele>301.0</ele><time>2026-04-11T07:49:44.113Z</time></trkpt><trkpt lat="43.5378752" lon="11.1934737"><ele>300.25</ele><time>2026-04-11T07:49:45.114Z</time></trkpt><trkpt lat="43.5377512" lon="11.1934029"><ele>299.5</ele><time>2026-04-11T07:49:46.115Z</time></trkpt><trkpt lat="43.5376197" lon="11.193359"><ele>298.75</ele><time>2026-04-11T07:49:47.113Z</time></trkpt><trkpt lat="43.5374843" lon="11.1933212"><ele>298.0</ele><time>2026-04-11T07:49:48.114Z</time></trkpt><trkpt lat="43.53735" lon="11.1932839"><ele>298.0</ele><time>2026-04-11T07:49:49.116Z</time></trkpt><trkpt lat="43.5372062" lon="11.1932488"><ele>298.0</ele><time>2026-04-11T07:49:50.114Z</time></trkpt><trkpt lat="43.5370741" lon="11.1932146"><ele>298.0</ele><time>2026-04-11T07:49:51.115Z</time></trkpt><trkpt lat="43.5369595" lon="11.1931786"><ele>298.0</ele><time>2026-04-11T07:49:52.113Z</time></trkpt><trkpt lat="43.5368406" lon="11.1931494"><ele>297.25</ele><time>2026-04-11T07:49:53.114Z</time></trkpt><trkpt lat="43.5367223" lon="11.1931191"><ele>296.5</ele><time>2026-04-11T07:49:54.114Z</time></trkpt><trkpt lat="43.5365882" lon="11.1930894"><ele>295.75</ele><time>2026-04-11T07:49:55.115Z</time></trkpt><trkpt lat="43.5364492" lon="11.1930574"><ele>295.0</ele><time>2026-04-11T07:49:56.114Z</time></trkpt><trkpt lat="43.5363091" lon="11.1929954"><ele>293.66666666666663</ele><time>2026-04-11T07:49:57.113Z</time></trkpt><trkpt lat="43.5361606" lon="11.1929166"><ele>292.3333333333333</ele><time>2026-04-11T07:49:58.115Z</time></trkpt><trkpt lat="43.5360132" lon="11.1928392"><ele>291.0</ele><time>2026-04-11T07:49:59.114Z</time></trkpt><trkpt lat="43.5358647" lon="11.1927439"><ele>291.0</ele><time>2026-04-11T07:50:00.114Z</time></trkpt><trkpt lat="43.5357282" lon="11.1926445"><ele>291.0</ele><time>2026-04-11T07:50:01.114Z</time></trkpt><trkpt lat="43.5355989" lon="11.1925407"><ele>291.0</ele><time>2026-04-11T07:50:02.114Z</time></trkpt><trkpt lat="43.5354857" lon="11.192451"><ele>291.0</ele><time>2026-04-11T07:50:03.116Z</time></trkpt><trkpt lat="43.5353599" lon="11.1923653"><ele>289.5</ele><time>2026-04-11T07:50:04.116Z</time></trkpt><trkpt lat="43.5352438" lon="11.1922843"><ele>288.0</ele><time>2026-04-11T07:50:05.114Z</time></trkpt><trkpt lat="43.5351232" lon="11.1922033"><ele>286.5</ele><time>2026-04-11T07:50:06.115Z</time></trkpt><trkpt lat="43.5350101" lon="11.1921268"><ele>285.0</ele><time>2026-04-11T07:50:07.114Z</time></trkpt><trkpt lat="43.534908" lon="11.1920677"><ele>285.0</ele><time>2026-04-11T07:50:08.113Z</time></trkpt><trkpt lat="43.5348138" lon="11.192007"><ele>285.0</ele><time>2026-04-11T07:50:09.114Z</time></trkpt><trkpt lat="43.5347334" lon="11.1919471"><ele>285.0</ele><time>2026-04-11T07:50:10.114Z</time></trkpt><trkpt lat="43.5346755" lon="11.1919041"><ele>285.0</ele><time>2026-04-11T07:50:11.114Z</time></trkpt><trkpt lat="43.5346137" lon="11.1917807"><ele>285.0</ele><time>2026-04-11T07:50:13.113Z</time></trkpt><trkpt lat="43.5346128" lon="11.1916869"><ele>285.0</ele><time>2026-04-11T07:50:14.114Z</time></trkpt><trkpt lat="43.5346203" lon="11.1915631"><ele>283.6</ele><time>2026-04-11T07:50:15.114Z</time></trkpt><trkpt lat="43.5346228" lon="11.1914442"><ele>282.2</ele><time>2026-04-11T07:50:16.114Z</time></trkpt><trkpt lat="43.5346061" lon="11.1913281"><ele>280.8</ele><time>2026-04-11T07:50:17.114Z</time></trkpt><trkpt lat="43.5345572" lon="11.1912094"><ele>279.4</ele><time>2026-04-11T07:50:18.115Z</time></trkpt><trkpt lat="43.5344796" lon="11.1911135"><ele>278.0</ele><time>2026-04-11T07:50:19.115Z</time></trkpt><trkpt lat="43.5343944" lon="11.1910417"><ele>278.0</ele><time>2026-04-11T07:50:20.115Z</time></trkpt><trkpt lat="43.5342846" lon="11.1910098"><ele>278.0</ele><time>2026-04-11T07:50:21.116Z</time></trkpt><trkpt lat="43.5341829" lon="11.19097"><ele>278.0</ele><time>2026-04-11T07:50:22.115Z</time></trkpt><trkpt lat="43.5340882" lon="11.1909219"><ele>278.0</ele><time>2026-04-11T07:50:23.114Z</time></trkpt><trkpt lat="43.5339934" lon="11.1908639"><ele>278.0</ele><time>2026-04-11T07:50:24.114Z</time></trkpt><trkpt lat="43.5338884" lon="11.1907993"><ele>278.0</ele><time>2026-04-11T07:50:25.115Z</time></trkpt><trkpt lat="43.5337623" lon="11.1907233"><ele>278.0</ele><time>2026-04-11T07:50:26.115Z</time></trkpt><trkpt lat="43.5336332" lon="11.1906421"><ele>278.0</ele><time>2026-04-11T07:50:27.114Z</time></trkpt><trkpt lat="43.5335068" lon="11.1905651"><ele>278.0</ele><time>2026-04-11T07:50:28.113Z</time></trkpt><trkpt lat="43.5333793" lon="11.1904927"><ele>275.5</ele><time>2026-04-11T07:50:29.114Z</time></trkpt><trkpt lat="43.5332669" lon="11.1903996"><ele>273.0</ele><time>2026-04-11T07:50:30.114Z</time></trkpt><trkpt lat="43.5331593" lon="11.1902964"><ele>270.5</ele><time>2026-04-11T07:50:31.114Z</time></trkpt><trkpt lat="43.533034" lon="11.1901636"><ele>268.0</ele><time>2026-04-11T07:50:32.114Z</time></trkpt><trkpt lat="43.5329048" lon="11.1900456"><ele>269.25</ele><time>2026-04-11T07:50:33.114Z</time></trkpt><trkpt lat="43.5327838" lon="11.1899372"><ele>270.5</ele><time>2026-04-11T07:50:34.115Z</time></trkpt><trkpt lat="43.5326764" lon="11.1898381"><ele>271.75</ele><time>2026-04-11T07:50:35.114Z</time></trkpt><trkpt lat="43.5325849" lon="11.1897442"><ele>273.0</ele><time>2026-04-11T07:50:36.114Z</time></trkpt><trkpt lat="43.5325051" lon="11.1896746"><ele>273.0</ele><time>2026-04-11T07:50:37.115Z</time></trkpt><trkpt lat="43.5324357" lon="11.1896041"><ele>273.0</ele><time>2026-04-11T07:50:38.114Z</time></trkpt><trkpt lat="43.5323757" lon="11.1895355"><ele>273.0</ele><time>2026-04-11T07:50:39.114Z</time></trkpt><trkpt lat="43.53232" lon="11.1894663"><ele>273.0</ele><time>2026-04-11T07:50:40.113Z</time></trkpt><trkpt lat="43.5322685" lon="11.1893941"><ele>273.0</ele><time>2026-04-11T07:50:41.115Z</time></trkpt><trkpt lat="43.5322088" lon="11.1893111"><ele>273.0</ele><time>2026-04-11T07:50:42.115Z</time></trkpt><trkpt lat="43.5321411" lon="11.1892212"><ele>273.0</ele><time>2026-04-11T07:50:43.114Z</time></trkpt><trkpt lat="43.532076" lon="11.189125"><ele>273.0</ele><time>2026-04-11T07:50:44.114Z</time></trkpt><trkpt lat="43.5319952" lon="11.1890469"><ele>273.0</ele><time>2026-04-11T07:50:45.114Z</time></trkpt><trkpt lat="43.5319028" lon="11.1889865"><ele>273.0</ele><time>2026-04-11T07:50:46.114Z</time></trkpt><trkpt lat="43.5318095" lon="11.188948"><ele>273.0</ele><time>2026-04-11T07:50:47.113Z</time></trkpt><trkpt lat="43.531724" lon="11.1889279"><ele>272.8</ele><time>2026-04-11T07:50:48.115Z</time></trkpt><trkpt lat="43.5316388" lon="11.1889337"><ele>272.6</ele><time>2026-04-11T07:50:49.114Z</time></trkpt><trkpt lat="43.5315645" lon="11.1889671"><ele>272.4</ele><time>2026-04-11T07:50:50.115Z</time></trkpt><trkpt lat="43.5314897" lon="11.1890381"><ele>272.2</ele><time>2026-04-11T07:50:51.115Z</time></trkpt><trkpt lat="43.5314056" lon="11.1891243"><ele>272.0</ele><time>2026-04-11T07:50:52.115Z</time></trkpt><trkpt lat="43.531301" lon="11.1891886"><ele>270.0</ele><time>2026-04-11T07:50:53.114Z</time></trkpt><trkpt lat="43.5311719" lon="11.1892169"><ele>268.0</ele><time>2026-04-11T07:50:54.113Z</time></trkpt><trkpt lat="43.5310272" lon="11.1892279"><ele>266.0</ele><time>2026-04-11T07:50:55.113Z</time></trkpt><trkpt lat="43.5308924" lon="11.1892464"><ele>264.0</ele><time>2026-04-11T07:50:56.114Z</time></trkpt><trkpt lat="43.5307713" lon="11.1892564"><ele>264.0</ele><time>2026-04-11T07:50:57.115Z</time></trkpt><trkpt lat="43.5306561" lon="11.1892426"><ele>264.0</ele><time>2026-04-11T07:50:58.116Z</time></trkpt><trkpt lat="43.5305393" lon="11.189204"><ele>264.0</ele><time>2026-04-11T07:50:59.115Z</time></trkpt><trkpt lat="43.5304219" lon="11.1891613"><ele>264.0</ele><time>2026-04-11T07:51:00.115Z</time></trkpt><trkpt lat="43.530305" lon="11.1891003"><ele>263.3333333333333</ele><time>2026-04-11T07:51:01.114Z</time></trkpt><trkpt lat="43.5301765" lon="11.1890282"><ele>262.66666666666663</ele><time>2026-04-11T07:51:02.115Z</time></trkpt><trkpt lat="43.5300393" lon="11.1889321"><ele>262.0</ele><time>2026-04-11T07:51:03.114Z</time></trkpt><trkpt lat="43.5298984" lon="11.1888319"><ele>260.0</ele><time>2026-04-11T07:51:04.113Z</time></trkpt><trkpt lat="43.5297444" lon="11.1887041"><ele>258.0</ele><time>2026-04-11T07:51:05.115Z</time></trkpt><trkpt lat="43.5296049" lon="11.1885791"><ele>256.0</ele><time>2026-04-11T07:51:06.114Z</time></trkpt><trkpt lat="43.5294741" lon="11.1884532"><ele>255.66666666666666</ele><time>2026-04-11T07:51:07.115Z</time></trkpt><trkpt lat="43.5293418" lon="11.1883377"><ele>255.33333333333331</ele><time>2026-04-11T07:51:08.114Z</time></trkpt><trkpt lat="43.5291867" lon="11.188237"><ele>255.0</ele><time>2026-04-11T07:51:09.114Z</time></trkpt><trkpt lat="43.5290423" lon="11.1881711"><ele>253.33333333333331</ele><time>2026-04-11T07:51:10.114Z</time></trkpt><trkpt lat="43.5288858" lon="11.1881216"><ele>251.66666666666666</ele><time>2026-04-11T07:51:11.114Z</time></trkpt><trkpt lat="43.5287417" lon="11.1880871"><ele>250.0</ele><time>2026-04-11T07:51:12.113Z</time></trkpt><trkpt lat="43.5286014" lon="11.1880393"><ele>249.25</ele><time>2026-04-11T07:51:13.115Z</time></trkpt><trkpt lat="43.5284715" lon="11.1879668"><ele>248.5</ele><time>2026-04-11T07:51:14.114Z</time></trkpt><trkpt lat="43.5283544" lon="11.187871"><ele>247.75</ele><time>2026-04-11T07:51:15.115Z</time></trkpt><trkpt lat="43.5282429" lon="11.1877339"><ele>247.0</ele><time>2026-04-11T07:51:16.114Z</time></trkpt><trkpt lat="43.5281196" lon="11.1875843"><ele>247.0</ele><time>2026-04-11T07:51:17.115Z</time></trkpt><trkpt lat="43.5279666" lon="11.1874427"><ele>247.0</ele><time>2026-04-11T07:51:18.114Z</time></trkpt><trkpt lat="43.5278065" lon="11.18731"><ele>247.0</ele><time>2026-04-11T07:51:19.115Z</time></trkpt><trkpt lat="43.5276305" lon="11.187189"><ele>244.0</ele><time>2026-04-11T07:51:20.114Z</time></trkpt><trkpt lat="43.5274508" lon="11.1870614"><ele>241.0</ele><time>2026-04-11T07:51:21.113Z</time></trkpt><trkpt lat="43.5272724" lon="11.1869342"><ele>238.0</ele><time>2026-04-11T07:51:22.115Z</time></trkpt><trkpt lat="43.5271053" lon="11.1868117"><ele>237.66666666666666</ele><time>2026-04-11T07:51:23.113Z</time></trkpt><trkpt lat="43.526937" lon="11.1866939"><ele>237.33333333333331</ele><time>2026-04-11T07:51:24.114Z</time></trkpt><trkpt lat="43.5267855" lon="11.1865925"><ele>237.0</ele><time>2026-04-11T07:51:25.114Z</time></trkpt><trkpt lat="43.5266411" lon="11.1864921"><ele>235.25</ele><time>2026-04-11T07:51:26.113Z</time></trkpt><trkpt lat="43.5265106" lon="11.1863948"><ele>233.5</ele><time>2026-04-11T07:51:27.114Z</time></trkpt><trkpt lat="43.5263796" lon="11.1863079"><ele>231.75</ele><time>2026-04-11T07:51:28.114Z</time></trkpt><trkpt lat="43.526253" lon="11.1862284"><ele>230.0</ele><time>2026-04-11T07:51:29.115Z</time></trkpt><trkpt lat="43.5261409" lon="11.1861584"><ele>230.0</ele><time>2026-04-11T07:51:30.115Z</time></trkpt><trkpt lat="43.5260409" lon="11.1860871"><ele>230.0</ele><time>2026-04-11T07:51:31.114Z</time></trkpt><trkpt lat="43.5259224" lon="11.1860092"><ele>230.0</ele><time>2026-04-11T07:51:32.114Z</time></trkpt><trkpt lat="43.5257947" lon="11.1859229"><ele>230.0</ele><time>2026-04-11T07:51:33.113Z</time></trkpt><trkpt lat="43.5256665" lon="11.1858357"><ele>230.0</ele><time>2026-04-11T07:51:34.114Z</time></trkpt><trkpt lat="43.5255452" lon="11.1857506"><ele>230.0</ele><time>2026-04-11T07:51:35.114Z</time></trkpt><trkpt lat="43.5254259" lon="11.1856675"><ele>230.0</ele><time>2026-04-11T07:51:36.113Z</time></trkpt><trkpt lat="43.525311" lon="11.1855963"><ele>230.0</ele><time>2026-04-11T07:51:37.114Z</time></trkpt><trkpt lat="43.5251963" lon="11.1855171"><ele>227.6</ele><time>2026-04-11T07:51:38.115Z</time></trkpt><trkpt lat="43.5250899" lon="11.1854382"><ele>225.2</ele><time>2026-04-11T07:51:39.113Z</time></trkpt><trkpt lat="43.5249925" lon="11.1853705"><ele>222.8</ele><time>2026-04-11T07:51:40.114Z</time></trkpt><trkpt lat="43.5249052" lon="11.1853143"><ele>220.4</ele><time>2026-04-11T07:51:41.114Z</time></trkpt><trkpt lat="43.5248324" lon="11.1852716"><ele>218.0</ele><time>2026-04-11T07:51:42.113Z</time></trkpt><trkpt lat="43.5247306" lon="11.1852469"><ele>218.00000000000003</ele><time>2026-04-11T07:51:44.115Z</time></trkpt><trkpt lat="43.5246619" lon="11.1852187"><ele>218.0</ele><time>2026-04-11T07:51:47.114Z</time></trkpt><trkpt lat="43.5246713" lon="11.1850789"><ele>218.0</ele><time>2026-04-11T07:52:38.112Z</time></trkpt><trkpt lat="43.5246519" lon="11.184985"><ele>218.0</ele><time>2026-04-11T07:52:39.111Z</time></trkpt><trkpt lat="43.5246368" lon="11.1848862"><ele>218.00000000000003</ele><time>2026-04-11T07:52:40.112Z</time></trkpt><trkpt lat="43.5246555" lon="11.1847905"><ele>218.0</ele><time>2026-04-11T07:52:41.112Z</time></trkpt><trkpt lat="43.5246977" lon="11.18469"><ele>215.2</ele><time>2026-04-11T07:52:42.112Z</time></trkpt><trkpt lat="43.5247692" lon="11.1845922"><ele>212.4</ele><time>2026-04-11T07:52:43.112Z</time></trkpt><trkpt lat="43.5248543" lon="11.1845203"><ele>209.6</ele><time>2026-04-11T07:52:44.111Z</time></trkpt><trkpt lat="43.5249543" lon="11.184463"><ele>206.79999999999998</ele><time>2026-04-11T07:52:45.112Z</time></trkpt><trkpt lat="43.525065" lon="11.1844003"><ele>204.0</ele><time>2026-04-11T07:52:46.112Z</time></trkpt><trkpt lat="43.5251824" lon="11.1843347"><ele>204.0</ele><time>2026-04-11T07:52:47.112Z</time></trkpt><trkpt lat="43.5253111" lon="11.1842653"><ele>204.0</ele><time>2026-04-11T07:52:48.112Z</time></trkpt><trkpt lat="43.5254363" lon="11.1842195"><ele>204.0</ele><time>2026-04-11T07:52:49.111Z</time></trkpt><trkpt lat="43.5255573" lon="11.1841747"><ele>204.0</ele><time>2026-04-11T07:52:50.112Z</time></trkpt><trkpt lat="43.5256698" lon="11.1840945"><ele>203.5</ele><time>2026-04-11T07:52:51.112Z</time></trkpt><trkpt lat="43.5257694" lon="11.1839654"><ele>203.0</ele><time>2026-04-11T07:52:52.112Z</time></trkpt><trkpt lat="43.5258686" lon="11.1838098"><ele>202.5</ele><time>2026-04-11T07:52:53.112Z</time></trkpt><trkpt lat="43.5259813" lon="11.1836534"><ele>202.0</ele><time>2026-04-11T07:52:54.112Z</time></trkpt><trkpt lat="43.5260949" lon="11.1834948"><ele>202.0</ele><time>2026-04-11T07:52:55.112Z</time></trkpt><trkpt lat="43.526213" lon="11.1833587"><ele>202.0</ele><time>2026-04-11T07:52:56.112Z</time></trkpt><trkpt lat="43.5263475" lon="11.1832456"><ele>202.0</ele><time>2026-04-11T07:52:57.112Z</time></trkpt><trkpt lat="43.5264973" lon="11.183152"><ele>204.0</ele><time>2026-04-11T07:52:58.111Z</time></trkpt><trkpt lat="43.5266526" lon="11.1830726"><ele>206.0</ele><time>2026-04-11T07:52:59.112Z</time></trkpt><trkpt lat="43.5268145" lon="11.1829991"><ele>208.0</ele><time>2026-04-11T07:53:00.112Z</time></trkpt><trkpt lat="43.5269848" lon="11.1829424"><ele>210.0</ele><time>2026-04-11T07:53:01.112Z</time></trkpt><trkpt lat="43.5271595" lon="11.182897"><ele>212.0</ele><time>2026-04-11T07:53:02.112Z</time></trkpt><trkpt lat="43.5273419" lon="11.182855"><ele>214.0</ele><time>2026-04-11T07:53:03.112Z</time></trkpt><trkpt lat="43.5275313" lon="11.1828095"><ele>214.0</ele><time>2026-04-11T07:53:04.112Z</time></trkpt><trkpt lat="43.5277245" lon="11.1827643"><ele>214.0</ele><time>2026-04-11T07:53:05.111Z</time></trkpt><trkpt lat="43.5279178" lon="11.1827207"><ele>214.0</ele><time>2026-04-11T07:53:06.112Z</time></trkpt><trkpt lat="43.5281067" lon="11.1826715"><ele>217.33333333333331</ele><time>2026-04-11T07:53:07.112Z</time></trkpt><trkpt lat="43.5282931" lon="11.1826199"><ele>220.66666666666669</ele><time>2026-04-11T07:53:08.112Z</time></trkpt><trkpt lat="43.5284784" lon="11.1825641"><ele>224.0</ele><time>2026-04-11T07:53:09.112Z</time></trkpt><trkpt lat="43.5286614" lon="11.1825044"><ele>227.0</ele><time>2026-04-11T07:53:10.112Z</time></trkpt><trkpt lat="43.5288421" lon="11.1824391"><ele>230.0</ele><time>2026-04-11T07:53:11.112Z</time></trkpt><trkpt lat="43.5290211" lon="11.1823674"><ele>233.0</ele><time>2026-04-11T07:53:12.112Z</time></trkpt><trkpt lat="43.529194" lon="11.1822949"><ele>233.0</ele><time>2026-04-11T07:53:13.112Z</time></trkpt><trkpt lat="43.5293657" lon="11.1822225"><ele>233.0</ele><time>2026-04-11T07:53:14.112Z</time></trkpt><trkpt lat="43.5295346" lon="11.1821437"><ele>233.0</ele><time>2026-04-11T07:53:15.112Z</time></trkpt><trkpt lat="43.5297078" lon="11.182051"><ele>235.66666666666669</ele><time>2026-04-11T07:53:16.112Z</time></trkpt><trkpt lat="43.5298794" lon="11.1819349"><ele>238.33333333333331</ele><time>2026-04-11T07:53:17.111Z</time></trkpt><trkpt lat="43.5300562" lon="11.1818055"><ele>241.0</ele><time>2026-04-11T07:53:18.112Z</time></trkpt><trkpt lat="43.5302292" lon="11.1816687"><ele>242.33333333333331</ele><time>2026-04-11T07:53:19.112Z</time></trkpt><trkpt lat="43.5304057" lon="11.1815305"><ele>243.66666666666669</ele><time>2026-04-11T07:53:20.111Z</time></trkpt><trkpt lat="43.5305809" lon="11.1813921"><ele>245.0</ele><time>2026-04-11T07:53:21.112Z</time></trkpt><trkpt lat="43.5307607" lon="11.1812521"><ele>246.66666666666669</ele><time>2026-04-11T07:53:22.111Z</time></trkpt><trkpt lat="43.5309355" lon="11.181116"><ele>248.33333333333331</ele><time>2026-04-11T07:53:23.112Z</time></trkpt><trkpt lat="43.5311016" lon="11.180992"><ele>250.0</ele><time>2026-04-11T07:53:24.111Z</time></trkpt><trkpt lat="43.5312556" lon="11.1808923"><ele>251.75</ele><time>2026-04-11T07:53:25.111Z</time></trkpt><trkpt lat="43.5313934" lon="11.1808059"><ele>253.5</ele><time>2026-04-11T07:53:26.112Z</time></trkpt><trkpt lat="43.5314932" lon="11.1807026"><ele>255.25</ele><time>2026-04-11T07:53:27.112Z</time></trkpt><trkpt lat="43.5315674" lon="11.1805629"><ele>257.0</ele><time>2026-04-11T07:53:28.111Z</time></trkpt><trkpt lat="43.5316057" lon="11.1803945"><ele>259.25</ele><time>2026-04-11T07:53:29.112Z</time></trkpt><trkpt lat="43.5316296" lon="11.1802154"><ele>261.5</ele><time>2026-04-11T07:53:30.112Z</time></trkpt><trkpt lat="43.5316514" lon="11.1800281"><ele>263.75</ele><time>2026-04-11T07:53:31.111Z</time></trkpt><trkpt lat="43.5316701" lon="11.1798355"><ele>266.0</ele><time>2026-04-11T07:53:32.111Z</time></trkpt><trkpt lat="43.531691" lon="11.1796349"><ele>266.33333333333337</ele><time>2026-04-11T07:53:33.111Z</time></trkpt><trkpt lat="43.5317143" lon="11.179433"><ele>266.6666666666667</ele><time>2026-04-11T07:53:34.112Z</time></trkpt><trkpt lat="43.5317387" lon="11.1792209"><ele>267.0</ele><time>2026-04-11T07:53:35.111Z</time></trkpt><trkpt lat="43.5317688" lon="11.1790094"><ele>267.0</ele><time>2026-04-11T07:53:36.112Z</time></trkpt><trkpt lat="43.5318167" lon="11.1788062"><ele>267.0</ele><time>2026-04-11T07:53:37.112Z</time></trkpt><trkpt lat="43.5318873" lon="11.1786175"><ele>267.0</ele><time>2026-04-11T07:53:38.111Z</time></trkpt><trkpt lat="43.5319729" lon="11.1784361"><ele>269.6666666666667</ele><time>2026-04-11T07:53:39.112Z</time></trkpt><trkpt lat="43.5320719" lon="11.178264"><ele>272.33333333333337</ele><time>2026-04-11T07:53:40.112Z</time></trkpt><trkpt lat="43.5321897" lon="11.1781143"><ele>275.0</ele><time>2026-04-11T07:53:41.111Z</time></trkpt><trkpt lat="43.5323202" lon="11.177992"><ele>275.0</ele><time>2026-04-11T07:53:42.112Z</time></trkpt><trkpt lat="43.5324652" lon="11.1778881"><ele>275.0</ele><time>2026-04-11T07:53:43.112Z</time></trkpt><trkpt lat="43.5326243" lon="11.1778067"><ele>275.0</ele><time>2026-04-11T07:53:44.112Z</time></trkpt><trkpt lat="43.5327867" lon="11.1777275"><ele>279.33333333333337</ele><time>2026-04-11T07:53:45.111Z</time></trkpt><trkpt lat="43.532951" lon="11.1776658"><ele>283.6666666666667</ele><time>2026-04-11T07:53:46.112Z</time></trkpt><trkpt lat="43.5330975" lon="11.1776137"><ele>288.0</ele><time>2026-04-11T07:53:47.112Z</time></trkpt><trkpt lat="43.5332282" lon="11.1775676"><ele>288.0</ele><time>2026-04-11T07:53:48.111Z</time></trkpt><trkpt lat="43.5333465" lon="11.1775237"><ele>288.0</ele><time>2026-04-11T07:53:49.112Z</time></trkpt><trkpt lat="43.5334746" lon="11.1774909"><ele>288.0</ele><time>2026-04-11T07:53:50.112Z</time></trkpt><trkpt lat="43.5336074" lon="11.177452"><ele>288.0</ele><time>2026-04-11T07:53:51.111Z</time></trkpt><trkpt lat="43.5337414" lon="11.1774106"><ele>289.5</ele><time>2026-04-11T07:53:52.111Z</time></trkpt><trkpt lat="43.5338741" lon="11.1773861"><ele>291.0</ele><time>2026-04-11T07:53:53.111Z</time></trkpt><trkpt lat="43.5340089" lon="11.1773433"><ele>292.5</ele><time>2026-04-11T07:53:54.112Z</time></trkpt><trkpt lat="43.5341324" lon="11.1772632"><ele>294.0</ele><time>2026-04-11T07:53:55.111Z</time></trkpt><trkpt lat="43.5342423" lon="11.1771593"><ele>294.0</ele><time>2026-04-11T07:53:56.112Z</time></trkpt><trkpt lat="43.5343312" lon="11.1770486"><ele>294.0</ele><time>2026-04-11T07:53:57.111Z</time></trkpt><trkpt lat="43.5344266" lon="11.1769663"><ele>294.0</ele><time>2026-04-11T07:53:58.112Z</time></trkpt><trkpt lat="43.5345287" lon="11.176923"><ele>294.0</ele><time>2026-04-11T07:53:59.112Z</time></trkpt><trkpt lat="43.5346408" lon="11.176914"><ele>295.5</ele><time>2026-04-11T07:54:00.112Z</time></trkpt><trkpt lat="43.5347637" lon="11.1769183"><ele>297.0</ele><time>2026-04-11T07:54:01.112Z</time></trkpt><trkpt lat="43.5348938" lon="11.1769443"><ele>298.5</ele><time>2026-04-11T07:54:02.112Z</time></trkpt><trkpt lat="43.5350314" lon="11.1769782"><ele>300.0</ele><time>2026-04-11T07:54:03.112Z</time></trkpt><trkpt lat="43.5351774" lon="11.1770034"><ele>300.0</ele><time>2026-04-11T07:54:04.112Z</time></trkpt><trkpt lat="43.5353302" lon="11.1770113"><ele>300.0</ele><time>2026-04-11T07:54:05.112Z</time></trkpt><trkpt lat="43.5354808" lon="11.176995"><ele>300.0</ele><time>2026-04-11T07:54:06.111Z</time></trkpt><trkpt lat="43.5356384" lon="11.176956"><ele>301.6666666666667</ele><time>2026-04-11T07:54:07.111Z</time></trkpt><trkpt lat="43.5357955" lon="11.1768854"><ele>303.33333333333337</ele><time>2026-04-11T07:54:08.112Z</time></trkpt><trkpt lat="43.5359521" lon="11.1768016"><ele>305.0</ele><time>2026-04-11T07:54:09.111Z</time></trkpt><trkpt lat="43.5360987" lon="11.1766661"><ele>307.33333333333337</ele><time>2026-04-11T07:54:10.111Z</time></trkpt><trkpt lat="43.5362403" lon="11.1765099"><ele>309.6666666666667</ele><time>2026-04-11T07:54:11.111Z</time></trkpt><trkpt lat="43.5363749" lon="11.176313"><ele>312.0</ele><time>2026-04-11T07:54:12.112Z</time></trkpt><trkpt lat="43.5365177" lon="11.1761172"><ele>312.0</ele><time>2026-04-11T07:54:13.111Z</time></trkpt><trkpt lat="43.5366574" lon="11.1759347"><ele>312.0</ele><time>2026-04-11T07:54:14.112Z</time></trkpt><trkpt lat="43.5368036" lon="11.175742"><ele>312.0</ele><time>2026-04-11T07:54:15.111Z</time></trkpt><trkpt lat="43.5369348" lon="11.1755479"><ele>316.0</ele><time>2026-04-11T07:54:16.112Z</time></trkpt><trkpt lat="43.5370664" lon="11.1753456"><ele>320.0</ele><time>2026-04-11T07:54:17.112Z</time></trkpt><trkpt lat="43.5371956" lon="11.1751408"><ele>324.0</ele><time>2026-04-11T07:54:18.112Z</time></trkpt><trkpt lat="43.537322" lon="11.1749326"><ele>325.3333333333333</ele><time>2026-04-11T07:54:19.111Z</time></trkpt><trkpt lat="43.5374322" lon="11.1747288"><ele>326.66666666666663</ele><time>2026-04-11T07:54:20.112Z</time></trkpt><trkpt lat="43.5375106" lon="11.1745292"><ele>328.0</ele><time>2026-04-11T07:54:21.112Z</time></trkpt><trkpt lat="43.5375721" lon="11.1743533"><ele>328.0</ele><time>2026-04-11T07:54:22.111Z</time></trkpt><trkpt lat="43.5376325" lon="11.1742009"><ele>328.0</ele><time>2026-04-11T07:54:23.112Z</time></trkpt><trkpt lat="43.5377062" lon="11.1740767"><ele>328.0</ele><time>2026-04-11T07:54:24.112Z</time></trkpt><trkpt lat="43.5377964" lon="11.1739654"><ele>328.0</ele><time>2026-04-11T07:54:25.112Z</time></trkpt><trkpt lat="43.5378997" lon="11.1738527"><ele>329.0</ele><time>2026-04-11T07:54:26.112Z</time></trkpt><trkpt lat="43.5380178" lon="11.1737267"><ele>330.0</ele><time>2026-04-11T07:54:27.112Z</time></trkpt><trkpt lat="43.5381399" lon="11.1735932"><ele>331.0</ele><time>2026-04-11T07:54:28.112Z</time></trkpt><trkpt lat="43.5382601" lon="11.173475"><ele>331.0</ele><time>2026-04-11T07:54:29.112Z</time></trkpt><trkpt lat="43.5383784" lon="11.1733721"><ele>331.0</ele><time>2026-04-11T07:54:30.111Z</time></trkpt><trkpt lat="43.5384944" lon="11.173288"><ele>331.0</ele><time>2026-04-11T07:54:31.112Z</time></trkpt><trkpt lat="43.538608" lon="11.1732079"><ele>331.0</ele><time>2026-04-11T07:54:32.111Z</time></trkpt><trkpt lat="43.5387136" lon="11.1731339"><ele>331.5</ele><time>2026-04-11T07:54:33.112Z</time></trkpt><trkpt lat="43.5388018" lon="11.1730616"><ele>332.0</ele><time>2026-04-11T07:54:34.112Z</time></trkpt><trkpt lat="43.538876" lon="11.1729445"><ele>332.5</ele><time>2026-04-11T07:54:35.112Z</time></trkpt><trkpt lat="43.5389214" lon="11.1727904"><ele>333.0</ele><time>2026-04-11T07:54:36.112Z</time></trkpt><trkpt lat="43.5389439" lon="11.1726185"><ele>333.0</ele><time>2026-04-11T07:54:37.111Z</time></trkpt><trkpt lat="43.5389455" lon="11.1724495"><ele>333.0</ele><time>2026-04-11T07:54:38.111Z</time></trkpt><trkpt lat="43.5389727" lon="11.172297"><ele>333.0</ele><time>2026-04-11T07:54:39.111Z</time></trkpt><trkpt lat="43.5390294" lon="11.1721764"><ele>333.0</ele><time>2026-04-11T07:54:40.112Z</time></trkpt><trkpt lat="43.5391085" lon="11.1720669"><ele>333.75</ele><time>2026-04-11T07:54:41.112Z</time></trkpt><trkpt lat="43.5392081" lon="11.1719607"><ele>334.5</ele><time>2026-04-11T07:54:42.112Z</time></trkpt><trkpt lat="43.5393055" lon="11.1718487"><ele>335.25</ele><time>2026-04-11T07:54:43.111Z</time></trkpt><trkpt lat="43.5394066" lon="11.171739"><ele>336.0</ele><time>2026-04-11T07:54:44.111Z</time></trkpt><trkpt lat="43.5395064" lon="11.1716264"><ele>337.25</ele><time>2026-04-11T07:54:45.111Z</time></trkpt><trkpt lat="43.5396122" lon="11.1715255"><ele>338.5</ele><time>2026-04-11T07:54:46.111Z</time></trkpt><trkpt lat="43.5397207" lon="11.171437"><ele>339.75</ele><time>2026-04-11T07:54:47.112Z</time></trkpt><trkpt lat="43.539838" lon="11.1713598"><ele>341.0</ele><time>2026-04-11T07:54:48.112Z</time></trkpt><trkpt lat="43.5399473" lon="11.1713021"><ele>341.1666666666667</ele><time>2026-04-11T07:54:49.112Z</time></trkpt><trkpt lat="43.5400369" lon="11.1712382"><ele>341.33333333333337</ele><time>2026-04-11T07:54:50.111Z</time></trkpt><trkpt lat="43.5401144" lon="11.1711532"><ele>341.5</ele><time>2026-04-11T07:54:51.112Z</time></trkpt><trkpt lat="43.540181" lon="11.1710664"><ele>341.6666666666667</ele><time>2026-04-11T07:54:52.112Z</time></trkpt><trkpt lat="43.5402375" lon="11.1709867"><ele>341.8333333333333</ele><time>2026-04-11T07:54:53.111Z</time></trkpt><trkpt lat="43.5402843" lon="11.1709174"><ele>342.0</ele><time>2026-04-11T07:54:54.112Z</time></trkpt><trkpt lat="43.5403273" lon="11.1708331"><ele>342.0</ele><time>2026-04-11T07:54:56.111Z</time></trkpt><trkpt lat="43.5402717" lon="11.1707105"><ele>342.0</ele><time>2026-04-11T07:54:59.111Z</time></trkpt><trkpt lat="43.5402006" lon="11.1706622"><ele>342.0</ele><time>2026-04-11T07:55:00.112Z</time></trkpt><trkpt lat="43.5401025" lon="11.1706121"><ele>342.0</ele><time>2026-04-11T07:55:01.111Z</time></trkpt><trkpt lat="43.539991" lon="11.1705478"><ele>342.0</ele><time>2026-04-11T07:55:02.112Z</time></trkpt><trkpt lat="43.5398707" lon="11.1704732"><ele>341.75</ele><time>2026-04-11T07:55:03.112Z</time></trkpt><trkpt lat="43.5397415" lon="11.1703917"><ele>341.5</ele><time>2026-04-11T07:55:04.112Z</time></trkpt><trkpt lat="43.5396168" lon="11.1703017"><ele>341.25</ele><time>2026-04-11T07:55:05.112Z</time></trkpt><trkpt lat="43.5394964" lon="11.1702248"><ele>341.0</ele><time>2026-04-11T07:55:06.111Z</time></trkpt><trkpt lat="43.5393911" lon="11.1701576"><ele>339.0</ele><time>2026-04-11T07:55:07.112Z</time></trkpt><trkpt lat="43.5392783" lon="11.1700854"><ele>337.0</ele><time>2026-04-11T07:55:08.112Z</time></trkpt><trkpt lat="43.5391684" lon="11.1700179"><ele>335.0</ele><time>2026-04-11T07:55:09.112Z</time></trkpt><trkpt lat="43.5390465" lon="11.1699448"><ele>333.0</ele><time>2026-04-11T07:55:10.112Z</time></trkpt><trkpt lat="43.5389168" lon="11.1698656"><ele>332.6666666666667</ele><time>2026-04-11T07:55:11.111Z</time></trkpt><trkpt lat="43.5387726" lon="11.1698106"><ele>332.33333333333337</ele><time>2026-04-11T07:55:12.112Z</time></trkpt><trkpt lat="43.5386202" lon="11.1697595"><ele>332.0</ele><time>2026-04-11T07:55:13.112Z</time></trkpt><trkpt lat="43.5384674" lon="11.1697075"><ele>331.25</ele><time>2026-04-11T07:55:14.112Z</time></trkpt><trkpt lat="43.5383215" lon="11.1696535"><ele>330.5</ele><time>2026-04-11T07:55:15.111Z</time></trkpt><trkpt lat="43.5381797" lon="11.1696024"><ele>329.75</ele><time>2026-04-11T07:55:16.112Z</time></trkpt><trkpt lat="43.5380422" lon="11.1695476"><ele>329.0</ele><time>2026-04-11T07:55:17.111Z</time></trkpt><trkpt lat="43.5379075" lon="11.1694817"><ele>326.0</ele><time>2026-04-11T07:55:18.111Z</time></trkpt><trkpt lat="43.5377736" lon="11.1693936"><ele>323.0</ele><time>2026-04-11T07:55:19.112Z</time></trkpt><trkpt lat="43.5376265" lon="11.1692841"><ele>320.0</ele><time>2026-04-11T07:55:20.112Z</time></trkpt><trkpt lat="43.5374774" lon="11.1691767"><ele>320.0</ele><time>2026-04-11T07:55:21.112Z</time></trkpt><trkpt lat="43.5373382" lon="11.1690762"><ele>320.0</ele><time>2026-04-11T07:55:22.111Z</time></trkpt><trkpt lat="43.5372041" lon="11.16898"><ele>320.0</ele><time>2026-04-11T07:55:23.112Z</time></trkpt><trkpt lat="43.5370753" lon="11.1688849"><ele>320.0</ele><time>2026-04-11T07:55:24.112Z</time></trkpt><trkpt lat="43.5369511" lon="11.1688002"><ele>320.0</ele><time>2026-04-11T07:55:25.111Z</time></trkpt><trkpt lat="43.5368249" lon="11.1687257"><ele>320.0</ele><time>2026-04-11T07:55:26.112Z</time></trkpt><trkpt lat="43.5366888" lon="11.1686746"><ele>320.0</ele><time>2026-04-11T07:55:27.111Z</time></trkpt><trkpt lat="43.5365522" lon="11.1686437"><ele>320.0</ele><time>2026-04-11T07:55:28.112Z</time></trkpt><trkpt lat="43.536421" lon="11.1686207"><ele>320.0</ele><time>2026-04-11T07:55:29.112Z</time></trkpt><trkpt lat="43.5362797" lon="11.1685979"><ele>320.0</ele><time>2026-04-11T07:55:30.112Z</time></trkpt><trkpt lat="43.5361386" lon="11.1685668"><ele>320.0</ele><time>2026-04-11T07:55:31.112Z</time></trkpt><trkpt lat="43.5359939" lon="11.1685173"><ele>320.5</ele><time>2026-04-11T07:55:32.112Z</time></trkpt><trkpt lat="43.5358671" lon="11.1684509"><ele>321.0</ele><time>2026-04-11T07:55:33.111Z</time></trkpt><trkpt lat="43.535749" lon="11.1683581"><ele>321.5</ele><time>2026-04-11T07:55:34.111Z</time></trkpt><trkpt lat="43.5356348" lon="11.1682592"><ele>322.0</ele><time>2026-04-11T07:55:35.112Z</time></trkpt><trkpt lat="43.5355218" lon="11.16819"><ele>322.0</ele><time>2026-04-11T07:55:36.112Z</time></trkpt><trkpt lat="43.5354064" lon="11.1681381"><ele>322.0</ele><time>2026-04-11T07:55:37.112Z</time></trkpt><trkpt lat="43.5352821" lon="11.1681189"><ele>322.0</ele><time>2026-04-11T07:55:38.112Z</time></trkpt><trkpt lat="43.5351628" lon="11.16813"><ele>322.0</ele><time>2026-04-11T07:55:39.112Z</time></trkpt><trkpt lat="43.535038" lon="11.1681643"><ele>322.0</ele><time>2026-04-11T07:55:40.112Z</time></trkpt><trkpt lat="43.5349077" lon="11.1681861"><ele>322.0</ele><time>2026-04-11T07:55:41.112Z</time></trkpt><trkpt lat="43.5347539" lon="11.1681888"><ele>322.0</ele><time>2026-04-11T07:55:42.112Z</time></trkpt><trkpt lat="43.5345856" lon="11.1681666"><ele>320.3333333333333</ele><time>2026-04-11T07:55:43.112Z</time></trkpt><trkpt lat="43.5344125" lon="11.1680981"><ele>318.6666666666667</ele><time>2026-04-11T07:55:44.112Z</time></trkpt><trkpt lat="43.5342428" lon="11.1680245"><ele>317.0</ele><time>2026-04-11T07:55:45.112Z</time></trkpt><trkpt lat="43.5340585" lon="11.1679643"><ele>317.0</ele><time>2026-04-11T07:55:46.111Z</time></trkpt><trkpt lat="43.5338647" lon="11.1678836"><ele>317.0</ele><time>2026-04-11T07:55:47.111Z</time></trkpt><trkpt lat="43.533676" lon="11.1677994"><ele>317.0</ele><time>2026-04-11T07:55:48.112Z</time></trkpt><trkpt lat="43.5335025" lon="11.167747"><ele>315.0</ele><time>2026-04-11T07:55:49.112Z</time></trkpt><trkpt lat="43.5333286" lon="11.1677192"><ele>313.0</ele><time>2026-04-11T07:55:50.111Z</time></trkpt><trkpt lat="43.5331586" lon="11.1677411"><ele>311.0</ele><time>2026-04-11T07:55:51.111Z</time></trkpt><trkpt lat="43.5329923" lon="11.1678168"><ele>309.6666666666667</ele><time>2026-04-11T07:55:52.112Z</time></trkpt><trkpt lat="43.5328244" lon="11.1679143"><ele>308.3333333333333</ele><time>2026-04-11T07:55:53.112Z</time></trkpt><trkpt lat="43.532646" lon="11.1679846"><ele>307.0</ele><time>2026-04-11T07:55:54.112Z</time></trkpt><trkpt lat="43.5324528" lon="11.1680163"><ele>307.0</ele><time>2026-04-11T07:55:55.111Z</time></trkpt><trkpt lat="43.532254" lon="11.1680404"><ele>307.0</ele><time>2026-04-11T07:55:56.111Z</time></trkpt><trkpt lat="43.5320566" lon="11.1681096"><ele>307.0</ele><time>2026-04-11T07:55:57.112Z</time></trkpt><trkpt lat="43.5318651" lon="11.1682201"><ele>305.3333333333333</ele><time>2026-04-11T07:55:58.111Z</time></trkpt><trkpt lat="43.5316843" lon="11.1683413"><ele>303.6666666666667</ele><time>2026-04-11T07:55:59.112Z</time></trkpt><trkpt lat="43.5315003" lon="11.1684626"><ele>302.0</ele><time>2026-04-11T07:56:00.112Z</time></trkpt><trkpt lat="43.5313031" lon="11.1685639"><ele>300.33333333333337</ele><time>2026-04-11T07:56:01.112Z</time></trkpt><trkpt lat="43.5310925" lon="11.1686413"><ele>298.6666666666667</ele><time>2026-04-11T07:56:02.111Z</time></trkpt><trkpt lat="43.5308776" lon="11.1686962"><ele>297.0</ele><time>2026-04-11T07:56:03.111Z</time></trkpt><trkpt lat="43.5306572" lon="11.1687449"><ele>297.0</ele><time>2026-04-11T07:56:04.111Z</time></trkpt><trkpt lat="43.5304324" lon="11.1687936"><ele>297.0</ele><time>2026-04-11T07:56:05.111Z</time></trkpt><trkpt lat="43.5302076" lon="11.1688647"><ele>295.0</ele><time>2026-04-11T07:56:06.111Z</time></trkpt><trkpt lat="43.5299969" lon="11.1689556"><ele>293.0</ele><time>2026-04-11T07:56:07.112Z</time></trkpt><trkpt lat="43.529797" lon="11.1690374"><ele>291.0</ele><time>2026-04-11T07:56:08.112Z</time></trkpt><trkpt lat="43.5296051" lon="11.1691169"><ele>292.3333333333333</ele><time>2026-04-11T07:56:09.112Z</time></trkpt><trkpt lat="43.5294222" lon="11.1691905"><ele>293.66666666666663</ele><time>2026-04-11T07:56:10.112Z</time></trkpt><trkpt lat="43.5292596" lon="11.1692507"><ele>295.0</ele><time>2026-04-11T07:56:11.112Z</time></trkpt><trkpt lat="43.5291153" lon="11.1693048"><ele>295.0</ele><time>2026-04-11T07:56:12.112Z</time></trkpt><trkpt lat="43.5289942" lon="11.1693815"><ele>295.0</ele><time>2026-04-11T07:56:13.111Z</time></trkpt><trkpt lat="43.5288982" lon="11.1695073"><ele>295.0</ele><time>2026-04-11T07:56:14.111Z</time></trkpt><trkpt lat="43.5288215" lon="11.1696641"><ele>295.0</ele><time>2026-04-11T07:56:15.112Z</time></trkpt><trkpt lat="43.5287757" lon="11.1698531"><ele>296.0</ele><time>2026-04-11T07:56:16.112Z</time></trkpt><trkpt lat="43.5287525" lon="11.1700391"><ele>297.0</ele><time>2026-04-11T07:56:17.111Z</time></trkpt><trkpt lat="43.5287331" lon="11.1702203"><ele>298.0</ele><time>2026-04-11T07:56:18.111Z</time></trkpt><trkpt lat="43.5287103" lon="11.1704014"><ele>299.0</ele><time>2026-04-11T07:56:19.112Z</time></trkpt><trkpt lat="43.528667" lon="11.1705687"><ele>297.0</ele><time>2026-04-11T07:56:20.111Z</time></trkpt><trkpt lat="43.5285978" lon="11.1707358"><ele>295.0</ele><time>2026-04-11T07:56:21.112Z</time></trkpt><trkpt lat="43.5285319" lon="11.1708941"><ele>293.0</ele><time>2026-04-11T07:56:22.112Z</time></trkpt><trkpt lat="43.5284627" lon="11.1710388"><ele>291.0</ele><time>2026-04-11T07:56:23.111Z</time></trkpt><trkpt lat="43.5283756" lon="11.1711703"><ele>291.0</ele><time>2026-04-11T07:56:24.112Z</time></trkpt><trkpt lat="43.5282739" lon="11.1712801"><ele>291.0</ele><time>2026-04-11T07:56:25.111Z</time></trkpt><trkpt lat="43.5281637" lon="11.171358"><ele>291.0</ele><time>2026-04-11T07:56:26.111Z</time></trkpt><trkpt lat="43.5280476" lon="11.1713972"><ele>291.0</ele><time>2026-04-11T07:56:27.112Z</time></trkpt><trkpt lat="43.5279194" lon="11.1713887"><ele>290.25</ele><time>2026-04-11T07:56:28.111Z</time></trkpt><trkpt lat="43.5277882" lon="11.1713567"><ele>289.5</ele><time>2026-04-11T07:56:29.112Z</time></trkpt><trkpt lat="43.5276516" lon="11.1713238"><ele>288.75</ele><time>2026-04-11T07:56:30.112Z</time></trkpt><trkpt lat="43.5275065" lon="11.1712896"><ele>288.0</ele><time>2026-04-11T07:56:31.111Z</time></trkpt><trkpt lat="43.5273717" lon="11.1712598"><ele>288.0</ele><time>2026-04-11T07:56:32.111Z</time></trkpt><trkpt lat="43.5272352" lon="11.1712313"><ele>288.0</ele><time>2026-04-11T07:56:33.112Z</time></trkpt><trkpt lat="43.5270912" lon="11.1712013"><ele>288.0</ele><time>2026-04-11T07:56:34.112Z</time></trkpt><trkpt lat="43.52694" lon="11.1711851"><ele>288.0</ele><time>2026-04-11T07:56:35.112Z</time></trkpt><trkpt lat="43.5267959" lon="11.1711922"><ele>286.0</ele><time>2026-04-11T07:56:36.112Z</time></trkpt><trkpt lat="43.526657" lon="11.1712297"><ele>284.0</ele><time>2026-04-11T07:56:37.111Z</time></trkpt><trkpt lat="43.5265327" lon="11.1712664"><ele>282.0</ele><time>2026-04-11T07:56:38.112Z</time></trkpt><trkpt lat="43.5264035" lon="11.1713179"><ele>280.0</ele><time>2026-04-11T07:56:39.112Z</time></trkpt><trkpt lat="43.5262698" lon="11.1713919"><ele>278.5</ele><time>2026-04-11T07:56:40.111Z</time></trkpt><trkpt lat="43.5261417" lon="11.1714834"><ele>277.0</ele><time>2026-04-11T07:56:41.111Z</time></trkpt><trkpt lat="43.5260151" lon="11.1715836"><ele>275.5</ele><time>2026-04-11T07:56:42.112Z</time></trkpt><trkpt lat="43.5258954" lon="11.1717"><ele>274.0</ele><time>2026-04-11T07:56:43.112Z</time></trkpt><trkpt lat="43.5257825" lon="11.1718198"><ele>274.0</ele><time>2026-04-11T07:56:44.112Z</time></trkpt><trkpt lat="43.5256709" lon="11.1719372"><ele>274.0</ele><time>2026-04-11T07:56:45.112Z</time></trkpt><trkpt lat="43.5255548" lon="11.1720434"><ele>274.0</ele><time>2026-04-11T07:56:46.111Z</time></trkpt><trkpt lat="43.5254395" lon="11.1721406"><ele>274.0</ele><time>2026-04-11T07:56:47.112Z</time></trkpt><trkpt lat="43.5253197" lon="11.1722206"><ele>273.0</ele><time>2026-04-11T07:56:48.112Z</time></trkpt><trkpt lat="43.5251953" lon="11.1722805"><ele>272.0</ele><time>2026-04-11T07:56:49.112Z</time></trkpt><trkpt lat="43.5250609" lon="11.1723164"><ele>271.0</ele><time>2026-04-11T07:56:50.112Z</time></trkpt><trkpt lat="43.5249189" lon="11.1723454"><ele>270.0</ele><time>2026-04-11T07:56:51.112Z</time></trkpt><trkpt lat="43.5247773" lon="11.1723614"><ele>270.0</ele><time>2026-04-11T07:56:52.112Z</time></trkpt><trkpt lat="43.524628" lon="11.1723924"><ele>270.0</ele><time>2026-04-11T07:56:53.111Z</time></trkpt><trkpt lat="43.5244592" lon="11.1724164"><ele>270.0</ele><time>2026-04-11T07:56:54.111Z</time></trkpt><trkpt lat="43.5242749" lon="11.1724204"><ele>269.3333333333333</ele><time>2026-04-11T07:56:55.111Z</time></trkpt><trkpt lat="43.5240849" lon="11.1724024"><ele>268.66666666666663</ele><time>2026-04-11T07:56:56.111Z</time></trkpt><trkpt lat="43.5238886" lon="11.1723653"><ele>268.0</ele><time>2026-04-11T07:56:57.112Z</time></trkpt><trkpt lat="43.5237129" lon="11.172295"><ele>266.3333333333333</ele><time>2026-04-11T07:56:58.112Z</time></trkpt><trkpt lat="43.523552" lon="11.1722079"><ele>264.6666666666667</ele><time>2026-04-11T07:56:59.112Z</time></trkpt><trkpt lat="43.5234257" lon="11.1720841"><ele>263.0</ele><time>2026-04-11T07:57:00.112Z</time></trkpt><trkpt lat="43.5233175" lon="11.1719084"><ele>263.0</ele><time>2026-04-11T07:57:01.112Z</time></trkpt><trkpt lat="43.5232308" lon="11.1717171"><ele>263.0</ele><time>2026-04-11T07:57:02.112Z</time></trkpt><trkpt lat="43.5231378" lon="11.1715278"><ele>263.0</ele><time>2026-04-11T07:57:03.112Z</time></trkpt><trkpt lat="43.5230268" lon="11.1713586"><ele>260.0</ele><time>2026-04-11T07:57:04.112Z</time></trkpt><trkpt lat="43.5228938" lon="11.1712202"><ele>257.0</ele><time>2026-04-11T07:57:05.111Z</time></trkpt><trkpt lat="43.522753" lon="11.1711345"><ele>254.0</ele><time>2026-04-11T07:57:06.112Z</time></trkpt><trkpt lat="43.5226078" lon="11.1710935"><ele>254.0</ele><time>2026-04-11T07:57:07.112Z</time></trkpt><trkpt lat="43.5224618" lon="11.1711088"><ele>254.0</ele><time>2026-04-11T07:57:08.112Z</time></trkpt><trkpt lat="43.5223252" lon="11.1711233"><ele>254.0</ele><time>2026-04-11T07:57:09.112Z</time></trkpt><trkpt lat="43.5221891" lon="11.1711011"><ele>254.0</ele><time>2026-04-11T07:57:10.112Z</time></trkpt><trkpt lat="43.5220493" lon="11.1710291"><ele>255.66666666666669</ele><time>2026-04-11T07:57:11.112Z</time></trkpt><trkpt lat="43.5218968" lon="11.1709328"><ele>257.3333333333333</ele><time>2026-04-11T07:57:12.111Z</time></trkpt><trkpt lat="43.5217419" lon="11.1708309"><ele>259.0</ele><time>2026-04-11T07:57:13.112Z</time></trkpt><trkpt lat="43.5216072" lon="11.1707038"><ele>256.25</ele><time>2026-04-11T07:57:14.112Z</time></trkpt><trkpt lat="43.5214918" lon="11.1705539"><ele>253.5</ele><time>2026-04-11T07:57:15.112Z</time></trkpt><trkpt lat="43.5214093" lon="11.1703909"><ele>250.75</ele><time>2026-04-11T07:57:16.111Z</time></trkpt><trkpt lat="43.5213632" lon="11.1702054"><ele>248.0</ele><time>2026-04-11T07:57:17.112Z</time></trkpt><trkpt lat="43.5213555" lon="11.1700091"><ele>249.0</ele><time>2026-04-11T07:57:18.111Z</time></trkpt><trkpt lat="43.5213297" lon="11.1698133"><ele>250.0</ele><time>2026-04-11T07:57:19.111Z</time></trkpt><trkpt lat="43.5212763" lon="11.1696245"><ele>251.0</ele><time>2026-04-11T07:57:20.112Z</time></trkpt><trkpt lat="43.521184" lon="11.1694521"><ele>252.0</ele><time>2026-04-11T07:57:21.112Z</time></trkpt><trkpt lat="43.5210596" lon="11.1692889"><ele>252.0</ele><time>2026-04-11T07:57:22.112Z</time></trkpt><trkpt lat="43.5209221" lon="11.1691401"><ele>252.0</ele><time>2026-04-11T07:57:23.112Z</time></trkpt><trkpt lat="43.5207757" lon="11.1689686"><ele>252.0</ele><time>2026-04-11T07:57:24.112Z</time></trkpt><trkpt lat="43.5206341" lon="11.1687784"><ele>251.0</ele><time>2026-04-11T07:57:25.112Z</time></trkpt><trkpt lat="43.5204887" lon="11.1685802"><ele>250.0</ele><time>2026-04-11T07:57:26.112Z</time></trkpt><trkpt lat="43.5203502" lon="11.1683676"><ele>249.0</ele><time>2026-04-11T07:57:27.112Z</time></trkpt><trkpt lat="43.5202282" lon="11.1681558"><ele>245.33333333333331</ele><time>2026-04-11T07:57:28.112Z</time></trkpt><trkpt lat="43.5201237" lon="11.1679234"><ele>241.66666666666666</ele><time>2026-04-11T07:57:29.111Z</time></trkpt><trkpt lat="43.5200519" lon="11.1676974"><ele>238.0</ele><time>2026-04-11T07:57:30.111Z</time></trkpt><trkpt lat="43.5199853" lon="11.167469"><ele>235.66666666666666</ele><time>2026-04-11T07:57:31.112Z</time></trkpt><trkpt lat="43.5199026" lon="11.1672526"><ele>233.33333333333331</ele><time>2026-04-11T07:57:32.112Z</time></trkpt><trkpt lat="43.5198031" lon="11.1670584"><ele>231.0</ele><time>2026-04-11T07:57:33.112Z</time></trkpt><trkpt lat="43.519686" lon="11.1668783"><ele>232.0</ele><time>2026-04-11T07:57:34.111Z</time></trkpt><trkpt lat="43.5195431" lon="11.1667351"><ele>233.0</ele><time>2026-04-11T07:57:35.111Z</time></trkpt><trkpt lat="43.5193733" lon="11.1666284"><ele>234.0</ele><time>2026-04-11T07:57:36.111Z</time></trkpt><trkpt lat="43.5191923" lon="11.1665544"><ele>232.0</ele><time>2026-04-11T07:57:37.112Z</time></trkpt><trkpt lat="43.5190131" lon="11.166503"><ele>230.0</ele><time>2026-04-11T07:57:38.111Z</time></trkpt><trkpt lat="43.5188479" lon="11.1664383"><ele>228.0</ele><time>2026-04-11T07:57:39.112Z</time></trkpt><trkpt lat="43.5187009" lon="11.1663485"><ele>228.0</ele><time>2026-04-11T07:57:40.111Z</time></trkpt><trkpt lat="43.5185591" lon="11.1662075"><ele>228.0</ele><time>2026-04-11T07:57:41.112Z</time></trkpt><trkpt lat="43.5184167" lon="11.1660362"><ele>228.0</ele><time>2026-04-11T07:57:42.111Z</time></trkpt><trkpt lat="43.5182612" lon="11.1658722"><ele>228.0</ele><time>2026-04-11T07:57:43.111Z</time></trkpt><trkpt lat="43.5181077" lon="11.1657132"><ele>228.0</ele><time>2026-04-11T07:57:44.112Z</time></trkpt><trkpt lat="43.5179664" lon="11.1655645"><ele>228.0</ele><time>2026-04-11T07:57:45.111Z</time></trkpt><trkpt lat="43.5178289" lon="11.1654392"><ele>225.33333333333331</ele><time>2026-04-11T07:57:46.112Z</time></trkpt><trkpt lat="43.5176868" lon="11.1653506"><ele>222.66666666666666</ele><time>2026-04-11T07:57:47.112Z</time></trkpt><trkpt lat="43.5175287" lon="11.1653057"><ele>220.0</ele><time>2026-04-11T07:57:48.112Z</time></trkpt><trkpt lat="43.51736" lon="11.1652962"><ele>220.0</ele><time>2026-04-11T07:57:49.112Z</time></trkpt><trkpt lat="43.517177" lon="11.1653133"><ele>220.0</ele><time>2026-04-11T07:57:50.112Z</time></trkpt><trkpt lat="43.516981" lon="11.1653453"><ele>220.0</ele><time>2026-04-11T07:57:51.112Z</time></trkpt><trkpt lat="43.5167802" lon="11.1653884"><ele>219.0</ele><time>2026-04-11T07:57:52.111Z</time></trkpt><trkpt lat="43.5165849" lon="11.1654295"><ele>218.0</ele><time>2026-04-11T07:57:53.111Z</time></trkpt><trkpt lat="43.5163981" lon="11.1654439"><ele>217.0</ele><time>2026-04-11T07:57:54.112Z</time></trkpt><trkpt lat="43.5162074" lon="11.1654277"><ele>215.33333333333331</ele><time>2026-04-11T07:57:55.111Z</time></trkpt><trkpt lat="43.5160155" lon="11.1653785"><ele>213.66666666666669</ele><time>2026-04-11T07:57:56.111Z</time></trkpt><trkpt lat="43.5158171" lon="11.1652772"><ele>212.0</ele><time>2026-04-11T07:57:57.112Z</time></trkpt><trkpt lat="43.5156135" lon="11.165171"><ele>210.5</ele><time>2026-04-11T07:57:58.112Z</time></trkpt><trkpt lat="43.5154017" lon="11.1650565"><ele>209.0</ele><time>2026-04-11T07:57:59.112Z</time></trkpt><trkpt lat="43.5151938" lon="11.1649287"><ele>202.5</ele><time>2026-04-11T07:58:00.112Z</time></trkpt><trkpt lat="43.5149776" lon="11.1648037"><ele>196.0</ele><time>2026-04-11T07:58:01.112Z</time></trkpt><trkpt lat="43.5147522" lon="11.1646777"><ele>199.0</ele><time>2026-04-11T07:58:02.111Z</time></trkpt><trkpt lat="43.5145228" lon="11.1645427"><ele>202.0</ele><time>2026-04-11T07:58:03.112Z</time></trkpt><trkpt lat="43.5142877" lon="11.164424"><ele>202.0</ele><time>2026-04-11T07:58:04.111Z</time></trkpt><trkpt lat="43.5140543" lon="11.164296"><ele>202.0</ele><time>2026-04-11T07:58:05.112Z</time></trkpt><trkpt lat="43.5138285" lon="11.1641719"><ele>199.5</ele><time>2026-04-11T07:58:06.111Z</time></trkpt><trkpt lat="43.5136155" lon="11.1640413"><ele>197.0</ele><time>2026-04-11T07:58:07.112Z</time></trkpt><trkpt lat="43.5134058" lon="11.163901"><ele>196.5</ele><time>2026-04-11T07:58:08.111Z</time></trkpt><trkpt lat="43.5131998" lon="11.163749"><ele>196.0</ele><time>2026-04-11T07:58:09.112Z</time></trkpt><trkpt lat="43.5129938" lon="11.1635944"><ele>197.5</ele><time>2026-04-11T07:58:10.111Z</time></trkpt><trkpt lat="43.5127888" lon="11.1634319"><ele>199.0</ele><time>2026-04-11T07:58:11.112Z</time></trkpt><trkpt lat="43.5125905" lon="11.1632597"><ele>199.0</ele><time>2026-04-11T07:58:12.112Z</time></trkpt><trkpt lat="43.5123983" lon="11.1630771"><ele>199.0</ele><time>2026-04-11T07:58:13.112Z</time></trkpt><trkpt lat="43.5122111" lon="11.1628926"><ele>199.5</ele><time>2026-04-11T07:58:14.112Z</time></trkpt><trkpt lat="43.5120191" lon="11.1627134"><ele>200.0</ele><time>2026-04-11T07:58:15.111Z</time></trkpt><trkpt lat="43.5118303" lon="11.1625319"><ele>200.0</ele><time>2026-04-11T07:58:16.112Z</time></trkpt><trkpt lat="43.5116404" lon="11.1623606"><ele>200.0</ele><time>2026-04-11T07:58:17.111Z</time></trkpt><trkpt lat="43.5114714" lon="11.1621936"><ele>200.0</ele><time>2026-04-11T07:58:18.111Z</time></trkpt><trkpt lat="43.5113048" lon="11.1620304"><ele>201.0</ele><time>2026-04-11T07:58:19.112Z</time></trkpt><trkpt lat="43.5111264" lon="11.1618856"><ele>202.0</ele><time>2026-04-11T07:58:20.112Z</time></trkpt><trkpt lat="43.5109393" lon="11.1617554"><ele>203.0</ele><time>2026-04-11T07:58:21.112Z</time></trkpt><trkpt lat="43.5107507" lon="11.1616334"><ele>203.66666666666669</ele><time>2026-04-11T07:58:22.112Z</time></trkpt><trkpt lat="43.5105507" lon="11.16151"><ele>204.33333333333331</ele><time>2026-04-11T07:58:23.111Z</time></trkpt><trkpt lat="43.510346" lon="11.1613863"><ele>205.0</ele><time>2026-04-11T07:58:24.111Z</time></trkpt><trkpt lat="43.5101425" lon="11.1612606"><ele>205.0</ele><time>2026-04-11T07:58:25.112Z</time></trkpt><trkpt lat="43.5099403" lon="11.161135"><ele>205.0</ele><time>2026-04-11T07:58:26.111Z</time></trkpt><trkpt lat="43.509729" lon="11.1610163"><ele>208.5</ele><time>2026-04-11T07:58:27.112Z</time></trkpt><trkpt lat="43.5095184" lon="11.1609033"><ele>212.0</ele><time>2026-04-11T07:58:28.112Z</time></trkpt><trkpt lat="43.509295" lon="11.1607997"><ele>212.0</ele><time>2026-04-11T07:58:29.111Z</time></trkpt><trkpt lat="43.5090801" lon="11.1607043"><ele>212.0</ele><time>2026-04-11T07:58:30.112Z</time></trkpt><trkpt lat="43.5088684" lon="11.1605871"><ele>212.0</ele><time>2026-04-11T07:58:31.112Z</time></trkpt><trkpt lat="43.5086576" lon="11.1604619"><ele>212.0</ele><time>2026-04-11T07:58:32.112Z</time></trkpt><trkpt lat="43.5084492" lon="11.1603291"><ele>212.0</ele><time>2026-04-11T07:58:33.111Z</time></trkpt><trkpt lat="43.5082405" lon="11.160173"><ele>212.0</ele><time>2026-04-11T07:58:34.112Z</time></trkpt><trkpt lat="43.5080397" lon="11.1600126"><ele>212.5</ele><time>2026-04-11T07:58:35.111Z</time></trkpt><trkpt lat="43.5078398" lon="11.1598589"><ele>213.0</ele><time>2026-04-11T07:58:36.112Z</time></trkpt><trkpt lat="43.5076329" lon="11.1597077"><ele>213.0</ele><time>2026-04-11T07:58:37.112Z</time></trkpt><trkpt lat="43.5074271" lon="11.1595642"><ele>213.0</ele><time>2026-04-11T07:58:38.111Z</time></trkpt><trkpt lat="43.5072275" lon="11.1594373"><ele>215.66666666666669</ele><time>2026-04-11T07:58:39.112Z</time></trkpt><trkpt lat="43.5070357" lon="11.1593343"><ele>218.33333333333334</ele><time>2026-04-11T07:58:40.112Z</time></trkpt><trkpt lat="43.5068477" lon="11.1592647"><ele>221.0</ele><time>2026-04-11T07:58:41.112Z</time></trkpt><trkpt lat="43.5066654" lon="11.1592172"><ele>221.0</ele><time>2026-04-11T07:58:42.111Z</time></trkpt><trkpt lat="43.5064873" lon="11.1591954"><ele>221.0</ele><time>2026-04-11T07:58:43.112Z</time></trkpt><trkpt lat="43.5063142" lon="11.1591747"><ele>221.0</ele><time>2026-04-11T07:58:44.111Z</time></trkpt><trkpt lat="43.5061375" lon="11.1591527"><ele>223.33333333333334</ele><time>2026-04-11T07:58:45.112Z</time></trkpt><trkpt lat="43.5059759" lon="11.1591235"><ele>225.66666666666669</ele><time>2026-04-11T07:58:46.111Z</time></trkpt><trkpt lat="43.5058281" lon="11.1590875"><ele>228.0</ele><time>2026-04-11T07:58:47.112Z</time></trkpt><trkpt lat="43.5056704" lon="11.1590352"><ele>226.66666666666669</ele><time>2026-04-11T07:58:48.112Z</time></trkpt><trkpt lat="43.5055185" lon="11.1589597"><ele>225.33333333333334</ele><time>2026-04-11T07:58:49.112Z</time></trkpt><trkpt lat="43.5053654" lon="11.1588619"><ele>224.0</ele><time>2026-04-11T07:58:50.111Z</time></trkpt><trkpt lat="43.5052187" lon="11.1587394"><ele>224.0</ele><time>2026-04-11T07:58:51.112Z</time></trkpt><trkpt lat="43.5050795" lon="11.1585877"><ele>224.0</ele><time>2026-04-11T07:58:52.111Z</time></trkpt><trkpt lat="43.5049526" lon="11.1584268"><ele>224.0</ele><time>2026-04-11T07:58:53.112Z</time></trkpt><trkpt lat="43.5048372" lon="11.1582656"><ele>223.33333333333334</ele><time>2026-04-11T07:58:54.111Z</time></trkpt><trkpt lat="43.5047219" lon="11.1581118"><ele>222.66666666666669</ele><time>2026-04-11T07:58:55.112Z</time></trkpt><trkpt lat="43.5046061" lon="11.1579526"><ele>222.0</ele><time>2026-04-11T07:58:56.112Z</time></trkpt><trkpt lat="43.5044775" lon="11.1578001"><ele>222.0</ele><time>2026-04-11T07:58:57.112Z</time></trkpt><trkpt lat="43.5043437" lon="11.1576544"><ele>222.0</ele><time>2026-04-11T07:58:58.112Z</time></trkpt><trkpt lat="43.5041962" lon="11.1574986"><ele>222.0</ele><time>2026-04-11T07:58:59.112Z</time></trkpt><trkpt lat="43.5040457" lon="11.1573425"><ele>222.33333333333331</ele><time>2026-04-11T07:59:00.112Z</time></trkpt><trkpt lat="43.503899" lon="11.1571935"><ele>222.66666666666666</ele><time>2026-04-11T07:59:01.112Z</time></trkpt><trkpt lat="43.5037648" lon="11.1570624"><ele>223.0</ele><time>2026-04-11T07:59:02.112Z</time></trkpt><trkpt lat="43.5036398" lon="11.1569445"><ele>223.0</ele><time>2026-04-11T07:59:03.111Z</time></trkpt><trkpt lat="43.5035164" lon="11.15683"><ele>223.0</ele><time>2026-04-11T07:59:04.112Z</time></trkpt><trkpt lat="43.5033931" lon="11.1567209"><ele>223.0</ele><time>2026-04-11T07:59:05.111Z</time></trkpt><trkpt lat="43.503257" lon="11.156608"><ele>221.66666666666666</ele><time>2026-04-11T07:59:06.111Z</time></trkpt><trkpt lat="43.5031112" lon="11.1564844"><ele>220.33333333333331</ele><time>2026-04-11T07:59:07.111Z</time></trkpt><trkpt lat="43.5029589" lon="11.156365"><ele>219.0</ele><time>2026-04-11T07:59:08.111Z</time></trkpt><trkpt lat="43.5028101" lon="11.1562536"><ele>219.0</ele><time>2026-04-11T07:59:09.112Z</time></trkpt><trkpt lat="43.5026636" lon="11.1561592"><ele>219.0</ele><time>2026-04-11T07:59:10.112Z</time></trkpt><trkpt lat="43.5025194" lon="11.1560592"><ele>219.0</ele><time>2026-04-11T07:59:11.112Z</time></trkpt><trkpt lat="43.5023865" lon="11.1559544"><ele>219.0</ele><time>2026-04-11T07:59:12.111Z</time></trkpt><trkpt lat="43.5022482" lon="11.15583"><ele>219.0</ele><time>2026-04-11T07:59:13.111Z</time></trkpt><trkpt lat="43.5020923" lon="11.1556919"><ele>219.0</ele><time>2026-04-11T07:59:14.112Z</time></trkpt><trkpt lat="43.5019331" lon="11.1555404"><ele>220.0</ele><time>2026-04-11T07:59:15.111Z</time></trkpt><trkpt lat="43.5017851" lon="11.1553722"><ele>221.0</ele><time>2026-04-11T07:59:16.112Z</time></trkpt><trkpt lat="43.50165" lon="11.1552018"><ele>222.0</ele><time>2026-04-11T07:59:17.111Z</time></trkpt><trkpt lat="43.5015326" lon="11.1550224"><ele>222.66666666666669</ele><time>2026-04-11T07:59:18.112Z</time></trkpt><trkpt lat="43.5014065" lon="11.154855"><ele>223.33333333333334</ele><time>2026-04-11T07:59:19.112Z</time></trkpt><trkpt lat="43.5012678" lon="11.1546999"><ele>224.0</ele><time>2026-04-11T07:59:20.112Z</time></trkpt><trkpt lat="43.5011331" lon="11.1545733"><ele>224.0</ele><time>2026-04-11T07:59:21.111Z</time></trkpt><trkpt lat="43.5009902" lon="11.1544763"><ele>224.0</ele><time>2026-04-11T07:59:22.111Z</time></trkpt><trkpt lat="43.5008284" lon="11.1544179"><ele>224.0</ele><time>2026-04-11T07:59:23.112Z</time></trkpt><trkpt lat="43.5006642" lon="11.1543944"><ele>224.0</ele><time>2026-04-11T07:59:24.112Z</time></trkpt><trkpt lat="43.5005066" lon="11.1543822"><ele>224.0</ele><time>2026-04-11T07:59:25.112Z</time></trkpt><trkpt lat="43.5003578" lon="11.1543579"><ele>224.0</ele><time>2026-04-11T07:59:26.112Z</time></trkpt><trkpt lat="43.500215" lon="11.1543047"><ele>222.0</ele><time>2026-04-11T07:59:27.112Z</time></trkpt><trkpt lat="43.5000728" lon="11.1542006"><ele>220.0</ele><time>2026-04-11T07:59:28.112Z</time></trkpt><trkpt lat="43.4999262" lon="11.1540525"><ele>218.0</ele><time>2026-04-11T07:59:29.112Z</time></trkpt><trkpt lat="43.4997849" lon="11.1538743"><ele>218.0</ele><time>2026-04-11T07:59:30.111Z</time></trkpt><trkpt lat="43.4996523" lon="11.1536583"><ele>218.0</ele><time>2026-04-11T07:59:31.112Z</time></trkpt><trkpt lat="43.4995239" lon="11.1534194"><ele>218.0</ele><time>2026-04-11T07:59:32.112Z</time></trkpt><trkpt lat="43.4993903" lon="11.1531886"><ele>212.66666666666669</ele><time>2026-04-11T07:59:33.112Z</time></trkpt><trkpt lat="43.4992327" lon="11.1529956"><ele>207.33333333333331</ele><time>2026-04-11T07:59:34.111Z</time></trkpt><trkpt lat="43.4990603" lon="11.1528247"><ele>202.0</ele><time>2026-04-11T07:59:35.111Z</time></trkpt><trkpt lat="43.4988891" lon="11.152685"><ele>199.66666666666666</ele><time>2026-04-11T07:59:36.112Z</time></trkpt><trkpt lat="43.4987271" lon="11.1525642"><ele>197.33333333333331</ele><time>2026-04-11T07:59:37.112Z</time></trkpt><trkpt lat="43.4985582" lon="11.1524743"><ele>195.0</ele><time>2026-04-11T07:59:38.111Z</time></trkpt><trkpt lat="43.4983675" lon="11.152417"><ele>195.0</ele><time>2026-04-11T07:59:39.111Z</time></trkpt><trkpt lat="43.4981597" lon="11.1523971"><ele>195.0</ele><time>2026-04-11T07:59:40.112Z</time></trkpt><trkpt lat="43.4979498" lon="11.1523942"><ele>195.0</ele><time>2026-04-11T07:59:41.112Z</time></trkpt><trkpt lat="43.4977345" lon="11.1524214"><ele>194.66666666666669</ele><time>2026-04-11T07:59:42.112Z</time></trkpt><trkpt lat="43.4975171" lon="11.1524729"><ele>194.33333333333334</ele><time>2026-04-11T07:59:43.112Z</time></trkpt><trkpt lat="43.4973059" lon="11.1525408"><ele>194.0</ele><time>2026-04-11T07:59:44.112Z</time></trkpt><trkpt lat="43.4971103" lon="11.152613"><ele>193.66666666666669</ele><time>2026-04-11T07:59:45.112Z</time></trkpt><trkpt lat="43.4969266" lon="11.1526833"><ele>193.33333333333331</ele><time>2026-04-11T07:59:46.112Z</time></trkpt><trkpt lat="43.4967495" lon="11.1527348"><ele>193.0</ele><time>2026-04-11T07:59:47.112Z</time></trkpt><trkpt lat="43.4965683" lon="11.1527699"><ele>193.0</ele><time>2026-04-11T07:59:48.112Z</time></trkpt><trkpt lat="43.4963832" lon="11.1527648"><ele>193.0</ele><time>2026-04-11T07:59:49.112Z</time></trkpt><trkpt lat="43.4961895" lon="11.1527316"><ele>193.0</ele><time>2026-04-11T07:59:50.112Z</time></trkpt><trkpt lat="43.4959858" lon="11.1526746"><ele>189.66666666666666</ele><time>2026-04-11T07:59:51.111Z</time></trkpt><trkpt lat="43.4957795" lon="11.152604"><ele>186.33333333333331</ele><time>2026-04-11T07:59:52.111Z</time></trkpt><trkpt lat="43.4955659" lon="11.1525361"><ele>183.0</ele><time>2026-04-11T07:59:53.111Z</time></trkpt><trkpt lat="43.4953499" lon="11.1524612"><ele>178.0</ele><time>2026-04-11T07:59:54.111Z</time></trkpt><trkpt lat="43.4951262" lon="11.1523796"><ele>173.0</ele><time>2026-04-11T07:59:55.112Z</time></trkpt><trkpt lat="43.4949017" lon="11.1522794"><ele>170.0</ele><time>2026-04-11T07:59:56.112Z</time></trkpt><trkpt lat="43.4946689" lon="11.1521849"><ele>167.0</ele><time>2026-04-11T07:59:57.112Z</time></trkpt><trkpt lat="43.4944271" lon="11.152095"><ele>164.0</ele><time>2026-04-11T07:59:58.112Z</time></trkpt><trkpt lat="43.4941919" lon="11.1520124"><ele>161.0</ele><time>2026-04-11T07:59:59.111Z</time></trkpt><trkpt lat="43.4939683" lon="11.1519395"><ele>161.0</ele><time>2026-04-11T08:00:00.111Z</time></trkpt><trkpt lat="43.4937629" lon="11.1518788"><ele>161.0</ele><time>2026-04-11T08:00:01.112Z</time></trkpt><trkpt lat="43.4935653" lon="11.1518207"><ele>161.0</ele><time>2026-04-11T08:00:02.112Z</time></trkpt><trkpt lat="43.4933699" lon="11.1517753"><ele>159.66666666666666</ele><time>2026-04-11T08:00:03.111Z</time></trkpt><trkpt lat="43.4931732" lon="11.1517288"><ele>158.33333333333334</ele><time>2026-04-11T08:00:04.111Z</time></trkpt><trkpt lat="43.4929738" lon="11.1516733"><ele>157.0</ele><time>2026-04-11T08:00:05.111Z</time></trkpt><trkpt lat="43.4927651" lon="11.1516043"><ele>152.0</ele><time>2026-04-11T08:00:06.112Z</time></trkpt><trkpt lat="43.4925497" lon="11.1515271"><ele>147.0</ele><time>2026-04-11T08:00:07.112Z</time></trkpt><trkpt lat="43.4923254" lon="11.1514416"><ele>147.0</ele><time>2026-04-11T08:00:08.112Z</time></trkpt><trkpt lat="43.4921193" lon="11.15135"><ele>147.0</ele><time>2026-04-11T08:00:09.112Z</time></trkpt><trkpt lat="43.4919203" lon="11.1512616"><ele>147.0</ele><time>2026-04-11T08:00:10.112Z</time></trkpt><trkpt lat="43.4917337" lon="11.1511801"><ele>145.66666666666666</ele><time>2026-04-11T08:00:11.112Z</time></trkpt><trkpt lat="43.4915519" lon="11.1511031"><ele>144.33333333333331</ele><time>2026-04-11T08:00:12.112Z</time></trkpt><trkpt lat="43.4913709" lon="11.1510339"><ele>143.0</ele><time>2026-04-11T08:00:13.112Z</time></trkpt><trkpt lat="43.491188" lon="11.1509722"><ele>140.66666666666666</ele><time>2026-04-11T08:00:14.111Z</time></trkpt><trkpt lat="43.4909971" lon="11.1509304"><ele>138.33333333333334</ele><time>2026-04-11T08:00:15.112Z</time></trkpt><trkpt lat="43.490811" lon="11.1508894"><ele>136.0</ele><time>2026-04-11T08:00:16.112Z</time></trkpt><trkpt lat="43.4906429" lon="11.150858"><ele>136.0</ele><time>2026-04-11T08:00:17.111Z</time></trkpt><trkpt lat="43.4904648" lon="11.1508218"><ele>136.0</ele><time>2026-04-11T08:00:18.112Z</time></trkpt><trkpt lat="43.4902883" lon="11.1507816"><ele>136.0</ele><time>2026-04-11T08:00:19.112Z</time></trkpt><trkpt lat="43.4901048" lon="11.1507423"><ele>132.66666666666669</ele><time>2026-04-11T08:00:20.112Z</time></trkpt><trkpt lat="43.4899039" lon="11.1507035"><ele>129.33333333333334</ele><time>2026-04-11T08:00:21.111Z</time></trkpt><trkpt lat="43.4897029" lon="11.1506699"><ele>126.0</ele><time>2026-04-11T08:00:22.111Z</time></trkpt><trkpt lat="43.4894956" lon="11.1506334"><ele>123.0</ele><time>2026-04-11T08:00:23.112Z</time></trkpt><trkpt lat="43.4892892" lon="11.1506028"><ele>120.0</ele><time>2026-04-11T08:00:24.112Z</time></trkpt><trkpt lat="43.4890876" lon="11.150579"><ele>117.0</ele><time>2026-04-11T08:00:25.112Z</time></trkpt><trkpt lat="43.4888952" lon="11.1505591"><ele>114.66666666666666</ele><time>2026-04-11T08:00:26.112Z</time></trkpt><trkpt lat="43.4887053" lon="11.1505389"><ele>112.33333333333333</ele><time>2026-04-11T08:00:27.112Z</time></trkpt><trkpt lat="43.4885251" lon="11.1505194"><ele>110.0</ele><time>2026-04-11T08:00:28.112Z</time></trkpt><trkpt lat="43.4883537" lon="11.1505001"><ele>110.0</ele><time>2026-04-11T08:00:29.111Z</time></trkpt><trkpt lat="43.4881873" lon="11.1504888"><ele>110.0</ele><time>2026-04-11T08:00:30.112Z</time></trkpt><trkpt lat="43.4880329" lon="11.1504793"><ele>110.0</ele><time>2026-04-11T08:00:31.112Z</time></trkpt><trkpt lat="43.4878884" lon="11.1504781"><ele>109.5</ele><time>2026-04-11T08:00:32.112Z</time></trkpt><trkpt lat="43.487755" lon="11.1504783"><ele>109.0</ele><time>2026-04-11T08:00:33.111Z</time></trkpt><trkpt lat="43.4876319" lon="11.1504848"><ele>108.5</ele><time>2026-04-11T08:00:34.111Z</time></trkpt><trkpt lat="43.4875209" lon="11.1504882"><ele>108.0</ele><time>2026-04-11T08:00:35.112Z</time></trkpt><trkpt lat="43.4874379" lon="11.1504907"><ele>108.0</ele><time>2026-04-11T08:00:36.112Z</time></trkpt><trkpt lat="43.4873453" lon="11.1504987"><ele>108.00000000000001</ele><time>2026-04-11T08:00:38.111Z</time></trkpt><trkpt lat="43.4872283" lon="11.150531"><ele>108.00000000000001</ele><time>2026-04-11T08:02:14.112Z</time></trkpt><trkpt lat="43.4871646" lon="11.150543"><ele>108.0</ele><time>2026-04-11T08:02:15.112Z</time></trkpt><trkpt lat="43.4870782" lon="11.1505419"><ele>108.0</ele><time>2026-04-11T08:02:16.112Z</time></trkpt><trkpt lat="43.4869844" lon="11.1505041"><ele>107.80000000000001</ele><time>2026-04-11T08:02:17.112Z</time></trkpt><trkpt lat="43.4868954" lon="11.150442"><ele>107.60000000000001</ele><time>2026-04-11T08:02:18.111Z</time></trkpt><trkpt lat="43.4868085" lon="11.1503557"><ele>107.39999999999999</ele><time>2026-04-11T08:02:19.112Z</time></trkpt><trkpt lat="43.4867252" lon="11.1502637"><ele>107.19999999999999</ele><time>2026-04-11T08:02:20.111Z</time></trkpt><trkpt lat="43.48664" lon="11.1501812"><ele>107.0</ele><time>2026-04-11T08:02:21.111Z</time></trkpt><trkpt lat="43.4865431" lon="11.1501208"><ele>107.0</ele><time>2026-04-11T08:02:22.112Z</time></trkpt><trkpt lat="43.4864342" lon="11.150094"><ele>106.99999999999999</ele><time>2026-04-11T08:02:23.111Z</time></trkpt><trkpt lat="43.486331" lon="11.1501068"><ele>106.99999999999999</ele><time>2026-04-11T08:02:24.112Z</time></trkpt><trkpt lat="43.4862396" lon="11.1501683"><ele>107.0</ele><time>2026-04-11T08:02:25.111Z</time></trkpt><trkpt lat="43.4861643" lon="11.1502524"><ele>107.0</ele><time>2026-04-11T08:02:26.111Z</time></trkpt><trkpt lat="43.4861296" lon="11.150357"><ele>107.0</ele><time>2026-04-11T08:02:27.112Z</time></trkpt><trkpt lat="43.486104" lon="11.1504744"><ele>106.99999999999999</ele><time>2026-04-11T08:02:28.112Z</time></trkpt><trkpt lat="43.4860999" lon="11.1506021"><ele>106.99999999999999</ele><time>2026-04-11T08:02:29.111Z</time></trkpt><trkpt lat="43.4861082" lon="11.1507358"><ele>107.0</ele><time>2026-04-11T08:02:30.112Z</time></trkpt><trkpt lat="43.4861275" lon="11.1508777"><ele>107.0</ele><time>2026-04-11T08:02:31.112Z</time></trkpt><trkpt lat="43.4861419" lon="11.1510311"><ele>107.0</ele><time>2026-04-11T08:02:32.112Z</time></trkpt><trkpt lat="43.4861499" lon="11.151196"><ele>107.0</ele><time>2026-04-11T08:02:33.111Z</time></trkpt><trkpt lat="43.4861352" lon="11.1513738"><ele>107.0</ele><time>2026-04-11T08:02:34.112Z</time></trkpt><trkpt lat="43.4860958" lon="11.1515468"><ele>107.0</ele><time>2026-04-11T08:02:35.111Z</time></trkpt><trkpt lat="43.4860371" lon="11.1517288"><ele>107.0</ele><time>2026-04-11T08:02:36.112Z</time></trkpt><trkpt lat="43.4859487" lon="11.1519083"><ele>107.0</ele><time>2026-04-11T08:02:37.112Z</time></trkpt><trkpt lat="43.4858447" lon="11.1520631"><ele>107.0</ele><time>2026-04-11T08:02:38.112Z</time></trkpt><trkpt lat="43.4857275" lon="11.1521955"><ele>107.0</ele><time>2026-04-11T08:02:39.111Z</time></trkpt><trkpt lat="43.4856018" lon="11.1522925"><ele>107.0</ele><time>2026-04-11T08:02:40.111Z</time></trkpt><trkpt lat="43.4854621" lon="11.1523652"><ele>107.0</ele><time>2026-04-11T08:02:41.111Z</time></trkpt><trkpt lat="43.4853151" lon="11.1524141"><ele>107.0</ele><time>2026-04-11T08:02:42.112Z</time></trkpt><trkpt lat="43.4851691" lon="11.1524333"><ele>107.0</ele><time>2026-04-11T08:02:43.112Z</time></trkpt><trkpt lat="43.4850151" lon="11.1524153"><ele>107.0</ele><time>2026-04-11T08:02:44.112Z</time></trkpt><trkpt lat="43.4848734" lon="11.1523652"><ele>107.0</ele><time>2026-04-11T08:02:45.112Z</time></trkpt><trkpt lat="43.4847346" lon="11.1522928"><ele>107.0</ele><time>2026-04-11T08:02:46.112Z</time></trkpt><trkpt lat="43.4846029" lon="11.1522013"><ele>108.33333333333333</ele><time>2026-04-11T08:02:47.111Z</time></trkpt><trkpt lat="43.4844681" lon="11.1521053"><ele>109.66666666666666</ele><time>2026-04-11T08:02:48.112Z</time></trkpt><trkpt lat="43.484323" lon="11.1520038"><ele>111.0</ele><time>2026-04-11T08:02:49.111Z</time></trkpt><trkpt lat="43.4841725" lon="11.1518731"><ele>111.0</ele><time>2026-04-11T08:02:50.112Z</time></trkpt><trkpt lat="43.4840188" lon="11.1517298"><ele>111.0</ele><time>2026-04-11T08:02:51.112Z</time></trkpt><trkpt lat="43.4838559" lon="11.1515718"><ele>111.0</ele><time>2026-04-11T08:02:52.112Z</time></trkpt><trkpt lat="43.4836861" lon="11.151407"><ele>113.66666666666666</ele><time>2026-04-11T08:02:53.112Z</time></trkpt><trkpt lat="43.4835116" lon="11.1512309"><ele>116.33333333333333</ele><time>2026-04-11T08:02:54.112Z</time></trkpt><trkpt lat="43.4833243" lon="11.1510508"><ele>119.0</ele><time>2026-04-11T08:02:55.111Z</time></trkpt><trkpt lat="43.4831334" lon="11.1508623"><ele>118.5</ele><time>2026-04-11T08:02:56.111Z</time></trkpt><trkpt lat="43.4829329" lon="11.1506782"><ele>118.0</ele><time>2026-04-11T08:02:57.112Z</time></trkpt><trkpt lat="43.482717" lon="11.150507"><ele>120.0</ele><time>2026-04-11T08:02:58.112Z</time></trkpt><trkpt lat="43.4824958" lon="11.150351"><ele>122.0</ele><time>2026-04-11T08:02:59.112Z</time></trkpt><trkpt lat="43.4822595" lon="11.1502075"><ele>124.0</ele><time>2026-04-11T08:03:00.111Z</time></trkpt><trkpt lat="43.4820193" lon="11.1500783"><ele>126.0</ele><time>2026-04-11T08:03:01.112Z</time></trkpt><trkpt lat="43.4817661" lon="11.1499641"><ele>126.5</ele><time>2026-04-11T08:03:02.111Z</time></trkpt><trkpt lat="43.4815073" lon="11.1498668"><ele>127.0</ele><time>2026-04-11T08:03:03.111Z</time></trkpt><trkpt lat="43.4812396" lon="11.1497927"><ele>127.0</ele><time>2026-04-11T08:03:04.112Z</time></trkpt><trkpt lat="43.4809641" lon="11.1497408"><ele>127.0</ele><time>2026-04-11T08:03:05.111Z</time></trkpt><trkpt lat="43.4806841" lon="11.1497136"><ele>122.0</ele><time>2026-04-11T08:03:06.112Z</time></trkpt><trkpt lat="43.4803981" lon="11.1497116"><ele>117.0</ele><time>2026-04-11T08:03:07.111Z</time></trkpt><trkpt lat="43.4801095" lon="11.1497359"><ele>117.0</ele><time>2026-04-11T08:03:08.112Z</time></trkpt><trkpt lat="43.4798176" lon="11.1497877"><ele>117.0</ele><time>2026-04-11T08:03:09.112Z</time></trkpt><trkpt lat="43.4795296" lon="11.1498689"><ele>118.5</ele><time>2026-04-11T08:03:10.111Z</time></trkpt><trkpt lat="43.4792408" lon="11.1499815"><ele>120.0</ele><time>2026-04-11T08:03:11.112Z</time></trkpt><trkpt lat="43.478955" lon="11.1501213"><ele>123.5</ele><time>2026-04-11T08:03:12.112Z</time></trkpt><trkpt lat="43.4786709" lon="11.15028"><ele>127.0</ele><time>2026-04-11T08:03:13.112Z</time></trkpt><trkpt lat="43.4783855" lon="11.1504464"><ele>127.0</ele><time>2026-04-11T08:03:14.112Z</time></trkpt><trkpt lat="43.4780938" lon="11.150608"><ele>127.0</ele><time>2026-04-11T08:03:15.112Z</time></trkpt><trkpt lat="43.4778045" lon="11.15077"><ele>130.0</ele><time>2026-04-11T08:03:16.111Z</time></trkpt><trkpt lat="43.4775084" lon="11.1509346"><ele>133.0</ele><time>2026-04-11T08:03:17.112Z</time></trkpt><trkpt lat="43.4772136" lon="11.1510983"><ele>133.0</ele><time>2026-04-11T08:03:18.111Z</time></trkpt><trkpt lat="43.4769158" lon="11.1512656"><ele>133.0</ele><time>2026-04-11T08:03:19.112Z</time></trkpt><trkpt lat="43.4766314" lon="11.1514291"><ele>133.0</ele><time>2026-04-11T08:03:20.111Z</time></trkpt><trkpt lat="43.4763628" lon="11.1515753"><ele>133.0</ele><time>2026-04-11T08:03:21.112Z</time></trkpt><trkpt lat="43.4761046" lon="11.1517089"><ele>128.5</ele><time>2026-04-11T08:03:22.112Z</time></trkpt><trkpt lat="43.4758524" lon="11.1518204"><ele>124.0</ele><time>2026-04-11T08:03:23.112Z</time></trkpt><trkpt lat="43.4755896" lon="11.1519071"><ele>121.0</ele><time>2026-04-11T08:03:24.112Z</time></trkpt><trkpt lat="43.4753201" lon="11.1519701"><ele>118.0</ele><time>2026-04-11T08:03:25.112Z</time></trkpt><trkpt lat="43.4750446" lon="11.1520234"><ele>118.0</ele><time>2026-04-11T08:03:26.112Z</time></trkpt><trkpt lat="43.4747623" lon="11.1520992"><ele>118.0</ele><time>2026-04-11T08:03:27.111Z</time></trkpt><trkpt lat="43.474479" lon="11.1522051"><ele>116.0</ele><time>2026-04-11T08:03:28.112Z</time></trkpt><trkpt lat="43.474197" lon="11.1523268"><ele>114.0</ele><time>2026-04-11T08:03:29.112Z</time></trkpt><trkpt lat="43.47391" lon="11.1524524"><ele>111.0</ele><time>2026-04-11T08:03:30.112Z</time></trkpt><trkpt lat="43.4736282" lon="11.1525811"><ele>108.0</ele><time>2026-04-11T08:03:31.112Z</time></trkpt><trkpt lat="43.4733615" lon="11.1527097"><ele>108.0</ele><time>2026-04-11T08:03:32.112Z</time></trkpt><trkpt lat="43.4731048" lon="11.1528349"><ele>108.0</ele><time>2026-04-11T08:03:33.111Z</time></trkpt><trkpt lat="43.4728403" lon="11.1529621"><ele>109.0</ele><time>2026-04-11T08:03:34.112Z</time></trkpt><trkpt lat="43.4725807" lon="11.1530865"><ele>110.0</ele><time>2026-04-11T08:03:35.112Z</time></trkpt><trkpt lat="43.4723225" lon="11.153206"><ele>108.0</ele><time>2026-04-11T08:03:36.111Z</time></trkpt><trkpt lat="43.472073" lon="11.1533268"><ele>106.0</ele><time>2026-04-11T08:03:37.112Z</time></trkpt><trkpt lat="43.4718286" lon="11.1534469"><ele>106.0</ele><time>2026-04-11T08:03:38.112Z</time></trkpt><trkpt lat="43.4715895" lon="11.1535675"><ele>106.0</ele><time>2026-04-11T08:03:39.112Z</time></trkpt><trkpt lat="43.4713532" lon="11.1536859"><ele>104.0</ele><time>2026-04-11T08:03:40.112Z</time></trkpt><trkpt lat="43.471121" lon="11.1538128"><ele>102.0</ele><time>2026-04-11T08:03:41.112Z</time></trkpt><trkpt lat="43.4708963" lon="11.1539669"><ele>103.0</ele><time>2026-04-11T08:03:42.112Z</time></trkpt><trkpt lat="43.4706672" lon="11.1541345"><ele>104.0</ele><time>2026-04-11T08:03:43.111Z</time></trkpt><trkpt lat="43.4704379" lon="11.1543089"><ele>104.0</ele><time>2026-04-11T08:03:44.111Z</time></trkpt><trkpt lat="43.470213" lon="11.1544985"><ele>104.0</ele><time>2026-04-11T08:03:45.112Z</time></trkpt><trkpt lat="43.4699931" lon="11.1547125"><ele>103.5</ele><time>2026-04-11T08:03:46.112Z</time></trkpt><trkpt lat="43.4697801" lon="11.1549481"><ele>103.0</ele><time>2026-04-11T08:03:47.112Z</time></trkpt><trkpt lat="43.4695754" lon="11.155197"><ele>103.0</ele><time>2026-04-11T08:03:48.112Z</time></trkpt><trkpt lat="43.4693711" lon="11.1554578"><ele>103.0</ele><time>2026-04-11T08:03:49.112Z</time></trkpt><trkpt lat="43.4691699" lon="11.1557316"><ele>103.0</ele><time>2026-04-11T08:03:50.112Z</time></trkpt><trkpt lat="43.4689753" lon="11.156015"><ele>103.0</ele><time>2026-04-11T08:03:51.112Z</time></trkpt><trkpt lat="43.4687848" lon="11.1563058"><ele>103.0</ele><time>2026-04-11T08:03:52.112Z</time></trkpt><trkpt lat="43.4686094" lon="11.1566214"><ele>103.0</ele><time>2026-04-11T08:03:53.112Z</time></trkpt><trkpt lat="43.4684456" lon="11.1569538"><ele>103.0</ele><time>2026-04-11T08:03:54.111Z</time></trkpt><trkpt lat="43.4682894" lon="11.1572932"><ele>103.0</ele><time>2026-04-11T08:03:55.111Z</time></trkpt><trkpt lat="43.4681285" lon="11.1576358"><ele>104.0</ele><time>2026-04-11T08:03:56.112Z</time></trkpt><trkpt lat="43.4679637" lon="11.1579773"><ele>105.0</ele><time>2026-04-11T08:03:57.112Z</time></trkpt><trkpt lat="43.4678015" lon="11.1583279"><ele>103.0</ele><time>2026-04-11T08:03:58.112Z</time></trkpt><trkpt lat="43.4676377" lon="11.158685"><ele>101.0</ele><time>2026-04-11T08:03:59.112Z</time></trkpt><trkpt lat="43.4674723" lon="11.1590391"><ele>101.0</ele><time>2026-04-11T08:04:00.112Z</time></trkpt><trkpt lat="43.4673025" lon="11.1593946"><ele>101.0</ele><time>2026-04-11T08:04:01.112Z</time></trkpt><trkpt lat="43.4671221" lon="11.1597474"><ele>102.0</ele><time>2026-04-11T08:04:02.112Z</time></trkpt><trkpt lat="43.4669344" lon="11.1600906"><ele>103.0</ele><time>2026-04-11T08:04:03.111Z</time></trkpt><trkpt lat="43.4667334" lon="11.16042"><ele>104.0</ele><time>2026-04-11T08:04:04.111Z</time></trkpt><trkpt lat="43.4665234" lon="11.1607407"><ele>105.0</ele><time>2026-04-11T08:04:05.112Z</time></trkpt><trkpt lat="43.4663" lon="11.1610463"><ele>104.5</ele><time>2026-04-11T08:04:06.112Z</time></trkpt><trkpt lat="43.4660684" lon="11.1613394"><ele>104.0</ele><time>2026-04-11T08:04:07.112Z</time></trkpt><trkpt lat="43.4658374" lon="11.1616101"><ele>103.5</ele><time>2026-04-11T08:04:08.112Z</time></trkpt><trkpt lat="43.4655927" lon="11.161858"><ele>103.0</ele><time>2026-04-11T08:04:09.112Z</time></trkpt><trkpt lat="43.4653341" lon="11.1620879"><ele>103.0</ele><time>2026-04-11T08:04:10.111Z</time></trkpt><trkpt lat="43.465066" lon="11.1623006"><ele>103.0</ele><time>2026-04-11T08:04:11.111Z</time></trkpt><trkpt lat="43.4647827" lon="11.162502"><ele>105.0</ele><time>2026-04-11T08:04:12.111Z</time></trkpt><trkpt lat="43.4644934" lon="11.1626828"><ele>107.0</ele><time>2026-04-11T08:04:13.112Z</time></trkpt><trkpt lat="43.4641979" lon="11.1628435"><ele>107.0</ele><time>2026-04-11T08:04:14.112Z</time></trkpt><trkpt lat="43.4638969" lon="11.1629879"><ele>107.0</ele><time>2026-04-11T08:04:15.112Z</time></trkpt><trkpt lat="43.4635871" lon="11.1631142"><ele>108.0</ele><time>2026-04-11T08:04:16.112Z</time></trkpt><trkpt lat="43.4632719" lon="11.1632223"><ele>109.0</ele><time>2026-04-11T08:04:17.111Z</time></trkpt><trkpt lat="43.4629513" lon="11.1633047"><ele>109.0</ele><time>2026-04-11T08:04:18.112Z</time></trkpt><trkpt lat="43.4626292" lon="11.163357"><ele>109.0</ele><time>2026-04-11T08:04:19.112Z</time></trkpt><trkpt lat="43.4623053" lon="11.1633899"><ele>107.5</ele><time>2026-04-11T08:04:20.112Z</time></trkpt><trkpt lat="43.4619809" lon="11.1634112"><ele>106.0</ele><time>2026-04-11T08:04:21.111Z</time></trkpt><trkpt lat="43.4616537" lon="11.163433"><ele>106.0</ele><time>2026-04-11T08:04:22.112Z</time></trkpt><trkpt lat="43.4613241" lon="11.1634544"><ele>106.0</ele><time>2026-04-11T08:04:23.111Z</time></trkpt><trkpt lat="43.460992" lon="11.1634692"><ele>106.5</ele><time>2026-04-11T08:04:24.112Z</time></trkpt><trkpt lat="43.4606561" lon="11.1634546"><ele>107.0</ele><time>2026-04-11T08:04:25.112Z</time></trkpt><trkpt lat="43.4603238" lon="11.1634121"><ele>107.0</ele><time>2026-04-11T08:04:26.112Z</time></trkpt><trkpt lat="43.4600093" lon="11.1633391"><ele>107.0</ele><time>2026-04-11T08:04:27.112Z</time></trkpt><trkpt lat="43.4597265" lon="11.1632465"><ele>107.5</ele><time>2026-04-11T08:04:28.112Z</time></trkpt><trkpt lat="43.4594655" lon="11.1631289"><ele>108.0</ele><time>2026-04-11T08:04:29.112Z</time></trkpt><trkpt lat="43.4592073" lon="11.1629916"><ele>108.0</ele><time>2026-04-11T08:04:30.111Z</time></trkpt><trkpt lat="43.4589545" lon="11.1628464"><ele>108.0</ele><time>2026-04-11T08:04:31.111Z</time></trkpt><trkpt lat="43.4587112" lon="11.1626766"><ele>106.5</ele><time>2026-04-11T08:04:32.111Z</time></trkpt><trkpt lat="43.4584772" lon="11.1624808"><ele>105.0</ele><time>2026-04-11T08:04:33.111Z</time></trkpt><trkpt lat="43.4582575" lon="11.1622603"><ele>105.0</ele><time>2026-04-11T08:04:34.112Z</time></trkpt><trkpt lat="43.4580486" lon="11.1620195"><ele>105.0</ele><time>2026-04-11T08:04:35.112Z</time></trkpt><trkpt lat="43.4578512" lon="11.1617694"><ele>106.5</ele><time>2026-04-11T08:04:36.112Z</time></trkpt><trkpt lat="43.4576627" lon="11.1615206"><ele>108.0</ele><time>2026-04-11T08:04:37.112Z</time></trkpt><trkpt lat="43.4574703" lon="11.1612794"><ele>108.0</ele><time>2026-04-11T08:04:38.111Z</time></trkpt><trkpt lat="43.4572766" lon="11.1610279"><ele>108.0</ele><time>2026-04-11T08:04:39.111Z</time></trkpt><trkpt lat="43.4570854" lon="11.1607681"><ele>108.5</ele><time>2026-04-11T08:04:40.112Z</time></trkpt><trkpt lat="43.4568958" lon="11.1605154"><ele>109.0</ele><time>2026-04-11T08:04:41.111Z</time></trkpt><trkpt lat="43.4567241" lon="11.1602688"><ele>109.0</ele><time>2026-04-11T08:04:42.112Z</time></trkpt><trkpt lat="43.4565691" lon="11.1600394"><ele>109.0</ele><time>2026-04-11T08:04:43.111Z</time></trkpt><trkpt lat="43.4564177" lon="11.1598232"><ele>109.0</ele><time>2026-04-11T08:04:44.112Z</time></trkpt><trkpt lat="43.4562751" lon="11.159626"><ele>110.33333333333334</ele><time>2026-04-11T08:04:45.112Z</time></trkpt><trkpt lat="43.4561423" lon="11.1594434"><ele>111.66666666666666</ele><time>2026-04-11T08:04:46.112Z</time></trkpt><trkpt lat="43.4560143" lon="11.1592634"><ele>113.0</ele><time>2026-04-11T08:04:47.112Z</time></trkpt><trkpt lat="43.4558865" lon="11.1590896"><ele>111.66666666666666</ele><time>2026-04-11T08:04:48.111Z</time></trkpt><trkpt lat="43.4557603" lon="11.158918"><ele>110.33333333333334</ele><time>2026-04-11T08:04:49.112Z</time></trkpt><trkpt lat="43.4556344" lon="11.1587535"><ele>109.0</ele><time>2026-04-11T08:04:50.112Z</time></trkpt><trkpt lat="43.4555048" lon="11.1585772"><ele>108.66666666666667</ele><time>2026-04-11T08:04:51.111Z</time></trkpt><trkpt lat="43.4553749" lon="11.1583954"><ele>108.33333333333334</ele><time>2026-04-11T08:04:52.112Z</time></trkpt><trkpt lat="43.4552415" lon="11.1582058"><ele>108.0</ele><time>2026-04-11T08:04:53.112Z</time></trkpt><trkpt lat="43.4550983" lon="11.1580107"><ele>108.0</ele><time>2026-04-11T08:04:54.112Z</time></trkpt><trkpt lat="43.4549522" lon="11.1578089"><ele>108.0</ele><time>2026-04-11T08:04:55.112Z</time></trkpt><trkpt lat="43.4547982" lon="11.1576061"><ele>108.0</ele><time>2026-04-11T08:04:56.112Z</time></trkpt><trkpt lat="43.4546423" lon="11.1573947"><ele>109.0</ele><time>2026-04-11T08:04:57.112Z</time></trkpt><trkpt lat="43.4544795" lon="11.1571776"><ele>110.0</ele><time>2026-04-11T08:04:58.112Z</time></trkpt><trkpt lat="43.454317" lon="11.1569534"><ele>110.0</ele><time>2026-04-11T08:04:59.111Z</time></trkpt><trkpt lat="43.4541484" lon="11.1567258"><ele>110.0</ele><time>2026-04-11T08:05:00.112Z</time></trkpt><trkpt lat="43.453977" lon="11.1564909"><ele>110.5</ele><time>2026-04-11T08:05:01.112Z</time></trkpt><trkpt lat="43.4538035" lon="11.1562639"><ele>111.0</ele><time>2026-04-11T08:05:02.111Z</time></trkpt><trkpt lat="43.4536229" lon="11.1560428"><ele>111.0</ele><time>2026-04-11T08:05:03.112Z</time></trkpt><trkpt lat="43.4534315" lon="11.1558345"><ele>111.0</ele><time>2026-04-11T08:05:04.112Z</time></trkpt><trkpt lat="43.4532293" lon="11.1556421"><ele>111.0</ele><time>2026-04-11T08:05:05.111Z</time></trkpt><trkpt lat="43.4530235" lon="11.1554554"><ele>111.0</ele><time>2026-04-11T08:05:06.112Z</time></trkpt><trkpt lat="43.4528129" lon="11.1552814"><ele>111.0</ele><time>2026-04-11T08:05:07.111Z</time></trkpt><trkpt lat="43.4525933" lon="11.1551229"><ele>111.0</ele><time>2026-04-11T08:05:08.112Z</time></trkpt><trkpt lat="43.4523726" lon="11.1549801"><ele>111.0</ele><time>2026-04-11T08:05:09.112Z</time></trkpt><trkpt lat="43.452144" lon="11.1548553"><ele>111.0</ele><time>2026-04-11T08:05:10.112Z</time></trkpt><trkpt lat="43.4519137" lon="11.15473"><ele>111.0</ele><time>2026-04-11T08:05:11.112Z</time></trkpt><trkpt lat="43.4516897" lon="11.1546028"><ele>111.0</ele><time>2026-04-11T08:05:12.112Z</time></trkpt><trkpt lat="43.4514579" lon="11.1544773"><ele>116.0</ele><time>2026-04-11T08:05:13.112Z</time></trkpt><trkpt lat="43.45123" lon="11.1543528"><ele>121.0</ele><time>2026-04-11T08:05:14.111Z</time></trkpt><trkpt lat="43.4510021" lon="11.1542324"><ele>121.0</ele><time>2026-04-11T08:05:15.112Z</time></trkpt><trkpt lat="43.4507713" lon="11.1541198"><ele>121.0</ele><time>2026-04-11T08:05:16.112Z</time></trkpt><trkpt lat="43.4505394" lon="11.1540058"><ele>122.5</ele><time>2026-04-11T08:05:17.112Z</time></trkpt><trkpt lat="43.4503043" lon="11.1538852"><ele>124.0</ele><time>2026-04-11T08:05:18.112Z</time></trkpt><trkpt lat="43.4500724" lon="11.1537629"><ele>124.0</ele><time>2026-04-11T08:05:19.112Z</time></trkpt><trkpt lat="43.4498392" lon="11.1536407"><ele>124.0</ele><time>2026-04-11T08:05:20.111Z</time></trkpt><trkpt lat="43.4496052" lon="11.1535067"><ele>122.5</ele><time>2026-04-11T08:05:21.111Z</time></trkpt><trkpt lat="43.4493719" lon="11.1533628"><ele>121.0</ele><time>2026-04-11T08:05:22.112Z</time></trkpt><trkpt lat="43.4491436" lon="11.1532032"><ele>117.5</ele><time>2026-04-11T08:05:23.112Z</time></trkpt><trkpt lat="43.4489225" lon="11.1530332"><ele>114.0</ele><time>2026-04-11T08:05:24.112Z</time></trkpt><trkpt lat="43.4487044" lon="11.1528499"><ele>114.0</ele><time>2026-04-11T08:05:25.112Z</time></trkpt><trkpt lat="43.4484849" lon="11.1526632"><ele>114.0</ele><time>2026-04-11T08:05:26.112Z</time></trkpt><trkpt lat="43.4482726" lon="11.1524612"><ele>114.0</ele><time>2026-04-11T08:05:27.112Z</time></trkpt><trkpt lat="43.4480654" lon="11.1522515"><ele>114.0</ele><time>2026-04-11T08:05:28.112Z</time></trkpt><trkpt lat="43.4478601" lon="11.1520384"><ele>115.5</ele><time>2026-04-11T08:05:29.112Z</time></trkpt><trkpt lat="43.4476568" lon="11.1518194"><ele>117.0</ele><time>2026-04-11T08:05:30.112Z</time></trkpt><trkpt lat="43.4474515" lon="11.1516059"><ele>119.0</ele><time>2026-04-11T08:05:31.112Z</time></trkpt><trkpt lat="43.4472463" lon="11.1513943"><ele>121.0</ele><time>2026-04-11T08:05:32.112Z</time></trkpt><trkpt lat="43.4470479" lon="11.151181"><ele>121.0</ele><time>2026-04-11T08:05:33.112Z</time></trkpt><trkpt lat="43.4468481" lon="11.150984"><ele>121.0</ele><time>2026-04-11T08:05:34.112Z</time></trkpt><trkpt lat="43.4466463" lon="11.1508015"><ele>123.5</ele><time>2026-04-11T08:05:35.112Z</time></trkpt><trkpt lat="43.4464498" lon="11.1506388"><ele>126.0</ele><time>2026-04-11T08:05:36.112Z</time></trkpt><trkpt lat="43.4462445" lon="11.1504893"><ele>127.5</ele><time>2026-04-11T08:05:37.112Z</time></trkpt><trkpt lat="43.4460322" lon="11.1503565"><ele>129.0</ele><time>2026-04-11T08:05:38.111Z</time></trkpt><trkpt lat="43.4458147" lon="11.1502382"><ele>129.0</ele><time>2026-04-11T08:05:39.111Z</time></trkpt><trkpt lat="43.4455936" lon="11.1501349"><ele>129.0</ele><time>2026-04-11T08:05:40.111Z</time></trkpt><trkpt lat="43.4453594" lon="11.1500417"><ele>127.5</ele><time>2026-04-11T08:05:41.112Z</time></trkpt><trkpt lat="43.4451229" lon="11.1499695"><ele>126.0</ele><time>2026-04-11T08:05:42.112Z</time></trkpt><trkpt lat="43.4448834" lon="11.1499149"><ele>126.0</ele><time>2026-04-11T08:05:43.112Z</time></trkpt><trkpt lat="43.4446414" lon="11.1498772"><ele>126.0</ele><time>2026-04-11T08:05:44.112Z</time></trkpt><trkpt lat="43.4443986" lon="11.1498537"><ele>129.5</ele><time>2026-04-11T08:05:45.112Z</time></trkpt><trkpt lat="43.4441593" lon="11.1498493"><ele>133.0</ele><time>2026-04-11T08:05:46.112Z</time></trkpt><trkpt lat="43.4439247" lon="11.1498556"><ele>132.5</ele><time>2026-04-11T08:05:47.112Z</time></trkpt><trkpt lat="43.443691" lon="11.1498706"><ele>132.0</ele><time>2026-04-11T08:05:48.112Z</time></trkpt><trkpt lat="43.4434557" lon="11.1498923"><ele>132.0</ele><time>2026-04-11T08:05:49.112Z</time></trkpt><trkpt lat="43.4432176" lon="11.1499077"><ele>132.0</ele><time>2026-04-11T08:05:50.112Z</time></trkpt><trkpt lat="43.4429734" lon="11.1499229"><ele>134.5</ele><time>2026-04-11T08:05:51.112Z</time></trkpt><trkpt lat="43.4427302" lon="11.1499302"><ele>137.0</ele><time>2026-04-11T08:05:52.111Z</time></trkpt><trkpt lat="43.4424849" lon="11.1499325"><ele>137.0</ele><time>2026-04-11T08:05:53.112Z</time></trkpt><trkpt lat="43.4422366" lon="11.1499359"><ele>137.0</ele><time>2026-04-11T08:05:54.112Z</time></trkpt><trkpt lat="43.4419872" lon="11.1499406"><ele>140.0</ele><time>2026-04-11T08:05:55.112Z</time></trkpt><trkpt lat="43.441736" lon="11.1499449"><ele>143.0</ele><time>2026-04-11T08:05:56.112Z</time></trkpt><trkpt lat="43.4414852" lon="11.1499476"><ele>144.5</ele><time>2026-04-11T08:05:57.112Z</time></trkpt><trkpt lat="43.4412387" lon="11.1499387"><ele>146.0</ele><time>2026-04-11T08:05:58.111Z</time></trkpt><trkpt lat="43.4409886" lon="11.1499146"><ele>153.0</ele><time>2026-04-11T08:05:59.111Z</time></trkpt><trkpt lat="43.4407357" lon="11.1498708"><ele>160.0</ele><time>2026-04-11T08:06:00.112Z</time></trkpt><trkpt lat="43.4404831" lon="11.1498065"><ele>160.0</ele><time>2026-04-11T08:06:01.112Z</time></trkpt><trkpt lat="43.4402328" lon="11.1497237"><ele>160.0</ele><time>2026-04-11T08:06:02.112Z</time></trkpt><trkpt lat="43.4399868" lon="11.1496149"><ele>160.0</ele><time>2026-04-11T08:06:03.112Z</time></trkpt><trkpt lat="43.4397428" lon="11.149481"><ele>160.0</ele><time>2026-04-11T08:06:04.111Z</time></trkpt><trkpt lat="43.4395042" lon="11.1493215"><ele>160.0</ele><time>2026-04-11T08:06:05.112Z</time></trkpt><trkpt lat="43.4392723" lon="11.1491438"><ele>160.0</ele><time>2026-04-11T08:06:06.112Z</time></trkpt><trkpt lat="43.4390474" lon="11.1489499"><ele>161.0</ele><time>2026-04-11T08:06:07.112Z</time></trkpt><trkpt lat="43.4388277" lon="11.1487431"><ele>162.0</ele><time>2026-04-11T08:06:08.112Z</time></trkpt><trkpt lat="43.4386164" lon="11.1485277"><ele>162.0</ele><time>2026-04-11T08:06:09.112Z</time></trkpt><trkpt lat="43.4384098" lon="11.1483005"><ele>162.0</ele><time>2026-04-11T08:06:10.111Z</time></trkpt><trkpt lat="43.4382062" lon="11.1480662"><ele>161.5</ele><time>2026-04-11T08:06:11.112Z</time></trkpt><trkpt lat="43.4380013" lon="11.1478361"><ele>161.0</ele><time>2026-04-11T08:06:12.111Z</time></trkpt><trkpt lat="43.4377915" lon="11.1476153"><ele>161.0</ele><time>2026-04-11T08:06:13.112Z</time></trkpt><trkpt lat="43.4375701" lon="11.1474101"><ele>161.0</ele><time>2026-04-11T08:06:14.111Z</time></trkpt><trkpt lat="43.4373422" lon="11.1472264"><ele>157.0</ele><time>2026-04-11T08:06:15.112Z</time></trkpt><trkpt lat="43.4371044" lon="11.1470671"><ele>153.0</ele><time>2026-04-11T08:06:16.112Z</time></trkpt><trkpt lat="43.4368537" lon="11.1469212"><ele>153.0</ele><time>2026-04-11T08:06:17.111Z</time></trkpt><trkpt lat="43.4366063" lon="11.1467885"><ele>153.0</ele><time>2026-04-11T08:06:18.112Z</time></trkpt><trkpt lat="43.4363602" lon="11.1466572"><ele>148.5</ele><time>2026-04-11T08:06:19.112Z</time></trkpt><trkpt lat="43.4361108" lon="11.146525"><ele>144.0</ele><time>2026-04-11T08:06:20.112Z</time></trkpt><trkpt lat="43.4358589" lon="11.1463943"><ele>144.0</ele><time>2026-04-11T08:06:21.111Z</time></trkpt><trkpt lat="43.4356058" lon="11.146266"><ele>144.0</ele><time>2026-04-11T08:06:22.112Z</time></trkpt><trkpt lat="43.4353535" lon="11.1461328"><ele>142.0</ele><time>2026-04-11T08:06:23.111Z</time></trkpt><trkpt lat="43.4350992" lon="11.1460022"><ele>140.0</ele><time>2026-04-11T08:06:24.112Z</time></trkpt><trkpt lat="43.4348479" lon="11.1458711"><ele>139.5</ele><time>2026-04-11T08:06:25.112Z</time></trkpt><trkpt lat="43.4345958" lon="11.1457376"><ele>139.0</ele><time>2026-04-11T08:06:26.112Z</time></trkpt><trkpt lat="43.4343387" lon="11.1456053"><ele>133.5</ele><time>2026-04-11T08:06:27.112Z</time></trkpt><trkpt lat="43.4340784" lon="11.1454666"><ele>128.0</ele><time>2026-04-11T08:06:28.111Z</time></trkpt><trkpt lat="43.4338216" lon="11.1453329"><ele>131.0</ele><time>2026-04-11T08:06:29.112Z</time></trkpt><trkpt lat="43.43357" lon="11.1452067"><ele>134.0</ele><time>2026-04-11T08:06:30.111Z</time></trkpt><trkpt lat="43.4333093" lon="11.1450855"><ele>134.0</ele><time>2026-04-11T08:06:31.112Z</time></trkpt><trkpt lat="43.433045" lon="11.1449594"><ele>134.0</ele><time>2026-04-11T08:06:32.111Z</time></trkpt><trkpt lat="43.4327828" lon="11.1448287"><ele>139.0</ele><time>2026-04-11T08:06:33.111Z</time></trkpt><trkpt lat="43.4325234" lon="11.1446978"><ele>144.0</ele><time>2026-04-11T08:06:34.112Z</time></trkpt><trkpt lat="43.432265" lon="11.1445708"><ele>144.0</ele><time>2026-04-11T08:06:35.112Z</time></trkpt><trkpt lat="43.4320048" lon="11.1444616"><ele>144.0</ele><time>2026-04-11T08:06:36.112Z</time></trkpt><trkpt lat="43.4317407" lon="11.1443687"><ele>144.0</ele><time>2026-04-11T08:06:37.111Z</time></trkpt><trkpt lat="43.4314748" lon="11.1443089"><ele>144.0</ele><time>2026-04-11T08:06:38.112Z</time></trkpt><trkpt lat="43.4312069" lon="11.1442773"><ele>145.5</ele><time>2026-04-11T08:06:39.112Z</time></trkpt><trkpt lat="43.430939" lon="11.1442677"><ele>147.0</ele><time>2026-04-11T08:06:40.112Z</time></trkpt><trkpt lat="43.4306706" lon="11.144264"><ele>150.0</ele><time>2026-04-11T08:06:41.111Z</time></trkpt><trkpt lat="43.4304016" lon="11.1442641"><ele>153.0</ele><time>2026-04-11T08:06:42.112Z</time></trkpt><trkpt lat="43.4301307" lon="11.1442674"><ele>153.0</ele><time>2026-04-11T08:06:43.111Z</time></trkpt><trkpt lat="43.4298608" lon="11.1442738"><ele>153.0</ele><time>2026-04-11T08:06:44.112Z</time></trkpt><trkpt lat="43.4295936" lon="11.1442786"><ele>155.0</ele><time>2026-04-11T08:06:45.112Z</time></trkpt><trkpt lat="43.4293276" lon="11.1442856"><ele>157.0</ele><time>2026-04-11T08:06:46.112Z</time></trkpt><trkpt lat="43.4290619" lon="11.1442916"><ele>158.5</ele><time>2026-04-11T08:06:47.112Z</time></trkpt><trkpt lat="43.4288012" lon="11.1442979"><ele>160.0</ele><time>2026-04-11T08:06:48.112Z</time></trkpt><trkpt lat="43.4285554" lon="11.1442989"><ele>160.0</ele><time>2026-04-11T08:06:49.111Z</time></trkpt><trkpt lat="43.4283306" lon="11.144304"><ele>160.0</ele><time>2026-04-11T08:06:50.112Z</time></trkpt><trkpt lat="43.4281177" lon="11.1443126"><ele>160.0</ele><time>2026-04-11T08:06:51.111Z</time></trkpt><trkpt lat="43.4279057" lon="11.144319"><ele>160.66666666666669</ele><time>2026-04-11T08:06:52.112Z</time></trkpt><trkpt lat="43.4276925" lon="11.1443259"><ele>161.33333333333334</ele><time>2026-04-11T08:06:53.112Z</time></trkpt><trkpt lat="43.4274773" lon="11.1443549"><ele>162.0</ele><time>2026-04-11T08:06:54.112Z</time></trkpt><trkpt lat="43.4272597" lon="11.1444067"><ele>163.5</ele><time>2026-04-11T08:06:55.112Z</time></trkpt><trkpt lat="43.4270375" lon="11.144465"><ele>165.0</ele><time>2026-04-11T08:06:56.111Z</time></trkpt><trkpt lat="43.4268133" lon="11.1445272"><ele>165.0</ele><time>2026-04-11T08:06:57.111Z</time></trkpt><trkpt lat="43.4265904" lon="11.1445983"><ele>165.0</ele><time>2026-04-11T08:06:58.111Z</time></trkpt><trkpt lat="43.4263662" lon="11.1446821"><ele>163.5</ele><time>2026-04-11T08:06:59.112Z</time></trkpt><trkpt lat="43.4261401" lon="11.1447805"><ele>162.0</ele><time>2026-04-11T08:07:00.112Z</time></trkpt><trkpt lat="43.4259147" lon="11.1448919"><ele>162.0</ele><time>2026-04-11T08:07:01.112Z</time></trkpt><trkpt lat="43.4256911" lon="11.1450131"><ele>162.0</ele><time>2026-04-11T08:07:02.112Z</time></trkpt><trkpt lat="43.4254673" lon="11.1451508"><ele>166.0</ele><time>2026-04-11T08:07:03.112Z</time></trkpt><trkpt lat="43.4252489" lon="11.1453079"><ele>170.0</ele><time>2026-04-11T08:07:04.111Z</time></trkpt><trkpt lat="43.4250342" lon="11.1454834"><ele>170.0</ele><time>2026-04-11T08:07:05.111Z</time></trkpt><trkpt lat="43.4248259" lon="11.1456748"><ele>170.0</ele><time>2026-04-11T08:07:06.111Z</time></trkpt><trkpt lat="43.4246227" lon="11.1458764"><ele>172.5</ele><time>2026-04-11T08:07:07.112Z</time></trkpt><trkpt lat="43.4244333" lon="11.1460896"><ele>175.0</ele><time>2026-04-11T08:07:08.112Z</time></trkpt><trkpt lat="43.4242468" lon="11.1463138"><ele>174.0</ele><time>2026-04-11T08:07:09.111Z</time></trkpt><trkpt lat="43.424068" lon="11.1465494"><ele>173.0</ele><time>2026-04-11T08:07:10.111Z</time></trkpt><trkpt lat="43.4238925" lon="11.1467913"><ele>177.0</ele><time>2026-04-11T08:07:11.112Z</time></trkpt><trkpt lat="43.4237218" lon="11.147039"><ele>181.0</ele><time>2026-04-11T08:07:12.112Z</time></trkpt><trkpt lat="43.4235494" lon="11.1472897"><ele>180.5</ele><time>2026-04-11T08:07:13.112Z</time></trkpt><trkpt lat="43.423376" lon="11.1475378"><ele>180.0</ele><time>2026-04-11T08:07:14.112Z</time></trkpt><trkpt lat="43.4232039" lon="11.1477838"><ele>180.0</ele><time>2026-04-11T08:07:15.111Z</time></trkpt><trkpt lat="43.4230302" lon="11.1480309"><ele>180.0</ele><time>2026-04-11T08:07:16.112Z</time></trkpt><trkpt lat="43.4228537" lon="11.1482759"><ele>184.5</ele><time>2026-04-11T08:07:17.112Z</time></trkpt><trkpt lat="43.4226837" lon="11.1485224"><ele>189.0</ele><time>2026-04-11T08:07:18.112Z</time></trkpt><trkpt lat="43.4225138" lon="11.14877"><ele>189.0</ele><time>2026-04-11T08:07:19.111Z</time></trkpt><trkpt lat="43.4223429" lon="11.1490234"><ele>189.0</ele><time>2026-04-11T08:07:20.112Z</time></trkpt><trkpt lat="43.4221717" lon="11.1492737"><ele>194.0</ele><time>2026-04-11T08:07:21.112Z</time></trkpt><trkpt lat="43.4219994" lon="11.1495157"><ele>199.0</ele><time>2026-04-11T08:07:22.111Z</time></trkpt><trkpt lat="43.4218248" lon="11.1497616"><ele>199.5</ele><time>2026-04-11T08:07:23.112Z</time></trkpt><trkpt lat="43.4216488" lon="11.1500156"><ele>200.0</ele><time>2026-04-11T08:07:24.112Z</time></trkpt><trkpt lat="43.4214702" lon="11.1502726"><ele>204.0</ele><time>2026-04-11T08:07:25.112Z</time></trkpt><trkpt lat="43.4212944" lon="11.1505293"><ele>208.0</ele><time>2026-04-11T08:07:26.112Z</time></trkpt><trkpt lat="43.4211198" lon="11.1507851"><ele>208.0</ele><time>2026-04-11T08:07:27.112Z</time></trkpt><trkpt lat="43.4209466" lon="11.1510446"><ele>208.0</ele><time>2026-04-11T08:07:28.112Z</time></trkpt><trkpt lat="43.4207716" lon="11.1513039"><ele>207.5</ele><time>2026-04-11T08:07:29.111Z</time></trkpt><trkpt lat="43.420598" lon="11.1515615"><ele>207.0</ele><time>2026-04-11T08:07:30.112Z</time></trkpt><trkpt lat="43.4204249" lon="11.1518172"><ele>211.5</ele><time>2026-04-11T08:07:31.112Z</time></trkpt><trkpt lat="43.4202489" lon="11.1520713"><ele>216.0</ele><time>2026-04-11T08:07:32.112Z</time></trkpt><trkpt lat="43.4200705" lon="11.1523294"><ele>215.5</ele><time>2026-04-11T08:07:33.111Z</time></trkpt><trkpt lat="43.4198926" lon="11.1525869"><ele>215.0</ele><time>2026-04-11T08:07:34.112Z</time></trkpt><trkpt lat="43.4197149" lon="11.1528432"><ele>218.5</ele><time>2026-04-11T08:07:35.112Z</time></trkpt><trkpt lat="43.41954" lon="11.1530993"><ele>222.0</ele><time>2026-04-11T08:07:36.112Z</time></trkpt><trkpt lat="43.419364" lon="11.1533539"><ele>222.0</ele><time>2026-04-11T08:07:37.112Z</time></trkpt><trkpt lat="43.4191905" lon="11.1536063"><ele>222.0</ele><time>2026-04-11T08:07:38.112Z</time></trkpt><trkpt lat="43.4190178" lon="11.1538579"><ele>223.0</ele><time>2026-04-11T08:07:39.111Z</time></trkpt><trkpt lat="43.4188452" lon="11.1541095"><ele>224.0</ele><time>2026-04-11T08:07:40.111Z</time></trkpt><trkpt lat="43.4186732" lon="11.1543597"><ele>226.0</ele><time>2026-04-11T08:07:41.112Z</time></trkpt><trkpt lat="43.4185007" lon="11.154609"><ele>228.0</ele><time>2026-04-11T08:07:42.112Z</time></trkpt><trkpt lat="43.4183262" lon="11.1548522"><ele>228.5</ele><time>2026-04-11T08:07:43.112Z</time></trkpt><trkpt lat="43.4181519" lon="11.1550966"><ele>229.0</ele><time>2026-04-11T08:07:44.112Z</time></trkpt><trkpt lat="43.4179776" lon="11.1553426"><ele>230.5</ele><time>2026-04-11T08:07:45.112Z</time></trkpt><trkpt lat="43.417802" lon="11.1555929"><ele>232.0</ele><time>2026-04-11T08:07:46.112Z</time></trkpt><trkpt lat="43.4176292" lon="11.1558453"><ele>232.0</ele><time>2026-04-11T08:07:47.112Z</time></trkpt><trkpt lat="43.4174582" lon="11.1560948"><ele>232.0</ele><time>2026-04-11T08:07:48.111Z</time></trkpt><trkpt lat="43.4172867" lon="11.1563364"><ele>233.0</ele><time>2026-04-11T08:07:49.112Z</time></trkpt><trkpt lat="43.4171182" lon="11.156577"><ele>234.0</ele><time>2026-04-11T08:07:50.111Z</time></trkpt><trkpt lat="43.4169513" lon="11.1568112"><ele>234.0</ele><time>2026-04-11T08:07:51.112Z</time></trkpt><trkpt lat="43.4167849" lon="11.1570378"><ele>234.0</ele><time>2026-04-11T08:07:52.112Z</time></trkpt><trkpt lat="43.4166308" lon="11.1572513"><ele>233.66666666666669</ele><time>2026-04-11T08:07:53.111Z</time></trkpt><trkpt lat="43.4164909" lon="11.1574505"><ele>233.33333333333334</ele><time>2026-04-11T08:07:54.112Z</time></trkpt><trkpt lat="43.4163604" lon="11.1576317"><ele>233.0</ele><time>2026-04-11T08:07:55.112Z</time></trkpt><trkpt lat="43.4162352" lon="11.1577982"><ele>233.0</ele><time>2026-04-11T08:07:56.112Z</time></trkpt><trkpt lat="43.4161112" lon="11.1579633"><ele>233.0</ele><time>2026-04-11T08:07:57.112Z</time></trkpt><trkpt lat="43.4159876" lon="11.1581336"><ele>233.0</ele><time>2026-04-11T08:07:58.111Z</time></trkpt><trkpt lat="43.4158616" lon="11.1583061"><ele>232.33333333333334</ele><time>2026-04-11T08:07:59.112Z</time></trkpt><trkpt lat="43.4157293" lon="11.158477"><ele>231.66666666666669</ele><time>2026-04-11T08:08:00.112Z</time></trkpt><trkpt lat="43.415587" lon="11.1586375"><ele>231.0</ele><time>2026-04-11T08:08:01.112Z</time></trkpt><trkpt lat="43.415433" lon="11.1587824"><ele>231.0</ele><time>2026-04-11T08:08:02.112Z</time></trkpt><trkpt lat="43.4152732" lon="11.1589163"><ele>231.0</ele><time>2026-04-11T08:08:03.111Z</time></trkpt><trkpt lat="43.4151223" lon="11.1590352"><ele>231.0</ele><time>2026-04-11T08:08:04.111Z</time></trkpt><trkpt lat="43.4149814" lon="11.1591555"><ele>230.66666666666669</ele><time>2026-04-11T08:08:05.112Z</time></trkpt><trkpt lat="43.4148398" lon="11.1592779"><ele>230.33333333333334</ele><time>2026-04-11T08:08:06.112Z</time></trkpt><trkpt lat="43.4146963" lon="11.1593989"><ele>230.0</ele><time>2026-04-11T08:08:07.112Z</time></trkpt><trkpt lat="43.4145611" lon="11.1595062"><ele>229.25</ele><time>2026-04-11T08:08:08.111Z</time></trkpt><trkpt lat="43.4144391" lon="11.1596034"><ele>228.5</ele><time>2026-04-11T08:08:09.112Z</time></trkpt><trkpt lat="43.4143296" lon="11.1596873"><ele>227.75</ele><time>2026-04-11T08:08:10.112Z</time></trkpt><trkpt lat="43.4142158" lon="11.1597336"><ele>227.0</ele><time>2026-04-11T08:08:11.112Z</time></trkpt><trkpt lat="43.4141048" lon="11.1597316"><ele>227.0</ele><time>2026-04-11T08:08:12.112Z</time></trkpt><trkpt lat="43.4140034" lon="11.1596881"><ele>227.0</ele><time>2026-04-11T08:08:13.112Z</time></trkpt><trkpt lat="43.413917" lon="11.1596153"><ele>227.0</ele><time>2026-04-11T08:08:14.112Z</time></trkpt><trkpt lat="43.4138349" lon="11.1595256"><ele>227.0</ele><time>2026-04-11T08:08:15.112Z</time></trkpt><trkpt lat="43.4137552" lon="11.159432"><ele>227.0</ele><time>2026-04-11T08:08:16.112Z</time></trkpt><trkpt lat="43.4136824" lon="11.1593356"><ele>227.00000000000003</ele><time>2026-04-11T08:08:17.112Z</time></trkpt><trkpt lat="43.41361" lon="11.1592478"><ele>227.0</ele><time>2026-04-11T08:08:18.112Z</time></trkpt><trkpt lat="43.4135486" lon="11.1591595"><ele>227.0</ele><time>2026-04-11T08:08:19.111Z</time></trkpt><trkpt lat="43.4135134" lon="11.1590512"><ele>227.0</ele><time>2026-04-11T08:08:20.112Z</time></trkpt><trkpt lat="43.4135125" lon="11.1589372"><ele>227.00000000000003</ele><time>2026-04-11T08:08:21.112Z</time></trkpt><trkpt lat="43.4135404" lon="11.1588271"><ele>227.0</ele><time>2026-04-11T08:08:22.112Z</time></trkpt><trkpt lat="43.4135638" lon="11.1587103"><ele>226.83333333333334</ele><time>2026-04-11T08:08:23.112Z</time></trkpt><trkpt lat="43.4135664" lon="11.1585856"><ele>226.66666666666669</ele><time>2026-04-11T08:08:24.111Z</time></trkpt><trkpt lat="43.4135475" lon="11.1584683"><ele>226.5</ele><time>2026-04-11T08:08:25.112Z</time></trkpt><trkpt lat="43.4135058" lon="11.1583757"><ele>226.33333333333331</ele><time>2026-04-11T08:08:26.112Z</time></trkpt><trkpt lat="43.4134438" lon="11.1582969"><ele>226.16666666666666</ele><time>2026-04-11T08:08:27.112Z</time></trkpt><trkpt lat="43.4133578" lon="11.1582426"><ele>226.0</ele><time>2026-04-11T08:08:28.112Z</time></trkpt><trkpt lat="43.4132689" lon="11.1582099"><ele>226.20000000000002</ele><time>2026-04-11T08:08:29.112Z</time></trkpt><trkpt lat="43.4131778" lon="11.1581518"><ele>226.40000000000003</ele><time>2026-04-11T08:08:30.112Z</time></trkpt><trkpt lat="43.4130913" lon="11.1580524"><ele>226.6</ele><time>2026-04-11T08:08:31.112Z</time></trkpt><trkpt lat="43.4130219" lon="11.1579297"><ele>226.8</ele><time>2026-04-11T08:08:32.111Z</time></trkpt><trkpt lat="43.4129537" lon="11.1578011"><ele>227.0</ele><time>2026-04-11T08:08:33.111Z</time></trkpt><trkpt lat="43.4128761" lon="11.1576632"><ele>227.0</ele><time>2026-04-11T08:08:34.111Z</time></trkpt><trkpt lat="43.4127991" lon="11.1575266"><ele>227.0</ele><time>2026-04-11T08:08:35.112Z</time></trkpt><trkpt lat="43.4127249" lon="11.1573864"><ele>227.0</ele><time>2026-04-11T08:08:36.111Z</time></trkpt><trkpt lat="43.4126508" lon="11.1572419"><ele>227.0</ele><time>2026-04-11T08:08:37.111Z</time></trkpt><trkpt lat="43.4125805" lon="11.1570911"><ele>227.25</ele><time>2026-04-11T08:08:38.112Z</time></trkpt><trkpt lat="43.4125166" lon="11.1569377"><ele>227.5</ele><time>2026-04-11T08:08:39.112Z</time></trkpt><trkpt lat="43.4124524" lon="11.1567697"><ele>227.75</ele><time>2026-04-11T08:08:40.112Z</time></trkpt><trkpt lat="43.4123913" lon="11.1565884"><ele>228.0</ele><time>2026-04-11T08:08:41.112Z</time></trkpt><trkpt lat="43.4123374" lon="11.1563985"><ele>228.5</ele><time>2026-04-11T08:08:42.112Z</time></trkpt><trkpt lat="43.4122915" lon="11.1562127"><ele>229.0</ele><time>2026-04-11T08:08:43.112Z</time></trkpt><trkpt lat="43.4122476" lon="11.1560237"><ele>229.5</ele><time>2026-04-11T08:08:44.112Z</time></trkpt><trkpt lat="43.4122035" lon="11.1558258"><ele>230.0</ele><time>2026-04-11T08:08:45.112Z</time></trkpt><trkpt lat="43.412171" lon="11.1556235"><ele>230.25</ele><time>2026-04-11T08:08:46.111Z</time></trkpt><trkpt lat="43.4121322" lon="11.1554265"><ele>230.5</ele><time>2026-04-11T08:08:47.112Z</time></trkpt><trkpt lat="43.4120879" lon="11.1552356"><ele>230.75</ele><time>2026-04-11T08:08:48.112Z</time></trkpt><trkpt lat="43.4120347" lon="11.1550411"><ele>231.0</ele><time>2026-04-11T08:08:49.112Z</time></trkpt><trkpt lat="43.4119635" lon="11.1548457"><ele>231.0</ele><time>2026-04-11T08:08:50.112Z</time></trkpt><trkpt lat="43.4118754" lon="11.1546421"><ele>231.0</ele><time>2026-04-11T08:08:51.111Z</time></trkpt><trkpt lat="43.4117796" lon="11.1544264"><ele>231.0</ele><time>2026-04-11T08:08:52.112Z</time></trkpt><trkpt lat="43.4116724" lon="11.154204"><ele>230.66666666666669</ele><time>2026-04-11T08:08:53.112Z</time></trkpt><trkpt lat="43.4115536" lon="11.1539829"><ele>230.33333333333334</ele><time>2026-04-11T08:08:54.111Z</time></trkpt><trkpt lat="43.4114157" lon="11.1537648"><ele>230.0</ele><time>2026-04-11T08:08:55.112Z</time></trkpt><trkpt lat="43.4112656" lon="11.1535578"><ele>230.0</ele><time>2026-04-11T08:08:56.111Z</time></trkpt><trkpt lat="43.4111064" lon="11.1533448"><ele>230.0</ele><time>2026-04-11T08:08:57.111Z</time></trkpt><trkpt lat="43.4109412" lon="11.1531305"><ele>230.0</ele><time>2026-04-11T08:08:58.112Z</time></trkpt><trkpt lat="43.4107755" lon="11.1529214"><ele>230.0</ele><time>2026-04-11T08:08:59.112Z</time></trkpt><trkpt lat="43.4106046" lon="11.1527095"><ele>230.0</ele><time>2026-04-11T08:09:00.111Z</time></trkpt><trkpt lat="43.4104336" lon="11.1524984"><ele>227.0</ele><time>2026-04-11T08:09:01.111Z</time></trkpt><trkpt lat="43.4102624" lon="11.1522917"><ele>224.0</ele><time>2026-04-11T08:09:02.112Z</time></trkpt><trkpt lat="43.4100973" lon="11.152078"><ele>224.0</ele><time>2026-04-11T08:09:03.112Z</time></trkpt><trkpt lat="43.4099389" lon="11.1518681"><ele>224.0</ele><time>2026-04-11T08:09:04.111Z</time></trkpt><trkpt lat="43.4097875" lon="11.1516686"><ele>224.0</ele><time>2026-04-11T08:09:05.112Z</time></trkpt><trkpt lat="43.4096405" lon="11.1514772"><ele>221.0</ele><time>2026-04-11T08:09:06.112Z</time></trkpt><trkpt lat="43.4094975" lon="11.1512903"><ele>218.0</ele><time>2026-04-11T08:09:07.112Z</time></trkpt><trkpt lat="43.4093566" lon="11.151101"><ele>215.0</ele><time>2026-04-11T08:09:08.112Z</time></trkpt><trkpt lat="43.4092246" lon="11.1509091"><ele>215.0</ele><time>2026-04-11T08:09:09.111Z</time></trkpt><trkpt lat="43.4091075" lon="11.150714"><ele>215.0</ele><time>2026-04-11T08:09:10.111Z</time></trkpt><trkpt lat="43.4090001" lon="11.1505168"><ele>215.0</ele><time>2026-04-11T08:09:11.112Z</time></trkpt><trkpt lat="43.4089017" lon="11.1503102"><ele>211.66666666666669</ele><time>2026-04-11T08:09:12.111Z</time></trkpt><trkpt lat="43.408808" lon="11.1501024"><ele>208.33333333333331</ele><time>2026-04-11T08:09:13.111Z</time></trkpt><trkpt lat="43.4087262" lon="11.1498917"><ele>205.0</ele><time>2026-04-11T08:09:14.112Z</time></trkpt><trkpt lat="43.408656" lon="11.1496789"><ele>205.0</ele><time>2026-04-11T08:09:15.112Z</time></trkpt><trkpt lat="43.4085937" lon="11.1494716"><ele>205.0</ele><time>2026-04-11T08:09:16.112Z</time></trkpt><trkpt lat="43.4085417" lon="11.1492722"><ele>205.0</ele><time>2026-04-11T08:09:17.112Z</time></trkpt><trkpt lat="43.4084984" lon="11.1490795"><ele>204.25</ele><time>2026-04-11T08:09:18.112Z</time></trkpt><trkpt lat="43.4084576" lon="11.1489089"><ele>203.5</ele><time>2026-04-11T08:09:19.112Z</time></trkpt><trkpt lat="43.4084292" lon="11.1487498"><ele>202.75</ele><time>2026-04-11T08:09:20.111Z</time></trkpt><trkpt lat="43.4084045" lon="11.1485947"><ele>202.0</ele><time>2026-04-11T08:09:21.111Z</time></trkpt><trkpt lat="43.4083846" lon="11.1484207"><ele>202.0</ele><time>2026-04-11T08:09:22.111Z</time></trkpt><trkpt lat="43.4083743" lon="11.1482308"><ele>202.0</ele><time>2026-04-11T08:09:23.112Z</time></trkpt><trkpt lat="43.4083702" lon="11.1480388"><ele>202.0</ele><time>2026-04-11T08:09:24.112Z</time></trkpt><trkpt lat="43.4083685" lon="11.1478446"><ele>202.0</ele><time>2026-04-11T08:09:25.112Z</time></trkpt><trkpt lat="43.4083696" lon="11.1476502"><ele>200.75</ele><time>2026-04-11T08:09:26.112Z</time></trkpt><trkpt lat="43.4083663" lon="11.1474465"><ele>199.5</ele><time>2026-04-11T08:09:27.112Z</time></trkpt><trkpt lat="43.4083695" lon="11.1472357"><ele>198.25</ele><time>2026-04-11T08:09:28.112Z</time></trkpt><trkpt lat="43.4083679" lon="11.1470393"><ele>197.0</ele><time>2026-04-11T08:09:29.112Z</time></trkpt><trkpt lat="43.4083669" lon="11.1468456"><ele>195.33333333333334</ele><time>2026-04-11T08:09:30.112Z</time></trkpt><trkpt lat="43.4083565" lon="11.1466568"><ele>193.66666666666669</ele><time>2026-04-11T08:09:31.112Z</time></trkpt><trkpt lat="43.408336" lon="11.1464528"><ele>192.0</ele><time>2026-04-11T08:09:32.112Z</time></trkpt><trkpt lat="43.408312" lon="11.1462302"><ele>190.0</ele><time>2026-04-11T08:09:33.112Z</time></trkpt><trkpt lat="43.4082871" lon="11.1460197"><ele>188.0</ele><time>2026-04-11T08:09:34.112Z</time></trkpt><trkpt lat="43.4082539" lon="11.1458311"><ele>186.0</ele><time>2026-04-11T08:09:35.112Z</time></trkpt><trkpt lat="43.4082136" lon="11.1456493"><ele>184.0</ele><time>2026-04-11T08:09:36.111Z</time></trkpt><trkpt lat="43.4081601" lon="11.1454559"><ele>183.0</ele><time>2026-04-11T08:09:37.112Z</time></trkpt><trkpt lat="43.4080897" lon="11.1452565"><ele>182.0</ele><time>2026-04-11T08:09:38.111Z</time></trkpt><trkpt lat="43.4080143" lon="11.1450862"><ele>181.0</ele><time>2026-04-11T08:09:39.112Z</time></trkpt><trkpt lat="43.4079251" lon="11.1449227"><ele>179.75</ele><time>2026-04-11T08:09:40.112Z</time></trkpt><trkpt lat="43.4078384" lon="11.1447694"><ele>178.5</ele><time>2026-04-11T08:09:41.112Z</time></trkpt><trkpt lat="43.4077456" lon="11.1446274"><ele>177.25</ele><time>2026-04-11T08:09:42.112Z</time></trkpt><trkpt lat="43.4076457" lon="11.144491"><ele>176.0</ele><time>2026-04-11T08:09:43.112Z</time></trkpt><trkpt lat="43.4075337" lon="11.1443564"><ele>176.0</ele><time>2026-04-11T08:09:44.112Z</time></trkpt><trkpt lat="43.4074111" lon="11.1442162"><ele>176.0</ele><time>2026-04-11T08:09:45.112Z</time></trkpt><trkpt lat="43.4072864" lon="11.144084"><ele>176.0</ele><time>2026-04-11T08:09:46.112Z</time></trkpt><trkpt lat="43.4071675" lon="11.1439612"><ele>175.25</ele><time>2026-04-11T08:09:47.112Z</time></trkpt><trkpt lat="43.4070584" lon="11.14385"><ele>174.5</ele><time>2026-04-11T08:09:48.112Z</time></trkpt><trkpt lat="43.4069554" lon="11.1437409"><ele>173.75</ele><time>2026-04-11T08:09:49.112Z</time></trkpt><trkpt lat="43.4068638" lon="11.1436361"><ele>173.0</ele><time>2026-04-11T08:09:50.111Z</time></trkpt><trkpt lat="43.4067798" lon="11.1435442"><ele>173.0</ele><time>2026-04-11T08:09:51.112Z</time></trkpt><trkpt lat="43.4067092" lon="11.1434649"><ele>173.0</ele><time>2026-04-11T08:09:52.112Z</time></trkpt><trkpt lat="43.4066585" lon="11.1433978"><ele>173.0</ele><time>2026-04-11T08:09:53.111Z</time></trkpt><trkpt lat="43.4066005" lon="11.1432698"><ele>173.0</ele><time>2026-04-11T08:09:55.112Z</time></trkpt><trkpt lat="43.4066003" lon="11.1431248"><ele>173.0</ele><time>2026-04-11T08:09:57.112Z</time></trkpt><trkpt lat="43.4066461" lon="11.1429646"><ele>173.0</ele><time>2026-04-11T08:09:59.111Z</time></trkpt><trkpt lat="43.4066776" lon="11.142803"><ele>173.0</ele><time>2026-04-11T08:10:01.112Z</time></trkpt><trkpt lat="43.4066795" lon="11.142697"><ele>173.0</ele><time>2026-04-11T08:10:02.111Z</time></trkpt><trkpt lat="43.4066917" lon="11.1425833"><ele>173.0</ele><time>2026-04-11T08:10:03.112Z</time></trkpt><trkpt lat="43.4067386" lon="11.1424883"><ele>173.0</ele><time>2026-04-11T08:10:04.111Z</time></trkpt><trkpt lat="43.4068053" lon="11.1424209"><ele>173.0</ele><time>2026-04-11T08:10:05.112Z</time></trkpt><trkpt lat="43.4068794" lon="11.1423644"><ele>172.83333333333331</ele><time>2026-04-11T08:10:06.112Z</time></trkpt><trkpt lat="43.4069461" lon="11.1423069"><ele>172.66666666666666</ele><time>2026-04-11T08:10:07.112Z</time></trkpt><trkpt lat="43.4070194" lon="11.1422406"><ele>172.5</ele><time>2026-04-11T08:10:09.112Z</time></trkpt><trkpt lat="43.4070409" lon="11.1421303"><ele>172.33333333333334</ele><time>2026-04-11T08:10:11.112Z</time></trkpt><trkpt lat="43.4070309" lon="11.1420398"><ele>172.16666666666669</ele><time>2026-04-11T08:10:12.112Z</time></trkpt><trkpt lat="43.4070116" lon="11.1419478"><ele>172.0</ele><time>2026-04-11T08:10:13.112Z</time></trkpt><trkpt lat="43.4069868" lon="11.1418301"><ele>172.0</ele><time>2026-04-11T08:10:14.112Z</time></trkpt><trkpt lat="43.4069566" lon="11.141695"><ele>172.0</ele><time>2026-04-11T08:10:15.112Z</time></trkpt><trkpt lat="43.406923" lon="11.1415536"><ele>172.0</ele><time>2026-04-11T08:10:16.111Z</time></trkpt><trkpt lat="43.4068882" lon="11.1413951"><ele>172.0</ele><time>2026-04-11T08:10:17.111Z</time></trkpt><trkpt lat="43.406849" lon="11.1412205"><ele>171.25</ele><time>2026-04-11T08:10:18.111Z</time></trkpt><trkpt lat="43.4068121" lon="11.1410488"><ele>170.5</ele><time>2026-04-11T08:10:19.111Z</time></trkpt><trkpt lat="43.4067685" lon="11.1408664"><ele>169.75</ele><time>2026-04-11T08:10:20.112Z</time></trkpt><trkpt lat="43.4067249" lon="11.1406719"><ele>169.0</ele><time>2026-04-11T08:10:21.112Z</time></trkpt><trkpt lat="43.4066666" lon="11.1404848"><ele>168.66666666666669</ele><time>2026-04-11T08:10:22.111Z</time></trkpt><trkpt lat="43.4066019" lon="11.1403045"><ele>168.33333333333334</ele><time>2026-04-11T08:10:23.111Z</time></trkpt><trkpt lat="43.406517" lon="11.1401294"><ele>168.0</ele><time>2026-04-11T08:10:24.112Z</time></trkpt><trkpt lat="43.4064219" lon="11.1399635"><ele>168.25</ele><time>2026-04-11T08:10:25.112Z</time></trkpt><trkpt lat="43.4063337" lon="11.1398104"><ele>168.5</ele><time>2026-04-11T08:10:26.111Z</time></trkpt><trkpt lat="43.4062476" lon="11.1396636"><ele>168.75</ele><time>2026-04-11T08:10:27.112Z</time></trkpt><trkpt lat="43.4061625" lon="11.1395314"><ele>169.0</ele><time>2026-04-11T08:10:28.112Z</time></trkpt><trkpt lat="43.406078" lon="11.1393885"><ele>169.0</ele><time>2026-04-11T08:10:29.112Z</time></trkpt><trkpt lat="43.4059925" lon="11.1392438"><ele>169.0</ele><time>2026-04-11T08:10:30.111Z</time></trkpt><trkpt lat="43.4059097" lon="11.1390998"><ele>169.0</ele><time>2026-04-11T08:10:31.112Z</time></trkpt><trkpt lat="43.4058319" lon="11.1389764"><ele>169.0</ele><time>2026-04-11T08:10:32.112Z</time></trkpt><trkpt lat="43.4057636" lon="11.1388674"><ele>169.0</ele><time>2026-04-11T08:10:33.112Z</time></trkpt><trkpt lat="43.4057028" lon="11.1387656"><ele>169.0</ele><time>2026-04-11T08:10:34.112Z</time></trkpt><trkpt lat="43.405652" lon="11.1386772"><ele>169.0</ele><time>2026-04-11T08:10:35.111Z</time></trkpt><trkpt lat="43.4056048" lon="11.1385934"><ele>169.0</ele><time>2026-04-11T08:10:36.112Z</time></trkpt><trkpt lat="43.4055592" lon="11.1385207"><ele>169.0</ele><time>2026-04-11T08:10:37.112Z</time></trkpt><trkpt lat="43.4055147" lon="11.1384489"><ele>169.0</ele><time>2026-04-11T08:10:38.112Z</time></trkpt><trkpt lat="43.4054675" lon="11.1383734"><ele>169.33333333333334</ele><time>2026-04-11T08:10:39.111Z</time></trkpt><trkpt lat="43.4054153" lon="11.1382967"><ele>169.66666666666669</ele><time>2026-04-11T08:10:40.112Z</time></trkpt><trkpt lat="43.4053688" lon="11.1382196"><ele>170.0</ele><time>2026-04-11T08:10:41.112Z</time></trkpt><trkpt lat="43.4053195" lon="11.1381461"><ele>170.33333333333334</ele><time>2026-04-11T08:10:42.112Z</time></trkpt><trkpt lat="43.4052708" lon="11.1380649"><ele>170.66666666666666</ele><time>2026-04-11T08:10:43.112Z</time></trkpt><trkpt lat="43.4052176" lon="11.1379854"><ele>171.0</ele><time>2026-04-11T08:10:44.112Z</time></trkpt><trkpt lat="43.4051662" lon="11.1379089"><ele>171.0</ele><time>2026-04-11T08:10:45.111Z</time></trkpt><trkpt lat="43.4051252" lon="11.1378344"><ele>171.0</ele><time>2026-04-11T08:10:46.112Z</time></trkpt><trkpt lat="43.4050677" lon="11.1377387"><ele>171.0</ele><time>2026-04-11T08:10:48.111Z</time></trkpt><trkpt lat="43.4050041" lon="11.1376468"><ele>171.0</ele><time>2026-04-11T08:10:51.111Z</time></trkpt><trkpt lat="43.4049604" lon="11.1375647"><ele>171.0</ele><time>2026-04-11T08:10:53.111Z</time></trkpt><trkpt lat="43.4049185" lon="11.1374945"><ele>171.0</ele><time>2026-04-11T08:10:54.111Z</time></trkpt><trkpt lat="43.4048726" lon="11.1374223"><ele>171.20000000000002</ele><time>2026-04-11T08:10:55.112Z</time></trkpt><trkpt lat="43.4048251" lon="11.1373262"><ele>171.4</ele><time>2026-04-11T08:10:56.111Z</time></trkpt><trkpt lat="43.4047655" lon="11.1372195"><ele>171.6</ele><time>2026-04-11T08:10:57.111Z</time></trkpt><trkpt lat="43.4047018" lon="11.1371144"><ele>171.8</ele><time>2026-04-11T08:10:58.111Z</time></trkpt><trkpt lat="43.4046301" lon="11.1369952"><ele>172.0</ele><time>2026-04-11T08:10:59.112Z</time></trkpt><trkpt lat="43.4045532" lon="11.1368648"><ele>172.0</ele><time>2026-04-11T08:11:00.112Z</time></trkpt><trkpt lat="43.4044699" lon="11.1367266"><ele>172.0</ele><time>2026-04-11T08:11:01.112Z</time></trkpt><trkpt lat="43.4043704" lon="11.1365992"><ele>172.0</ele><time>2026-04-11T08:11:02.112Z</time></trkpt><trkpt lat="43.404257" lon="11.136477"><ele>172.0</ele><time>2026-04-11T08:11:03.111Z</time></trkpt><trkpt lat="43.4041327" lon="11.136365"><ele>172.5</ele><time>2026-04-11T08:11:04.112Z</time></trkpt><trkpt lat="43.404002" lon="11.136263"><ele>173.0</ele><time>2026-04-11T08:11:05.112Z</time></trkpt><trkpt lat="43.4038724" lon="11.1361778"><ele>173.5</ele><time>2026-04-11T08:11:06.112Z</time></trkpt><trkpt lat="43.4037543" lon="11.1360906"><ele>174.0</ele><time>2026-04-11T08:11:07.112Z</time></trkpt><trkpt lat="43.4036314" lon="11.1360158"><ele>174.0</ele><time>2026-04-11T08:11:08.112Z</time></trkpt><trkpt lat="43.4035219" lon="11.1359563"><ele>174.0</ele><time>2026-04-11T08:11:09.112Z</time></trkpt><trkpt lat="43.4034262" lon="11.1359076"><ele>174.0</ele><time>2026-04-11T08:11:10.111Z</time></trkpt><trkpt lat="43.4033423" lon="11.1358573"><ele>174.0</ele><time>2026-04-11T08:11:11.112Z</time></trkpt><trkpt lat="43.4032571" lon="11.1358008"><ele>174.0</ele><time>2026-04-11T08:11:12.112Z</time></trkpt><trkpt lat="43.403183" lon="11.1357342"><ele>174.16666666666666</ele><time>2026-04-11T08:11:13.112Z</time></trkpt><trkpt lat="43.4031283" lon="11.1356387"><ele>174.33333333333334</ele><time>2026-04-11T08:11:14.112Z</time></trkpt><trkpt lat="43.4031036" lon="11.135531"><ele>174.5</ele><time>2026-04-11T08:11:15.111Z</time></trkpt><trkpt lat="43.403113" lon="11.1354239"><ele>174.66666666666669</ele><time>2026-04-11T08:11:16.112Z</time></trkpt><trkpt lat="43.4031422" lon="11.1353072"><ele>174.83333333333334</ele><time>2026-04-11T08:11:17.112Z</time></trkpt><trkpt lat="43.4031772" lon="11.1351819"><ele>175.0</ele><time>2026-04-11T08:11:18.111Z</time></trkpt><trkpt lat="43.4032118" lon="11.1350671"><ele>175.0</ele><time>2026-04-11T08:11:19.112Z</time></trkpt><trkpt lat="43.4032317" lon="11.1349514"><ele>175.0</ele><time>2026-04-11T08:11:20.112Z</time></trkpt><trkpt lat="43.4032454" lon="11.1348598"><ele>175.0</ele><time>2026-04-11T08:11:21.111Z</time></trkpt><trkpt lat="43.4032832" lon="11.1347028"><ele>175.0</ele><time>2026-04-11T08:11:23.111Z</time></trkpt><trkpt lat="43.4032622" lon="11.134549"><ele>175.0</ele><time>2026-04-11T08:11:25.112Z</time></trkpt><trkpt lat="43.4031509" lon="11.1345077"><ele>174.8</ele><time>2026-04-11T08:11:27.112Z</time></trkpt><trkpt lat="43.4030753" lon="11.1345194"><ele>174.6</ele><time>2026-04-11T08:11:28.112Z</time></trkpt><trkpt lat="43.4029936" lon="11.1345173"><ele>174.39999999999998</ele><time>2026-04-11T08:11:29.111Z</time></trkpt><trkpt lat="43.4028979" lon="11.1344953"><ele>174.2</ele><time>2026-04-11T08:11:30.112Z</time></trkpt><trkpt lat="43.4027997" lon="11.1344596"><ele>174.0</ele><time>2026-04-11T08:11:31.112Z</time></trkpt><trkpt lat="43.4027034" lon="11.1344251"><ele>174.6</ele><time>2026-04-11T08:11:32.112Z</time></trkpt><trkpt lat="43.4026027" lon="11.134387"><ele>175.2</ele><time>2026-04-11T08:11:33.112Z</time></trkpt><trkpt lat="43.4024983" lon="11.1343431"><ele>175.79999999999998</ele><time>2026-04-11T08:11:34.111Z</time></trkpt><trkpt lat="43.4023989" lon="11.134295"><ele>176.39999999999998</ele><time>2026-04-11T08:11:35.112Z</time></trkpt><trkpt lat="43.4022982" lon="11.1342435"><ele>177.0</ele><time>2026-04-11T08:11:36.112Z</time></trkpt><trkpt lat="43.4022036" lon="11.1341979"><ele>177.2</ele><time>2026-04-11T08:11:37.112Z</time></trkpt><trkpt lat="43.4021181" lon="11.1341523"><ele>177.39999999999998</ele><time>2026-04-11T08:11:38.112Z</time></trkpt><trkpt lat="43.4020331" lon="11.134101"><ele>177.60000000000002</ele><time>2026-04-11T08:11:39.112Z</time></trkpt><trkpt lat="43.401952" lon="11.1340484"><ele>177.8</ele><time>2026-04-11T08:11:40.112Z</time></trkpt><trkpt lat="43.4018701" lon="11.1339969"><ele>178.0</ele><time>2026-04-11T08:11:41.112Z</time></trkpt><trkpt lat="43.4017841" lon="11.1339437"><ele>178.0</ele><time>2026-04-11T08:11:42.111Z</time></trkpt><trkpt lat="43.4017059" lon="11.1339065"><ele>178.0</ele><time>2026-04-11T08:11:43.112Z</time></trkpt><trkpt lat="43.4016415" lon="11.1338716"><ele>178.0</ele><time>2026-04-11T08:11:44.112Z</time></trkpt><trkpt lat="43.4015685" lon="11.1338364"><ele>178.0</ele><time>2026-04-11T08:11:45.112Z</time></trkpt><trkpt lat="43.4014913" lon="11.1337951"><ele>178.0</ele><time>2026-04-11T08:11:46.112Z</time></trkpt><trkpt lat="43.4014207" lon="11.133766"><ele>178.0</ele><time>2026-04-11T08:11:47.112Z</time></trkpt><trkpt lat="43.4013561" lon="11.133741"><ele>177.83333333333334</ele><time>2026-04-11T08:11:48.112Z</time></trkpt><trkpt lat="43.4012857" lon="11.1337114"><ele>177.66666666666669</ele><time>2026-04-11T08:11:49.112Z</time></trkpt><trkpt lat="43.4012147" lon="11.1336878"><ele>177.5</ele><time>2026-04-11T08:11:50.112Z</time></trkpt><trkpt lat="43.4011493" lon="11.1336637"><ele>177.33333333333334</ele><time>2026-04-11T08:11:51.112Z</time></trkpt><trkpt lat="43.4010822" lon="11.1336443"><ele>177.16666666666666</ele><time>2026-04-11T08:11:52.112Z</time></trkpt><trkpt lat="43.4009522" lon="11.1336071"><ele>177.0</ele><time>2026-04-11T08:11:54.112Z</time></trkpt><trkpt lat="43.4008808" lon="11.1335837"><ele>177.0</ele><time>2026-04-11T08:11:55.112Z</time></trkpt><trkpt lat="43.4008072" lon="11.1335595"><ele>177.0</ele><time>2026-04-11T08:11:56.111Z</time></trkpt><trkpt lat="43.400686" lon="11.1335163"><ele>177.0</ele><time>2026-04-11T08:11:58.111Z</time></trkpt><trkpt lat="43.4006022" lon="11.1334924"><ele>177.0</ele><time>2026-04-11T08:12:00.111Z</time></trkpt><trkpt lat="43.4005403" lon="11.1334703"><ele>177.0</ele><time>2026-04-11T08:12:03.111Z</time></trkpt><trkpt lat="43.4004462" lon="11.1334313"><ele>177.0</ele><time>2026-04-11T08:12:05.112Z</time></trkpt><trkpt lat="43.4003847" lon="11.1334091"><ele>177.16666666666666</ele><time>2026-04-11T08:12:06.112Z</time></trkpt><trkpt lat="43.4003176" lon="11.1333917"><ele>177.33333333333334</ele><time>2026-04-11T08:12:07.112Z</time></trkpt><trkpt lat="43.4002441" lon="11.1333615"><ele>177.5</ele><time>2026-04-11T08:12:08.112Z</time></trkpt><trkpt lat="43.4001604" lon="11.1333311"><ele>177.66666666666669</ele><time>2026-04-11T08:12:09.112Z</time></trkpt><trkpt lat="43.4000759" lon="11.1333005"><ele>177.83333333333334</ele><time>2026-04-11T08:12:10.112Z</time></trkpt><trkpt lat="43.3999849" lon="11.1332718"><ele>178.0</ele><time>2026-04-11T08:12:11.112Z</time></trkpt><trkpt lat="43.3998891" lon="11.1332375"><ele>177.8</ele><time>2026-04-11T08:12:12.111Z</time></trkpt><trkpt lat="43.3997877" lon="11.1332053"><ele>177.60000000000002</ele><time>2026-04-11T08:12:13.112Z</time></trkpt><trkpt lat="43.3996939" lon="11.1331721"><ele>177.39999999999998</ele><time>2026-04-11T08:12:14.112Z</time></trkpt><trkpt lat="43.3996159" lon="11.1331475"><ele>177.2</ele><time>2026-04-11T08:12:15.111Z</time></trkpt><trkpt lat="43.3995436" lon="11.1331166"><ele>177.0</ele><time>2026-04-11T08:12:16.112Z</time></trkpt><trkpt lat="43.3994523" lon="11.1330656"><ele>177.0</ele><time>2026-04-11T08:12:18.111Z</time></trkpt><trkpt lat="43.3993867" lon="11.1330503"><ele>177.0</ele><time>2026-04-11T08:12:31.112Z</time></trkpt><trkpt lat="43.3993978" lon="11.1329636"><ele>177.0</ele><time>2026-04-11T08:12:34.111Z</time></trkpt><trkpt lat="43.3994664" lon="11.1329055"><ele>177.0</ele><time>2026-04-11T08:12:37.112Z</time></trkpt><trkpt lat="43.3995449" lon="11.1329147"><ele>177.0</ele><time>2026-04-11T08:12:39.112Z</time></trkpt><trkpt lat="43.3996323" lon="11.1329436"><ele>177.0</ele><time>2026-04-11T08:12:41.112Z</time></trkpt><trkpt lat="43.3997166" lon="11.1329545"><ele>177.0</ele><time>2026-04-11T08:12:43.112Z</time></trkpt><trkpt lat="43.399783" lon="11.1329716"><ele>177.0</ele><time>2026-04-11T08:12:45.111Z</time></trkpt><trkpt lat="43.3997948" lon="11.1328768"><ele>177.0</ele><time>2026-04-11T08:12:49.112Z</time></trkpt><trkpt lat="43.3997007" lon="11.1328979"><ele>177.0</ele><time>2026-04-11T08:12:52.112Z</time></trkpt><trkpt lat="43.3996299" lon="11.1329191"><ele>177.0</ele><time>2026-04-11T08:12:54.112Z</time></trkpt><trkpt lat="43.399554" lon="11.1329269"><ele>177.0</ele><time>2026-04-11T08:12:56.112Z</time></trkpt><trkpt lat="43.3994817" lon="11.1329188"><ele>177.0</ele><time>2026-04-11T08:12:58.112Z</time></trkpt><trkpt lat="43.3994337" lon="11.1330001"><ele>177.0</ele><time>2026-04-11T08:13:01.111Z</time></trkpt><trkpt lat="43.3993915" lon="11.1330783"><ele>177.0</ele><time>2026-04-11T08:13:05.112Z</time></trkpt><trkpt lat="43.3993061" lon="11.1330631"><ele>177.0</ele><time>2026-04-11T08:13:07.111Z</time></trkpt><trkpt lat="43.3992068" lon="11.1330334"><ele>177.0</ele><time>2026-04-11T08:13:09.112Z</time></trkpt><trkpt lat="43.3990982" lon="11.1329897"><ele>177.0</ele><time>2026-04-11T08:13:11.112Z</time></trkpt><trkpt lat="43.3989841" lon="11.1329602"><ele>177.0</ele><time>2026-04-11T08:13:13.111Z</time></trkpt><trkpt lat="43.3988873" lon="11.1329289"><ele>177.0</ele><time>2026-04-11T08:13:15.112Z</time></trkpt><trkpt lat="43.3987911" lon="11.1329028"><ele>177.0</ele><time>2026-04-11T08:13:17.112Z</time></trkpt><trkpt lat="43.3986948" lon="11.1328786"><ele>177.0</ele><time>2026-04-11T08:13:19.112Z</time></trkpt><trkpt lat="43.398595" lon="11.1328436"><ele>177.0</ele><time>2026-04-11T08:13:21.112Z</time></trkpt><trkpt lat="43.3984815" lon="11.1327937"><ele>177.33333333333334</ele><time>2026-04-11T08:13:23.112Z</time></trkpt><trkpt lat="43.398417" lon="11.1327666"><ele>177.66666666666666</ele><time>2026-04-11T08:13:24.112Z</time></trkpt><trkpt lat="43.398349" lon="11.1327421"><ele>178.0</ele><time>2026-04-11T08:13:25.112Z</time></trkpt><trkpt lat="43.3982744" lon="11.1327167"><ele>178.33333333333331</ele><time>2026-04-11T08:13:26.111Z</time></trkpt><trkpt lat="43.3981985" lon="11.1326934"><ele>178.66666666666666</ele><time>2026-04-11T08:13:27.112Z</time></trkpt><trkpt lat="43.3981211" lon="11.1326631"><ele>179.0</ele><time>2026-04-11T08:13:28.112Z</time></trkpt><trkpt lat="43.3980403" lon="11.132636"><ele>179.39999999999998</ele><time>2026-04-11T08:13:29.112Z</time></trkpt><trkpt lat="43.3979553" lon="11.1326057"><ele>179.8</ele><time>2026-04-11T08:13:30.112Z</time></trkpt><trkpt lat="43.3978599" lon="11.1325794"><ele>180.2</ele><time>2026-04-11T08:13:31.112Z</time></trkpt><trkpt lat="43.3977602" lon="11.1325469"><ele>180.60000000000002</ele><time>2026-04-11T08:13:32.111Z</time></trkpt><trkpt lat="43.3976543" lon="11.1325164"><ele>181.0</ele><time>2026-04-11T08:13:33.111Z</time></trkpt><trkpt lat="43.3975585" lon="11.1324889"><ele>181.0</ele><time>2026-04-11T08:13:34.111Z</time></trkpt><trkpt lat="43.3974544" lon="11.1324569"><ele>181.0</ele><time>2026-04-11T08:13:35.112Z</time></trkpt><trkpt lat="43.3973473" lon="11.1324225"><ele>181.0</ele><time>2026-04-11T08:13:36.111Z</time></trkpt><trkpt lat="43.3972421" lon="11.1323906"><ele>181.0</ele><time>2026-04-11T08:13:37.112Z</time></trkpt><trkpt lat="43.3971436" lon="11.1323573"><ele>181.0</ele><time>2026-04-11T08:13:38.111Z</time></trkpt><trkpt lat="43.3970502" lon="11.1323239"><ele>181.0</ele><time>2026-04-11T08:13:39.112Z</time></trkpt><trkpt lat="43.3969549" lon="11.1322918"><ele>181.0</ele><time>2026-04-11T08:13:40.111Z</time></trkpt><trkpt lat="43.3968561" lon="11.1322598"><ele>181.0</ele><time>2026-04-11T08:13:41.112Z</time></trkpt><trkpt lat="43.3967621" lon="11.1322288"><ele>181.0</ele><time>2026-04-11T08:13:42.111Z</time></trkpt><trkpt lat="43.3966756" lon="11.1321959"><ele>181.0</ele><time>2026-04-11T08:13:43.112Z</time></trkpt><trkpt lat="43.3965951" lon="11.1321717"><ele>181.0</ele><time>2026-04-11T08:13:44.112Z</time></trkpt><trkpt lat="43.3965217" lon="11.1321458"><ele>181.0</ele><time>2026-04-11T08:13:45.112Z</time></trkpt><trkpt lat="43.3964521" lon="11.1321155"><ele>181.0</ele><time>2026-04-11T08:13:46.112Z</time></trkpt><trkpt lat="43.3963888" lon="11.1320884"><ele>181.0</ele><time>2026-04-11T08:13:47.112Z</time></trkpt><trkpt lat="43.3963035" lon="11.1320559"><ele>181.0</ele><time>2026-04-11T08:13:49.112Z</time></trkpt><trkpt lat="43.3962572" lon="11.1319944"><ele>181.0</ele><time>2026-04-11T08:13:51.112Z</time></trkpt><trkpt lat="43.3962399" lon="11.1318983"><ele>181.0</ele><time>2026-04-11T08:13:53.111Z</time></trkpt><trkpt lat="43.3962552" lon="11.1317783"><ele>181.0</ele><time>2026-04-11T08:13:55.112Z</time></trkpt><trkpt lat="43.3962828" lon="11.1316368"><ele>181.0</ele><time>2026-04-11T08:13:57.112Z</time></trkpt><trkpt lat="43.3963105" lon="11.1314942"><ele>181.0</ele><time>2026-04-11T08:13:59.112Z</time></trkpt><trkpt lat="43.3963314" lon="11.1313637"><ele>181.0</ele><time>2026-04-11T08:14:01.112Z</time></trkpt><trkpt lat="43.3963461" lon="11.1312597"><ele>181.0</ele><time>2026-04-11T08:14:03.111Z</time></trkpt><trkpt lat="43.3962949" lon="11.1311998"><ele>181.0</ele><time>2026-04-11T08:14:06.112Z</time></trkpt><trkpt lat="43.3962443" lon="11.1312596"><ele>181.0</ele><time>2026-04-11T08:14:09.112Z</time></trkpt><trkpt lat="43.3962169" lon="11.1313485"><ele>181.0</ele><time>2026-04-11T08:14:58.112Z</time></trkpt><trkpt lat="43.3962864" lon="11.1312703"><ele>181.0</ele><time>2026-04-11T08:15:04.111Z</time></trkpt><trkpt lat="43.3962193" lon="11.1312115"><ele>181.0</ele><time>2026-04-11T08:15:06.111Z</time></trkpt><trkpt lat="43.3961002" lon="11.1311687"><ele>181.0</ele><time>2026-04-11T08:15:08.111Z</time></trkpt><trkpt lat="43.3960353" lon="11.131139"><ele>181.0</ele><time>2026-04-11T08:15:09.111Z</time></trkpt><trkpt lat="43.3959736" lon="11.1311124"><ele>181.0</ele><time>2026-04-11T08:15:10.112Z</time></trkpt><trkpt lat="43.3959104" lon="11.1310873"><ele>181.0</ele><time>2026-04-11T08:15:11.112Z</time></trkpt><trkpt lat="43.3957861" lon="11.1310348"><ele>181.0</ele><time>2026-04-11T08:15:13.112Z</time></trkpt><trkpt lat="43.3956814" lon="11.1309985"><ele>181.0</ele><time>2026-04-11T08:15:15.112Z</time></trkpt><trkpt lat="43.3956083" lon="11.1309749"><ele>181.0</ele><time>2026-04-11T08:15:17.112Z</time></trkpt><trkpt lat="43.3955606" lon="11.1308886"><ele>181.0</ele><time>2026-04-11T08:15:21.111Z</time></trkpt><trkpt lat="43.395569" lon="11.1307673"><ele>181.0</ele><time>2026-04-11T08:15:23.112Z</time></trkpt><trkpt lat="43.3955916" lon="11.1306156"><ele>181.0</ele><time>2026-04-11T08:15:25.112Z</time></trkpt><trkpt lat="43.3956169" lon="11.1304386"><ele>181.0</ele><time>2026-04-11T08:15:27.112Z</time></trkpt><trkpt lat="43.3956294" lon="11.1303453"><ele>181.0</ele><time>2026-04-11T08:15:28.112Z</time></trkpt><trkpt lat="43.395661" lon="11.130179"><ele>180.60000000000002</ele><time>2026-04-11T08:15:30.112Z</time></trkpt><trkpt lat="43.3956938" lon="11.1300517"><ele>180.2</ele><time>2026-04-11T08:15:32.112Z</time></trkpt><trkpt lat="43.3957248" lon="11.1299553"><ele>179.8</ele><time>2026-04-11T08:15:34.112Z</time></trkpt><trkpt lat="43.3956636" lon="11.1300724"><ele>179.39999999999998</ele><time>2026-04-11T08:15:42.111Z</time></trkpt><trkpt lat="43.3956471" lon="11.1302148"><ele>179.0</ele><time>2026-04-11T08:15:44.112Z</time></trkpt><trkpt lat="43.3956286" lon="11.1303725"><ele>179.0</ele><time>2026-04-11T08:15:46.112Z</time></trkpt><trkpt lat="43.3956129" lon="11.130457"><ele>179.0</ele><time>2026-04-11T08:15:47.112Z</time></trkpt><trkpt lat="43.3955998" lon="11.1305454"><ele>179.0</ele><time>2026-04-11T08:15:48.112Z</time></trkpt><trkpt lat="43.3955711" lon="11.1307089"><ele>179.0</ele><time>2026-04-11T08:15:50.112Z</time></trkpt><trkpt lat="43.3955524" lon="11.130854"><ele>179.0</ele><time>2026-04-11T08:15:52.112Z</time></trkpt><trkpt lat="43.3955639" lon="11.1309737"><ele>179.0</ele><time>2026-04-11T08:15:54.112Z</time></trkpt><trkpt lat="43.3956742" lon="11.1310312"><ele>179.33333333333331</ele><time>2026-04-11T08:15:56.112Z</time></trkpt><trkpt lat="43.3957487" lon="11.1310544"><ele>179.66666666666666</ele><time>2026-04-11T08:15:57.112Z</time></trkpt><trkpt lat="43.3958289" lon="11.1310828"><ele>180.0</ele><time>2026-04-11T08:15:58.111Z</time></trkpt><trkpt lat="43.395915" lon="11.1311113"><ele>180.33333333333334</ele><time>2026-04-11T08:15:59.111Z</time></trkpt><trkpt lat="43.3960062" lon="11.1311364"><ele>180.66666666666669</ele><time>2026-04-11T08:16:00.112Z</time></trkpt><trkpt lat="43.3960889" lon="11.1311646"><ele>181.0</ele><time>2026-04-11T08:16:01.111Z</time></trkpt><trkpt lat="43.3961647" lon="11.1311859"><ele>181.0</ele><time>2026-04-11T08:16:02.112Z</time></trkpt><trkpt lat="43.3962344" lon="11.1312102"><ele>181.0</ele><time>2026-04-11T08:16:03.111Z</time></trkpt><trkpt lat="43.3962856" lon="11.1312635"><ele>181.0</ele><time>2026-04-11T08:16:04.111Z</time></trkpt><trkpt lat="43.3963121" lon="11.1314005"><ele>181.0</ele><time>2026-04-11T08:16:06.112Z</time></trkpt><trkpt lat="43.3963062" lon="11.1315106"><ele>181.0</ele><time>2026-04-11T08:16:08.112Z</time></trkpt><trkpt lat="43.3962825" lon="11.1316112"><ele>181.0</ele><time>2026-04-11T08:16:10.112Z</time></trkpt><trkpt lat="43.396261" lon="11.1317369"><ele>181.16666666666669</ele><time>2026-04-11T08:16:12.112Z</time></trkpt><trkpt lat="43.396231" lon="11.1318773"><ele>181.33333333333334</ele><time>2026-04-11T08:16:14.112Z</time></trkpt><trkpt lat="43.3962002" lon="11.131962"><ele>181.5</ele><time>2026-04-11T08:16:16.112Z</time></trkpt><trkpt lat="43.3961244" lon="11.1320192"><ele>181.66666666666666</ele><time>2026-04-11T08:16:20.112Z</time></trkpt><trkpt lat="43.3960293" lon="11.1320016"><ele>181.83333333333331</ele><time>2026-04-11T08:16:22.112Z</time></trkpt><trkpt lat="43.3959431" lon="11.1319923"><ele>182.0</ele><time>2026-04-11T08:16:24.112Z</time></trkpt><trkpt lat="43.3958443" lon="11.1319689"><ele>182.0</ele><time>2026-04-11T08:16:26.111Z</time></trkpt><trkpt lat="43.3957493" lon="11.1319202"><ele>182.0</ele><time>2026-04-11T08:16:28.111Z</time></trkpt><trkpt lat="43.3956385" lon="11.1318781"><ele>182.0</ele><time>2026-04-11T08:16:30.112Z</time></trkpt><trkpt lat="43.3955135" lon="11.1318411"><ele>182.0</ele><time>2026-04-11T08:16:32.111Z</time></trkpt><trkpt lat="43.3954447" lon="11.1318217"><ele>182.0</ele><time>2026-04-11T08:16:33.112Z</time></trkpt><trkpt lat="43.3953699" lon="11.1318"><ele>181.83333333333331</ele><time>2026-04-11T08:16:34.112Z</time></trkpt><trkpt lat="43.3952938" lon="11.1317778"><ele>181.66666666666666</ele><time>2026-04-11T08:16:35.112Z</time></trkpt><trkpt lat="43.3952192" lon="11.131764"><ele>181.5</ele><time>2026-04-11T08:16:36.112Z</time></trkpt><trkpt lat="43.3951452" lon="11.1317469"><ele>181.33333333333334</ele><time>2026-04-11T08:16:37.112Z</time></trkpt><trkpt lat="43.3950669" lon="11.1317299"><ele>181.16666666666669</ele><time>2026-04-11T08:16:38.112Z</time></trkpt><trkpt lat="43.3949888" lon="11.1317146"><ele>181.0</ele><time>2026-04-11T08:16:39.112Z</time></trkpt><trkpt lat="43.3949185" lon="11.1316865"><ele>181.0</ele><time>2026-04-11T08:16:40.112Z</time></trkpt><trkpt lat="43.3948486" lon="11.1316604"><ele>181.0</ele><time>2026-04-11T08:16:41.112Z</time></trkpt><trkpt lat="43.394787" lon="11.1316335"><ele>181.0</ele><time>2026-04-11T08:16:42.112Z</time></trkpt><trkpt lat="43.3947239" lon="11.1316131"><ele>181.0</ele><time>2026-04-11T08:16:43.111Z</time></trkpt><trkpt lat="43.3946096" lon="11.1315978"><ele>181.0</ele><time>2026-04-11T08:16:45.111Z</time></trkpt><trkpt lat="43.3945291" lon="11.1316375"><ele>181.0</ele><time>2026-04-11T08:16:47.112Z</time></trkpt><trkpt lat="43.394503" lon="11.1317228"><ele>181.0</ele><time>2026-04-11T08:16:50.112Z</time></trkpt><trkpt lat="43.394501" lon="11.1318474"><ele>181.0</ele><time>2026-04-11T08:16:54.112Z</time></trkpt><trkpt lat="43.3945187" lon="11.1319742"><ele>181.0</ele><time>2026-04-11T08:16:56.111Z</time></trkpt><trkpt lat="43.3945839" lon="11.1320309"><ele>181.0</ele><time>2026-04-11T08:16:58.111Z</time></trkpt><trkpt lat="43.3947025" lon="11.1320062"><ele>181.0</ele><time>2026-04-11T08:17:00.112Z</time></trkpt><trkpt lat="43.3947648" lon="11.1319844"><ele>181.0</ele><time>2026-04-11T08:17:01.112Z</time></trkpt><trkpt lat="43.394859" lon="11.1319751"><ele>181.0</ele><time>2026-04-11T08:17:03.112Z</time></trkpt><trkpt lat="43.3949283" lon="11.1319925"><ele>181.0</ele><time>2026-04-11T08:17:07.112Z</time></trkpt><trkpt lat="43.3949459" lon="11.1321179"><ele>181.0</ele><time>2026-04-11T08:17:11.112Z</time></trkpt><trkpt lat="43.3949597" lon="11.1322161"><ele>181.0</ele><time>2026-04-11T08:17:13.111Z</time></trkpt><trkpt lat="43.3949738" lon="11.1323111"><ele>181.0</ele><time>2026-04-11T08:17:15.112Z</time></trkpt><trkpt lat="43.3950175" lon="11.1323907"><ele>181.0</ele><time>2026-04-11T08:17:19.112Z</time></trkpt><trkpt lat="43.3950788" lon="11.1324164"><ele>181.0</ele><time>2026-04-11T08:17:22.112Z</time></trkpt><trkpt lat="43.3951553" lon="11.1324231"><ele>181.28571428571428</ele><time>2026-04-11T08:17:25.112Z</time></trkpt><trkpt lat="43.395227" lon="11.1324649"><ele>181.57142857142856</ele><time>2026-04-11T08:17:28.112Z</time></trkpt><trkpt lat="43.3952672" lon="11.1325324"><ele>181.85714285714286</ele><time>2026-04-11T08:17:31.112Z</time></trkpt><trkpt lat="43.3952789" lon="11.132634"><ele>182.14285714285714</ele><time>2026-04-11T08:17:34.112Z</time></trkpt><trkpt lat="43.3952786" lon="11.1327329"><ele>182.42857142857144</ele><time>2026-04-11T08:17:36.112Z</time></trkpt><trkpt lat="43.395267" lon="11.1328273"><ele>182.71428571428572</ele><time>2026-04-11T08:17:38.111Z</time></trkpt><trkpt lat="43.3952522" lon="11.1329147"><ele>183.0</ele><time>2026-04-11T08:17:41.112Z</time></trkpt><trkpt lat="43.3952743" lon="11.132813"><ele>183.0</ele><time>2026-04-11T08:17:47.111Z</time></trkpt><trkpt lat="43.3952618" lon="11.1327189"><ele>183.0</ele><time>2026-04-11T08:17:49.111Z</time></trkpt><trkpt lat="43.3952581" lon="11.1326233"><ele>183.0</ele><time>2026-04-11T08:17:51.112Z</time></trkpt><trkpt lat="43.3952476" lon="11.1325323"><ele>183.0</ele><time>2026-04-11T08:17:53.112Z</time></trkpt><trkpt lat="43.3952097" lon="11.1324579"><ele>183.0</ele><time>2026-04-11T08:17:55.112Z</time></trkpt><trkpt lat="43.395128" lon="11.1324236"><ele>183.0</ele><time>2026-04-11T08:17:58.112Z</time></trkpt><trkpt lat="43.3950528" lon="11.1323943"><ele>183.0</ele><time>2026-04-11T08:18:52.112Z</time></trkpt><trkpt lat="43.3949775" lon="11.1323221"><ele>182.60000000000002</ele><time>2026-04-11T08:18:55.111Z</time></trkpt><trkpt lat="43.3949661" lon="11.1321988"><ele>182.20000000000002</ele><time>2026-04-11T08:18:57.112Z</time></trkpt><trkpt lat="43.3949497" lon="11.1320716"><ele>181.8</ele><time>2026-04-11T08:18:59.112Z</time></trkpt><trkpt lat="43.3949077" lon="11.1319762"><ele>181.4</ele><time>2026-04-11T08:19:01.112Z</time></trkpt><trkpt lat="43.3948248" lon="11.1319677"><ele>181.0</ele><time>2026-04-11T08:19:03.111Z</time></trkpt><trkpt lat="43.3946958" lon="11.1320165"><ele>181.0</ele><time>2026-04-11T08:19:05.112Z</time></trkpt><trkpt lat="43.3946332" lon="11.1320305"><ele>181.0</ele><time>2026-04-11T08:19:06.112Z</time></trkpt><trkpt lat="43.3945422" lon="11.1320054"><ele>181.0</ele><time>2026-04-11T08:19:08.112Z</time></trkpt><trkpt lat="43.3945208" lon="11.1319133"><ele>181.0</ele><time>2026-04-11T08:19:10.112Z</time></trkpt><trkpt lat="43.394554" lon="11.1318247"><ele>181.0</ele><time>2026-04-11T08:19:13.112Z</time></trkpt><trkpt lat="43.3946456" lon="11.1317783"><ele>181.0</ele><time>2026-04-11T08:19:15.112Z</time></trkpt><trkpt lat="43.3947166" lon="11.13174"><ele>181.0</ele><time>2026-04-11T08:19:17.112Z</time></trkpt><trkpt lat="43.3947222" lon="11.1316289"><ele>181.0</ele><time>2026-04-11T08:19:20.112Z</time></trkpt><trkpt lat="43.3946288" lon="11.1315723"><ele>181.0</ele><time>2026-04-11T08:19:22.111Z</time></trkpt><trkpt lat="43.3944971" lon="11.1315516"><ele>181.0</ele><time>2026-04-11T08:19:24.112Z</time></trkpt><trkpt lat="43.39443" lon="11.1315372"><ele>181.0</ele><time>2026-04-11T08:19:25.112Z</time></trkpt><trkpt lat="43.3943198" lon="11.1315319"><ele>180.8</ele><time>2026-04-11T08:19:27.112Z</time></trkpt><trkpt lat="43.3942464" lon="11.1314752"><ele>180.60000000000002</ele><time>2026-04-11T08:19:30.112Z</time></trkpt><trkpt lat="43.394348" lon="11.1315197"><ele>180.4</ele><time>2026-04-11T08:19:37.111Z</time></trkpt><trkpt lat="43.3944482" lon="11.1315372"><ele>180.2</ele><time>2026-04-11T08:19:39.112Z</time></trkpt><trkpt lat="43.3945141" lon="11.1314789"><ele>180.0</ele><time>2026-04-11T08:19:41.112Z</time></trkpt><trkpt lat="43.3945407" lon="11.131371"><ele>180.0</ele><time>2026-04-11T08:19:43.112Z</time></trkpt><trkpt lat="43.394568" lon="11.1312421"><ele>180.0</ele><time>2026-04-11T08:19:45.111Z</time></trkpt><trkpt lat="43.3945932" lon="11.1311147"><ele>180.0</ele><time>2026-04-11T08:19:47.111Z</time></trkpt><trkpt lat="43.3946452" lon="11.1310655"><ele>180.0</ele><time>2026-04-11T08:19:52.112Z</time></trkpt><trkpt lat="43.3946344" lon="11.1311734"><ele>180.0</ele><time>2026-04-11T08:19:56.111Z</time></trkpt><trkpt lat="43.3945703" lon="11.1312968"><ele>180.0</ele><time>2026-04-11T08:19:58.112Z</time></trkpt><trkpt lat="43.3945262" lon="11.1314074"><ele>180.0</ele><time>2026-04-11T08:20:00.112Z</time></trkpt><trkpt lat="43.3945053" lon="11.1315327"><ele>180.0</ele><time>2026-04-11T08:21:54.112Z</time></trkpt><trkpt lat="43.394515" lon="11.1316513"><ele>180.0</ele><time>2026-04-11T08:21:56.111Z</time></trkpt><trkpt lat="43.3945427" lon="11.1317476"><ele>180.0</ele><time>2026-04-11T08:21:58.112Z</time></trkpt><trkpt lat="43.3946377" lon="11.1317981"><ele>180.0</ele><time>2026-04-11T08:22:00.112Z</time></trkpt><trkpt lat="43.3947069" lon="11.131791"><ele>180.0</ele><time>2026-04-11T08:22:01.112Z</time></trkpt><trkpt lat="43.3947874" lon="11.1317727"><ele>180.2</ele><time>2026-04-11T08:22:02.112Z</time></trkpt><trkpt lat="43.3948758" lon="11.1317621"><ele>180.4</ele><time>2026-04-11T08:22:03.112Z</time></trkpt><trkpt lat="43.3949715" lon="11.1317584"><ele>180.60000000000002</ele><time>2026-04-11T08:22:04.112Z</time></trkpt><trkpt lat="43.3950698" lon="11.1317688"><ele>180.8</ele><time>2026-04-11T08:22:05.112Z</time></trkpt><trkpt lat="43.3951706" lon="11.1317861"><ele>181.0</ele><time>2026-04-11T08:22:06.112Z</time></trkpt><trkpt lat="43.3952733" lon="11.1318044"><ele>181.0</ele><time>2026-04-11T08:22:07.111Z</time></trkpt><trkpt lat="43.395378" lon="11.1318325"><ele>181.0</ele><time>2026-04-11T08:22:08.112Z</time></trkpt><trkpt lat="43.3954762" lon="11.1318611"><ele>181.0</ele><time>2026-04-11T08:22:09.112Z</time></trkpt><trkpt lat="43.3955769" lon="11.1318955"><ele>181.0</ele><time>2026-04-11T08:22:10.112Z</time></trkpt><trkpt lat="43.3956775" lon="11.1319352"><ele>181.0</ele><time>2026-04-11T08:22:11.112Z</time></trkpt><trkpt lat="43.395776" lon="11.1319686"><ele>181.16666666666669</ele><time>2026-04-11T08:22:12.111Z</time></trkpt><trkpt lat="43.3958695" lon="11.1320009"><ele>181.33333333333334</ele><time>2026-04-11T08:22:13.111Z</time></trkpt><trkpt lat="43.3959634" lon="11.1320314"><ele>181.5</ele><time>2026-04-11T08:22:14.112Z</time></trkpt><trkpt lat="43.3960474" lon="11.1320648"><ele>181.66666666666666</ele><time>2026-04-11T08:22:15.111Z</time></trkpt><trkpt lat="43.3961256" lon="11.1320913"><ele>181.83333333333331</ele><time>2026-04-11T08:22:16.111Z</time></trkpt><trkpt lat="43.3961951" lon="11.1321172"><ele>182.0</ele><time>2026-04-11T08:22:17.112Z</time></trkpt><trkpt lat="43.3962726" lon="11.1321387"><ele>181.83333333333331</ele><time>2026-04-11T08:22:18.112Z</time></trkpt><trkpt lat="43.396359" lon="11.1321612"><ele>181.66666666666666</ele><time>2026-04-11T08:22:19.112Z</time></trkpt><trkpt lat="43.3964385" lon="11.1321821"><ele>181.5</ele><time>2026-04-11T08:22:20.111Z</time></trkpt><trkpt lat="43.396507" lon="11.1322118"><ele>181.33333333333334</ele><time>2026-04-11T08:22:21.111Z</time></trkpt><trkpt lat="43.3965742" lon="11.1322735"><ele>181.16666666666669</ele><time>2026-04-11T08:22:23.111Z</time></trkpt><trkpt lat="43.3965898" lon="11.1321758"><ele>181.0</ele><time>2026-04-11T08:22:29.111Z</time></trkpt><trkpt lat="43.3965119" lon="11.1321609"><ele>181.0</ele><time>2026-04-11T08:22:31.112Z</time></trkpt><trkpt lat="43.3964308" lon="11.1321452"><ele>181.0</ele><time>2026-04-11T08:22:33.112Z</time></trkpt><trkpt lat="43.3963424" lon="11.1321456"><ele>181.0</ele><time>2026-04-11T08:22:36.112Z</time></trkpt><trkpt lat="43.3962931" lon="11.1322389"><ele>181.0</ele><time>2026-04-11T08:22:39.112Z</time></trkpt><trkpt lat="43.3962871" lon="11.132362"><ele>181.0</ele><time>2026-04-11T08:22:41.112Z</time></trkpt><trkpt lat="43.3962794" lon="11.1325234"><ele>181.28571428571428</ele><time>2026-04-11T08:22:43.111Z</time></trkpt><trkpt lat="43.3962659" lon="11.1326186"><ele>181.57142857142856</ele><time>2026-04-11T08:22:44.112Z</time></trkpt><trkpt lat="43.3962498" lon="11.1327142"><ele>181.85714285714286</ele><time>2026-04-11T08:22:45.112Z</time></trkpt><trkpt lat="43.3962374" lon="11.1328075"><ele>182.14285714285714</ele><time>2026-04-11T08:22:46.112Z</time></trkpt><trkpt lat="43.396231" lon="11.1329066"><ele>182.42857142857144</ele><time>2026-04-11T08:22:47.112Z</time></trkpt><trkpt lat="43.3962257" lon="11.1330133"><ele>182.71428571428572</ele><time>2026-04-11T08:22:48.112Z</time></trkpt><trkpt lat="43.3962242" lon="11.1331236"><ele>183.0</ele><time>2026-04-11T08:22:49.112Z</time></trkpt><trkpt lat="43.3962189" lon="11.1332218"><ele>183.0</ele><time>2026-04-11T08:22:50.112Z</time></trkpt><trkpt lat="43.3962143" lon="11.1333319"><ele>183.0</ele><time>2026-04-11T08:22:51.112Z</time></trkpt><trkpt lat="43.396212" lon="11.1334414"><ele>183.0</ele><time>2026-04-11T08:22:52.112Z</time></trkpt><trkpt lat="43.3962106" lon="11.1335547"><ele>183.0</ele><time>2026-04-11T08:22:53.112Z</time></trkpt><trkpt lat="43.3962107" lon="11.1336645"><ele>183.0</ele><time>2026-04-11T08:22:54.112Z</time></trkpt><trkpt lat="43.3962093" lon="11.1337704"><ele>183.0</ele><time>2026-04-11T08:22:55.112Z</time></trkpt><trkpt lat="43.396211" lon="11.1338735"><ele>183.0</ele><time>2026-04-11T08:22:56.112Z</time></trkpt><trkpt lat="43.3962115" lon="11.1339802"><ele>183.0</ele><time>2026-04-11T08:22:57.112Z</time></trkpt><trkpt lat="43.3962084" lon="11.1340921"><ele>183.0</ele><time>2026-04-11T08:22:58.112Z</time></trkpt><trkpt lat="43.3961964" lon="11.1342093"><ele>183.0</ele><time>2026-04-11T08:22:59.112Z</time></trkpt><trkpt lat="43.3961874" lon="11.1343334"><ele>183.0</ele><time>2026-04-11T08:23:00.112Z</time></trkpt><trkpt lat="43.3961825" lon="11.1344629"><ele>183.0</ele><time>2026-04-11T08:23:01.111Z</time></trkpt><trkpt lat="43.3961778" lon="11.1345948"><ele>183.0</ele><time>2026-04-11T08:23:02.112Z</time></trkpt><trkpt lat="43.3961716" lon="11.1347378"><ele>183.0</ele><time>2026-04-11T08:23:03.112Z</time></trkpt><trkpt lat="43.3961731" lon="11.1348733"><ele>183.0</ele><time>2026-04-11T08:23:04.112Z</time></trkpt><trkpt lat="43.3961634" lon="11.135005"><ele>183.0</ele><time>2026-04-11T08:23:05.111Z</time></trkpt><trkpt lat="43.3961484" lon="11.1351272"><ele>183.0</ele><time>2026-04-11T08:23:06.112Z</time></trkpt><trkpt lat="43.3961286" lon="11.1352566"><ele>183.16666666666666</ele><time>2026-04-11T08:23:07.112Z</time></trkpt><trkpt lat="43.3960933" lon="11.1353766"><ele>183.33333333333334</ele><time>2026-04-11T08:23:08.111Z</time></trkpt><trkpt lat="43.3960536" lon="11.135494"><ele>183.5</ele><time>2026-04-11T08:23:09.112Z</time></trkpt><trkpt lat="43.396017" lon="11.1355937"><ele>183.66666666666669</ele><time>2026-04-11T08:23:10.112Z</time></trkpt><trkpt lat="43.3959859" lon="11.1356824"><ele>183.83333333333334</ele><time>2026-04-11T08:23:11.112Z</time></trkpt><trkpt lat="43.3959389" lon="11.1357466"><ele>184.0</ele><time>2026-04-11T08:23:12.112Z</time></trkpt><trkpt lat="43.3958399" lon="11.1358388"><ele>184.2</ele><time>2026-04-11T08:23:14.112Z</time></trkpt><trkpt lat="43.3957356" lon="11.1358845"><ele>184.39999999999998</ele><time>2026-04-11T08:23:16.111Z</time></trkpt><trkpt lat="43.395641" lon="11.1358607"><ele>184.6</ele><time>2026-04-11T08:23:18.111Z</time></trkpt><trkpt lat="43.3955349" lon="11.135801"><ele>184.8</ele><time>2026-04-11T08:23:20.112Z</time></trkpt><trkpt lat="43.3954267" lon="11.1357644"><ele>185.0</ele><time>2026-04-11T08:23:22.112Z</time></trkpt><trkpt lat="43.3953331" lon="11.1357876"><ele>184.66666666666666</ele><time>2026-04-11T08:23:24.112Z</time></trkpt><trkpt lat="43.3952236" lon="11.135868"><ele>184.33333333333331</ele><time>2026-04-11T08:23:26.112Z</time></trkpt><trkpt lat="43.3951602" lon="11.1358965"><ele>184.0</ele><time>2026-04-11T08:23:27.112Z</time></trkpt><trkpt lat="43.3950916" lon="11.1359058"><ele>183.66666666666666</ele><time>2026-04-11T08:23:28.112Z</time></trkpt><trkpt lat="43.3950158" lon="11.1358901"><ele>183.33333333333334</ele><time>2026-04-11T08:23:29.112Z</time></trkpt><trkpt lat="43.3949295" lon="11.1358441"><ele>183.0</ele><time>2026-04-11T08:23:30.111Z</time></trkpt><trkpt lat="43.3948314" lon="11.1357915"><ele>183.0</ele><time>2026-04-11T08:23:31.112Z</time></trkpt><trkpt lat="43.3947257" lon="11.1357328"><ele>183.0</ele><time>2026-04-11T08:23:32.112Z</time></trkpt><trkpt lat="43.3946232" lon="11.135672"><ele>183.0</ele><time>2026-04-11T08:23:33.112Z</time></trkpt><trkpt lat="43.3945138" lon="11.1356093"><ele>183.0</ele><time>2026-04-11T08:23:34.112Z</time></trkpt><trkpt lat="43.3943976" lon="11.1355382"><ele>182.5</ele><time>2026-04-11T08:23:35.112Z</time></trkpt><trkpt lat="43.3942772" lon="11.1354664"><ele>182.0</ele><time>2026-04-11T08:23:36.112Z</time></trkpt><trkpt lat="43.3941605" lon="11.1353949"><ele>181.5</ele><time>2026-04-11T08:23:37.111Z</time></trkpt><trkpt lat="43.3940371" lon="11.1353194"><ele>181.0</ele><time>2026-04-11T08:23:38.112Z</time></trkpt><trkpt lat="43.3939086" lon="11.1352415"><ele>180.75</ele><time>2026-04-11T08:23:39.112Z</time></trkpt><trkpt lat="43.3937773" lon="11.135159"><ele>180.5</ele><time>2026-04-11T08:23:40.112Z</time></trkpt><trkpt lat="43.3936397" lon="11.135077"><ele>180.25</ele><time>2026-04-11T08:23:41.112Z</time></trkpt><trkpt lat="43.3934985" lon="11.1349942"><ele>180.0</ele><time>2026-04-11T08:23:42.112Z</time></trkpt><trkpt lat="43.3933571" lon="11.134901"><ele>180.33333333333334</ele><time>2026-04-11T08:23:43.112Z</time></trkpt><trkpt lat="43.3932165" lon="11.1348006"><ele>180.66666666666669</ele><time>2026-04-11T08:23:44.111Z</time></trkpt><trkpt lat="43.393081" lon="11.1346932"><ele>181.0</ele><time>2026-04-11T08:23:45.112Z</time></trkpt><trkpt lat="43.3929568" lon="11.1345745"><ele>182.0</ele><time>2026-04-11T08:23:46.112Z</time></trkpt><trkpt lat="43.3928372" lon="11.1344514"><ele>183.0</ele><time>2026-04-11T08:23:47.112Z</time></trkpt><trkpt lat="43.392719" lon="11.1343136"><ele>184.0</ele><time>2026-04-11T08:23:48.111Z</time></trkpt><trkpt lat="43.3926049" lon="11.13416"><ele>184.25</ele><time>2026-04-11T08:23:49.111Z</time></trkpt><trkpt lat="43.392499" lon="11.1340008"><ele>184.5</ele><time>2026-04-11T08:23:50.111Z</time></trkpt><trkpt lat="43.3924065" lon="11.1338451"><ele>184.75</ele><time>2026-04-11T08:23:51.112Z</time></trkpt><trkpt lat="43.3923218" lon="11.1336912"><ele>185.0</ele><time>2026-04-11T08:23:52.112Z</time></trkpt><trkpt lat="43.3922448" lon="11.1335447"><ele>185.0</ele><time>2026-04-11T08:23:53.112Z</time></trkpt><trkpt lat="43.3921741" lon="11.1334089"><ele>185.0</ele><time>2026-04-11T08:23:54.112Z</time></trkpt><trkpt lat="43.3921041" lon="11.1332791"><ele>185.0</ele><time>2026-04-11T08:23:55.112Z</time></trkpt><trkpt lat="43.392039" lon="11.1331596"><ele>185.0</ele><time>2026-04-11T08:23:56.112Z</time></trkpt><trkpt lat="43.3919888" lon="11.133039"><ele>185.0</ele><time>2026-04-11T08:23:57.112Z</time></trkpt><trkpt lat="43.3919516" lon="11.1329185"><ele>184.7142857142857</ele><time>2026-04-11T08:23:58.111Z</time></trkpt><trkpt lat="43.3919307" lon="11.1328084"><ele>184.42857142857142</ele><time>2026-04-11T08:23:59.112Z</time></trkpt><trkpt lat="43.3919302" lon="11.1327087"><ele>184.14285714285714</ele><time>2026-04-11T08:24:00.112Z</time></trkpt><trkpt lat="43.3919503" lon="11.1326169"><ele>183.85714285714283</ele><time>2026-04-11T08:24:01.112Z</time></trkpt><trkpt lat="43.3919881" lon="11.1325409"><ele>183.57142857142858</ele><time>2026-04-11T08:24:02.112Z</time></trkpt><trkpt lat="43.3920413" lon="11.1324414"><ele>183.28571428571428</ele><time>2026-04-11T08:24:04.112Z</time></trkpt><trkpt lat="43.3920226" lon="11.1323573"><ele>183.0</ele><time>2026-04-11T08:24:13.112Z</time></trkpt><trkpt lat="43.3919219" lon="11.1323707"><ele>183.0</ele><time>2026-04-11T08:24:15.112Z</time></trkpt><trkpt lat="43.3918622" lon="11.1324077"><ele>183.0</ele><time>2026-04-11T08:24:16.112Z</time></trkpt><trkpt lat="43.391796" lon="11.1324563"><ele>183.0</ele><time>2026-04-11T08:24:17.112Z</time></trkpt><trkpt lat="43.3917284" lon="11.1325066"><ele>183.0</ele><time>2026-04-11T08:24:18.112Z</time></trkpt><trkpt lat="43.3916663" lon="11.1325446"><ele>183.0</ele><time>2026-04-11T08:24:19.112Z</time></trkpt><trkpt lat="43.3916048" lon="11.1325786"><ele>183.0</ele><time>2026-04-11T08:24:20.111Z</time></trkpt><trkpt lat="43.3915415" lon="11.1326152"><ele>183.0</ele><time>2026-04-11T08:24:21.112Z</time></trkpt><trkpt lat="43.3914764" lon="11.1326269"><ele>183.0</ele><time>2026-04-11T08:24:22.112Z</time></trkpt><trkpt lat="43.3913467" lon="11.1326306"><ele>183.0</ele><time>2026-04-11T08:24:24.111Z</time></trkpt><trkpt lat="43.3912645" lon="11.1326189"><ele>183.0</ele><time>2026-04-11T08:24:25.112Z</time></trkpt><trkpt lat="43.3911809" lon="11.1326039"><ele>183.0</ele><time>2026-04-11T08:24:26.111Z</time></trkpt><trkpt lat="43.3911011" lon="11.1325933"><ele>183.0</ele><time>2026-04-11T08:24:27.112Z</time></trkpt><trkpt lat="43.391019" lon="11.1325964"><ele>182.66666666666666</ele><time>2026-04-11T08:24:28.111Z</time></trkpt><trkpt lat="43.3909341" lon="11.1326058"><ele>182.33333333333334</ele><time>2026-04-11T08:24:29.112Z</time></trkpt><trkpt lat="43.3908561" lon="11.1326221"><ele>182.0</ele><time>2026-04-11T08:24:30.112Z</time></trkpt><trkpt lat="43.390782" lon="11.1326413"><ele>181.66666666666669</ele><time>2026-04-11T08:24:31.112Z</time></trkpt><trkpt lat="43.3907052" lon="11.1326521"><ele>181.33333333333334</ele><time>2026-04-11T08:24:32.112Z</time></trkpt><trkpt lat="43.3906186" lon="11.1326651"><ele>181.0</ele><time>2026-04-11T08:24:33.112Z</time></trkpt><trkpt lat="43.3905192" lon="11.1326974"><ele>181.25</ele><time>2026-04-11T08:24:34.111Z</time></trkpt><trkpt lat="43.390414" lon="11.1327241"><ele>181.5</ele><time>2026-04-11T08:24:35.111Z</time></trkpt><trkpt lat="43.390304" lon="11.132754"><ele>181.75</ele><time>2026-04-11T08:24:36.112Z</time></trkpt><trkpt lat="43.3901826" lon="11.1327825"><ele>182.0</ele><time>2026-04-11T08:24:37.111Z</time></trkpt><trkpt lat="43.3900619" lon="11.1328107"><ele>182.0</ele><time>2026-04-11T08:24:38.112Z</time></trkpt><trkpt lat="43.3899411" lon="11.1328372"><ele>182.0</ele><time>2026-04-11T08:24:39.112Z</time></trkpt><trkpt lat="43.3898211" lon="11.1328646"><ele>182.0</ele><time>2026-04-11T08:24:40.111Z</time></trkpt><trkpt lat="43.3897075" lon="11.132891"><ele>182.0</ele><time>2026-04-11T08:24:41.111Z</time></trkpt><trkpt lat="43.3895854" lon="11.1329198"><ele>182.0</ele><time>2026-04-11T08:24:42.111Z</time></trkpt><trkpt lat="43.3894585" lon="11.1329547"><ele>182.0</ele><time>2026-04-11T08:24:43.111Z</time></trkpt><trkpt lat="43.3893234" lon="11.1329921"><ele>182.0</ele><time>2026-04-11T08:24:44.112Z</time></trkpt><trkpt lat="43.389184" lon="11.1330232"><ele>182.0</ele><time>2026-04-11T08:24:45.111Z</time></trkpt><trkpt lat="43.3890424" lon="11.1330397"><ele>182.0</ele><time>2026-04-11T08:24:46.112Z</time></trkpt><trkpt lat="43.3888965" lon="11.13304"><ele>182.0</ele><time>2026-04-11T08:24:47.112Z</time></trkpt><trkpt lat="43.3887415" lon="11.1330217"><ele>182.0</ele><time>2026-04-11T08:24:48.112Z</time></trkpt><trkpt lat="43.3885806" lon="11.1329935"><ele>182.33333333333331</ele><time>2026-04-11T08:24:49.112Z</time></trkpt><trkpt lat="43.3884242" lon="11.1329612"><ele>182.66666666666666</ele><time>2026-04-11T08:24:50.111Z</time></trkpt><trkpt lat="43.3882623" lon="11.1329271"><ele>183.0</ele><time>2026-04-11T08:24:51.112Z</time></trkpt><trkpt lat="43.3880983" lon="11.1328972"><ele>182.66666666666666</ele><time>2026-04-11T08:24:52.112Z</time></trkpt><trkpt lat="43.3879432" lon="11.1328645"><ele>182.33333333333331</ele><time>2026-04-11T08:24:53.111Z</time></trkpt><trkpt lat="43.3877964" lon="11.1328382"><ele>182.0</ele><time>2026-04-11T08:24:54.111Z</time></trkpt><trkpt lat="43.3876482" lon="11.1328599"><ele>182.0</ele><time>2026-04-11T08:24:55.111Z</time></trkpt><trkpt lat="43.3875014" lon="11.1329245"><ele>182.0</ele><time>2026-04-11T08:24:56.112Z</time></trkpt><trkpt lat="43.3873566" lon="11.1330318"><ele>182.0</ele><time>2026-04-11T08:24:57.112Z</time></trkpt><trkpt lat="43.3872178" lon="11.1331567"><ele>182.66666666666666</ele><time>2026-04-11T08:24:58.111Z</time></trkpt><trkpt lat="43.3870854" lon="11.1332736"><ele>183.33333333333334</ele><time>2026-04-11T08:24:59.112Z</time></trkpt><trkpt lat="43.3869542" lon="11.1333811"><ele>184.0</ele><time>2026-04-11T08:25:00.112Z</time></trkpt><trkpt lat="43.3868287" lon="11.1334727"><ele>184.0</ele><time>2026-04-11T08:25:01.111Z</time></trkpt><trkpt lat="43.3867107" lon="11.1335548"><ele>184.0</ele><time>2026-04-11T08:25:02.112Z</time></trkpt><trkpt lat="43.3866023" lon="11.1336356"><ele>184.0</ele><time>2026-04-11T08:25:03.112Z</time></trkpt><trkpt lat="43.386482" lon="11.1336908"><ele>184.0</ele><time>2026-04-11T08:25:04.111Z</time></trkpt><trkpt lat="43.386365" lon="11.1337117"><ele>182.75</ele><time>2026-04-11T08:25:05.111Z</time></trkpt><trkpt lat="43.3862548" lon="11.1336895"><ele>181.5</ele><time>2026-04-11T08:25:06.112Z</time></trkpt><trkpt lat="43.3861497" lon="11.1336217"><ele>180.25</ele><time>2026-04-11T08:25:07.112Z</time></trkpt><trkpt lat="43.386054" lon="11.1335171"><ele>179.0</ele><time>2026-04-11T08:25:08.112Z</time></trkpt><trkpt lat="43.3859676" lon="11.1334109"><ele>179.0</ele><time>2026-04-11T08:25:09.112Z</time></trkpt><trkpt lat="43.385873" lon="11.133333"><ele>179.0</ele><time>2026-04-11T08:25:10.111Z</time></trkpt><trkpt lat="43.3857586" lon="11.1332721"><ele>179.0</ele><time>2026-04-11T08:25:11.112Z</time></trkpt><trkpt lat="43.3856331" lon="11.1332233"><ele>179.0</ele><time>2026-04-11T08:25:12.112Z</time></trkpt><trkpt lat="43.3855044" lon="11.1331815"><ele>179.25</ele><time>2026-04-11T08:25:13.112Z</time></trkpt><trkpt lat="43.3853862" lon="11.1331445"><ele>179.5</ele><time>2026-04-11T08:25:14.111Z</time></trkpt><trkpt lat="43.3852711" lon="11.1331055"><ele>179.75</ele><time>2026-04-11T08:25:15.111Z</time></trkpt><trkpt lat="43.3851638" lon="11.1330676"><ele>180.0</ele><time>2026-04-11T08:25:16.112Z</time></trkpt><trkpt lat="43.3850563" lon="11.1330274"><ele>180.0</ele><time>2026-04-11T08:25:17.111Z</time></trkpt><trkpt lat="43.3849445" lon="11.1329785"><ele>180.0</ele><time>2026-04-11T08:25:18.112Z</time></trkpt><trkpt lat="43.3848323" lon="11.1329332"><ele>180.0</ele><time>2026-04-11T08:25:19.112Z</time></trkpt><trkpt lat="43.3847145" lon="11.1328887"><ele>180.0</ele><time>2026-04-11T08:25:20.112Z</time></trkpt><trkpt lat="43.38459" lon="11.1328463"><ele>180.5</ele><time>2026-04-11T08:25:21.112Z</time></trkpt><trkpt lat="43.3844633" lon="11.1327957"><ele>181.0</ele><time>2026-04-11T08:25:22.112Z</time></trkpt><trkpt lat="43.3843393" lon="11.1327473"><ele>181.5</ele><time>2026-04-11T08:25:23.111Z</time></trkpt><trkpt lat="43.3842116" lon="11.1326957"><ele>182.0</ele><time>2026-04-11T08:25:24.111Z</time></trkpt><trkpt lat="43.3840808" lon="11.1326388"><ele>182.0</ele><time>2026-04-11T08:25:25.112Z</time></trkpt><trkpt lat="43.3839496" lon="11.132583"><ele>182.0</ele><time>2026-04-11T08:25:26.111Z</time></trkpt><trkpt lat="43.3838196" lon="11.1325305"><ele>182.0</ele><time>2026-04-11T08:25:27.111Z</time></trkpt><trkpt lat="43.3836926" lon="11.1324741"><ele>182.0</ele><time>2026-04-11T08:25:28.112Z</time></trkpt><trkpt lat="43.3835609" lon="11.1324202"><ele>182.0</ele><time>2026-04-11T08:25:29.111Z</time></trkpt><trkpt lat="43.3834262" lon="11.1323632"><ele>182.0</ele><time>2026-04-11T08:25:30.111Z</time></trkpt><trkpt lat="43.3832944" lon="11.1323028"><ele>182.0</ele><time>2026-04-11T08:25:31.112Z</time></trkpt><trkpt lat="43.383163" lon="11.1322551"><ele>182.0</ele><time>2026-04-11T08:25:32.112Z</time></trkpt><trkpt lat="43.3830393" lon="11.1322065"><ele>181.75</ele><time>2026-04-11T08:25:33.112Z</time></trkpt><trkpt lat="43.3829086" lon="11.1321603"><ele>181.5</ele><time>2026-04-11T08:25:34.112Z</time></trkpt><trkpt lat="43.3827889" lon="11.1321127"><ele>181.25</ele><time>2026-04-11T08:25:35.111Z</time></trkpt><trkpt lat="43.3826601" lon="11.1320593"><ele>181.0</ele><time>2026-04-11T08:25:36.111Z</time></trkpt><trkpt lat="43.3825299" lon="11.1320087"><ele>181.0</ele><time>2026-04-11T08:25:37.111Z</time></trkpt><trkpt lat="43.3823958" lon="11.1319526"><ele>181.0</ele><time>2026-04-11T08:25:38.111Z</time></trkpt><trkpt lat="43.3822627" lon="11.131896"><ele>181.0</ele><time>2026-04-11T08:25:39.111Z</time></trkpt><trkpt lat="43.3821323" lon="11.131844"><ele>181.0</ele><time>2026-04-11T08:25:40.112Z</time></trkpt><trkpt lat="43.3820001" lon="11.1317892"><ele>181.0</ele><time>2026-04-11T08:25:41.111Z</time></trkpt><trkpt lat="43.381864" lon="11.1317335"><ele>181.0</ele><time>2026-04-11T08:25:42.112Z</time></trkpt><trkpt lat="43.381722" lon="11.1316794"><ele>181.0</ele><time>2026-04-11T08:25:43.112Z</time></trkpt><trkpt lat="43.3815735" lon="11.1316175"><ele>181.0</ele><time>2026-04-11T08:25:44.111Z</time></trkpt><trkpt lat="43.3814213" lon="11.1315532"><ele>181.33333333333334</ele><time>2026-04-11T08:25:45.112Z</time></trkpt><trkpt lat="43.3812666" lon="11.1314901"><ele>181.66666666666666</ele><time>2026-04-11T08:25:46.112Z</time></trkpt><trkpt lat="43.3811068" lon="11.1314215"><ele>182.0</ele><time>2026-04-11T08:25:47.112Z</time></trkpt><trkpt lat="43.3809463" lon="11.1313504"><ele>182.0</ele><time>2026-04-11T08:25:48.112Z</time></trkpt><trkpt lat="43.3807787" lon="11.1312813"><ele>182.0</ele><time>2026-04-11T08:25:49.112Z</time></trkpt><trkpt lat="43.3806029" lon="11.1312153"><ele>182.0</ele><time>2026-04-11T08:25:50.112Z</time></trkpt><trkpt lat="43.3804261" lon="11.1311463"><ele>181.66666666666666</ele><time>2026-04-11T08:25:51.112Z</time></trkpt><trkpt lat="43.3802627" lon="11.1310856"><ele>181.33333333333334</ele><time>2026-04-11T08:25:52.112Z</time></trkpt><trkpt lat="43.3800968" lon="11.1310227"><ele>181.0</ele><time>2026-04-11T08:25:53.112Z</time></trkpt><trkpt lat="43.3799362" lon="11.1309544"><ele>181.0</ele><time>2026-04-11T08:25:54.112Z</time></trkpt><trkpt lat="43.3797657" lon="11.1308867"><ele>181.0</ele><time>2026-04-11T08:25:55.112Z</time></trkpt><trkpt lat="43.3796063" lon="11.1308176"><ele>181.0</ele><time>2026-04-11T08:25:56.111Z</time></trkpt><trkpt lat="43.3794329" lon="11.1307497"><ele>181.0</ele><time>2026-04-11T08:25:57.112Z</time></trkpt><trkpt lat="43.3792515" lon="11.1306769"><ele>181.0</ele><time>2026-04-11T08:25:58.112Z</time></trkpt><trkpt lat="43.3790741" lon="11.1306"><ele>181.0</ele><time>2026-04-11T08:25:59.112Z</time></trkpt><trkpt lat="43.3789048" lon="11.1305299"><ele>181.33333333333334</ele><time>2026-04-11T08:26:00.112Z</time></trkpt><trkpt lat="43.3787322" lon="11.1304554"><ele>181.66666666666666</ele><time>2026-04-11T08:26:01.111Z</time></trkpt><trkpt lat="43.3785596" lon="11.1303882"><ele>182.0</ele><time>2026-04-11T08:26:02.112Z</time></trkpt><trkpt lat="43.3783848" lon="11.1303171"><ele>182.0</ele><time>2026-04-11T08:26:03.112Z</time></trkpt><trkpt lat="43.3782122" lon="11.1302537"><ele>182.0</ele><time>2026-04-11T08:26:04.111Z</time></trkpt><trkpt lat="43.3780265" lon="11.1301833"><ele>182.0</ele><time>2026-04-11T08:26:05.112Z</time></trkpt><trkpt lat="43.3778408" lon="11.1301087"><ele>182.0</ele><time>2026-04-11T08:26:06.112Z</time></trkpt><trkpt lat="43.3776536" lon="11.1300354"><ele>182.0</ele><time>2026-04-11T08:26:07.112Z</time></trkpt><trkpt lat="43.377474" lon="11.1299622"><ele>182.0</ele><time>2026-04-11T08:26:08.112Z</time></trkpt><trkpt lat="43.377292" lon="11.1298903"><ele>182.66666666666666</ele><time>2026-04-11T08:26:09.111Z</time></trkpt><trkpt lat="43.3771091" lon="11.129816"><ele>183.33333333333334</ele><time>2026-04-11T08:26:10.111Z</time></trkpt><trkpt lat="43.3769287" lon="11.1297472"><ele>184.0</ele><time>2026-04-11T08:26:11.112Z</time></trkpt><trkpt lat="43.3767473" lon="11.1296776"><ele>184.0</ele><time>2026-04-11T08:26:12.111Z</time></trkpt><trkpt lat="43.3765711" lon="11.1296117"><ele>184.0</ele><time>2026-04-11T08:26:13.111Z</time></trkpt><trkpt lat="43.3763887" lon="11.1295374"><ele>184.0</ele><time>2026-04-11T08:26:14.111Z</time></trkpt><trkpt lat="43.3762067" lon="11.129459"><ele>183.33333333333334</ele><time>2026-04-11T08:26:15.112Z</time></trkpt><trkpt lat="43.3760301" lon="11.1293816"><ele>182.66666666666666</ele><time>2026-04-11T08:26:16.111Z</time></trkpt><trkpt lat="43.3758484" lon="11.1293017"><ele>182.0</ele><time>2026-04-11T08:26:17.112Z</time></trkpt><trkpt lat="43.375665" lon="11.1292251"><ele>181.66666666666666</ele><time>2026-04-11T08:26:18.111Z</time></trkpt><trkpt lat="43.3754824" lon="11.129154"><ele>181.33333333333334</ele><time>2026-04-11T08:26:19.112Z</time></trkpt><trkpt lat="43.3752986" lon="11.129075"><ele>181.0</ele><time>2026-04-11T08:26:20.112Z</time></trkpt><trkpt lat="43.375113" lon="11.1289977"><ele>181.0</ele><time>2026-04-11T08:26:21.112Z</time></trkpt><trkpt lat="43.3749306" lon="11.1289207"><ele>181.0</ele><time>2026-04-11T08:26:22.112Z</time></trkpt><trkpt lat="43.3747444" lon="11.128846"><ele>181.0</ele><time>2026-04-11T08:26:23.111Z</time></trkpt><trkpt lat="43.3745626" lon="11.1287725"><ele>182.0</ele><time>2026-04-11T08:26:24.112Z</time></trkpt><trkpt lat="43.3743824" lon="11.1287059"><ele>183.0</ele><time>2026-04-11T08:26:25.112Z</time></trkpt><trkpt lat="43.3742046" lon="11.1286354"><ele>184.0</ele><time>2026-04-11T08:26:26.112Z</time></trkpt><trkpt lat="43.3740209" lon="11.1285648"><ele>184.33333333333334</ele><time>2026-04-11T08:26:27.112Z</time></trkpt><trkpt lat="43.3738431" lon="11.1284865"><ele>184.66666666666666</ele><time>2026-04-11T08:26:28.112Z</time></trkpt><trkpt lat="43.3736622" lon="11.1284098"><ele>185.0</ele><time>2026-04-11T08:26:29.112Z</time></trkpt><trkpt lat="43.3734783" lon="11.1283379"><ele>185.0</ele><time>2026-04-11T08:26:30.111Z</time></trkpt><trkpt lat="43.3732934" lon="11.1282643"><ele>185.0</ele><time>2026-04-11T08:26:31.111Z</time></trkpt><trkpt lat="43.3731099" lon="11.1281931"><ele>185.0</ele><time>2026-04-11T08:26:32.112Z</time></trkpt><trkpt lat="43.3729268" lon="11.1281157"><ele>184.66666666666666</ele><time>2026-04-11T08:26:33.111Z</time></trkpt><trkpt lat="43.3727381" lon="11.1280386"><ele>184.33333333333334</ele><time>2026-04-11T08:26:34.112Z</time></trkpt><trkpt lat="43.3725546" lon="11.127966"><ele>184.0</ele><time>2026-04-11T08:26:35.111Z</time></trkpt><trkpt lat="43.3723673" lon="11.127892"><ele>184.0</ele><time>2026-04-11T08:26:36.112Z</time></trkpt><trkpt lat="43.3721847" lon="11.1278114"><ele>184.0</ele><time>2026-04-11T08:26:37.112Z</time></trkpt><trkpt lat="43.371996" lon="11.1277413"><ele>184.0</ele><time>2026-04-11T08:26:38.112Z</time></trkpt><trkpt lat="43.3718065" lon="11.1276704"><ele>184.0</ele><time>2026-04-11T08:26:39.111Z</time></trkpt><trkpt lat="43.3716193" lon="11.1275941"><ele>184.0</ele><time>2026-04-11T08:26:40.111Z</time></trkpt><trkpt lat="43.371437" lon="11.1275191"><ele>184.0</ele><time>2026-04-11T08:26:41.112Z</time></trkpt><trkpt lat="43.3712589" lon="11.1274454"><ele>184.33333333333334</ele><time>2026-04-11T08:26:42.112Z</time></trkpt><trkpt lat="43.3710783" lon="11.1273715"><ele>184.66666666666666</ele><time>2026-04-11T08:26:43.112Z</time></trkpt><trkpt lat="43.370898" lon="11.1273001"><ele>185.0</ele><time>2026-04-11T08:26:44.111Z</time></trkpt><trkpt lat="43.3707177" lon="11.1272245"><ele>185.0</ele><time>2026-04-11T08:26:45.112Z</time></trkpt><trkpt lat="43.3705423" lon="11.1271548"><ele>185.0</ele><time>2026-04-11T08:26:46.112Z</time></trkpt><trkpt lat="43.3703612" lon="11.1270807"><ele>185.0</ele><time>2026-04-11T08:26:47.112Z</time></trkpt><trkpt lat="43.3701803" lon="11.1270097"><ele>185.33333333333331</ele><time>2026-04-11T08:26:48.111Z</time></trkpt><trkpt lat="43.3700003" lon="11.1269367"><ele>185.66666666666666</ele><time>2026-04-11T08:26:49.111Z</time></trkpt><trkpt lat="43.3698164" lon="11.1268656"><ele>186.0</ele><time>2026-04-11T08:26:50.111Z</time></trkpt><trkpt lat="43.3696333" lon="11.1267926"><ele>186.0</ele><time>2026-04-11T08:26:51.112Z</time></trkpt><trkpt lat="43.3694458" lon="11.1267189"><ele>186.0</ele><time>2026-04-11T08:26:52.112Z</time></trkpt><trkpt lat="43.3692678" lon="11.12664"><ele>186.0</ele><time>2026-04-11T08:26:53.112Z</time></trkpt><trkpt lat="43.3691026" lon="11.1265617"><ele>185.66666666666666</ele><time>2026-04-11T08:26:54.112Z</time></trkpt><trkpt lat="43.3689498" lon="11.1264775"><ele>185.33333333333331</ele><time>2026-04-11T08:26:55.112Z</time></trkpt><trkpt lat="43.3688085" lon="11.126355"><ele>185.0</ele><time>2026-04-11T08:26:56.112Z</time></trkpt><trkpt lat="43.3686802" lon="11.1262006"><ele>185.0</ele><time>2026-04-11T08:26:57.112Z</time></trkpt><trkpt lat="43.3685555" lon="11.1260226"><ele>185.0</ele><time>2026-04-11T08:26:58.112Z</time></trkpt><trkpt lat="43.3684354" lon="11.1258318"><ele>185.0</ele><time>2026-04-11T08:26:59.111Z</time></trkpt><trkpt lat="43.3683117" lon="11.1256434"><ele>185.33333333333331</ele><time>2026-04-11T08:27:00.112Z</time></trkpt><trkpt lat="43.3681818" lon="11.125455"><ele>185.66666666666666</ele><time>2026-04-11T08:27:01.112Z</time></trkpt><trkpt lat="43.3680544" lon="11.1252629"><ele>186.0</ele><time>2026-04-11T08:27:02.112Z</time></trkpt><trkpt lat="43.3679256" lon="11.1250657"><ele>185.66666666666666</ele><time>2026-04-11T08:27:03.112Z</time></trkpt><trkpt lat="43.3677955" lon="11.1248731"><ele>185.33333333333331</ele><time>2026-04-11T08:27:04.112Z</time></trkpt><trkpt lat="43.3676635" lon="11.1246718"><ele>185.0</ele><time>2026-04-11T08:27:05.112Z</time></trkpt><trkpt lat="43.3675282" lon="11.1244757"><ele>185.0</ele><time>2026-04-11T08:27:06.111Z</time></trkpt><trkpt lat="43.3673935" lon="11.1242742"><ele>185.0</ele><time>2026-04-11T08:27:07.112Z</time></trkpt><trkpt lat="43.3672593" lon="11.1240795"><ele>185.0</ele><time>2026-04-11T08:27:08.111Z</time></trkpt><trkpt lat="43.367123" lon="11.1238761"><ele>184.66666666666666</ele><time>2026-04-11T08:27:09.112Z</time></trkpt><trkpt lat="43.3669904" lon="11.123668"><ele>184.33333333333334</ele><time>2026-04-11T08:27:10.111Z</time></trkpt><trkpt lat="43.3668542" lon="11.1234666"><ele>184.0</ele><time>2026-04-11T08:27:11.112Z</time></trkpt><trkpt lat="43.3667234" lon="11.1232721"><ele>184.66666666666669</ele><time>2026-04-11T08:27:12.112Z</time></trkpt><trkpt lat="43.3665901" lon="11.1230814"><ele>185.33333333333334</ele><time>2026-04-11T08:27:13.111Z</time></trkpt><trkpt lat="43.3664637" lon="11.1228873"><ele>186.0</ele><time>2026-04-11T08:27:14.112Z</time></trkpt><trkpt lat="43.3663372" lon="11.1226888"><ele>186.0</ele><time>2026-04-11T08:27:15.112Z</time></trkpt><trkpt lat="43.3662059" lon="11.1225004"><ele>186.0</ele><time>2026-04-11T08:27:16.112Z</time></trkpt><trkpt lat="43.3660739" lon="11.1223036"><ele>186.0</ele><time>2026-04-11T08:27:17.112Z</time></trkpt><trkpt lat="43.3659431" lon="11.1221096"><ele>186.66666666666666</ele><time>2026-04-11T08:27:18.112Z</time></trkpt><trkpt lat="43.3658088" lon="11.1219045"><ele>187.33333333333331</ele><time>2026-04-11T08:27:19.111Z</time></trkpt><trkpt lat="43.3656693" lon="11.1217021"><ele>188.0</ele><time>2026-04-11T08:27:20.111Z</time></trkpt><trkpt lat="43.365528" lon="11.1214925"><ele>188.0</ele><time>2026-04-11T08:27:21.112Z</time></trkpt><trkpt lat="43.3653845" lon="11.1212839"><ele>188.0</ele><time>2026-04-11T08:27:22.111Z</time></trkpt><trkpt lat="43.3652474" lon="11.1210839"><ele>188.0</ele><time>2026-04-11T08:27:23.112Z</time></trkpt><trkpt lat="43.3651078" lon="11.1208715"><ele>188.0</ele><time>2026-04-11T08:27:24.112Z</time></trkpt><trkpt lat="43.3649703" lon="11.1206624"><ele>188.0</ele><time>2026-04-11T08:27:25.112Z</time></trkpt><trkpt lat="43.3648299" lon="11.1204554"><ele>188.0</ele><time>2026-04-11T08:27:26.111Z</time></trkpt><trkpt lat="43.364686" lon="11.1202403"><ele>188.0</ele><time>2026-04-11T08:27:27.111Z</time></trkpt><trkpt lat="43.3645404" lon="11.1200264"><ele>188.0</ele><time>2026-04-11T08:27:28.112Z</time></trkpt><trkpt lat="43.3643934" lon="11.1198095"><ele>188.0</ele><time>2026-04-11T08:27:29.111Z</time></trkpt><trkpt lat="43.3642553" lon="11.1196027"><ele>189.0</ele><time>2026-04-11T08:27:30.112Z</time></trkpt><trkpt lat="43.3641244" lon="11.1194125"><ele>190.0</ele><time>2026-04-11T08:27:31.112Z</time></trkpt><trkpt lat="43.3639945" lon="11.1192183"><ele>191.0</ele><time>2026-04-11T08:27:32.111Z</time></trkpt><trkpt lat="43.3638611" lon="11.1190227"><ele>191.0</ele><time>2026-04-11T08:27:33.112Z</time></trkpt><trkpt lat="43.3637286" lon="11.1188244"><ele>191.0</ele><time>2026-04-11T08:27:34.112Z</time></trkpt><trkpt lat="43.3635948" lon="11.1186251"><ele>191.0</ele><time>2026-04-11T08:27:35.112Z</time></trkpt><trkpt lat="43.3634652" lon="11.1184344"><ele>191.0</ele><time>2026-04-11T08:27:36.111Z</time></trkpt><trkpt lat="43.3633452" lon="11.118255"><ele>191.0</ele><time>2026-04-11T08:27:37.112Z</time></trkpt><trkpt lat="43.3632296" lon="11.1180792"><ele>191.0</ele><time>2026-04-11T08:27:38.112Z</time></trkpt><trkpt lat="43.363105" lon="11.1178963"><ele>190.0</ele><time>2026-04-11T08:27:39.112Z</time></trkpt><trkpt lat="43.3629896" lon="11.1176992"><ele>189.0</ele><time>2026-04-11T08:27:40.112Z</time></trkpt><trkpt lat="43.3628959" lon="11.1174725"><ele>188.0</ele><time>2026-04-11T08:27:41.112Z</time></trkpt><trkpt lat="43.3628188" lon="11.1172263"><ele>188.0</ele><time>2026-04-11T08:27:42.112Z</time></trkpt><trkpt lat="43.3627633" lon="11.1169539"><ele>188.0</ele><time>2026-04-11T08:27:43.111Z</time></trkpt><trkpt lat="43.362723" lon="11.1166776"><ele>188.0</ele><time>2026-04-11T08:27:44.112Z</time></trkpt><trkpt lat="43.3626907" lon="11.1163931"><ele>188.0</ele><time>2026-04-11T08:27:45.112Z</time></trkpt><trkpt lat="43.3626575" lon="11.116102"><ele>188.0</ele><time>2026-04-11T08:27:46.111Z</time></trkpt><trkpt lat="43.3626267" lon="11.1158142"><ele>188.0</ele><time>2026-04-11T08:27:47.112Z</time></trkpt><trkpt lat="43.3626002" lon="11.1155426"><ele>188.0</ele><time>2026-04-11T08:27:48.111Z</time></trkpt><trkpt lat="43.3625733" lon="11.1152816"><ele>188.0</ele><time>2026-04-11T08:27:49.112Z</time></trkpt><trkpt lat="43.3625426" lon="11.1150094"><ele>188.0</ele><time>2026-04-11T08:27:50.112Z</time></trkpt><trkpt lat="43.3625141" lon="11.1147406"><ele>188.33333333333331</ele><time>2026-04-11T08:27:51.111Z</time></trkpt><trkpt lat="43.3624887" lon="11.1144775"><ele>188.66666666666666</ele><time>2026-04-11T08:27:52.112Z</time></trkpt><trkpt lat="43.3624643" lon="11.1142307"><ele>189.0</ele><time>2026-04-11T08:27:53.112Z</time></trkpt><trkpt lat="43.3624396" lon="11.1139973"><ele>189.66666666666666</ele><time>2026-04-11T08:27:54.112Z</time></trkpt><trkpt lat="43.3624153" lon="11.1137647"><ele>190.33333333333331</ele><time>2026-04-11T08:27:55.112Z</time></trkpt><trkpt lat="43.3623891" lon="11.1135292"><ele>191.0</ele><time>2026-04-11T08:27:56.112Z</time></trkpt><trkpt lat="43.3623644" lon="11.1132907"><ele>191.33333333333331</ele><time>2026-04-11T08:27:57.112Z</time></trkpt><trkpt lat="43.3623407" lon="11.1130564"><ele>191.66666666666666</ele><time>2026-04-11T08:27:58.112Z</time></trkpt><trkpt lat="43.3623196" lon="11.1128393"><ele>192.0</ele><time>2026-04-11T08:27:59.111Z</time></trkpt><trkpt lat="43.3622953" lon="11.112628"><ele>192.0</ele><time>2026-04-11T08:28:00.112Z</time></trkpt><trkpt lat="43.3622724" lon="11.112415"><ele>192.0</ele><time>2026-04-11T08:28:01.111Z</time></trkpt><trkpt lat="43.3622569" lon="11.1122084"><ele>192.0</ele><time>2026-04-11T08:28:02.112Z</time></trkpt><trkpt lat="43.3622347" lon="11.1119931"><ele>192.0</ele><time>2026-04-11T08:28:03.112Z</time></trkpt><trkpt lat="43.3622152" lon="11.1117792"><ele>192.0</ele><time>2026-04-11T08:28:04.112Z</time></trkpt><trkpt lat="43.362195" lon="11.1115648"><ele>192.0</ele><time>2026-04-11T08:28:05.112Z</time></trkpt><trkpt lat="43.3621685" lon="11.1113467"><ele>191.5</ele><time>2026-04-11T08:28:06.112Z</time></trkpt><trkpt lat="43.3621451" lon="11.1111375"><ele>191.0</ele><time>2026-04-11T08:28:07.112Z</time></trkpt><trkpt lat="43.362124" lon="11.1109478"><ele>190.5</ele><time>2026-04-11T08:28:08.112Z</time></trkpt><trkpt lat="43.3621092" lon="11.1107806"><ele>190.0</ele><time>2026-04-11T08:28:09.112Z</time></trkpt><trkpt lat="43.3620901" lon="11.1106269"><ele>189.75</ele><time>2026-04-11T08:28:10.112Z</time></trkpt><trkpt lat="43.3620798" lon="11.1104735"><ele>189.5</ele><time>2026-04-11T08:28:11.111Z</time></trkpt><trkpt lat="43.3620658" lon="11.1103134"><ele>189.25</ele><time>2026-04-11T08:28:12.112Z</time></trkpt><trkpt lat="43.3620462" lon="11.1101328"><ele>189.0</ele><time>2026-04-11T08:28:13.112Z</time></trkpt><trkpt lat="43.3620254" lon="11.10994"><ele>189.33333333333334</ele><time>2026-04-11T08:28:14.112Z</time></trkpt><trkpt lat="43.3620027" lon="11.1097343"><ele>189.66666666666669</ele><time>2026-04-11T08:28:15.111Z</time></trkpt><trkpt lat="43.3619791" lon="11.1095227"><ele>190.0</ele><time>2026-04-11T08:28:16.111Z</time></trkpt><trkpt lat="43.3619545" lon="11.109301"><ele>190.0</ele><time>2026-04-11T08:28:17.112Z</time></trkpt><trkpt lat="43.3619305" lon="11.1090779"><ele>190.0</ele><time>2026-04-11T08:28:18.112Z</time></trkpt><trkpt lat="43.3619026" lon="11.1088446"><ele>190.0</ele><time>2026-04-11T08:28:19.112Z</time></trkpt><trkpt lat="43.3618762" lon="11.1086023"><ele>190.0</ele><time>2026-04-11T08:28:20.112Z</time></trkpt><trkpt lat="43.3618514" lon="11.1083747"><ele>190.0</ele><time>2026-04-11T08:28:21.112Z</time></trkpt><trkpt lat="43.3618261" lon="11.108142"><ele>190.0</ele><time>2026-04-11T08:28:22.112Z</time></trkpt><trkpt lat="43.3618004" lon="11.1079014"><ele>190.0</ele><time>2026-04-11T08:28:23.112Z</time></trkpt><trkpt lat="43.3617767" lon="11.107662"><ele>190.0</ele><time>2026-04-11T08:28:24.112Z</time></trkpt><trkpt lat="43.3617532" lon="11.1074069"><ele>190.0</ele><time>2026-04-11T08:28:25.111Z</time></trkpt><trkpt lat="43.3617288" lon="11.1071571"><ele>190.0</ele><time>2026-04-11T08:28:26.112Z</time></trkpt><trkpt lat="43.3617036" lon="11.1069085"><ele>190.0</ele><time>2026-04-11T08:28:27.111Z</time></trkpt><trkpt lat="43.3616829" lon="11.1066744"><ele>190.0</ele><time>2026-04-11T08:28:28.112Z</time></trkpt><trkpt lat="43.3616603" lon="11.1064593"><ele>190.0</ele><time>2026-04-11T08:28:29.112Z</time></trkpt><trkpt lat="43.3616198" lon="11.1062573"><ele>190.0</ele><time>2026-04-11T08:28:30.112Z</time></trkpt><trkpt lat="43.361553" lon="11.1060569"><ele>190.0</ele><time>2026-04-11T08:28:31.112Z</time></trkpt><trkpt lat="43.3614661" lon="11.1058663"><ele>190.0</ele><time>2026-04-11T08:28:32.112Z</time></trkpt><trkpt lat="43.3613578" lon="11.1056983"><ele>190.0</ele><time>2026-04-11T08:28:33.111Z</time></trkpt><trkpt lat="43.3612276" lon="11.1055512"><ele>190.0</ele><time>2026-04-11T08:28:34.112Z</time></trkpt><trkpt lat="43.3610776" lon="11.1054321"><ele>190.0</ele><time>2026-04-11T08:28:35.112Z</time></trkpt><trkpt lat="43.3609096" lon="11.1053415"><ele>190.0</ele><time>2026-04-11T08:28:36.112Z</time></trkpt><trkpt lat="43.3607314" lon="11.1052854"><ele>190.0</ele><time>2026-04-11T08:28:37.111Z</time></trkpt><trkpt lat="43.3605495" lon="11.1052411"><ele>190.33333333333334</ele><time>2026-04-11T08:28:38.111Z</time></trkpt><trkpt lat="43.3603608" lon="11.1051952"><ele>190.66666666666666</ele><time>2026-04-11T08:28:39.112Z</time></trkpt><trkpt lat="43.36018" lon="11.1051574"><ele>191.0</ele><time>2026-04-11T08:28:40.112Z</time></trkpt><trkpt lat="43.3599978" lon="11.105126"><ele>191.0</ele><time>2026-04-11T08:28:41.112Z</time></trkpt><trkpt lat="43.3598082" lon="11.1050889"><ele>191.0</ele><time>2026-04-11T08:28:42.111Z</time></trkpt><trkpt lat="43.3596188" lon="11.1050459"><ele>191.0</ele><time>2026-04-11T08:28:43.112Z</time></trkpt><trkpt lat="43.3594283" lon="11.1050051"><ele>191.0</ele><time>2026-04-11T08:28:44.111Z</time></trkpt><trkpt lat="43.3592341" lon="11.1049599"><ele>191.0</ele><time>2026-04-11T08:28:45.112Z</time></trkpt><trkpt lat="43.3590365" lon="11.1049069"><ele>191.0</ele><time>2026-04-11T08:28:46.111Z</time></trkpt><trkpt lat="43.358842" lon="11.1048539"><ele>191.0</ele><time>2026-04-11T08:28:47.112Z</time></trkpt><trkpt lat="43.358644" lon="11.1048024"><ele>191.0</ele><time>2026-04-11T08:28:48.111Z</time></trkpt><trkpt lat="43.3584492" lon="11.1047589"><ele>191.0</ele><time>2026-04-11T08:28:49.111Z</time></trkpt><trkpt lat="43.3582653" lon="11.1047132"><ele>191.0</ele><time>2026-04-11T08:28:50.112Z</time></trkpt><trkpt lat="43.3580854" lon="11.1046709"><ele>191.0</ele><time>2026-04-11T08:28:51.112Z</time></trkpt><trkpt lat="43.3579067" lon="11.1046293"><ele>191.0</ele><time>2026-04-11T08:28:52.112Z</time></trkpt><trkpt lat="43.3577241" lon="11.1045919"><ele>191.33333333333331</ele><time>2026-04-11T08:28:53.111Z</time></trkpt><trkpt lat="43.3575415" lon="11.1045447"><ele>191.66666666666666</ele><time>2026-04-11T08:28:54.111Z</time></trkpt><trkpt lat="43.3573497" lon="11.1044974"><ele>192.0</ele><time>2026-04-11T08:28:55.112Z</time></trkpt><trkpt lat="43.3571606" lon="11.1044528"><ele>192.33333333333331</ele><time>2026-04-11T08:28:56.111Z</time></trkpt><trkpt lat="43.3569703" lon="11.104407"><ele>192.66666666666666</ele><time>2026-04-11T08:28:57.112Z</time></trkpt><trkpt lat="43.3567792" lon="11.1043638"><ele>193.0</ele><time>2026-04-11T08:28:58.112Z</time></trkpt><trkpt lat="43.3565843" lon="11.1043173"><ele>193.0</ele><time>2026-04-11T08:28:59.111Z</time></trkpt><trkpt lat="43.356387" lon="11.1042747"><ele>193.0</ele><time>2026-04-11T08:29:00.111Z</time></trkpt><trkpt lat="43.356188" lon="11.1042258"><ele>193.0</ele><time>2026-04-11T08:29:01.112Z</time></trkpt><trkpt lat="43.3559856" lon="11.1041785"><ele>193.0</ele><time>2026-04-11T08:29:02.112Z</time></trkpt><trkpt lat="43.3557893" lon="11.1041361"><ele>193.0</ele><time>2026-04-11T08:29:03.111Z</time></trkpt><trkpt lat="43.3556084" lon="11.1040899"><ele>193.0</ele><time>2026-04-11T08:29:04.112Z</time></trkpt><trkpt lat="43.3554557" lon="11.1040503"><ele>193.0</ele><time>2026-04-11T08:29:05.112Z</time></trkpt><trkpt lat="43.3553303" lon="11.1040208"><ele>193.0</ele><time>2026-04-11T08:29:06.111Z</time></trkpt><trkpt lat="43.3552297" lon="11.1039813"><ele>193.0</ele><time>2026-04-11T08:29:07.111Z</time></trkpt><trkpt lat="43.35515" lon="11.1039464"><ele>193.0</ele><time>2026-04-11T08:29:08.112Z</time></trkpt><trkpt lat="43.3550536" lon="11.1038969"><ele>193.0</ele><time>2026-04-11T08:29:10.112Z</time></trkpt><trkpt lat="43.3550252" lon="11.1039945"><ele>193.0</ele><time>2026-04-11T08:29:17.112Z</time></trkpt><trkpt lat="43.3551085" lon="11.104005"><ele>193.0</ele><time>2026-04-11T08:29:18.112Z</time></trkpt><trkpt lat="43.3551851" lon="11.1040195"><ele>193.0</ele><time>2026-04-11T08:29:19.112Z</time></trkpt><trkpt lat="43.3552812" lon="11.1040351"><ele>193.0</ele><time>2026-04-11T08:29:20.111Z</time></trkpt><trkpt lat="43.3553877" lon="11.1040585"><ele>193.0</ele><time>2026-04-11T08:29:21.112Z</time></trkpt><trkpt lat="43.3554933" lon="11.104088"><ele>192.75</ele><time>2026-04-11T08:29:22.112Z</time></trkpt><trkpt lat="43.355621" lon="11.1041279"><ele>192.5</ele><time>2026-04-11T08:29:23.112Z</time></trkpt><trkpt lat="43.3557639" lon="11.1041614"><ele>192.25</ele><time>2026-04-11T08:29:24.112Z</time></trkpt><trkpt lat="43.3559136" lon="11.1041998"><ele>192.0</ele><time>2026-04-11T08:29:25.112Z</time></trkpt><trkpt lat="43.3560843" lon="11.1042367"><ele>192.0</ele><time>2026-04-11T08:29:26.112Z</time></trkpt><trkpt lat="43.356258" lon="11.1042759"><ele>192.0</ele><time>2026-04-11T08:29:27.112Z</time></trkpt><trkpt lat="43.3564377" lon="11.1043157"><ele>192.0</ele><time>2026-04-11T08:29:28.112Z</time></trkpt><trkpt lat="43.3566232" lon="11.104355"><ele>192.0</ele><time>2026-04-11T08:29:29.111Z</time></trkpt><trkpt lat="43.3568176" lon="11.1044065"><ele>192.0</ele><time>2026-04-11T08:29:30.112Z</time></trkpt><trkpt lat="43.3570151" lon="11.1044572"><ele>192.0</ele><time>2026-04-11T08:29:31.111Z</time></trkpt><trkpt lat="43.357225" lon="11.104508"><ele>192.0</ele><time>2026-04-11T08:29:32.111Z</time></trkpt><trkpt lat="43.3574378" lon="11.1045599"><ele>192.0</ele><time>2026-04-11T08:29:33.111Z</time></trkpt><trkpt lat="43.3576579" lon="11.1046068"><ele>192.0</ele><time>2026-04-11T08:29:34.112Z</time></trkpt><trkpt lat="43.3578799" lon="11.1046659"><ele>191.66666666666666</ele><time>2026-04-11T08:29:35.112Z</time></trkpt><trkpt lat="43.358098" lon="11.104719"><ele>191.33333333333331</ele><time>2026-04-11T08:29:36.112Z</time></trkpt><trkpt lat="43.3583217" lon="11.1047686"><ele>191.0</ele><time>2026-04-11T08:29:37.111Z</time></trkpt><trkpt lat="43.3585426" lon="11.1048169"><ele>191.0</ele><time>2026-04-11T08:29:38.111Z</time></trkpt><trkpt lat="43.3587621" lon="11.1048683"><ele>191.0</ele><time>2026-04-11T08:29:39.111Z</time></trkpt><trkpt lat="43.3589821" lon="11.1049207"><ele>191.0</ele><time>2026-04-11T08:29:40.112Z</time></trkpt><trkpt lat="43.3591995" lon="11.104974"><ele>191.0</ele><time>2026-04-11T08:29:41.112Z</time></trkpt><trkpt lat="43.3594121" lon="11.1050247"><ele>191.0</ele><time>2026-04-11T08:29:42.112Z</time></trkpt><trkpt lat="43.3596303" lon="11.1050794"><ele>191.0</ele><time>2026-04-11T08:29:43.111Z</time></trkpt><trkpt lat="43.3598431" lon="11.1051327"><ele>191.0</ele><time>2026-04-11T08:29:44.112Z</time></trkpt><trkpt lat="43.3600505" lon="11.105187"><ele>191.0</ele><time>2026-04-11T08:29:45.111Z</time></trkpt><trkpt lat="43.3602562" lon="11.1052379"><ele>191.0</ele><time>2026-04-11T08:29:46.111Z</time></trkpt><trkpt lat="43.3604638" lon="11.1052808"><ele>190.66666666666666</ele><time>2026-04-11T08:29:47.112Z</time></trkpt><trkpt lat="43.3606724" lon="11.1053124"><ele>190.33333333333334</ele><time>2026-04-11T08:29:48.112Z</time></trkpt><trkpt lat="43.3608733" lon="11.1053725"><ele>190.0</ele><time>2026-04-11T08:29:49.112Z</time></trkpt><trkpt lat="43.361046" lon="11.1054603"><ele>190.0</ele><time>2026-04-11T08:29:50.112Z</time></trkpt><trkpt lat="43.3612104" lon="11.1055813"><ele>190.0</ele><time>2026-04-11T08:29:51.111Z</time></trkpt><trkpt lat="43.36135" lon="11.1057337"><ele>190.0</ele><time>2026-04-11T08:29:52.112Z</time></trkpt><trkpt lat="43.3614755" lon="11.1059149"><ele>190.0</ele><time>2026-04-11T08:29:53.111Z</time></trkpt><trkpt lat="43.3615754" lon="11.10614"><ele>190.0</ele><time>2026-04-11T08:29:54.112Z</time></trkpt><trkpt lat="43.3616425" lon="11.1063922"><ele>190.0</ele><time>2026-04-11T08:29:55.112Z</time></trkpt><trkpt lat="43.3616838" lon="11.1066689"><ele>190.0</ele><time>2026-04-11T08:29:56.112Z</time></trkpt><trkpt lat="43.3617113" lon="11.1069643"><ele>190.0</ele><time>2026-04-11T08:29:57.111Z</time></trkpt><trkpt lat="43.3617421" lon="11.1072617"><ele>190.0</ele><time>2026-04-11T08:29:58.112Z</time></trkpt><trkpt lat="43.3617708" lon="11.1075652"><ele>190.0</ele><time>2026-04-11T08:29:59.112Z</time></trkpt><trkpt lat="43.3618032" lon="11.1078707"><ele>190.0</ele><time>2026-04-11T08:30:00.111Z</time></trkpt><trkpt lat="43.3618299" lon="11.1081678"><ele>190.0</ele><time>2026-04-11T08:30:01.112Z</time></trkpt><trkpt lat="43.3618587" lon="11.1084666"><ele>190.0</ele><time>2026-04-11T08:30:02.111Z</time></trkpt><trkpt lat="43.3618794" lon="11.1087547"><ele>190.0</ele><time>2026-04-11T08:30:03.111Z</time></trkpt><trkpt lat="43.3619109" lon="11.1090289"><ele>190.0</ele><time>2026-04-11T08:30:04.111Z</time></trkpt><trkpt lat="43.3619393" lon="11.1093007"><ele>190.0</ele><time>2026-04-11T08:30:05.112Z</time></trkpt><trkpt lat="43.3619644" lon="11.1095712"><ele>190.0</ele><time>2026-04-11T08:30:06.111Z</time></trkpt><trkpt lat="43.361991" lon="11.1098338"><ele>190.0</ele><time>2026-04-11T08:30:07.112Z</time></trkpt><trkpt lat="43.3620217" lon="11.110098"><ele>190.0</ele><time>2026-04-11T08:30:08.112Z</time></trkpt><trkpt lat="43.3620473" lon="11.1103567"><ele>190.0</ele><time>2026-04-11T08:30:09.112Z</time></trkpt><trkpt lat="43.3620718" lon="11.1106"><ele>190.0</ele><time>2026-04-11T08:30:10.112Z</time></trkpt><trkpt lat="43.3620956" lon="11.1108318"><ele>190.0</ele><time>2026-04-11T08:30:11.111Z</time></trkpt><trkpt lat="43.3621193" lon="11.1110515"><ele>190.0</ele><time>2026-04-11T08:30:12.112Z</time></trkpt><trkpt lat="43.3621405" lon="11.1112794"><ele>190.0</ele><time>2026-04-11T08:30:13.112Z</time></trkpt><trkpt lat="43.3621682" lon="11.1115162"><ele>190.33333333333334</ele><time>2026-04-11T08:30:14.112Z</time></trkpt><trkpt lat="43.3621937" lon="11.1117589"><ele>190.66666666666666</ele><time>2026-04-11T08:30:15.112Z</time></trkpt><trkpt lat="43.3622253" lon="11.1120099"><ele>191.0</ele><time>2026-04-11T08:30:16.112Z</time></trkpt><trkpt lat="43.3622451" lon="11.1122696"><ele>191.33333333333331</ele><time>2026-04-11T08:30:17.112Z</time></trkpt><trkpt lat="43.3622689" lon="11.1125343"><ele>191.66666666666666</ele><time>2026-04-11T08:30:18.112Z</time></trkpt><trkpt lat="43.3622975" lon="11.1128062"><ele>192.0</ele><time>2026-04-11T08:30:19.112Z</time></trkpt><trkpt lat="43.3623262" lon="11.1130836"><ele>191.66666666666666</ele><time>2026-04-11T08:30:20.112Z</time></trkpt><trkpt lat="43.3623509" lon="11.1133629"><ele>191.33333333333331</ele><time>2026-04-11T08:30:21.111Z</time></trkpt><trkpt lat="43.3623786" lon="11.1136453"><ele>191.0</ele><time>2026-04-11T08:30:22.111Z</time></trkpt><trkpt lat="43.3624074" lon="11.1139337"><ele>190.33333333333331</ele><time>2026-04-11T08:30:23.112Z</time></trkpt><trkpt lat="43.3624363" lon="11.1142191"><ele>189.66666666666666</ele><time>2026-04-11T08:30:24.112Z</time></trkpt><trkpt lat="43.3624675" lon="11.1145107"><ele>189.0</ele><time>2026-04-11T08:30:25.111Z</time></trkpt><trkpt lat="43.362496" lon="11.1148075"><ele>188.66666666666666</ele><time>2026-04-11T08:30:26.111Z</time></trkpt><trkpt lat="43.3625272" lon="11.1151057"><ele>188.33333333333331</ele><time>2026-04-11T08:30:27.112Z</time></trkpt><trkpt lat="43.362558" lon="11.1154084"><ele>188.0</ele><time>2026-04-11T08:30:28.112Z</time></trkpt><trkpt lat="43.3625927" lon="11.1157076"><ele>188.0</ele><time>2026-04-11T08:30:29.112Z</time></trkpt><trkpt lat="43.3626243" lon="11.1160074"><ele>188.0</ele><time>2026-04-11T08:30:30.111Z</time></trkpt><trkpt lat="43.3626576" lon="11.1163026"><ele>188.0</ele><time>2026-04-11T08:30:31.111Z</time></trkpt><trkpt lat="43.3626844" lon="11.1165891"><ele>188.0</ele><time>2026-04-11T08:30:32.111Z</time></trkpt><trkpt lat="43.3627189" lon="11.116873"><ele>188.0</ele><time>2026-04-11T08:30:33.112Z</time></trkpt><trkpt lat="43.3627618" lon="11.117143"><ele>188.0</ele><time>2026-04-11T08:30:34.112Z</time></trkpt><trkpt lat="43.36283" lon="11.1173994"><ele>187.66666666666666</ele><time>2026-04-11T08:30:35.111Z</time></trkpt><trkpt lat="43.3629307" lon="11.1176429"><ele>187.33333333333334</ele><time>2026-04-11T08:30:36.112Z</time></trkpt><trkpt lat="43.3630544" lon="11.1178711"><ele>187.0</ele><time>2026-04-11T08:30:37.111Z</time></trkpt><trkpt lat="43.3631937" lon="11.1180863"><ele>188.33333333333334</ele><time>2026-04-11T08:30:38.112Z</time></trkpt><trkpt lat="43.3633381" lon="11.1182999"><ele>189.66666666666666</ele><time>2026-04-11T08:30:39.112Z</time></trkpt><trkpt lat="43.3634895" lon="11.1185157"><ele>191.0</ele><time>2026-04-11T08:30:40.112Z</time></trkpt><trkpt lat="43.3636427" lon="11.1187353"><ele>191.0</ele><time>2026-04-11T08:30:41.112Z</time></trkpt><trkpt lat="43.3637977" lon="11.1189547"><ele>191.0</ele><time>2026-04-11T08:30:42.111Z</time></trkpt><trkpt lat="43.3639527" lon="11.119186"><ele>191.5</ele><time>2026-04-11T08:30:43.112Z</time></trkpt><trkpt lat="43.3641089" lon="11.1194201"><ele>192.0</ele><time>2026-04-11T08:30:44.112Z</time></trkpt><trkpt lat="43.3642643" lon="11.1196532"><ele>192.0</ele><time>2026-04-11T08:30:45.112Z</time></trkpt><trkpt lat="43.3644218" lon="11.1198815"><ele>192.0</ele><time>2026-04-11T08:30:46.112Z</time></trkpt><trkpt lat="43.3645775" lon="11.1201136"><ele>191.33333333333334</ele><time>2026-04-11T08:30:47.112Z</time></trkpt><trkpt lat="43.3647374" lon="11.1203455"><ele>190.66666666666669</ele><time>2026-04-11T08:30:48.112Z</time></trkpt><trkpt lat="43.3648817" lon="11.1205597"><ele>190.0</ele><time>2026-04-11T08:30:49.112Z</time></trkpt><trkpt lat="43.3650153" lon="11.1207567"><ele>189.33333333333334</ele><time>2026-04-11T08:30:50.112Z</time></trkpt><trkpt lat="43.3651408" lon="11.1209346"><ele>188.66666666666666</ele><time>2026-04-11T08:30:51.111Z</time></trkpt><trkpt lat="43.3652609" lon="11.1211229"><ele>188.0</ele><time>2026-04-11T08:30:52.112Z</time></trkpt><trkpt lat="43.3653842" lon="11.1213158"><ele>188.0</ele><time>2026-04-11T08:30:53.111Z</time></trkpt><trkpt lat="43.3655118" lon="11.1215115"><ele>188.0</ele><time>2026-04-11T08:30:54.112Z</time></trkpt><trkpt lat="43.3656423" lon="11.1217105"><ele>188.0</ele><time>2026-04-11T08:30:55.112Z</time></trkpt><trkpt lat="43.3657834" lon="11.1219118"><ele>188.0</ele><time>2026-04-11T08:30:56.112Z</time></trkpt><trkpt lat="43.3659152" lon="11.1221177"><ele>188.0</ele><time>2026-04-11T08:30:57.111Z</time></trkpt><trkpt lat="43.3660454" lon="11.1223183"><ele>188.0</ele><time>2026-04-11T08:30:58.112Z</time></trkpt><trkpt lat="43.366187" lon="11.1225261"><ele>187.66666666666666</ele><time>2026-04-11T08:30:59.111Z</time></trkpt><trkpt lat="43.366326" lon="11.1227231"><ele>187.33333333333334</ele><time>2026-04-11T08:31:00.112Z</time></trkpt><trkpt lat="43.3664649" lon="11.1229302"><ele>187.0</ele><time>2026-04-11T08:31:01.112Z</time></trkpt><trkpt lat="43.3666006" lon="11.1231364"><ele>186.0</ele><time>2026-04-11T08:31:02.112Z</time></trkpt><trkpt lat="43.3667367" lon="11.1233341"><ele>185.0</ele><time>2026-04-11T08:31:03.112Z</time></trkpt><trkpt lat="43.3668729" lon="11.1235368"><ele>184.0</ele><time>2026-04-11T08:31:04.112Z</time></trkpt><trkpt lat="43.3670033" lon="11.1237355"><ele>184.0</ele><time>2026-04-11T08:31:05.112Z</time></trkpt><trkpt lat="43.3671419" lon="11.1239315"><ele>184.0</ele><time>2026-04-11T08:31:06.112Z</time></trkpt><trkpt lat="43.3672781" lon="11.1241324"><ele>184.0</ele><time>2026-04-11T08:31:07.112Z</time></trkpt><trkpt lat="43.3674102" lon="11.1243345"><ele>184.33333333333334</ele><time>2026-04-11T08:31:08.112Z</time></trkpt><trkpt lat="43.3675432" lon="11.1245357"><ele>184.66666666666666</ele><time>2026-04-11T08:31:09.112Z</time></trkpt><trkpt lat="43.3676773" lon="11.124735"><ele>185.0</ele><time>2026-04-11T08:31:10.111Z</time></trkpt><trkpt lat="43.367821" lon="11.124941"><ele>185.33333333333331</ele><time>2026-04-11T08:31:11.112Z</time></trkpt><trkpt lat="43.367956" lon="11.1251433"><ele>185.66666666666666</ele><time>2026-04-11T08:31:12.112Z</time></trkpt><trkpt lat="43.3680829" lon="11.1253425"><ele>186.0</ele><time>2026-04-11T08:31:13.111Z</time></trkpt><trkpt lat="43.3682076" lon="11.1255452"><ele>185.66666666666666</ele><time>2026-04-11T08:31:14.112Z</time></trkpt><trkpt lat="43.368341" lon="11.1257488"><ele>185.33333333333331</ele><time>2026-04-11T08:31:15.111Z</time></trkpt><trkpt lat="43.3684747" lon="11.1259429"><ele>185.0</ele><time>2026-04-11T08:31:16.112Z</time></trkpt><trkpt lat="43.3686033" lon="11.1261285"><ele>185.0</ele><time>2026-04-11T08:31:17.112Z</time></trkpt><trkpt lat="43.3687268" lon="11.1262997"><ele>185.0</ele><time>2026-04-11T08:31:18.112Z</time></trkpt><trkpt lat="43.3688673" lon="11.1264415"><ele>185.0</ele><time>2026-04-11T08:31:19.111Z</time></trkpt><trkpt lat="43.369029" lon="11.1265584"><ele>185.33333333333331</ele><time>2026-04-11T08:31:20.112Z</time></trkpt><trkpt lat="43.3692085" lon="11.1266488"><ele>185.66666666666666</ele><time>2026-04-11T08:31:21.111Z</time></trkpt><trkpt lat="43.3693975" lon="11.1267323"><ele>186.0</ele><time>2026-04-11T08:31:22.112Z</time></trkpt><trkpt lat="43.3695948" lon="11.1268121"><ele>186.0</ele><time>2026-04-11T08:31:23.112Z</time></trkpt><trkpt lat="43.369794" lon="11.1268923"><ele>186.0</ele><time>2026-04-11T08:31:24.112Z</time></trkpt><trkpt lat="43.3699984" lon="11.1269721"><ele>186.0</ele><time>2026-04-11T08:31:25.111Z</time></trkpt><trkpt lat="43.3702102" lon="11.1270573"><ele>186.0</ele><time>2026-04-11T08:31:26.111Z</time></trkpt><trkpt lat="43.3704175" lon="11.1271468"><ele>186.0</ele><time>2026-04-11T08:31:27.111Z</time></trkpt><trkpt lat="43.3706282" lon="11.1272352"><ele>186.0</ele><time>2026-04-11T08:31:28.112Z</time></trkpt><trkpt lat="43.3708408" lon="11.1273162"><ele>185.33333333333334</ele><time>2026-04-11T08:31:29.112Z</time></trkpt><trkpt lat="43.3710488" lon="11.1274055"><ele>184.66666666666669</ele><time>2026-04-11T08:31:30.112Z</time></trkpt><trkpt lat="43.371259" lon="11.1274959"><ele>184.0</ele><time>2026-04-11T08:31:31.112Z</time></trkpt><trkpt lat="43.371468" lon="11.127585"><ele>184.0</ele><time>2026-04-11T08:31:32.111Z</time></trkpt><trkpt lat="43.3716776" lon="11.1276693"><ele>184.0</ele><time>2026-04-11T08:31:33.112Z</time></trkpt><trkpt lat="43.3718909" lon="11.1277616"><ele>184.0</ele><time>2026-04-11T08:31:34.112Z</time></trkpt><trkpt lat="43.3721047" lon="11.1278422"><ele>184.0</ele><time>2026-04-11T08:31:35.112Z</time></trkpt><trkpt lat="43.3723141" lon="11.127923"><ele>184.0</ele><time>2026-04-11T08:31:36.112Z</time></trkpt><trkpt lat="43.3725193" lon="11.1280062"><ele>184.0</ele><time>2026-04-11T08:31:37.112Z</time></trkpt><trkpt lat="43.3727298" lon="11.1280863"><ele>184.0</ele><time>2026-04-11T08:31:38.112Z</time></trkpt><trkpt lat="43.3729418" lon="11.128166"><ele>184.0</ele><time>2026-04-11T08:31:39.111Z</time></trkpt><trkpt lat="43.3731494" lon="11.1282486"><ele>184.0</ele><time>2026-04-11T08:31:40.111Z</time></trkpt><trkpt lat="43.3733498" lon="11.1283325"><ele>184.0</ele><time>2026-04-11T08:31:41.112Z</time></trkpt><trkpt lat="43.3735362" lon="11.1284149"><ele>184.0</ele><time>2026-04-11T08:31:42.111Z</time></trkpt><trkpt lat="43.3737196" lon="11.1284923"><ele>184.0</ele><time>2026-04-11T08:31:43.112Z</time></trkpt><trkpt lat="43.3738873" lon="11.1285591"><ele>184.0</ele><time>2026-04-11T08:31:44.112Z</time></trkpt><trkpt lat="43.3740485" lon="11.1286211"><ele>184.0</ele><time>2026-04-11T08:31:45.112Z</time></trkpt><trkpt lat="43.3742019" lon="11.1286798"><ele>184.0</ele><time>2026-04-11T08:31:46.111Z</time></trkpt><trkpt lat="43.3743513" lon="11.1287394"><ele>184.0</ele><time>2026-04-11T08:31:47.111Z</time></trkpt><trkpt lat="43.3744953" lon="11.1287942"><ele>184.0</ele><time>2026-04-11T08:31:48.112Z</time></trkpt><trkpt lat="43.3746453" lon="11.1288551"><ele>184.0</ele><time>2026-04-11T08:31:49.112Z</time></trkpt><trkpt lat="43.374798" lon="11.1289208"><ele>183.0</ele><time>2026-04-11T08:31:50.112Z</time></trkpt><trkpt lat="43.3749573" lon="11.1289882"><ele>182.0</ele><time>2026-04-11T08:31:51.112Z</time></trkpt><trkpt lat="43.3751289" lon="11.1290593"><ele>181.0</ele><time>2026-04-11T08:31:52.112Z</time></trkpt><trkpt lat="43.375293" lon="11.1291241"><ele>181.0</ele><time>2026-04-11T08:31:53.112Z</time></trkpt><trkpt lat="43.3754461" lon="11.1291863"><ele>181.0</ele><time>2026-04-11T08:31:54.112Z</time></trkpt><trkpt lat="43.3756163" lon="11.1292543"><ele>181.0</ele><time>2026-04-11T08:31:55.111Z</time></trkpt><trkpt lat="43.3757751" lon="11.1293226"><ele>181.33333333333334</ele><time>2026-04-11T08:31:56.112Z</time></trkpt><trkpt lat="43.3759356" lon="11.1293909"><ele>181.66666666666666</ele><time>2026-04-11T08:31:57.112Z</time></trkpt><trkpt lat="43.3760845" lon="11.1294462"><ele>182.0</ele><time>2026-04-11T08:31:58.112Z</time></trkpt><trkpt lat="43.3762215" lon="11.129501"><ele>182.0</ele><time>2026-04-11T08:31:59.112Z</time></trkpt><trkpt lat="43.3763406" lon="11.1295515"><ele>182.0</ele><time>2026-04-11T08:32:00.111Z</time></trkpt><trkpt lat="43.3764332" lon="11.129599"><ele>182.0</ele><time>2026-04-11T08:32:01.112Z</time></trkpt><trkpt lat="43.3764942" lon="11.1296494"><ele>182.0</ele><time>2026-04-11T08:32:02.112Z</time></trkpt><trkpt lat="43.3765706" lon="11.1297032"><ele>182.0</ele><time>2026-04-11T08:32:04.112Z</time></trkpt><trkpt lat="43.3765945" lon="11.1295967"><ele>182.0</ele><time>2026-04-11T08:32:12.112Z</time></trkpt><trkpt lat="43.3764739" lon="11.1295366"><ele>182.0</ele><time>2026-04-11T08:32:14.111Z</time></trkpt><trkpt lat="43.3763817" lon="11.1295064"><ele>182.0</ele><time>2026-04-11T08:32:15.111Z</time></trkpt><trkpt lat="43.3762802" lon="11.1294657"><ele>182.0</ele><time>2026-04-11T08:32:16.111Z</time></trkpt><trkpt lat="43.3761558" lon="11.1294207"><ele>182.0</ele><time>2026-04-11T08:32:17.112Z</time></trkpt><trkpt lat="43.3760328" lon="11.1293703"><ele>182.0</ele><time>2026-04-11T08:32:18.112Z</time></trkpt><trkpt lat="43.3759024" lon="11.1293181"><ele>182.0</ele><time>2026-04-11T08:32:19.111Z</time></trkpt><trkpt lat="43.3757653" lon="11.1292636"><ele>182.0</ele><time>2026-04-11T08:32:20.111Z</time></trkpt><trkpt lat="43.3756245" lon="11.1292068"><ele>181.66666666666666</ele><time>2026-04-11T08:32:21.111Z</time></trkpt><trkpt lat="43.3754784" lon="11.129142"><ele>181.33333333333334</ele><time>2026-04-11T08:32:22.112Z</time></trkpt><trkpt lat="43.3753303" lon="11.1290786"><ele>181.0</ele><time>2026-04-11T08:32:23.111Z</time></trkpt><trkpt lat="43.37518" lon="11.1290158"><ele>181.0</ele><time>2026-04-11T08:32:24.112Z</time></trkpt><trkpt lat="43.3750238" lon="11.1289526"><ele>181.0</ele><time>2026-04-11T08:32:25.112Z</time></trkpt><trkpt lat="43.3748756" lon="11.1288973"><ele>181.0</ele><time>2026-04-11T08:32:26.112Z</time></trkpt><trkpt lat="43.3747272" lon="11.128843"><ele>181.75</ele><time>2026-04-11T08:32:27.112Z</time></trkpt><trkpt lat="43.3745943" lon="11.1287889"><ele>182.5</ele><time>2026-04-11T08:32:28.112Z</time></trkpt><trkpt lat="43.3744659" lon="11.128738"><ele>183.25</ele><time>2026-04-11T08:32:29.111Z</time></trkpt><trkpt lat="43.3743416" lon="11.1286954"><ele>184.0</ele><time>2026-04-11T08:32:30.112Z</time></trkpt><trkpt lat="43.3742189" lon="11.1286452"><ele>184.0</ele><time>2026-04-11T08:32:31.112Z</time></trkpt><trkpt lat="43.3741012" lon="11.1285924"><ele>184.0</ele><time>2026-04-11T08:32:32.112Z</time></trkpt><trkpt lat="43.3739911" lon="11.1285448"><ele>184.0</ele><time>2026-04-11T08:32:33.112Z</time></trkpt><trkpt lat="43.3738769" lon="11.1285011"><ele>184.0</ele><time>2026-04-11T08:32:34.112Z</time></trkpt><trkpt lat="43.3737688" lon="11.1284576"><ele>184.25</ele><time>2026-04-11T08:32:35.112Z</time></trkpt><trkpt lat="43.3736569" lon="11.1284256"><ele>184.5</ele><time>2026-04-11T08:32:36.112Z</time></trkpt><trkpt lat="43.3735423" lon="11.1283825"><ele>184.75</ele><time>2026-04-11T08:32:37.112Z</time></trkpt><trkpt lat="43.3734279" lon="11.1283309"><ele>185.0</ele><time>2026-04-11T08:32:38.111Z</time></trkpt><trkpt lat="43.3733218" lon="11.1282841"><ele>185.0</ele><time>2026-04-11T08:32:39.112Z</time></trkpt><trkpt lat="43.3732115" lon="11.128242"><ele>185.0</ele><time>2026-04-11T08:32:40.112Z</time></trkpt><trkpt lat="43.3731166" lon="11.1281893"><ele>185.0</ele><time>2026-04-11T08:32:41.112Z</time></trkpt><trkpt lat="43.3730337" lon="11.1281479"><ele>185.0</ele><time>2026-04-11T08:32:42.112Z</time></trkpt><trkpt lat="43.3729322" lon="11.1281023"><ele>185.0</ele><time>2026-04-11T08:32:44.112Z</time></trkpt><trkpt lat="43.3729707" lon="11.1281838"><ele>185.0</ele><time>2026-04-11T08:32:49.112Z</time></trkpt><trkpt lat="43.3730938" lon="11.1282311"><ele>185.0</ele><time>2026-04-11T08:32:51.112Z</time></trkpt><trkpt lat="43.3731711" lon="11.1282582"><ele>185.0</ele><time>2026-04-11T08:32:52.112Z</time></trkpt><trkpt lat="43.3732527" lon="11.1282929"><ele>185.0</ele><time>2026-04-11T08:32:53.112Z</time></trkpt><trkpt lat="43.3733393" lon="11.1283296"><ele>185.0</ele><time>2026-04-11T08:32:54.111Z</time></trkpt><trkpt lat="43.3734367" lon="11.1283703"><ele>185.0</ele><time>2026-04-11T08:32:55.112Z</time></trkpt><trkpt lat="43.3735431" lon="11.1284131"><ele>185.0</ele><time>2026-04-11T08:32:56.112Z</time></trkpt><trkpt lat="43.3736566" lon="11.1284586"><ele>185.0</ele><time>2026-04-11T08:32:57.112Z</time></trkpt><trkpt lat="43.3737865" lon="11.1285083"><ele>185.0</ele><time>2026-04-11T08:32:58.112Z</time></trkpt><trkpt lat="43.373914" lon="11.1285579"><ele>184.75</ele><time>2026-04-11T08:32:59.112Z</time></trkpt><trkpt lat="43.3740396" lon="11.1286097"><ele>184.5</ele><time>2026-04-11T08:33:00.112Z</time></trkpt><trkpt lat="43.3741692" lon="11.1286649"><ele>184.25</ele><time>2026-04-11T08:33:01.112Z</time></trkpt><trkpt lat="43.3743098" lon="11.1287223"><ele>184.0</ele><time>2026-04-11T08:33:02.112Z</time></trkpt><trkpt lat="43.3744546" lon="11.1287802"><ele>184.0</ele><time>2026-04-11T08:33:03.112Z</time></trkpt><trkpt lat="43.3746096" lon="11.1288429"><ele>184.0</ele><time>2026-04-11T08:33:04.112Z</time></trkpt><trkpt lat="43.3747615" lon="11.1289052"><ele>184.0</ele><time>2026-04-11T08:33:05.111Z</time></trkpt><trkpt lat="43.3749195" lon="11.1289697"><ele>183.0</ele><time>2026-04-11T08:33:06.111Z</time></trkpt><trkpt lat="43.3750785" lon="11.1290334"><ele>182.0</ele><time>2026-04-11T08:33:07.112Z</time></trkpt><trkpt lat="43.3752478" lon="11.1290999"><ele>181.0</ele><time>2026-04-11T08:33:08.111Z</time></trkpt><trkpt lat="43.3754231" lon="11.1291684"><ele>181.33333333333334</ele><time>2026-04-11T08:33:09.112Z</time></trkpt><trkpt lat="43.375597" lon="11.1292368"><ele>181.66666666666666</ele><time>2026-04-11T08:33:10.112Z</time></trkpt><trkpt lat="43.3757796" lon="11.1293123"><ele>182.0</ele><time>2026-04-11T08:33:11.112Z</time></trkpt><trkpt lat="43.3759649" lon="11.1293952"><ele>182.0</ele><time>2026-04-11T08:33:12.112Z</time></trkpt><trkpt lat="43.3761488" lon="11.1294713"><ele>182.0</ele><time>2026-04-11T08:33:13.112Z</time></trkpt><trkpt lat="43.3763238" lon="11.1295419"><ele>182.0</ele><time>2026-04-11T08:33:14.112Z</time></trkpt><trkpt lat="43.3765007" lon="11.1296147"><ele>182.66666666666666</ele><time>2026-04-11T08:33:15.112Z</time></trkpt><trkpt lat="43.3766713" lon="11.129685"><ele>183.33333333333334</ele><time>2026-04-11T08:33:16.112Z</time></trkpt><trkpt lat="43.3768424" lon="11.1297564"><ele>184.0</ele><time>2026-04-11T08:33:17.112Z</time></trkpt><trkpt lat="43.3770139" lon="11.1298255"><ele>183.66666666666669</ele><time>2026-04-11T08:33:18.112Z</time></trkpt><trkpt lat="43.3771834" lon="11.1298948"><ele>183.33333333333334</ele><time>2026-04-11T08:33:19.112Z</time></trkpt><trkpt lat="43.3773528" lon="11.1299607"><ele>183.0</ele><time>2026-04-11T08:33:20.111Z</time></trkpt><trkpt lat="43.3775281" lon="11.1300321"><ele>183.0</ele><time>2026-04-11T08:33:21.112Z</time></trkpt><trkpt lat="43.3777004" lon="11.1301002"><ele>183.0</ele><time>2026-04-11T08:33:22.111Z</time></trkpt><trkpt lat="43.3778735" lon="11.1301709"><ele>183.0</ele><time>2026-04-11T08:33:23.111Z</time></trkpt><trkpt lat="43.3780534" lon="11.1302459"><ele>182.66666666666666</ele><time>2026-04-11T08:33:24.111Z</time></trkpt><trkpt lat="43.3782382" lon="11.1303171"><ele>182.33333333333331</ele><time>2026-04-11T08:33:25.112Z</time></trkpt><trkpt lat="43.3784181" lon="11.1303959"><ele>182.0</ele><time>2026-04-11T08:33:26.111Z</time></trkpt><trkpt lat="43.3786011" lon="11.1304714"><ele>182.0</ele><time>2026-04-11T08:33:27.112Z</time></trkpt><trkpt lat="43.3787859" lon="11.1305406"><ele>182.0</ele><time>2026-04-11T08:33:28.112Z</time></trkpt><trkpt lat="43.3789718" lon="11.1306204"><ele>182.0</ele><time>2026-04-11T08:33:29.112Z</time></trkpt><trkpt lat="43.3791601" lon="11.1306961"><ele>181.66666666666666</ele><time>2026-04-11T08:33:30.111Z</time></trkpt><trkpt lat="43.3793506" lon="11.1307769"><ele>181.33333333333334</ele><time>2026-04-11T08:33:31.112Z</time></trkpt><trkpt lat="43.3795408" lon="11.1308496"><ele>181.0</ele><time>2026-04-11T08:33:32.112Z</time></trkpt><trkpt lat="43.3797316" lon="11.1309238"><ele>181.0</ele><time>2026-04-11T08:33:33.112Z</time></trkpt><trkpt lat="43.3799249" lon="11.1310017"><ele>181.0</ele><time>2026-04-11T08:33:34.112Z</time></trkpt><trkpt lat="43.3801256" lon="11.1310848"><ele>181.0</ele><time>2026-04-11T08:33:35.111Z</time></trkpt><trkpt lat="43.3803176" lon="11.1311689"><ele>181.0</ele><time>2026-04-11T08:33:36.111Z</time></trkpt><trkpt lat="43.3805026" lon="11.1312422"><ele>181.0</ele><time>2026-04-11T08:33:37.111Z</time></trkpt><trkpt lat="43.3806734" lon="11.131305"><ele>181.0</ele><time>2026-04-11T08:33:38.112Z</time></trkpt><trkpt lat="43.3808336" lon="11.1313638"><ele>181.0</ele><time>2026-04-11T08:33:39.112Z</time></trkpt><trkpt lat="43.3809678" lon="11.1314182"><ele>181.0</ele><time>2026-04-11T08:33:40.111Z</time></trkpt><trkpt lat="43.3810733" lon="11.1314643"><ele>181.0</ele><time>2026-04-11T08:33:41.111Z</time></trkpt><trkpt lat="43.3811397" lon="11.1314964"><ele>181.0</ele><time>2026-04-11T08:33:42.112Z</time></trkpt><trkpt lat="43.3812524" lon="11.1315343"><ele>181.0</ele><time>2026-04-11T08:33:44.112Z</time></trkpt><trkpt lat="43.3813697" lon="11.1315794"><ele>181.0</ele><time>2026-04-11T08:33:46.112Z</time></trkpt><trkpt lat="43.3814444" lon="11.1316141"><ele>181.0</ele><time>2026-04-11T08:33:47.112Z</time></trkpt><trkpt lat="43.3815328" lon="11.1316493"><ele>181.0</ele><time>2026-04-11T08:33:48.112Z</time></trkpt><trkpt lat="43.3816352" lon="11.131683"><ele>181.0</ele><time>2026-04-11T08:33:49.112Z</time></trkpt><trkpt lat="43.381753" lon="11.1317378"><ele>181.0</ele><time>2026-04-11T08:33:50.111Z</time></trkpt><trkpt lat="43.3818851" lon="11.1317959"><ele>181.0</ele><time>2026-04-11T08:33:51.112Z</time></trkpt><trkpt lat="43.382016" lon="11.1318479"><ele>181.0</ele><time>2026-04-11T08:33:52.111Z</time></trkpt><trkpt lat="43.382152" lon="11.1319008"><ele>181.0</ele><time>2026-04-11T08:33:53.112Z</time></trkpt><trkpt lat="43.3822844" lon="11.1319531"><ele>181.0</ele><time>2026-04-11T08:33:54.112Z</time></trkpt><trkpt lat="43.382423" lon="11.1320086"><ele>181.0</ele><time>2026-04-11T08:33:55.112Z</time></trkpt><trkpt lat="43.3825698" lon="11.1320698"><ele>181.0</ele><time>2026-04-11T08:33:56.111Z</time></trkpt><trkpt lat="43.3827207" lon="11.1321312"><ele>181.0</ele><time>2026-04-11T08:33:57.111Z</time></trkpt><trkpt lat="43.3828643" lon="11.1321932"><ele>181.0</ele><time>2026-04-11T08:33:58.112Z</time></trkpt><trkpt lat="43.3830137" lon="11.1322522"><ele>181.0</ele><time>2026-04-11T08:33:59.112Z</time></trkpt><trkpt lat="43.3831611" lon="11.1323105"><ele>181.0</ele><time>2026-04-11T08:34:00.112Z</time></trkpt><trkpt lat="43.3833125" lon="11.1323682"><ele>181.33333333333334</ele><time>2026-04-11T08:34:01.112Z</time></trkpt><trkpt lat="43.3834631" lon="11.1324278"><ele>181.66666666666666</ele><time>2026-04-11T08:34:02.112Z</time></trkpt><trkpt lat="43.3836158" lon="11.1324893"><ele>182.0</ele><time>2026-04-11T08:34:03.111Z</time></trkpt><trkpt lat="43.3837578" lon="11.1325472"><ele>182.0</ele><time>2026-04-11T08:34:04.112Z</time></trkpt><trkpt lat="43.3838941" lon="11.1326007"><ele>182.0</ele><time>2026-04-11T08:34:05.112Z</time></trkpt><trkpt lat="43.3840318" lon="11.1326579"><ele>182.0</ele><time>2026-04-11T08:34:06.112Z</time></trkpt><trkpt lat="43.3841706" lon="11.1327136"><ele>182.0</ele><time>2026-04-11T08:34:07.112Z</time></trkpt><trkpt lat="43.3843105" lon="11.1327728"><ele>182.0</ele><time>2026-04-11T08:34:08.112Z</time></trkpt><trkpt lat="43.3844417" lon="11.1328244"><ele>182.0</ele><time>2026-04-11T08:34:09.111Z</time></trkpt><trkpt lat="43.3845594" lon="11.1328761"><ele>182.0</ele><time>2026-04-11T08:34:10.112Z</time></trkpt><trkpt lat="43.3846701" lon="11.1329162"><ele>182.0</ele><time>2026-04-11T08:34:11.111Z</time></trkpt><trkpt lat="43.3847747" lon="11.1329555"><ele>181.6</ele><time>2026-04-11T08:34:12.112Z</time></trkpt><trkpt lat="43.3848775" lon="11.1329934"><ele>181.2</ele><time>2026-04-11T08:34:13.111Z</time></trkpt><trkpt lat="43.3849834" lon="11.1330332"><ele>180.8</ele><time>2026-04-11T08:34:14.112Z</time></trkpt><trkpt lat="43.385092" lon="11.1330765"><ele>180.4</ele><time>2026-04-11T08:34:15.112Z</time></trkpt><trkpt lat="43.3852039" lon="11.133123"><ele>180.0</ele><time>2026-04-11T08:34:16.112Z</time></trkpt><trkpt lat="43.3853215" lon="11.1331721"><ele>180.0</ele><time>2026-04-11T08:34:17.112Z</time></trkpt><trkpt lat="43.385448" lon="11.133218"><ele>180.0</ele><time>2026-04-11T08:34:18.112Z</time></trkpt><trkpt lat="43.385572" lon="11.1332663"><ele>180.0</ele><time>2026-04-11T08:34:19.112Z</time></trkpt><trkpt lat="43.3856962" lon="11.1333257"><ele>180.0</ele><time>2026-04-11T08:34:20.112Z</time></trkpt><trkpt lat="43.3858116" lon="11.1333939"><ele>179.8</ele><time>2026-04-11T08:34:21.111Z</time></trkpt><trkpt lat="43.3859132" lon="11.1334879"><ele>179.6</ele><time>2026-04-11T08:34:22.111Z</time></trkpt><trkpt lat="43.3859967" lon="11.1335914"><ele>179.39999999999998</ele><time>2026-04-11T08:34:23.112Z</time></trkpt><trkpt lat="43.3860772" lon="11.1336942"><ele>179.2</ele><time>2026-04-11T08:34:24.112Z</time></trkpt><trkpt lat="43.3861526" lon="11.1337772"><ele>179.0</ele><time>2026-04-11T08:34:25.112Z</time></trkpt><trkpt lat="43.3862276" lon="11.1338352"><ele>179.00000000000003</ele><time>2026-04-11T08:34:26.112Z</time></trkpt><trkpt lat="43.386295" lon="11.1338731"><ele>179.0</ele><time>2026-04-11T08:34:27.112Z</time></trkpt><trkpt lat="43.3863663" lon="11.1338831"><ele>179.0</ele><time>2026-04-11T08:34:28.111Z</time></trkpt><trkpt lat="43.3864298" lon="11.1338598"><ele>179.0</ele><time>2026-04-11T08:34:29.112Z</time></trkpt><trkpt lat="43.3864977" lon="11.1338261"><ele>179.0</ele><time>2026-04-11T08:34:30.112Z</time></trkpt><trkpt lat="43.3865711" lon="11.133778"><ele>179.00000000000003</ele><time>2026-04-11T08:34:31.112Z</time></trkpt><trkpt lat="43.3866442" lon="11.1337315"><ele>179.0</ele><time>2026-04-11T08:34:32.112Z</time></trkpt><trkpt lat="43.3867194" lon="11.1336718"><ele>180.0</ele><time>2026-04-11T08:34:33.112Z</time></trkpt><trkpt lat="43.3868034" lon="11.1335957"><ele>181.0</ele><time>2026-04-11T08:34:34.111Z</time></trkpt><trkpt lat="43.3868961" lon="11.1335118"><ele>182.0</ele><time>2026-04-11T08:34:35.111Z</time></trkpt><trkpt lat="43.386994" lon="11.1334222"><ele>183.0</ele><time>2026-04-11T08:34:36.112Z</time></trkpt><trkpt lat="43.3870856" lon="11.1333303"><ele>184.0</ele><time>2026-04-11T08:34:37.112Z</time></trkpt><trkpt lat="43.3871902" lon="11.1332376"><ele>183.5</ele><time>2026-04-11T08:34:38.112Z</time></trkpt><trkpt lat="43.3873044" lon="11.1331464"><ele>183.0</ele><time>2026-04-11T08:34:39.112Z</time></trkpt><trkpt lat="43.3874207" lon="11.1330433"><ele>182.5</ele><time>2026-04-11T08:34:40.112Z</time></trkpt><trkpt lat="43.3875397" lon="11.132964"><ele>182.0</ele><time>2026-04-11T08:34:41.112Z</time></trkpt><trkpt lat="43.3876697" lon="11.1329169"><ele>182.0</ele><time>2026-04-11T08:34:42.111Z</time></trkpt><trkpt lat="43.387812" lon="11.1329212"><ele>182.0</ele><time>2026-04-11T08:34:43.112Z</time></trkpt><trkpt lat="43.3879606" lon="11.132934"><ele>182.0</ele><time>2026-04-11T08:34:44.112Z</time></trkpt><trkpt lat="43.3881207" lon="11.1329678"><ele>182.33333333333331</ele><time>2026-04-11T08:34:45.112Z</time></trkpt><trkpt lat="43.3882818" lon="11.1329929"><ele>182.66666666666666</ele><time>2026-04-11T08:34:46.112Z</time></trkpt><trkpt lat="43.3884456" lon="11.1330191"><ele>183.0</ele><time>2026-04-11T08:34:47.111Z</time></trkpt><trkpt lat="43.3886038" lon="11.1330463"><ele>183.0</ele><time>2026-04-11T08:34:48.111Z</time></trkpt><trkpt lat="43.3887579" lon="11.1330706"><ele>183.0</ele><time>2026-04-11T08:34:49.112Z</time></trkpt><trkpt lat="43.3889174" lon="11.1330867"><ele>183.0</ele><time>2026-04-11T08:34:50.111Z</time></trkpt><trkpt lat="43.3890707" lon="11.1330807"><ele>182.66666666666666</ele><time>2026-04-11T08:34:51.112Z</time></trkpt><trkpt lat="43.3892251" lon="11.1330597"><ele>182.33333333333331</ele><time>2026-04-11T08:34:52.112Z</time></trkpt><trkpt lat="43.389371" lon="11.1330258"><ele>182.0</ele><time>2026-04-11T08:34:53.111Z</time></trkpt><trkpt lat="43.389532" lon="11.1329839"><ele>182.0</ele><time>2026-04-11T08:34:54.112Z</time></trkpt><trkpt lat="43.3896922" lon="11.1329467"><ele>182.0</ele><time>2026-04-11T08:34:55.111Z</time></trkpt><trkpt lat="43.3898509" lon="11.1329155"><ele>182.0</ele><time>2026-04-11T08:34:56.111Z</time></trkpt><trkpt lat="43.3900097" lon="11.132876"><ele>182.0</ele><time>2026-04-11T08:34:57.112Z</time></trkpt><trkpt lat="43.3901635" lon="11.1328406"><ele>182.0</ele><time>2026-04-11T08:34:58.112Z</time></trkpt><trkpt lat="43.3903078" lon="11.1328008"><ele>182.0</ele><time>2026-04-11T08:34:59.112Z</time></trkpt><trkpt lat="43.3904431" lon="11.1327748"><ele>182.0</ele><time>2026-04-11T08:35:00.112Z</time></trkpt><trkpt lat="43.3905705" lon="11.1327566"><ele>181.75</ele><time>2026-04-11T08:35:01.112Z</time></trkpt><trkpt lat="43.3906988" lon="11.1327276"><ele>181.5</ele><time>2026-04-11T08:35:02.111Z</time></trkpt><trkpt lat="43.3908252" lon="11.132696"><ele>181.25</ele><time>2026-04-11T08:35:03.112Z</time></trkpt><trkpt lat="43.3909587" lon="11.1326702"><ele>181.0</ele><time>2026-04-11T08:35:04.111Z</time></trkpt><trkpt lat="43.391088" lon="11.1326607"><ele>181.0</ele><time>2026-04-11T08:35:05.112Z</time></trkpt><trkpt lat="43.3912051" lon="11.132673"><ele>181.0</ele><time>2026-04-11T08:35:06.111Z</time></trkpt><trkpt lat="43.3913128" lon="11.132691"><ele>181.0</ele><time>2026-04-11T08:35:07.112Z</time></trkpt><trkpt lat="43.391416" lon="11.1327158"><ele>181.0</ele><time>2026-04-11T08:35:08.112Z</time></trkpt><trkpt lat="43.3915085" lon="11.1327486"><ele>181.0</ele><time>2026-04-11T08:35:09.112Z</time></trkpt><trkpt lat="43.3915925" lon="11.1327698"><ele>181.33333333333334</ele><time>2026-04-11T08:35:10.112Z</time></trkpt><trkpt lat="43.3916742" lon="11.1327946"><ele>181.66666666666669</ele><time>2026-04-11T08:35:11.112Z</time></trkpt><trkpt lat="43.3917502" lon="11.1328014"><ele>182.0</ele><time>2026-04-11T08:35:12.112Z</time></trkpt><trkpt lat="43.3918235" lon="11.1327814"><ele>182.33333333333334</ele><time>2026-04-11T08:35:13.112Z</time></trkpt><trkpt lat="43.391895" lon="11.1327227"><ele>182.66666666666666</ele><time>2026-04-11T08:35:14.112Z</time></trkpt><trkpt lat="43.3919563" lon="11.1326289"><ele>183.0</ele><time>2026-04-11T08:35:15.112Z</time></trkpt><trkpt lat="43.3920246" lon="11.1325308"><ele>183.0</ele><time>2026-04-11T08:35:16.111Z</time></trkpt><trkpt lat="43.3921012" lon="11.132443"><ele>183.0</ele><time>2026-04-11T08:35:17.112Z</time></trkpt><trkpt lat="43.3921979" lon="11.132377"><ele>183.0</ele><time>2026-04-11T08:35:18.111Z</time></trkpt><trkpt lat="43.3923054" lon="11.1323365"><ele>183.0</ele><time>2026-04-11T08:35:19.111Z</time></trkpt><trkpt lat="43.392419" lon="11.1323036"><ele>183.0</ele><time>2026-04-11T08:35:20.111Z</time></trkpt><trkpt lat="43.3925266" lon="11.1322756"><ele>183.0</ele><time>2026-04-11T08:35:21.111Z</time></trkpt><trkpt lat="43.3926332" lon="11.1322516"><ele>183.0</ele><time>2026-04-11T08:35:22.112Z</time></trkpt><trkpt lat="43.3927393" lon="11.1322373"><ele>183.0</ele><time>2026-04-11T08:35:23.112Z</time></trkpt><trkpt lat="43.3928437" lon="11.1322138"><ele>183.0</ele><time>2026-04-11T08:35:24.111Z</time></trkpt><trkpt lat="43.3929476" lon="11.1321915"><ele>183.0</ele><time>2026-04-11T08:35:25.112Z</time></trkpt><trkpt lat="43.39304" lon="11.1321716"><ele>183.33333333333334</ele><time>2026-04-11T08:35:26.112Z</time></trkpt><trkpt lat="43.393132" lon="11.1321505"><ele>183.66666666666666</ele><time>2026-04-11T08:35:27.112Z</time></trkpt><trkpt lat="43.3932157" lon="11.1321287"><ele>184.0</ele><time>2026-04-11T08:35:28.112Z</time></trkpt><trkpt lat="43.393301" lon="11.1321104"><ele>184.33333333333331</ele><time>2026-04-11T08:35:29.112Z</time></trkpt><trkpt lat="43.3933868" lon="11.1320921"><ele>184.66666666666666</ele><time>2026-04-11T08:35:30.112Z</time></trkpt><trkpt lat="43.3934726" lon="11.1320746"><ele>185.0</ele><time>2026-04-11T08:35:31.112Z</time></trkpt><trkpt lat="43.3935605" lon="11.1320599"><ele>185.0</ele><time>2026-04-11T08:35:32.111Z</time></trkpt><trkpt lat="43.3936544" lon="11.1320381"><ele>185.0</ele><time>2026-04-11T08:35:33.112Z</time></trkpt><trkpt lat="43.3937451" lon="11.1320137"><ele>185.0</ele><time>2026-04-11T08:35:34.112Z</time></trkpt><trkpt lat="43.3938388" lon="11.1319924"><ele>185.0</ele><time>2026-04-11T08:35:35.112Z</time></trkpt><trkpt lat="43.3939372" lon="11.1319756"><ele>185.0</ele><time>2026-04-11T08:35:36.112Z</time></trkpt><trkpt lat="43.3940355" lon="11.1319502"><ele>184.6</ele><time>2026-04-11T08:35:37.112Z</time></trkpt><trkpt lat="43.3941404" lon="11.1319226"><ele>184.2</ele><time>2026-04-11T08:35:38.111Z</time></trkpt><trkpt lat="43.3942453" lon="11.1318989"><ele>183.8</ele><time>2026-04-11T08:35:39.112Z</time></trkpt><trkpt lat="43.3943395" lon="11.131875"><ele>183.4</ele><time>2026-04-11T08:35:40.112Z</time></trkpt><trkpt lat="43.3944323" lon="11.1318579"><ele>183.0</ele><time>2026-04-11T08:35:41.112Z</time></trkpt><trkpt lat="43.3945204" lon="11.1318396"><ele>183.0</ele><time>2026-04-11T08:35:42.111Z</time></trkpt><trkpt lat="43.394595" lon="11.1318232"><ele>183.0</ele><time>2026-04-11T08:35:43.111Z</time></trkpt><trkpt lat="43.3946713" lon="11.1318162"><ele>183.0</ele><time>2026-04-11T08:35:44.112Z</time></trkpt><trkpt lat="43.3947531" lon="11.131801"><ele>183.0</ele><time>2026-04-11T08:35:45.112Z</time></trkpt><trkpt lat="43.3948346" lon="11.1317849"><ele>183.0</ele><time>2026-04-11T08:35:46.112Z</time></trkpt><trkpt lat="43.3949259" lon="11.1317822"><ele>183.0</ele><time>2026-04-11T08:35:47.111Z</time></trkpt><trkpt lat="43.3950244" lon="11.1317818"><ele>182.8</ele><time>2026-04-11T08:35:48.112Z</time></trkpt><trkpt lat="43.3951274" lon="11.131795"><ele>182.60000000000002</ele><time>2026-04-11T08:35:49.112Z</time></trkpt><trkpt lat="43.3952295" lon="11.1318149"><ele>182.39999999999998</ele><time>2026-04-11T08:35:50.111Z</time></trkpt><trkpt lat="43.3953363" lon="11.1318424"><ele>182.2</ele><time>2026-04-11T08:35:51.111Z</time></trkpt><trkpt lat="43.3954427" lon="11.1318779"><ele>182.0</ele><time>2026-04-11T08:35:52.112Z</time></trkpt><trkpt lat="43.3955448" lon="11.1319143"><ele>182.0</ele><time>2026-04-11T08:35:53.112Z</time></trkpt><trkpt lat="43.3956554" lon="11.1319465"><ele>182.0</ele><time>2026-04-11T08:35:54.111Z</time></trkpt><trkpt lat="43.3957689" lon="11.1319845"><ele>182.0</ele><time>2026-04-11T08:35:55.112Z</time></trkpt><trkpt lat="43.3958829" lon="11.1320146"><ele>182.0</ele><time>2026-04-11T08:35:56.111Z</time></trkpt><trkpt lat="43.3959962" lon="11.1320505"><ele>182.0</ele><time>2026-04-11T08:35:57.112Z</time></trkpt><trkpt lat="43.396107" lon="11.1320858"><ele>182.0</ele><time>2026-04-11T08:35:58.111Z</time></trkpt><trkpt lat="43.3962146" lon="11.1321272"><ele>182.0</ele><time>2026-04-11T08:35:59.111Z</time></trkpt><trkpt lat="43.3963206" lon="11.1321579"><ele>182.0</ele><time>2026-04-11T08:36:00.111Z</time></trkpt><trkpt lat="43.3964245" lon="11.1321909"><ele>182.0</ele><time>2026-04-11T08:36:01.112Z</time></trkpt><trkpt lat="43.3965317" lon="11.1322252"><ele>181.8</ele><time>2026-04-11T08:36:02.112Z</time></trkpt><trkpt lat="43.3966344" lon="11.1322601"><ele>181.6</ele><time>2026-04-11T08:36:03.112Z</time></trkpt><trkpt lat="43.3967468" lon="11.1322954"><ele>181.4</ele><time>2026-04-11T08:36:04.112Z</time></trkpt><trkpt lat="43.3968592" lon="11.1323288"><ele>181.20000000000002</ele><time>2026-04-11T08:36:05.111Z</time></trkpt><trkpt lat="43.3969605" lon="11.132358"><ele>181.0</ele><time>2026-04-11T08:36:06.112Z</time></trkpt><trkpt lat="43.3970609" lon="11.1323881"><ele>181.0</ele><time>2026-04-11T08:36:07.112Z</time></trkpt><trkpt lat="43.397152" lon="11.1324186"><ele>181.0</ele><time>2026-04-11T08:36:08.111Z</time></trkpt><trkpt lat="43.3972368" lon="11.1324434"><ele>181.0</ele><time>2026-04-11T08:36:09.112Z</time></trkpt><trkpt lat="43.3973092" lon="11.1324616"><ele>181.0</ele><time>2026-04-11T08:36:10.112Z</time></trkpt><trkpt lat="43.3974241" lon="11.1324878"><ele>181.0</ele><time>2026-04-11T08:36:12.112Z</time></trkpt><trkpt lat="43.3975419" lon="11.1325316"><ele>181.0</ele><time>2026-04-11T08:36:14.112Z</time></trkpt><trkpt lat="43.3976633" lon="11.1325765"><ele>181.0</ele><time>2026-04-11T08:36:16.111Z</time></trkpt><trkpt lat="43.3977396" lon="11.1326088"><ele>181.0</ele><time>2026-04-11T08:36:17.112Z</time></trkpt><trkpt lat="43.39782" lon="11.1326362"><ele>181.0</ele><time>2026-04-11T08:36:18.112Z</time></trkpt><trkpt lat="43.3979024" lon="11.1326627"><ele>181.0</ele><time>2026-04-11T08:36:19.112Z</time></trkpt><trkpt lat="43.3979912" lon="11.1326874"><ele>180.66666666666669</ele><time>2026-04-11T08:36:20.112Z</time></trkpt><trkpt lat="43.3980776" lon="11.1327161"><ele>180.33333333333334</ele><time>2026-04-11T08:36:21.111Z</time></trkpt><trkpt lat="43.398165" lon="11.1327403"><ele>180.0</ele><time>2026-04-11T08:36:22.112Z</time></trkpt><trkpt lat="43.3982444" lon="11.1327634"><ele>179.66666666666666</ele><time>2026-04-11T08:36:23.111Z</time></trkpt><trkpt lat="43.3983155" lon="11.1327892"><ele>179.33333333333331</ele><time>2026-04-11T08:36:24.112Z</time></trkpt><trkpt lat="43.3983873" lon="11.1328141"><ele>179.0</ele><time>2026-04-11T08:36:25.112Z</time></trkpt><trkpt lat="43.3984536" lon="11.1328427"><ele>179.0</ele><time>2026-04-11T08:36:26.111Z</time></trkpt><trkpt lat="43.3985425" lon="11.1328639"><ele>179.0</ele><time>2026-04-11T08:36:28.111Z</time></trkpt><trkpt lat="43.3986246" lon="11.1328968"><ele>179.0</ele><time>2026-04-11T08:36:32.112Z</time></trkpt><trkpt lat="43.3987306" lon="11.1329231"><ele>179.0</ele><time>2026-04-11T08:36:34.112Z</time></trkpt><trkpt lat="43.3987965" lon="11.132938"><ele>179.0</ele><time>2026-04-11T08:36:35.112Z</time></trkpt><trkpt lat="43.3989102" lon="11.1329637"><ele>178.66666666666666</ele><time>2026-04-11T08:36:37.111Z</time></trkpt><trkpt lat="43.3989858" lon="11.1329126"><ele>178.33333333333331</ele><time>2026-04-11T08:36:39.112Z</time></trkpt><trkpt lat="43.3989966" lon="11.1328226"><ele>178.0</ele><time>2026-04-11T08:36:41.112Z</time></trkpt><trkpt lat="43.3989639" lon="11.1327415"><ele>177.66666666666666</ele><time>2026-04-11T08:36:43.112Z</time></trkpt><trkpt lat="43.3989071" lon="11.1326213"><ele>177.33333333333334</ele><time>2026-04-11T08:36:45.112Z</time></trkpt><trkpt lat="43.3988813" lon="11.1325415"><ele>177.0</ele><time>2026-04-11T08:36:46.111Z</time></trkpt><trkpt lat="43.3988434" lon="11.1324366"><ele>177.2</ele><time>2026-04-11T08:36:47.111Z</time></trkpt><trkpt lat="43.3987994" lon="11.1323267"><ele>177.39999999999998</ele><time>2026-04-11T08:36:48.112Z</time></trkpt><trkpt lat="43.398749" lon="11.132202"><ele>177.60000000000002</ele><time>2026-04-11T08:36:49.112Z</time></trkpt><trkpt lat="43.3986992" lon="11.1320642"><ele>177.8</ele><time>2026-04-11T08:36:50.111Z</time></trkpt><trkpt lat="43.3986471" lon="11.1319267"><ele>178.0</ele><time>2026-04-11T08:36:51.112Z</time></trkpt><trkpt lat="43.3985971" lon="11.1317927"><ele>178.0</ele><time>2026-04-11T08:36:52.112Z</time></trkpt><trkpt lat="43.3985478" lon="11.1316644"><ele>178.0</ele><time>2026-04-11T08:36:53.112Z</time></trkpt><trkpt lat="43.398494" lon="11.1315343"><ele>178.0</ele><time>2026-04-11T08:36:54.112Z</time></trkpt><trkpt lat="43.39844" lon="11.1313947"><ele>178.0</ele><time>2026-04-11T08:36:55.111Z</time></trkpt><trkpt lat="43.398383" lon="11.131247"><ele>177.75</ele><time>2026-04-11T08:36:56.112Z</time></trkpt><trkpt lat="43.3983171" lon="11.1310962"><ele>177.5</ele><time>2026-04-11T08:36:57.111Z</time></trkpt><trkpt lat="43.3982458" lon="11.1309492"><ele>177.25</ele><time>2026-04-11T08:36:58.112Z</time></trkpt><trkpt lat="43.3981702" lon="11.1308135"><ele>177.0</ele><time>2026-04-11T08:36:59.112Z</time></trkpt><trkpt lat="43.3980983" lon="11.1306971"><ele>177.0</ele><time>2026-04-11T08:37:00.112Z</time></trkpt><trkpt lat="43.3980349" lon="11.1305875"><ele>177.0</ele><time>2026-04-11T08:37:01.112Z</time></trkpt><trkpt lat="43.3979762" lon="11.1304799"><ele>177.0</ele><time>2026-04-11T08:37:02.112Z</time></trkpt><trkpt lat="43.3979176" lon="11.1303831"><ele>177.0</ele><time>2026-04-11T08:37:03.111Z</time></trkpt><trkpt lat="43.3978696" lon="11.1302829"><ele>177.0</ele><time>2026-04-11T08:37:04.111Z</time></trkpt><trkpt lat="43.3978444" lon="11.1301929"><ele>177.0</ele><time>2026-04-11T08:37:05.112Z</time></trkpt><trkpt lat="43.3978364" lon="11.130049"><ele>176.83333333333334</ele><time>2026-04-11T08:37:07.112Z</time></trkpt><trkpt lat="43.397853" lon="11.1298699"><ele>176.66666666666666</ele><time>2026-04-11T08:37:09.112Z</time></trkpt><trkpt lat="43.3978578" lon="11.1297764"><ele>176.5</ele><time>2026-04-11T08:37:10.112Z</time></trkpt><trkpt lat="43.3978561" lon="11.1296784"><ele>176.33333333333331</ele><time>2026-04-11T08:37:11.112Z</time></trkpt><trkpt lat="43.3978437" lon="11.1295659"><ele>176.16666666666666</ele><time>2026-04-11T08:37:12.112Z</time></trkpt><trkpt lat="43.3978246" lon="11.1294703"><ele>176.0</ele><time>2026-04-11T08:37:13.111Z</time></trkpt><trkpt lat="43.3978049" lon="11.1293372"><ele>176.0</ele><time>2026-04-11T08:37:15.112Z</time></trkpt><trkpt lat="43.3978171" lon="11.1294592"><ele>176.0</ele><time>2026-04-11T08:37:21.111Z</time></trkpt><trkpt lat="43.3978784" lon="11.1295537"><ele>176.0</ele><time>2026-04-11T08:37:23.111Z</time></trkpt><trkpt lat="43.3979537" lon="11.129547"><ele>176.0</ele><time>2026-04-11T08:37:25.112Z</time></trkpt><trkpt lat="43.3980517" lon="11.1294882"><ele>176.0</ele><time>2026-04-11T08:37:27.111Z</time></trkpt><trkpt lat="43.3981116" lon="11.1294615"><ele>176.0</ele><time>2026-04-11T08:37:28.111Z</time></trkpt><trkpt lat="43.3981721" lon="11.1294196"><ele>176.83333333333331</ele><time>2026-04-11T08:37:29.112Z</time></trkpt><trkpt lat="43.3982331" lon="11.1293597"><ele>177.66666666666666</ele><time>2026-04-11T08:37:30.111Z</time></trkpt><trkpt lat="43.3983001" lon="11.1292886"><ele>178.5</ele><time>2026-04-11T08:37:31.112Z</time></trkpt><trkpt lat="43.3983579" lon="11.1292061"><ele>179.33333333333334</ele><time>2026-04-11T08:37:32.111Z</time></trkpt><trkpt lat="43.3984259" lon="11.1291166"><ele>180.16666666666669</ele><time>2026-04-11T08:37:33.111Z</time></trkpt><trkpt lat="43.3984937" lon="11.1290306"><ele>181.0</ele><time>2026-04-11T08:37:34.112Z</time></trkpt><trkpt lat="43.3985535" lon="11.128945"><ele>181.83333333333334</ele><time>2026-04-11T08:37:35.112Z</time></trkpt><trkpt lat="43.398616" lon="11.1288683"><ele>182.66666666666669</ele><time>2026-04-11T08:37:36.112Z</time></trkpt><trkpt lat="43.3986812" lon="11.1287826"><ele>183.5</ele><time>2026-04-11T08:37:37.112Z</time></trkpt><trkpt lat="43.3987503" lon="11.1287083"><ele>184.33333333333334</ele><time>2026-04-11T08:37:38.112Z</time></trkpt><trkpt lat="43.39882" lon="11.1286403"><ele>185.16666666666666</ele><time>2026-04-11T08:37:39.112Z</time></trkpt><trkpt lat="43.3988846" lon="11.1285716"><ele>186.0</ele><time>2026-04-11T08:37:40.111Z</time></trkpt><trkpt lat="43.3989474" lon="11.1285157"><ele>186.83333333333334</ele><time>2026-04-11T08:37:41.112Z</time></trkpt><trkpt lat="43.3990131" lon="11.1284669"><ele>187.66666666666666</ele><time>2026-04-11T08:37:42.111Z</time></trkpt><trkpt lat="43.3990791" lon="11.1284042"><ele>188.5</ele><time>2026-04-11T08:37:43.112Z</time></trkpt><trkpt lat="43.3991492" lon="11.1283354"><ele>189.33333333333331</ele><time>2026-04-11T08:37:44.111Z</time></trkpt><trkpt lat="43.3992241" lon="11.1282658"><ele>190.16666666666666</ele><time>2026-04-11T08:37:45.112Z</time></trkpt><trkpt lat="43.3992889" lon="11.1281876"><ele>191.0</ele><time>2026-04-11T08:37:46.112Z</time></trkpt><trkpt lat="43.3993449" lon="11.1280944"><ele>191.66666666666666</ele><time>2026-04-11T08:37:47.111Z</time></trkpt><trkpt lat="43.3993951" lon="11.1279866"><ele>192.33333333333331</ele><time>2026-04-11T08:37:48.112Z</time></trkpt><trkpt lat="43.399439" lon="11.1278862"><ele>193.0</ele><time>2026-04-11T08:37:49.112Z</time></trkpt><trkpt lat="43.3994976" lon="11.1278001"><ele>193.66666666666666</ele><time>2026-04-11T08:37:50.112Z</time></trkpt><trkpt lat="43.3995617" lon="11.1277243"><ele>194.33333333333334</ele><time>2026-04-11T08:37:51.112Z</time></trkpt><trkpt lat="43.3996259" lon="11.127664"><ele>195.0</ele><time>2026-04-11T08:37:52.112Z</time></trkpt><trkpt lat="43.3996848" lon="11.1276163"><ele>196.0</ele><time>2026-04-11T08:37:53.111Z</time></trkpt><trkpt lat="43.3997792" lon="11.1275551"><ele>197.0</ele><time>2026-04-11T08:37:55.111Z</time></trkpt><trkpt lat="43.3997964" lon="11.1274366"><ele>198.0</ele><time>2026-04-11T08:37:59.112Z</time></trkpt><trkpt lat="43.3997706" lon="11.1273116"><ele>199.0</ele><time>2026-04-11T08:38:01.112Z</time></trkpt><trkpt lat="43.3997474" lon="11.1271723"><ele>200.0</ele><time>2026-04-11T08:38:03.111Z</time></trkpt><trkpt lat="43.399708" lon="11.1270118"><ele>200.2</ele><time>2026-04-11T08:38:05.112Z</time></trkpt><trkpt lat="43.3996895" lon="11.1268492"><ele>200.4</ele><time>2026-04-11T08:38:07.112Z</time></trkpt><trkpt lat="43.3997049" lon="11.1266758"><ele>200.60000000000002</ele><time>2026-04-11T08:38:09.112Z</time></trkpt><trkpt lat="43.3997107" lon="11.1265894"><ele>200.8</ele><time>2026-04-11T08:38:10.112Z</time></trkpt><trkpt lat="43.3997131" lon="11.1264892"><ele>201.0</ele><time>2026-04-11T08:38:11.112Z</time></trkpt><trkpt lat="43.399714" lon="11.1263824"><ele>201.16666666666666</ele><time>2026-04-11T08:38:12.111Z</time></trkpt><trkpt lat="43.3997018" lon="11.1262651"><ele>201.33333333333331</ele><time>2026-04-11T08:38:13.112Z</time></trkpt><trkpt lat="43.3996802" lon="11.1261661"><ele>201.5</ele><time>2026-04-11T08:38:14.112Z</time></trkpt><trkpt lat="43.39964" lon="11.1260664"><ele>201.66666666666666</ele><time>2026-04-11T08:38:15.111Z</time></trkpt><trkpt lat="43.3995844" lon="11.125954"><ele>201.83333333333331</ele><time>2026-04-11T08:38:16.112Z</time></trkpt><trkpt lat="43.3995331" lon="11.1258523"><ele>202.0</ele><time>2026-04-11T08:38:17.111Z</time></trkpt><trkpt lat="43.3994859" lon="11.1257498"><ele>201.99999999999997</ele><time>2026-04-11T08:38:18.112Z</time></trkpt><trkpt lat="43.3994426" lon="11.1256471"><ele>202.0</ele><time>2026-04-11T08:38:19.112Z</time></trkpt><trkpt lat="43.399406" lon="11.1255588"><ele>202.0</ele><time>2026-04-11T08:38:20.112Z</time></trkpt><trkpt lat="43.3993708" lon="11.1254789"><ele>202.0</ele><time>2026-04-11T08:38:21.112Z</time></trkpt><trkpt lat="43.3993429" lon="11.125395"><ele>201.99999999999997</ele><time>2026-04-11T08:38:22.112Z</time></trkpt><trkpt lat="43.3993106" lon="11.125295"><ele>202.0</ele><time>2026-04-11T08:38:23.112Z</time></trkpt><trkpt lat="43.3992837" lon="11.125185"><ele>201.99999999999997</ele><time>2026-04-11T08:38:24.112Z</time></trkpt><trkpt lat="43.3992618" lon="11.1250711"><ele>202.0</ele><time>2026-04-11T08:38:25.111Z</time></trkpt><trkpt lat="43.3992568" lon="11.1249622"><ele>202.0</ele><time>2026-04-11T08:38:26.112Z</time></trkpt><trkpt lat="43.3992655" lon="11.1248617"><ele>202.0</ele><time>2026-04-11T08:38:27.112Z</time></trkpt><trkpt lat="43.399274" lon="11.124764"><ele>201.99999999999997</ele><time>2026-04-11T08:38:28.111Z</time></trkpt><trkpt lat="43.399283" lon="11.1246546"><ele>202.0</ele><time>2026-04-11T08:38:29.112Z</time></trkpt><trkpt lat="43.399288" lon="11.1245483"><ele>201.2</ele><time>2026-04-11T08:38:30.112Z</time></trkpt><trkpt lat="43.3992946" lon="11.1244532"><ele>200.39999999999998</ele><time>2026-04-11T08:38:31.112Z</time></trkpt><trkpt lat="43.3992998" lon="11.1242865"><ele>199.60000000000002</ele><time>2026-04-11T08:38:33.112Z</time></trkpt><trkpt lat="43.3992904" lon="11.1241412"><ele>198.8</ele><time>2026-04-11T08:38:35.112Z</time></trkpt><trkpt lat="43.3992995" lon="11.1240124"><ele>198.0</ele><time>2026-04-11T08:38:37.112Z</time></trkpt><trkpt lat="43.3993697" lon="11.1239114"><ele>196.5</ele><time>2026-04-11T08:38:39.111Z</time></trkpt><trkpt lat="43.3994808" lon="11.1239337"><ele>195.0</ele><time>2026-04-11T08:38:41.111Z</time></trkpt><trkpt lat="43.3995401" lon="11.1239653"><ele>193.5</ele><time>2026-04-11T08:38:42.112Z</time></trkpt><trkpt lat="43.3996119" lon="11.1240047"><ele>192.0</ele><time>2026-04-11T08:38:43.111Z</time></trkpt><trkpt lat="43.3996818" lon="11.1240431"><ele>190.5</ele><time>2026-04-11T08:38:44.112Z</time></trkpt><trkpt lat="43.3997611" lon="11.1240818"><ele>189.0</ele><time>2026-04-11T08:38:45.111Z</time></trkpt><trkpt lat="43.399844" lon="11.1241213"><ele>189.0</ele><time>2026-04-11T08:38:46.112Z</time></trkpt><trkpt lat="43.3999263" lon="11.1241578"><ele>189.0</ele><time>2026-04-11T08:38:47.112Z</time></trkpt><trkpt lat="43.4000023" lon="11.1242001"><ele>189.0</ele><time>2026-04-11T08:38:48.111Z</time></trkpt><trkpt lat="43.4000696" lon="11.1242327"><ele>189.0</ele><time>2026-04-11T08:38:49.112Z</time></trkpt><trkpt lat="43.4001396" lon="11.1242718"><ele>189.0</ele><time>2026-04-11T08:38:50.112Z</time></trkpt><trkpt lat="43.400208" lon="11.1243128"><ele>189.0</ele><time>2026-04-11T08:38:51.112Z</time></trkpt><trkpt lat="43.4003224" lon="11.1243031"><ele>189.0</ele><time>2026-04-11T08:38:53.111Z</time></trkpt><trkpt lat="43.4003785" lon="11.1241562"><ele>189.0</ele><time>2026-04-11T08:38:55.112Z</time></trkpt><trkpt lat="43.4004001" lon="11.1240591"><ele>189.0</ele><time>2026-04-11T08:38:56.111Z</time></trkpt><trkpt lat="43.4004175" lon="11.1239416"><ele>189.0</ele><time>2026-04-11T08:38:57.112Z</time></trkpt><trkpt lat="43.4004405" lon="11.1238119"><ele>189.0</ele><time>2026-04-11T08:38:58.112Z</time></trkpt><trkpt lat="43.4004645" lon="11.1236828"><ele>189.5</ele><time>2026-04-11T08:38:59.112Z</time></trkpt><trkpt lat="43.4004871" lon="11.1235603"><ele>190.0</ele><time>2026-04-11T08:39:00.112Z</time></trkpt><trkpt lat="43.4005065" lon="11.1234458"><ele>190.5</ele><time>2026-04-11T08:39:01.111Z</time></trkpt><trkpt lat="43.4005271" lon="11.1233401"><ele>191.0</ele><time>2026-04-11T08:39:02.111Z</time></trkpt><trkpt lat="43.4005424" lon="11.1232432"><ele>191.5</ele><time>2026-04-11T08:39:03.112Z</time></trkpt><trkpt lat="43.4005618" lon="11.1231165"><ele>192.0</ele><time>2026-04-11T08:39:05.111Z</time></trkpt><trkpt lat="43.4005352" lon="11.1230326"><ele>191.99999999999997</ele><time>2026-04-11T08:39:08.112Z</time></trkpt><trkpt lat="43.4004774" lon="11.1229916"><ele>192.0</ele><time>2026-04-11T08:39:10.111Z</time></trkpt><trkpt lat="43.4004127" lon="11.1229661"><ele>192.0</ele><time>2026-04-11T08:39:24.112Z</time></trkpt><trkpt lat="43.4003426" lon="11.1229604"><ele>192.0</ele><time>2026-04-11T08:39:27.112Z</time></trkpt><trkpt lat="43.4002836" lon="11.1229032"><ele>192.0</ele><time>2026-04-11T08:39:31.112Z</time></trkpt><trkpt lat="43.4003645" lon="11.1229358"><ele>191.99999999999997</ele><time>2026-04-11T08:39:52.112Z</time></trkpt><trkpt lat="43.4004467" lon="11.1229729"><ele>192.0</ele><time>2026-04-11T08:39:54.112Z</time></trkpt><trkpt lat="43.4005137" lon="11.123017"><ele>192.0</ele><time>2026-04-11T08:39:56.112Z</time></trkpt><trkpt lat="43.4005377" lon="11.1231084"><ele>192.0</ele><time>2026-04-11T08:39:58.112Z</time></trkpt><trkpt lat="43.4005119" lon="11.1232909"><ele>192.0</ele><time>2026-04-11T08:40:00.111Z</time></trkpt><trkpt lat="43.4004857" lon="11.1234005"><ele>192.0</ele><time>2026-04-11T08:40:01.111Z</time></trkpt><trkpt lat="43.4004622" lon="11.1235185"><ele>192.0</ele><time>2026-04-11T08:40:02.112Z</time></trkpt><trkpt lat="43.4004368" lon="11.1236521"><ele>191.5</ele><time>2026-04-11T08:40:03.112Z</time></trkpt><trkpt lat="43.4004138" lon="11.1237972"><ele>191.0</ele><time>2026-04-11T08:40:04.112Z</time></trkpt><trkpt lat="43.4003874" lon="11.1239336"><ele>190.5</ele><time>2026-04-11T08:40:05.111Z</time></trkpt><trkpt lat="43.4003732" lon="11.124052"><ele>190.0</ele><time>2026-04-11T08:40:06.112Z</time></trkpt><trkpt lat="43.4003563" lon="11.1241579"><ele>189.5</ele><time>2026-04-11T08:40:07.112Z</time></trkpt><trkpt lat="43.4003365" lon="11.1242415"><ele>189.0</ele><time>2026-04-11T08:40:08.111Z</time></trkpt><trkpt lat="43.4002485" lon="11.1243039"><ele>189.0</ele><time>2026-04-11T08:40:10.112Z</time></trkpt><trkpt lat="43.4001819" lon="11.1242791"><ele>189.0</ele><time>2026-04-11T08:40:11.112Z</time></trkpt><trkpt lat="43.4000998" lon="11.1242316"><ele>189.0</ele><time>2026-04-11T08:40:12.111Z</time></trkpt><trkpt lat="43.3999925" lon="11.1241947"><ele>189.0</ele><time>2026-04-11T08:40:13.111Z</time></trkpt><trkpt lat="43.3998916" lon="11.1241396"><ele>189.0</ele><time>2026-04-11T08:40:14.112Z</time></trkpt><trkpt lat="43.3997827" lon="11.1240897"><ele>188.66666666666666</ele><time>2026-04-11T08:40:15.112Z</time></trkpt><trkpt lat="43.3996798" lon="11.1240399"><ele>188.33333333333334</ele><time>2026-04-11T08:40:16.112Z</time></trkpt><trkpt lat="43.3995912" lon="11.1239904"><ele>188.0</ele><time>2026-04-11T08:40:17.111Z</time></trkpt><trkpt lat="43.3995155" lon="11.1239462"><ele>187.66666666666669</ele><time>2026-04-11T08:40:18.112Z</time></trkpt><trkpt lat="43.3994355" lon="11.1239143"><ele>187.33333333333334</ele><time>2026-04-11T08:40:19.112Z</time></trkpt><trkpt lat="43.3993665" lon="11.1239042"><ele>187.0</ele><time>2026-04-11T08:40:20.112Z</time></trkpt><trkpt lat="43.3992852" lon="11.1239737"><ele>189.2</ele><time>2026-04-11T08:40:22.112Z</time></trkpt><trkpt lat="43.3992861" lon="11.1241486"><ele>191.39999999999998</ele><time>2026-04-11T08:40:24.111Z</time></trkpt><trkpt lat="43.3992873" lon="11.1242686"><ele>193.60000000000002</ele><time>2026-04-11T08:40:25.111Z</time></trkpt><trkpt lat="43.3992839" lon="11.1243964"><ele>195.8</ele><time>2026-04-11T08:40:26.112Z</time></trkpt><trkpt lat="43.3992792" lon="11.1245289"><ele>198.0</ele><time>2026-04-11T08:40:27.112Z</time></trkpt><trkpt lat="43.3992693" lon="11.1246759"><ele>198.0</ele><time>2026-04-11T08:40:28.112Z</time></trkpt><trkpt lat="43.3992559" lon="11.1248009"><ele>198.0</ele><time>2026-04-11T08:40:29.112Z</time></trkpt><trkpt lat="43.3992618" lon="11.1249374"><ele>198.0</ele><time>2026-04-11T08:40:30.112Z</time></trkpt><trkpt lat="43.3992599" lon="11.1250647"><ele>198.0</ele><time>2026-04-11T08:40:31.111Z</time></trkpt><trkpt lat="43.3992813" lon="11.1251923"><ele>198.0</ele><time>2026-04-11T08:40:32.112Z</time></trkpt><trkpt lat="43.3993192" lon="11.1253275"><ele>198.8</ele><time>2026-04-11T08:40:33.112Z</time></trkpt><trkpt lat="43.399368" lon="11.1254585"><ele>199.60000000000002</ele><time>2026-04-11T08:40:34.111Z</time></trkpt><trkpt lat="43.3994165" lon="11.1255762"><ele>200.39999999999998</ele><time>2026-04-11T08:40:35.111Z</time></trkpt><trkpt lat="43.399475" lon="11.125702"><ele>201.2</ele><time>2026-04-11T08:40:36.111Z</time></trkpt><trkpt lat="43.3995292" lon="11.125809"><ele>202.0</ele><time>2026-04-11T08:40:37.112Z</time></trkpt><trkpt lat="43.3995872" lon="11.1259148"><ele>201.99999999999997</ele><time>2026-04-11T08:40:38.112Z</time></trkpt><trkpt lat="43.3996355" lon="11.1260219"><ele>202.0</ele><time>2026-04-11T08:40:39.112Z</time></trkpt><trkpt lat="43.3996748" lon="11.1261244"><ele>202.0</ele><time>2026-04-11T08:40:40.112Z</time></trkpt><trkpt lat="43.3996981" lon="11.1262286"><ele>202.0</ele><time>2026-04-11T08:40:41.112Z</time></trkpt><trkpt lat="43.3997061" lon="11.1263515"><ele>201.99999999999997</ele><time>2026-04-11T08:40:42.112Z</time></trkpt><trkpt lat="43.3997037" lon="11.1264923"><ele>202.0</ele><time>2026-04-11T08:40:43.111Z</time></trkpt><trkpt lat="43.3997106" lon="11.12663"><ele>201.83333333333331</ele><time>2026-04-11T08:40:44.112Z</time></trkpt><trkpt lat="43.3997011" lon="11.1267475"><ele>201.66666666666666</ele><time>2026-04-11T08:40:45.111Z</time></trkpt><trkpt lat="43.3996959" lon="11.1268626"><ele>201.5</ele><time>2026-04-11T08:40:46.111Z</time></trkpt><trkpt lat="43.3997077" lon="11.1269715"><ele>201.33333333333331</ele><time>2026-04-11T08:40:47.112Z</time></trkpt><trkpt lat="43.3997321" lon="11.1270906"><ele>201.16666666666666</ele><time>2026-04-11T08:40:48.112Z</time></trkpt><trkpt lat="43.3997569" lon="11.1272002"><ele>201.0</ele><time>2026-04-11T08:40:49.112Z</time></trkpt><trkpt lat="43.3997775" lon="11.1273035"><ele>201.0</ele><time>2026-04-11T08:40:50.112Z</time></trkpt><trkpt lat="43.3997996" lon="11.1273933"><ele>201.0</ele><time>2026-04-11T08:40:51.112Z</time></trkpt><trkpt lat="43.3997957" lon="11.1275387"><ele>201.0</ele><time>2026-04-11T08:40:53.111Z</time></trkpt><trkpt lat="43.3997156" lon="11.127625"><ele>201.0</ele><time>2026-04-11T08:40:55.112Z</time></trkpt><trkpt lat="43.3996496" lon="11.1276778"><ele>201.0</ele><time>2026-04-11T08:40:56.111Z</time></trkpt><trkpt lat="43.3995838" lon="11.1277284"><ele>201.0</ele><time>2026-04-11T08:40:57.112Z</time></trkpt><trkpt lat="43.3995282" lon="11.127783"><ele>200.0</ele><time>2026-04-11T08:40:58.112Z</time></trkpt><trkpt lat="43.3994728" lon="11.1278464"><ele>199.0</ele><time>2026-04-11T08:40:59.112Z</time></trkpt><trkpt lat="43.3994316" lon="11.1279249"><ele>198.0</ele><time>2026-04-11T08:41:00.112Z</time></trkpt><trkpt lat="43.3993923" lon="11.1280136"><ele>197.0</ele><time>2026-04-11T08:41:01.111Z</time></trkpt><trkpt lat="43.3993484" lon="11.1281001"><ele>196.0</ele><time>2026-04-11T08:41:02.111Z</time></trkpt><trkpt lat="43.3992993" lon="11.1281775"><ele>195.0</ele><time>2026-04-11T08:41:03.112Z</time></trkpt><trkpt lat="43.3992382" lon="11.1282496"><ele>194.42857142857142</ele><time>2026-04-11T08:41:04.112Z</time></trkpt><trkpt lat="43.3991705" lon="11.1283096"><ele>193.85714285714283</ele><time>2026-04-11T08:41:05.112Z</time></trkpt><trkpt lat="43.3991001" lon="11.1283707"><ele>193.28571428571428</ele><time>2026-04-11T08:41:06.111Z</time></trkpt><trkpt lat="43.3990315" lon="11.1284268"><ele>192.71428571428572</ele><time>2026-04-11T08:41:07.112Z</time></trkpt><trkpt lat="43.3989731" lon="11.1284779"><ele>192.14285714285714</ele><time>2026-04-11T08:41:08.112Z</time></trkpt><trkpt lat="43.3989176" lon="11.128538"><ele>191.57142857142858</ele><time>2026-04-11T08:41:09.111Z</time></trkpt><trkpt lat="43.3988658" lon="11.1285936"><ele>191.0</ele><time>2026-04-11T08:41:10.112Z</time></trkpt><trkpt lat="43.3988057" lon="11.128651"><ele>190.16666666666666</ele><time>2026-04-11T08:41:11.111Z</time></trkpt><trkpt lat="43.3987455" lon="11.1287164"><ele>189.33333333333331</ele><time>2026-04-11T08:41:12.112Z</time></trkpt><trkpt lat="43.3986852" lon="11.1287799"><ele>188.5</ele><time>2026-04-11T08:41:13.111Z</time></trkpt><trkpt lat="43.3986283" lon="11.128844"><ele>187.66666666666666</ele><time>2026-04-11T08:41:14.111Z</time></trkpt><trkpt lat="43.3985758" lon="11.1289093"><ele>186.83333333333334</ele><time>2026-04-11T08:41:15.111Z</time></trkpt><trkpt lat="43.3985124" lon="11.1289807"><ele>186.0</ele><time>2026-04-11T08:41:16.112Z</time></trkpt><trkpt lat="43.3984535" lon="11.129056"><ele>185.16666666666666</ele><time>2026-04-11T08:41:17.112Z</time></trkpt><trkpt lat="43.398394" lon="11.1291353"><ele>184.33333333333334</ele><time>2026-04-11T08:41:18.112Z</time></trkpt><trkpt lat="43.3983315" lon="11.1292134"><ele>183.5</ele><time>2026-04-11T08:41:19.112Z</time></trkpt><trkpt lat="43.3982764" lon="11.1292936"><ele>182.66666666666669</ele><time>2026-04-11T08:41:20.111Z</time></trkpt><trkpt lat="43.3982276" lon="11.1293665"><ele>181.83333333333334</ele><time>2026-04-11T08:41:21.112Z</time></trkpt><trkpt lat="43.3981729" lon="11.1294274"><ele>181.0</ele><time>2026-04-11T08:41:22.112Z</time></trkpt><trkpt lat="43.3981157" lon="11.1294703"><ele>181.0</ele><time>2026-04-11T08:41:23.111Z</time></trkpt><trkpt lat="43.3980569" lon="11.1295059"><ele>181.0</ele><time>2026-04-11T08:41:24.111Z</time></trkpt><trkpt lat="43.3979654" lon="11.1295674"><ele>181.0</ele><time>2026-04-11T08:41:26.112Z</time></trkpt><trkpt lat="43.3978901" lon="11.1295699"><ele>181.0</ele><time>2026-04-11T08:41:28.111Z</time></trkpt><trkpt lat="43.3978224" lon="11.129496"><ele>181.0</ele><time>2026-04-11T08:41:30.112Z</time></trkpt><trkpt lat="43.3977735" lon="11.1293227"><ele>176.0</ele><time>2026-04-11T08:41:32.111Z</time></trkpt><trkpt lat="43.3977454" lon="11.1292036"><ele>176.0</ele><time>2026-04-11T08:41:33.112Z</time></trkpt><trkpt lat="43.3977175" lon="11.1290867"><ele>176.0</ele><time>2026-04-11T08:41:34.112Z</time></trkpt><trkpt lat="43.3976984" lon="11.1289751"><ele>177.0</ele><time>2026-04-11T08:41:35.112Z</time></trkpt><trkpt lat="43.3976946" lon="11.1288792"><ele>177.0</ele><time>2026-04-11T08:41:36.112Z</time></trkpt><trkpt lat="43.3976989" lon="11.1287569"><ele>177.0</ele><time>2026-04-11T08:41:38.112Z</time></trkpt></trkseg></trk></gpx>